# Wetter Temperatur Luftdruck Luftfeuchtigkeit Sichtweite Windgeschwindigkeit Windrichtung Zeit
1 Clear 4 1027 55 0 1.79 90 02:46 05.04.2020
2 Clear 4 1027 54 0 2.24 90 01:45 05.04.2020
3 Clear 4 1027 53 0 2.68 90 01:23 05.04.2020
4 Clear 4 1027 53 0 3.58 45 00:42 05.04.2020
5 Clear 5 1027 53 0 1.79 135 00:21 05.04.2020
6 Clear 5 1027 54 0 0.89 135 23:42 04.04.2020
7 Clear 5 1027 54 0 0.89 135 23:42 04.04.2020
8 Clear 5 1027 54 0 1.79 90 23:23 04.04.2020
9 Clear 6 1027 54 0 1.79 90 22:57 04.04.2020
10 Clear 6 1027 54 0 2.24 90 22:39 04.04.2020
11 Clear 6 1027 54 0 1.34 90 22:21 04.04.2020
12 Clear 6 1027 56 0 1.79 135 21:58 04.04.2020
13 Clear 5 1027 58 0 0.89 90 21:39 04.04.2020
14 Clear 6 1027 58 0 0.89 90 21:19 04.04.2020
15 Clear 7 1027 58 0 0.89 45 20:58 04.04.2020
16 Clear 7 1027 60 0 0.89 45 20:39 04.04.2020
17 Clear 8 1026 58 0 0.89 45 20:20 04.04.2020
18 Clear 9 1026 50 0 3.04 111 19:56 04.04.2020
19 Clear 10 1026 40 0 3.04 111 19:36 04.04.2020
20 Clear 10 1026 38 0 0.89 45 19:18 04.04.2020
21 Clear 11 1026 36 0 0.45 90 18:55 04.04.2020
22 Clear 12 1026 35 0 1.79 90 18:37 04.04.2020
23 Clear 12 1026 35 0 0.89 45 18:18 04.04.2020
24 Clear 12 1026 40 0 1.88 85 17:40 04.04.2020
25 Clear 12 1026 39 0 0.89 45 17:20 04.04.2020
26 Clear 13 1026 37 0 0.89 338 16:55 04.04.2020
27 Clear 12 1026 34 10000 3.1 100 16:37 04.04.2020
28 Clear 12 1026 34 10000 3.1 100 16:18 04.04.2020
29 Clear 12 1026 34 10000 3.1 100 15:40 04.04.2020
30 Clear 12 1026 34 10000 3.1 100 15:22 04.04.2020
31 Clear 11 1026 34 10000 1.5 0 14:57 04.04.2020
32 Clear 11 1026 40 10000 2.6 0 14:39 04.04.2020
33 Clear 10 1026 40 10000 1 0 14:20 04.04.2020
34 Clear 10 1026 40 10000 1 0 13:55 04.04.2020
35 Clear 11 1025 37 10000 2.6 270 13:37 04.04.2020
36 Clear 10 1026 37 10000 1.5 0 13:18 04.04.2020
37 Clear 10 1026 46 10000 2.1 0 12:43 04.04.2020
38 Clouds 10 1026 42 10000 2.1 270 12:23 04.04.2020
39 Clouds 8 1026 42 10000 2.1 270 11:55 04.04.2020
40 Clear 8 1026 49 10000 2.1 0 11:36 04.04.2020
41 Clear 8 1025 52 10000 2.6 250 11:18 04.04.2020
42 Clear 8 1025 52 10000 2.6 250 10:55 04.04.2020
43 Clear 7 1025 49 10000 2.6 290 10:37 04.04.2020
44 Clear 7 1025 56 10000 2.1 250 10:18 04.04.2020
45 Clear 5 1024 61 0 0.89 180 09:44 04.04.2020
46 Clear 5 1024 59 0 0.89 225 09:25 04.04.2020
47 Clouds 4 1022 79 0 1.13 264 08:58 04.04.2020
48 Clouds 3 1021 88 0 1.13 264 08:38 04.04.2020
49 Clouds 2 1025 84 0 1.13 264 08:19 04.04.2020
50 Clouds 2 1023 81 0 0.45 0 07:40 04.04.2020
51 Clouds 1 1023 81 0 0.45 0 07:22 04.04.2020
52 Clouds 1 1022 81 0 0.89 0 06:46 04.04.2020
53 Clouds 2 1022 81 0 0.73 293 06:18 04.04.2020
54 Clouds 2 1022 81 0 0.73 293 05:40 04.04.2020
55 Clouds 2 1022 81 0 0.73 293 05:22 04.04.2020
56 Clouds 2 1021 80 0 0.45 45 04:25 04.04.2020
57 Clouds 2 1021 80 0 0.73 293 03:47 04.04.2020
58 Clouds 3 1020 76 0 0.45 0 02:49 04.04.2020
59 Rain 3 1020 75 0 1.69 306 02:30 04.04.2020
60 Rain 4 1020 72 0 1.69 306 01:51 04.04.2020
61 Rain 5 1020 71 0 1.79 225 01:22 04.04.2020
62 Rain 5 1020 71 0 1.79 225 00:47 04.04.2020
63 Rain 5 1020 70 0 1.34 225 00:27 04.04.2020
64 Rain 6 1019 69 0 1.79 225 23:39 03.04.2020
65 Rain 6 1019 69 0 1.79 225 23:39 03.04.2020
66 Rain 6 1019 68 0 1.79 225 23:21 03.04.2020
67 Rain 6 1019 68 0 1.34 225 22:56 03.04.2020
68 Rain 5 1019 69 0 0.89 225 22:38 03.04.2020
69 Rain 6 1016 69 0 0.94 271 22:18 03.04.2020
70 Rain 6 1019 68 0 0.94 271 21:43 03.04.2020
71 Rain 6 1015 71 0 0.94 271 21:23 03.04.2020
72 Rain 7 1017 61 0 0.45 225 20:56 03.04.2020
73 Rain 7 1017 61 0 0.45 225 20:37 03.04.2020
74 Rain 7 1016 42 10000 4.6 290 20:19 03.04.2020
75 Rain 7 1016 42 10000 4.6 290 19:56 03.04.2020
76 Rain 8 1016 42 10000 4.6 290 19:38 03.04.2020
77 Rain 8 1016 42 10000 4.6 290 19:20 03.04.2020
78 Rain 8 1016 42 10000 4.6 290 18:58 03.04.2020
79 Rain 9 1016 53 0 1.79 315 18:40 03.04.2020
80 Rain 9 1016 53 0 1.79 315 18:22 03.04.2020
81 Clouds 9 1016 55 0 2.24 315 17:54 03.04.2020
82 Clouds 9 1015 39 10000 6.2 300 17:36 03.04.2020
83 Clouds 9 1015 39 10000 6.2 300 17:18 03.04.2020
84 Clouds 9 1015 39 10000 6.2 300 16:42 03.04.2020
85 Clouds 9 1015 52 0 0.89 0 16:21 03.04.2020
86 Clouds 9 1014 39 10000 7.2 300 15:58 03.04.2020
87 Clouds 9 1014 39 10000 7.2 300 15:39 03.04.2020
88 Clouds 9 1014 39 10000 7.2 300 15:19 03.04.2020
89 Clouds 9 1015 52 0 1.79 315 14:55 03.04.2020
90 Clouds 9 1015 52 0 1.79 315 14:55 03.04.2020
91 Clouds 9 1014 42 10000 6.7 300 14:37 03.04.2020
92 Clouds 9 1014 42 10000 6.7 300 14:18 03.04.2020
93 Clouds 9 1014 42 10000 6.7 300 13:42 03.04.2020
94 Clouds 9 1014 42 10000 6.7 300 13:24 03.04.2020
95 Clouds 8 1014 52 10000 6.7 270 12:44 03.04.2020
96 Clouds 8 1013 52 10000 5.7 280 12:21 03.04.2020
97 Clouds 7 1013 52 10000 5.7 280 11:57 03.04.2020
98 Clouds 7 1013 58 10000 5.1 290 11:39 03.04.2020
99 Clouds 7 1013 58 10000 5.1 290 11:21 03.04.2020
100 Clouds 6 1013 56 10000 6.2 280 10:59 03.04.2020
101 Clouds 6 1013 56 10000 6.7 290 10:39 03.04.2020
102 Clouds 6 1012 60 10000 6.2 280 10:20 03.04.2020
103 Clouds 6 1012 60 10000 6.2 280 10:20 03.04.2020
104 Clouds 6 1012 60 10000 6.2 280 09:59 03.04.2020
105 Clouds 5 1012 60 10000 5.7 280 09:40 03.04.2020
106 Clouds 5 1012 60 10000 5.7 280 09:21 03.04.2020
107 Rain 4 1013 81 0 3.61 275 08:56 03.04.2020
108 Rain 4 1012 81 0 0.45 90 08:38 03.04.2020
109 Rain 4 1013 82 0 3.61 275 08:20 03.04.2020
110 Rain 4 1012 82 0 3.61 275 07:46 03.04.2020
111 Rain 5 1008 89 0 3.61 275 07:28 03.04.2020
112 Rain 5 1011 82 0 3.61 275 06:41 03.04.2020
113 Rain 5 1011 88 0 3.61 275 06:22 03.04.2020
114 Rain 5 1011 83 0 1.34 90 05:39 03.04.2020
115 Rain 5 1009 76 0 4.02 225 03:42 03.04.2020
116 Rain 5 1009 72 0 5.81 225 02:56 03.04.2020
117 Rain 6 1009 71 0 5.81 225 02:18 03.04.2020
118 Rain 6 1010 65 0 3.58 180 01:22 03.04.2020
119 Rain 5 1010 64 0 4.92 225 00:36 03.04.2020
120 Clouds 5 1010 64 0 3.58 225 00:18 03.04.2020
121 Clouds 5 1010 65 0 1.79 225 23:42 02.04.2020
122 Clouds 5 1009 63 0 2.24 225 23:23 02.04.2020
123 Clouds 5 1010 63 0 1.79 225 22:58 02.04.2020
124 Clouds 5 1010 63 0 4.92 225 22:38 02.04.2020
125 Clouds 6 1010 62 0 4.02 225 22:20 02.04.2020
126 Clouds 6 1010 62 0 4.92 225 21:39 02.04.2020
127 Clouds 6 1010 62 0 4.92 225 21:39 02.04.2020
128 Clouds 6 1010 63 0 4.47 225 21:20 02.04.2020
129 Clouds 6 1010 63 0 3.58 225 20:58 02.04.2020
130 Clouds 6 1010 62 0 4.47 225 20:40 02.04.2020
131 Clouds 7 1006 65 0 1.79 261 20:21 02.04.2020
132 Clouds 7 1010 62 0 4.94 263 19:44 02.04.2020
133 Clouds 7 1010 60 0 4.94 263 19:21 02.04.2020
134 Clouds 8 1009 52 10000 7.7 260 18:59 02.04.2020
135 Clouds 8 1009 52 10000 7.7 260 18:39 02.04.2020
136 Clouds 8 1009 52 10000 7.7 260 18:39 02.04.2020
137 Clouds 8 1009 52 10000 7.7 260 18:20 02.04.2020
138 Clouds 9 1009 52 10000 7.7 260 17:56 02.04.2020
139 Clouds 9 1009 52 10000 7.7 260 17:38 02.04.2020
140 Clouds 9 1009 52 10000 8.7 260 17:20 02.04.2020
141 Clouds 9 1009 52 10000 8.7 260 16:55 02.04.2020
142 Clouds 9 1010 49 10000 8.2 260 16:37 02.04.2020
143 Clouds 9 1010 45 10000 7.7 270 16:19 02.04.2020
144 Clouds 9 1010 49 10000 7.2 270 15:45 02.04.2020
145 Clouds 9 1010 49 10000 7.2 270 15:22 02.04.2020
146 Clouds 9 1011 52 10000 6.7 260 14:59 02.04.2020
147 Clouds 8 1011 52 10000 6.7 260 14:40 02.04.2020
148 Clouds 8 1011 49 10000 5.1 260 14:20 02.04.2020
149 Clouds 8 1011 49 10000 5.1 260 13:58 02.04.2020
150 Clouds 8 1011 49 10000 5.1 260 13:39 02.04.2020
151 Clouds 7 1012 49 10000 6.2 270 13:21 02.04.2020
152 Clouds 8 1012 49 10000 6.2 270 12:56 02.04.2020
153 Clouds 8 1012 49 10000 6.2 270 12:56 02.04.2020
154 Clouds 7 1012 52 10000 5.1 250 12:37 02.04.2020
155 Clouds 7 1012 52 10000 6.2 270 12:19 02.04.2020
156 Clouds 7 1012 52 10000 6.2 270 11:57 02.04.2020
157 Clouds 7 1012 52 10000 5.7 260 11:38 02.04.2020
158 Clouds 6 1013 58 10000 4.6 250 11:19 02.04.2020
159 Clouds 6 1013 58 10000 4.6 250 11:19 02.04.2020
160 Clouds 6 1013 58 10000 4.6 250 10:55 02.04.2020
161 Clouds 6 1013 58 10000 4.6 250 10:55 02.04.2020
162 Clouds 6 1013 58 10000 4.6 240 10:37 02.04.2020
163 Clouds 6 1013 58 10000 4.6 250 10:18 02.04.2020
164 Clouds 4 1013 58 10000 4.1 250 09:43 02.04.2020
165 Clouds 4 1013 60 10000 4.1 250 09:25 02.04.2020
166 Clouds 2 1014 83 0 1.79 225 08:59 02.04.2020
167 Clouds 1 1013 82 10000 3.1 250 08:40 02.04.2020
168 Clouds 1 1013 82 10000 3.1 250 08:22 02.04.2020
169 Clouds 0 1013 82 10000 2.6 260 07:45 02.04.2020
170 Clouds 0 1013 82 10000 2.6 270 07:20 02.04.2020
171 Clouds 0 1013 82 10000 2.6 270 06:58 02.04.2020
172 Clouds -2 1014 81 0 2.14 233 06:21 02.04.2020
173 Clouds -1 1015 81 0 0.45 0 05:45 02.04.2020
174 Clouds -2 1015 80 0 0.45 0 04:33 02.04.2020
175 Clouds -1 1016 80 0 0.45 0 01:51 02.04.2020
176 Clouds 0 1016 79 0 0.45 0 00:48 02.04.2020
177 Clouds 0 1016 77 0 0.89 0 00:27 02.04.2020
178 Clear 0 1016 77 0 1.88 249 23:55 01.04.2020
179 Clear 0 1017 76 0 0.45 0 23:37 01.04.2020
180 Clear 0 1017 76 0 0.45 0 23:18 01.04.2020
181 Clear 0 1017 76 0 0.45 0 23:18 01.04.2020
182 Clear 1 1017 74 0 0.89 0 22:40 01.04.2020
183 Clear 1 1017 73 0 1.88 249 22:22 01.04.2020
184 Clear 2 1017 72 0 0.45 45 21:57 01.04.2020
185 Clear 1 1017 71 0 0.89 45 21:38 01.04.2020
186 Clouds 3 1017 70 0 0.89 45 21:18 01.04.2020
187 Clouds 3 1017 66 0 0.45 0 20:55 01.04.2020
188 Clouds 2 1017 63 0 0.45 22 20:37 01.04.2020
189 Clouds 4 1017 62 0 0.45 22 20:18 01.04.2020
190 Clouds 6 1018 62 0 2.12 283 19:43 01.04.2020
191 Clouds 7 1017 52 0 1.34 0 19:22 01.04.2020
192 Clouds 8 1017 49 10000 4.1 300 18:59 01.04.2020
193 Clouds 8 1017 49 10000 4.1 300 18:40 01.04.2020
194 Clouds 9 1017 49 10000 4.1 300 18:21 01.04.2020
195 Clouds 9 1018 45 10000 4.6 290 17:55 01.04.2020
196 Clouds 9 1018 45 10000 4.6 290 17:36 01.04.2020
197 Clouds 9 1018 45 10000 4.6 290 17:18 01.04.2020
198 Clouds 9 1019 49 10000 5.1 290 16:43 01.04.2020
199 Clouds 9 1019 49 10000 5.1 290 16:25 01.04.2020
200 Clouds 9 1019 49 10000 5.1 290 15:59 01.04.2020
201 Clouds 9 1019 39 10000 4.6 280 15:41 01.04.2020
202 Clouds 9 1019 39 10000 4.6 280 15:22 01.04.2020
203 Clouds 9 1019 39 10000 4.6 280 14:58 01.04.2020
204 Clear 8 1019 36 10000 5.7 270 14:39 01.04.2020
205 Clear 8 1020 36 10000 4.1 0 14:20 01.04.2020
206 Clear 8 1020 36 10000 4.1 0 13:58 01.04.2020
207 Clear 7 1020 42 10000 5.7 260 13:38 01.04.2020
208 Clear 7 1020 42 10000 5.7 260 13:38 01.04.2020
209 Clear 7 1021 42 10000 5.1 280 13:19 01.04.2020
210 Clear 7 1021 42 10000 5.1 280 12:56 01.04.2020
211 Clear 7 1021 42 10000 6.2 270 12:37 01.04.2020
212 Clear 6 1021 45 10000 5.1 280 12:18 01.04.2020
213 Clear 6 1022 48 10000 4.6 270 11:54 01.04.2020
214 Clear 5 1022 48 10000 4.6 270 11:36 01.04.2020
215 Clear 5 1022 48 10000 5.1 270 11:18 01.04.2020
216 Clear 4 1022 48 10000 4.1 270 10:38 01.04.2020
217 Clear 4 1022 51 10000 4.1 250 10:20 01.04.2020
218 Clear 3 1022 51 10000 4.1 250 09:58 01.04.2020
219 Clear 2 1022 55 10000 3.1 250 09:39 01.04.2020
220 Clear 1 1023 59 10000 3.1 260 09:19 01.04.2020
221 Clear 0 1020 59 0 1.94 237 08:43 01.04.2020
222 Clear -3 1021 71 0 1.94 237 08:18 01.04.2020
223 Clear -2 1023 77 0 1.94 237 07:48 01.04.2020
224 Clear -4 1022 72 0 1.94 237 07:23 01.04.2020
225 Clear -3 1025 84 0 1.94 237 06:59 01.04.2020
226 Clear -3 1024 84 0 1.94 237 06:39 01.04.2020
227 Clear -4 1025 83 0 1.8 221 06:20 01.04.2020
228 Clear -3 1022 84 0 0.45 62 04:55 01.04.2020
229 Clear -3 1023 76 0 1.8 221 03:36 01.04.2020
230 Clear -3 1023 76 0 1.19 200 02:59 01.04.2020
231 Clear -3 1027 77 0 1.19 200 02:31 01.04.2020
232 Clear -3 1025 71 0 1.29 203 01:46 01.04.2020
233 Clear -4 1025 70 0 0.45 0 01:24 01.04.2020
234 Clear -3 1025 70 0 0.45 0 00:47 01.04.2020
235 Clear -2 1024 81 0 1.29 203 00:21 01.04.2020
236 Clear -3 1026 67 0 0.45 0 23:54 31.03.2020
237 Clear -2 1026 66 0 1.07 171 23:36 31.03.2020
238 Clear -2 1026 66 0 0.45 0 23:18 31.03.2020
239 Clear -2 1026 65 0 1.07 171 22:40 31.03.2020
240 Clear -2 1026 65 0 1.07 171 22:40 31.03.2020
241 Clear -1 1026 65 0 0.45 0 22:20 31.03.2020
242 Clear -1 1026 63 0 1.07 171 21:58 31.03.2020
243 Clear -1 1026 63 0 1.07 171 21:58 31.03.2020
244 Clear -1 1027 61 0 1.07 171 21:39 31.03.2020
245 Clear 0 1027 60 0 0.89 0 21:21 31.03.2020
246 Clouds 1 1027 60 0 0.45 0 20:57 31.03.2020
247 Clouds 1 1027 58 0 0.45 0 20:37 31.03.2020
248 Clouds 2 1027 53 0 0.45 45 20:18 31.03.2020
249 Clouds 2 1027 50 0 0.89 45 19:55 31.03.2020
250 Clouds 4 1026 51 0 0.86 39 19:37 31.03.2020
251 Clouds 4 1027 43 0 2.24 45 19:18 31.03.2020
252 Clouds 4 1027 43 0 2.24 45 19:18 31.03.2020
253 Clouds 5 1029 35 10000 2.6 90 18:43 31.03.2020
254 Clouds 5 1029 35 10000 2.6 90 18:20 31.03.2020
255 Clouds 6 1029 35 10000 2.6 90 17:56 31.03.2020
256 Clouds 6 1029 35 10000 2.6 90 17:38 31.03.2020
257 Clouds 6 1029 35 10000 3.1 110 17:20 31.03.2020
258 Clouds 6 1030 33 10000 2.1 0 16:42 31.03.2020
259 Clouds 6 1030 33 10000 2.1 0 16:20 31.03.2020
260 Clouds 6 1030 33 10000 2.1 0 15:59 31.03.2020
261 Clouds 6 1030 36 10000 1.5 0 15:41 31.03.2020
262 Clouds 6 1030 36 10000 1.5 0 15:23 31.03.2020
263 Clouds 5 1031 35 10000 1.5 0 15:00 31.03.2020
264 Clouds 5 1031 35 10000 1.5 0 15:00 31.03.2020
265 Clouds 5 1031 38 10000 1.5 0 14:41 31.03.2020
266 Clouds 5 1031 38 10000 1.5 0 14:22 31.03.2020
267 Clouds 5 1031 38 10000 2.6 100 13:58 31.03.2020
268 Clouds 5 1031 32 10000 3.1 0 13:39 31.03.2020
269 Clouds 4 1031 55 10000 2.1 160 13:19 31.03.2020
270 Clouds 5 1031 55 10000 2.1 160 12:44 31.03.2020
271 Clouds 4 1031 74 10000 2.6 110 12:20 31.03.2020
272 Clouds 4 1031 74 10000 2.6 110 11:56 31.03.2020
273 Clouds 4 1029 40 0 3.13 90 11:37 31.03.2020
274 Clouds 3 1032 69 10000 1.5 0 11:18 31.03.2020
275 Clouds 3 1032 69 10000 1.5 0 10:55 31.03.2020
276 Clouds 3 1032 69 10000 1.5 0 10:55 31.03.2020
277 Clouds 2 1032 100 10000 1 0 10:37 31.03.2020
278 Clouds 2 1031 92 7000 1 0 10:18 31.03.2020
279 Mist 1 1031 92 2400 4.05 80 09:43 31.03.2020
280 Mist 0 1031 92 2400 3.81 88 09:25 31.03.2020
281 Clouds 0 1027 81 0 1.53 75 08:58 31.03.2020
282 Clouds 0 1027 81 0 1.53 75 08:58 31.03.2020
283 Clouds 0 1029 66 0 0.89 45 08:40 31.03.2020
284 Clouds -1 1028 66 0 1.79 45 08:20 31.03.2020
285 Clouds -1 1028 66 0 1.79 45 08:20 31.03.2020
286 Clouds -1 1028 77 0 1.79 45 07:57 31.03.2020
287 Clouds -1 1028 81 0 0.89 45 07:38 31.03.2020
288 Clouds -1 1028 81 0 0.89 0 07:20 31.03.2020
289 Clouds -1 1028 81 0 0.89 45 06:51 31.03.2020
290 Clouds -1 1027 81 0 1.79 45 06:31 31.03.2020
291 Clear -1 1027 81 0 1.34 45 05:41 31.03.2020
292 Clear -1 1026 80 0 4.02 45 03:57 31.03.2020
293 Clouds -1 1026 81 0 3.13 45 02:26 31.03.2020
294 Clouds 0 1026 82 0 1.79 45 01:46 31.03.2020
295 Clouds 0 1026 84 0 1.34 45 00:52 31.03.2020
296 Clouds 0 1025 84 0 1.79 45 00:25 31.03.2020
297 Clouds 0 1025 84 0 0.45 0 23:59 30.03.2020
298 Clouds 0 1025 84 0 0.89 45 23:38 30.03.2020
299 Clouds 1 1025 84 0 0.89 0 23:19 30.03.2020
300 Clouds 1 1025 84 0 0.89 45 22:56 30.03.2020
301 Clouds 1 1025 83 0 0.45 45 22:37 30.03.2020
302 Clouds 1 1025 84 0 0.63 27 22:18 30.03.2020
303 Clouds 1 1025 84 0 0.45 45 21:57 30.03.2020
304 Clouds 1 1025 84 0 0.63 27 21:37 30.03.2020
305 Snow 1 1025 84 0 0.45 0 21:19 30.03.2020
306 Snow 1 1025 84 0 0.45 45 20:55 30.03.2020
307 Snow 1 1024 84 0 0.45 225 20:36 30.03.2020
308 Snow 1 1024 84 0 0.45 225 20:36 30.03.2020
309 Snow 2 1024 84 0 1.92 317 20:18 30.03.2020
310 Snow 2 1024 84 0 0.89 225 19:41 30.03.2020
311 Snow 2 1024 84 0 0.89 225 19:22 30.03.2020
312 Snow 2 1024 84 0 0.89 225 18:57 30.03.2020
313 Snow 2 1024 84 0 0.89 225 18:39 30.03.2020
314 Snow 2 1024 84 0 0.89 225 18:20 30.03.2020
315 Snow 2 1024 84 0 0.89 225 17:57 30.03.2020
316 Snow 2 1024 84 0 0.89 225 17:38 30.03.2020
317 Snow 2 1024 84 0 2.24 225 17:19 30.03.2020
318 Snow 2 1024 83 0 1.79 225 16:56 30.03.2020
319 Snow 2 1023 92 0 5.41 287 16:38 30.03.2020
320 Snow 2 1025 79 3000 4.6 240 16:19 30.03.2020
321 Snow 2 1025 79 3000 4.6 240 15:54 30.03.2020
322 Snow 2 1025 79 3000 4.6 240 15:36 30.03.2020
323 Snow 2 1025 61 3000 4.6 240 15:18 30.03.2020
324 Snow 3 1025 61 3000 4.6 240 14:54 30.03.2020
325 Snow 3 1026 86 2400 5.1 240 14:36 30.03.2020
326 Snow 2 1026 86 3800 5.7 240 14:18 30.03.2020
327 Snow 3 1026 74 4500 6.7 260 13:43 30.03.2020
328 Clouds 2 1027 64 10000 7.2 260 13:21 30.03.2020
329 Clouds 2 1027 64 10000 7.2 260 12:57 30.03.2020
330 Clouds 2 1027 64 10000 6.7 260 12:38 30.03.2020
331 Clouds 2 1027 64 10000 6.7 260 12:38 30.03.2020
332 Clouds 3 1027 64 10000 6.7 260 12:19 30.03.2020
333 Clouds 2 1027 64 10000 6.7 260 11:56 30.03.2020
334 Clouds 2 1028 55 10000 5.7 260 11:38 30.03.2020
335 Snow 2 1028 55 10000 5.7 260 11:20 30.03.2020
336 Clouds 1 1028 55 10000 4.1 260 10:39 30.03.2020
337 Clouds 0 1028 55 10000 4.1 260 10:21 30.03.2020
338 Clouds 0 1028 66 10000 4.1 260 09:56 30.03.2020
339 Clouds -1 1028 66 10000 4.1 260 09:38 30.03.2020
340 Clear -1 1029 63 10000 3.6 260 09:18 30.03.2020
341 Clouds -2 1029 63 10000 2.6 240 08:41 30.03.2020
342 Clouds -3 1029 63 10000 2.6 240 08:22 30.03.2020
343 Clear -5 1029 73 10000 2.1 250 07:49 30.03.2020
344 Clear -5 1029 73 10000 2.1 250 07:27 30.03.2020
345 Clear -5 1027 86 0 2.17 255 06:54 30.03.2020
346 Clear -5 1031 79 0 2.17 255 06:31 30.03.2020
347 Clear -5 1031 79 0 2.17 255 06:31 30.03.2020
348 Clear -5 1027 64 0 1.3 283 05:53 30.03.2020
349 Clear -5 1028 84 0 1.3 283 05:22 30.03.2020
350 Clear -5 1027 59 0 1.3 283 04:23 30.03.2020
351 Clear -5 1027 64 0 1.3 283 03:38 30.03.2020
352 Clouds -5 1029 62 0 1.48 334 02:39 30.03.2020
353 Clouds -4 1029 62 0 0.45 45 01:44 30.03.2020
354 Clouds -3 1029 54 0 0.89 45 00:49 30.03.2020
355 Clouds -2 1029 54 0 2.68 45 00:22 30.03.2020
356 Clouds -2 1029 53 0 1.79 45 23:42 29.03.2020
357 Clouds -2 1029 53 0 2.68 45 23:23 29.03.2020
358 Clouds -1 1029 58 0 2.57 34 22:57 29.03.2020
359 Clouds -1 1029 58 0 3.58 45 22:38 29.03.2020
360 Clouds 0 1032 53 0 2.57 34 22:19 29.03.2020
361 Clouds 0 1027 71 0 2.57 34 21:56 29.03.2020
362 Clouds 1 1028 56 0 0.45 90 21:36 29.03.2020
363 Snow 1 1028 62 0 0.45 90 21:18 29.03.2020
364 Snow 1 1028 70 0 0.45 355 20:55 29.03.2020
365 Snow 1 1028 72 0 5.48 29 20:36 29.03.2020
366 Snow 1 1027 71 0 0.45 90 20:18 29.03.2020
367 Snow 2 1025 82 0 5.48 29 19:42 29.03.2020
368 Snow 2 1024 84 0 5.48 29 19:24 29.03.2020
369 Snow 2 1026 81 0 3.58 0 18:58 29.03.2020
370 Snow 2 1026 81 0 4.92 45 18:40 29.03.2020
371 Snow 3 1029 81 0 5.48 29 18:21 29.03.2020
372 Snow 2 1026 84 0 6.71 45 17:59 29.03.2020
373 Snow 2 1025 84 0 3.58 45 17:41 29.03.2020
374 Snow 2 1025 84 0 4.92 45 17:22 29.03.2020
375 Snow 2 1025 84 0 5.81 45 16:58 29.03.2020
376 Snow 2 1024 84 0 3.13 90 16:39 29.03.2020
377 Snow 3 1024 84 0 5.36 0 16:21 29.03.2020
378 Rain 3 1026 76 10000 5.1 40 15:58 29.03.2020
379 Rain 3 1026 76 10000 5.1 40 15:39 29.03.2020
380 Rain 3 1026 80 10000 5.1 40 15:19 29.03.2020
381 Rain 2 1026 80 10000 5.1 40 14:56 29.03.2020
382 Clouds 2 1026 80 10000 5.7 40 14:37 29.03.2020
383 Rain 3 1025 86 10000 4.6 40 14:18 29.03.2020
384 Rain 3 1025 80 10000 4.6 40 13:55 29.03.2020
385 Rain 3 1025 80 10000 4.6 40 13:55 29.03.2020
386 Rain 3 1025 80 10000 4.6 40 13:36 29.03.2020
387 Rain 3 1025 86 10000 4.6 30 13:18 29.03.2020
388 Clouds 3 1024 86 10000 4.6 30 12:54 29.03.2020
389 Clouds 3 1024 86 10000 4.6 30 12:36 29.03.2020
390 Clouds 3 1023 86 10000 2.6 10 12:18 29.03.2020
391 Clouds 3 1023 86 10000 2.6 10 12:18 29.03.2020
392 Drizzle 3 1023 93 10000 4.1 340 11:38 29.03.2020
393 Snow 3 1023 79 10000 4.6 340 11:20 29.03.2020
394 Drizzle 3 1022 69 10000 5.1 330 10:40 29.03.2020
395 Clouds 3 1022 69 10000 4.6 320 10:21 29.03.2020
396 Clouds 3 1022 69 10000 4.6 320 09:59 29.03.2020
397 Snow 3 1022 78 0 0.89 45 09:38 29.03.2020
398 Snow 3 1021 80 0 2.68 0 09:19 29.03.2020
399 Clouds 3 1021 81 0 3.58 45 08:45 29.03.2020
400 Clouds 3 1021 82 0 1.79 0 08:27 29.03.2020
401 Clouds 3 1017 92 0 4.68 318 07:56 29.03.2020
402 Clouds 3 1020 84 0 1.79 68 07:37 29.03.2020
403 Clouds 3 1020 85 0 2.24 0 07:19 29.03.2020
404 Clouds 3 1020 84 0 0.89 45 04:58 29.03.2020
405 Clouds 4 1022 84 0 3.81 297 03:42 29.03.2020
406 Clouds 4 1016 87 0 3.81 297 03:23 29.03.2020
407 Clouds 3 1020 81 0 0.89 315 01:50 29.03.2020
408 Clouds 3 1021 81 0 1.79 0 01:23 29.03.2020
409 Clouds 3 1021 80 0 1.79 315 00:53 29.03.2020
410 Clouds 4 1021 80 0 1.34 315 00:29 29.03.2020
411 Clouds 4 1020 78 0 2.24 315 23:42 28.03.2020
412 Clouds 4 1020 78 0 0.89 315 23:23 28.03.2020
413 Clear 5 1020 78 0 2.68 0 22:57 28.03.2020
414 Clear 5 1020 78 0 0.89 90 22:37 28.03.2020
415 Clear 5 1019 81 0 0.45 90 22:18 28.03.2020
416 Clear 5 1021 75 0 0.89 45 21:41 28.03.2020
417 Clear 6 1020 74 0 0.45 45 21:23 28.03.2020
418 Clear 6 1021 72 0 1.79 0 20:58 28.03.2020
419 Clear 6 1020 66 0 1.34 270 20:39 28.03.2020
420 Clouds 7 1021 61 0 0.89 45 20:21 28.03.2020
421 Clouds 7 1020 51 0 0.89 90 19:56 28.03.2020
422 Clouds 7 1020 51 0 0.89 90 19:56 28.03.2020
423 Clouds 8 1016 57 0 3.94 321 19:37 28.03.2020
424 Clouds 8 1020 53 0 0.89 0 19:19 28.03.2020
425 Clouds 9 1020 54 0 0.89 0 18:55 28.03.2020
426 Clouds 10 1020 53 0 2.24 0 18:36 28.03.2020
427 Clouds 10 1020 47 0 2.68 45 18:18 28.03.2020
428 Clouds 11 1020 43 0 2.68 0 17:38 28.03.2020
429 Clear 12 1020 40 0 1.79 315 17:19 28.03.2020
430 Clear 13 1019 35 10000 3.6 330 16:42 28.03.2020
431 Clear 13 1019 35 10000 3.6 330 16:20 28.03.2020
432 Clear 13 1019 35 10000 3.6 330 15:56 28.03.2020
433 Clear 13 1019 35 10000 3.6 330 15:38 28.03.2020
434 Clear 13 1020 35 10000 3.6 340 15:19 28.03.2020
435 Clear 13 1020 35 10000 3.1 330 14:43 28.03.2020
436 Clear 13 1020 35 10000 3.1 330 14:23 28.03.2020
437 Clear 13 1020 35 10000 5.1 330 13:57 28.03.2020
438 Clear 13 1021 35 10000 4.1 330 13:37 28.03.2020
439 Clear 13 1021 32 10000 3.6 0 13:18 28.03.2020
440 Clear 13 1021 30 10000 2.1 0 12:39 28.03.2020
441 Clear 12 1021 34 10000 2.1 330 12:21 28.03.2020
442 Clear 12 1022 43 10000 2.1 310 11:42 28.03.2020
443 Clear 11 1022 45 10000 2.1 0 11:21 28.03.2020
444 Clear 10 1021 30 0 4.92 45 10:56 28.03.2020
445 Clear 10 1022 49 10000 2.1 330 10:37 28.03.2020
446 Clear 9 1022 56 10000 2.6 20 10:18 28.03.2020
447 Clear 8 1022 68 0 2.47 30 09:41 28.03.2020
448 Clear 8 1021 36 0 1.79 45 09:22 28.03.2020
449 Clear 6 1021 42 0 2.68 90 08:45 28.03.2020
450 Clear 5 1021 43 0 4.02 0 08:27 28.03.2020
451 Clear 4 1019 79 0 1.08 13 07:59 28.03.2020
452 Clear 3 1021 81 0 1.08 13 07:41 28.03.2020
453 Clear 3 1017 72 0 1.08 13 06:54 28.03.2020
454 Clear 3 1021 60 0 1.79 22 06:32 28.03.2020
455 Clear 3 1020 61 0 1.79 45 05:39 28.03.2020
456 Clear 3 1021 61 0 2.24 45 05:19 28.03.2020
457 Clear 3 1021 66 0 1.79 45 04:39 28.03.2020
458 Clear 4 1021 63 0 0.89 45 02:55 28.03.2020
459 Clear 5 1021 65 0 1.34 45 01:48 28.03.2020
460 Clear 5 1021 63 0 1.79 45 01:24 28.03.2020
461 Clear 5 1021 62 0 1.79 45 00:54 28.03.2020
462 Clear 6 1021 61 0 1.34 90 00:33 28.03.2020
463 Clear 7 1021 59 0 1.34 45 23:45 27.03.2020
464 Clear 7 1021 57 0 0.89 45 23:26 27.03.2020
465 Clear 8 1022 56 0 1.79 22 22:58 27.03.2020
466 Clear 8 1021 50 0 1.79 45 22:40 27.03.2020
467 Clear 9 1022 50 0 1.79 45 22:21 27.03.2020
468 Clear 9 1021 50 0 1.34 45 21:59 27.03.2020
469 Clear 9 1021 49 0 1.34 45 21:41 27.03.2020
470 Clear 9 1021 47 0 2.24 45 21:23 27.03.2020
471 Clear 9 1021 48 0 2.68 90 20:57 27.03.2020
472 Clear 9 1021 48 0 2.68 45 20:39 27.03.2020
473 Clouds 11 1021 47 0 2.24 90 20:19 27.03.2020
474 Clouds 11 1021 47 0 3.13 45 19:56 27.03.2020
475 Clouds 11 1021 46 0 3.58 45 19:38 27.03.2020
476 Clouds 12 1020 49 0 4.42 66 19:19 27.03.2020
477 Clouds 13 1020 47 0 4.42 66 18:43 27.03.2020
478 Clouds 13 1021 44 0 3.13 315 18:23 27.03.2020
479 Clouds 14 1018 42 0 0.45 90 17:57 27.03.2020
480 Clouds 15 1017 44 0 0.89 177 17:38 27.03.2020
481 Clouds 14 1020 39 0 4.92 45 17:19 27.03.2020
482 Clouds 15 1020 34 0 2.68 90 16:44 27.03.2020
483 Clouds 15 1020 33 0 4.92 45 16:25 27.03.2020
484 Clouds 15 1020 33 0 4.92 45 16:25 27.03.2020
485 Clouds 15 1020 33 0 4.92 45 16:25 27.03.2020
486 Clouds 15 1020 33 0 4.92 45 16:25 27.03.2020
487 Clouds 15 1021 29 10000 5.7 80 15:45 27.03.2020
488 Clouds 14 1020 33 0 4.92 90 15:27 27.03.2020
489 Clouds 14 1020 32 0 4.92 0 14:57 27.03.2020
490 Clouds 14 1020 33 0 4.92 45 14:39 27.03.2020
491 Clouds 14 1020 33 0 2.68 90 14:21 27.03.2020
492 Clear 14 1021 32 0 4.02 90 13:54 27.03.2020
493 Clear 15 1021 32 0 2.68 45 13:36 27.03.2020
494 Clear 15 1021 31 0 4.92 135 13:18 27.03.2020
495 Clear 14 1021 31 0 5.81 45 12:42 27.03.2020
496 Clear 14 1021 31 0 6.26 90 12:19 27.03.2020
497 Clear 14 1021 31 0 6.71 45 11:44 27.03.2020
498 Clear 14 1021 31 0 6.71 45 11:25 27.03.2020
499 Clear 13 1021 31 0 5.36 90 10:59 27.03.2020
500 Clear 13 1021 30 0 4.92 135 10:41 27.03.2020
501 Clear 4 1022 63 0 5.77 86 10:22 27.03.2020
502 Clear 5 1020 68 0 5.77 86 09:58 27.03.2020
503 Clear 5 1020 68 0 5.77 86 09:40 27.03.2020
504 Clear 5 1020 68 0 5.77 86 09:22 27.03.2020
505 Clear 5 1020 68 0 5.77 86 08:58 27.03.2020
506 Clear 5 1020 68 0 5.77 86 08:40 27.03.2020
507 Clear 3 1019 70 0 5.9 86 08:21 27.03.2020
508 Clouds 3 1019 70 0 3.53 84 07:55 27.03.2020
509 Clouds 3 1019 70 0 3.53 84 07:37 27.03.2020
510 Clouds 2 1020 72 0 3.53 84 07:19 27.03.2020
511 Clouds 2 1019 72 0 3.53 84 06:38 27.03.2020
512 Clouds 2 1019 68 0 3.53 84 05:44 27.03.2020
513 Clouds -3 1023 86 0 3.36 85 03:26 27.03.2020
514 Clouds 3 1021 52 0 1.34 0 01:55 27.03.2020
515 Clear -3 1023 83 0 3.29 77 00:58 27.03.2020
516 Clear -3 1023 83 0 3.29 77 00:38 27.03.2020
517 Clear -3 1023 83 0 3.29 77 00:19 27.03.2020
518 Clear 4 1022 48 0 1.34 45 23:37 26.03.2020
519 Clear 4 1022 48 0 2.24 45 23:18 26.03.2020
520 Clear 4 1022 47 0 3.58 45 22:56 26.03.2020
521 Clear 4 1022 48 0 3.58 45 22:36 26.03.2020
522 Clear 4 1023 47 0 4.47 45 22:18 26.03.2020
523 Clear 5 1023 48 0 2.68 90 21:40 26.03.2020
524 Clear 5 1023 48 0 4.92 45 21:21 26.03.2020
525 Clear 5 1023 49 0 4.47 45 20:58 26.03.2020
526 Clear 5 1023 50 0 3.13 180 20:39 26.03.2020
527 Clear 4 1023 51 0 4.92 90 20:21 26.03.2020
528 Clear 4 1023 51 0 2.24 68 19:58 26.03.2020
529 Clear 4 1023 51 0 2.24 45 19:39 26.03.2020
530 Clear 6 1023 50 0 2.68 45 19:20 26.03.2020
531 Clear 6 1023 50 0 3.13 45 18:58 26.03.2020
532 Clear 6 1023 48 0 3.58 90 18:39 26.03.2020
533 Clear 7 1023 46 0 3.13 90 18:21 26.03.2020
534 Clear 8 1023 37 0 2.24 45 17:44 26.03.2020
535 Clouds 8 1023 35 0 2.68 45 17:19 26.03.2020
536 Clouds 8 1023 34 0 4.47 45 16:57 26.03.2020
537 Clouds 8 1023 34 0 3.13 90 16:38 26.03.2020
538 Clouds 9 1023 34 0 3.13 112 16:18 26.03.2020
539 Clouds 9 1023 34 0 2.68 90 15:42 26.03.2020
540 Clouds 8 1023 33 0 3.13 135 15:22 26.03.2020
541 Clouds 9 1023 34 0 0.89 45 14:59 26.03.2020
542 Clouds 9 1023 34 0 3.13 135 14:41 26.03.2020
543 Clouds 8 1023 34 0 3.58 90 14:23 26.03.2020
544 Clear 8 1023 33 0 5.36 45 13:54 26.03.2020
545 Clear 8 1024 33 0 4.92 90 13:36 26.03.2020
546 Clear 8 1024 33 0 6.71 135 13:18 26.03.2020
547 Clear 8 1024 40 0 4.92 90 12:38 26.03.2020
548 Clear 8 1024 40 0 4.92 90 12:20 26.03.2020
549 Clear 8 1024 38 0 4.02 112 11:46 26.03.2020
550 Clear 7 1024 38 0 2.68 90 11:23 26.03.2020
551 Clear 7 1024 36 0 3.13 135 10:57 26.03.2020
552 Clear 6 1024 36 0 4.02 45 10:38 26.03.2020
553 Clear 6 1024 38 0 6.71 90 10:19 26.03.2020
554 Clear 6 1024 40 0 3.58 90 09:44 26.03.2020
555 Clear 5 1024 40 0 3.58 45 09:21 26.03.2020
556 Clear 4 1025 41 0 3.58 45 08:57 26.03.2020
557 Clear 4 1025 41 0 5.36 90 08:38 26.03.2020
558 Clear -6 1026 89 0 3.61 84 08:19 26.03.2020
559 Clear -6 1026 89 0 3.61 84 07:44 26.03.2020
560 Clear -1 1023 61 0 3.61 84 07:22 26.03.2020
561 Clear -1 1023 61 0 3.61 84 06:57 26.03.2020
562 Clear -1 1024 50 0 0.89 90 06:27 26.03.2020
563 Clear -2 1024 44 0 0.45 90 05:22 26.03.2020
564 Clear -1 1024 42 0 0.89 135 03:45 26.03.2020
565 Clear -1 1024 43 0 0.89 90 02:56 26.03.2020
566 Clear -1 1025 42 0 0.45 68 01:51 26.03.2020
567 Clear 1 1025 40 0 0.89 45 00:56 26.03.2020
568 Clear -6 1028 89 0 2.8 86 00:22 26.03.2020
569 Clear 2 1025 35 0 2.24 180 23:41 25.03.2020
570 Clear 2 1026 35 0 3.13 90 23:22 25.03.2020
571 Clear 2 1026 35 0 4.02 45 22:42 25.03.2020
572 Clear 2 1026 35 0 2.24 90 22:22 25.03.2020
573 Clear 3 1026 33 0 1.79 135 21:57 25.03.2020
574 Clear 3 1026 33 0 2.68 135 21:38 25.03.2020
575 Clear 3 1026 33 0 3.13 45 21:20 25.03.2020
576 Clear 3 1026 33 0 3.58 90 20:56 25.03.2020
577 Clear -4 1028 83 0 4.47 95 20:37 25.03.2020
578 Clouds 3 1026 35 0 3.13 90 20:18 25.03.2020
579 Clouds 3 1026 35 0 3.13 90 20:18 25.03.2020
580 Clouds 3 1026 35 0 2.24 90 19:43 25.03.2020
581 Clouds 3 1026 35 0 3.58 90 19:24 25.03.2020
582 Clouds 3 1026 35 0 1.79 90 18:59 25.03.2020
583 Clouds 4 1026 35 0 3.58 45 18:40 25.03.2020
584 Clouds 5 1026 33 0 1.79 90 18:22 25.03.2020
585 Clouds 6 1026 31 0 2.24 45 17:57 25.03.2020
586 Clouds 7 1026 31 0 3.13 45 17:39 25.03.2020
587 Clouds 8 1026 31 0 1.34 90 17:21 25.03.2020
588 -273 0 0 0 0 0 16:55 25.03.2020
589 Clouds 8 1026 23 0 1.79 0 16:36 25.03.2020
590 Clouds 8 1026 23 0 3.58 45 16:18 25.03.2020
591 Clouds 9 1027 23 0 4.92 45 15:41 25.03.2020
592 Clouds 3 1028 53 0 7.01 94 15:20 25.03.2020
593 Clouds 3 1028 53 0 7.01 94 14:56 25.03.2020
594 Clouds 3 1028 53 0 7.01 94 14:37 25.03.2020
595 Clouds 3 1029 52 0 7.06 93 14:19 25.03.2020
596 Clouds 10 1027 23 0 2.68 180 13:42 25.03.2020
597 Clouds 10 1028 23 0 4.92 135 13:22 25.03.2020
598 Clouds 9 1028 23 0 3.58 90 12:38 25.03.2020
599 Clouds 3 1029 52 0 7.06 93 12:20 25.03.2020
600 Clouds 2 1029 52 0 7.07 96 11:57 25.03.2020
601 Clouds 2 1029 52 0 7.07 96 11:39 25.03.2020
602 Clouds 0 1031 58 0 5.5 101 11:20 25.03.2020
603 Clouds 0 1031 58 0 5.5 101 10:57 25.03.2020
604 Clouds 3 1029 53 0 5.5 101 10:39 25.03.2020
605 Clouds 3 1029 53 0 5.5 101 10:18 25.03.2020
606 Clouds 3 1029 53 0 5.5 101 09:43 25.03.2020
607 Clouds 3 1029 53 0 5.5 101 09:25 25.03.2020
608 Clouds 4 1029 30 0 1.34 90 08:58 25.03.2020
609 Clouds 4 1029 30 0 1.34 90 08:58 25.03.2020
610 Clouds 3 1029 30 0 2.68 135 08:39 25.03.2020
611 Clear 0 1029 60 0 2.44 96 08:20 25.03.2020
612 Clear -6 1032 85 0 2.44 96 07:44 25.03.2020
613 Clear -6 1032 85 0 2.44 96 07:24 25.03.2020
614 Clear -3 1029 58 0 0.89 45 06:57 25.03.2020
615 Clear -6 1029 58 0 0.89 0 06:37 25.03.2020
616 Clear -6 1030 58 0 0.89 90 06:19 25.03.2020
617 Clear -6 1029 55 0 0.45 0 05:42 25.03.2020
618 Clear -4 1030 51 0 0.89 45 04:41 25.03.2020
619 Clear -3 1030 42 0 0.89 0 03:53 25.03.2020
620 Clear -2 1030 40 0 0.45 0 03:29 25.03.2020
621 Clear 0 1030 36 0 3.58 135 01:39 25.03.2020
622 Clear 0 1030 38 0 2.24 135 00:50 25.03.2020
623 Clear -1 1031 38 0 0.89 90 00:26 25.03.2020
624 Clear 1 1031 38 0 1.34 45 23:54 24.03.2020
625 Clear 1 1031 36 0 0.89 45 23:28 24.03.2020
626 Clear 1 1031 36 0 1.79 45 22:58 24.03.2020
627 Clear 1 1031 35 0 2.68 90 22:38 24.03.2020
628 Clear 1 1031 35 0 1.79 90 22:20 24.03.2020
629 Clear 1 1031 35 0 1.79 90 22:20 24.03.2020
630 Clear 1 1032 35 0 1.34 45 21:58 24.03.2020
631 Clear 1 1032 35 0 1.34 90 21:40 24.03.2020
632 Clear -5 1034 85 0 2.61 109 21:18 24.03.2020
633 Clear -5 1034 85 0 2.61 109 21:18 24.03.2020
634 Clear -5 1034 85 0 2.61 109 20:58 24.03.2020
635 Clear 3 1031 41 0 2.61 109 20:39 24.03.2020
636 Clear 2 1031 35 0 2.24 45 20:21 24.03.2020
637 Clear 2 1031 35 0 1.79 45 19:47 24.03.2020
638 Clear 3 1032 33 0 0.89 90 19:22 24.03.2020
639 Clear 3 1031 33 0 0.89 45 18:58 24.03.2020
640 Clear 4 1031 31 0 0.89 90 18:38 24.03.2020
641 Clear 5 1031 30 0 0.89 90 18:20 24.03.2020
642 Clear 8 1030 32 0 3.13 158 17:56 24.03.2020
643 Clear 8 1030 32 0 3.13 158 17:56 24.03.2020
644 Clear 8 1030 32 0 3.13 158 17:38 24.03.2020
645 Clear 8 1030 32 0 3.13 158 17:20 24.03.2020
646 Clear 7 1033 26 10000 6.7 110 16:56 24.03.2020
647 Clear 8 1033 26 10000 6.7 110 16:37 24.03.2020
648 Clear 8 1033 24 10000 6.2 110 16:19 24.03.2020
649 Clear 8 1033 22 10000 5.1 140 15:42 24.03.2020
650 Clear 8 1033 22 10000 5.1 140 15:24 24.03.2020
651 Clear 8 1034 28 10000 6.2 110 14:44 24.03.2020
652 Clear 8 1034 28 10000 6.2 110 14:44 24.03.2020
653 Clear 7 1033 34 0 3.13 135 14:23 24.03.2020
654 Clear 2 1035 50 0 5.35 117 13:59 24.03.2020
655 Clear 7 1033 34 0 3.13 135 13:41 24.03.2020
656 Clear 7 1033 34 0 3.13 135 13:22 24.03.2020
657 Clear 6 1034 38 0 2.68 126 12:43 24.03.2020
658 Clear 6 1034 38 0 2.68 126 12:25 24.03.2020
659 Clear 6 1034 38 0 2.68 126 11:56 24.03.2020
660 Clear 6 1034 38 0 2.68 126 11:37 24.03.2020
661 Clear 5 1036 30 10000 5.1 140 11:18 24.03.2020
662 Clear 4 1036 32 10000 5.1 140 10:41 24.03.2020
663 Clear 4 1036 38 10000 4.6 110 10:19 24.03.2020
664 Clear 3 1034 43 0 0.45 292 09:48 24.03.2020
665 Clear 2 1033 47 0 0.45 270 09:27 24.03.2020
666 Clear 1 1036 33 10000 3.1 100 08:58 24.03.2020
667 Clear 0 1036 33 10000 3.1 100 08:38 24.03.2020
668 Clear -1 1033 57 0 1.58 111 08:20 24.03.2020
669 Clear -1 1034 54 0 0.45 49 07:45 24.03.2020
670 Clear -2 1033 71 0 1.73 113 07:23 24.03.2020
671 Clear -3 1033 60 0 1.73 113 06:42 24.03.2020
672 Clear -3 1033 73 0 1.73 113 06:24 24.03.2020
673 Clear -3 1033 73 0 1.57 132 04:57 24.03.2020
674 Clear -3 1033 72 0 1.57 132 03:46 24.03.2020
675 Clear -2 1032 69 0 1.57 132 02:45 24.03.2020
676 Clear -2 1033 68 0 1.86 126 01:42 24.03.2020
677 Clear -1 1033 54 0 1.87 123 00:44 24.03.2020
678 Clear -1 1033 53 0 1.87 123 00:23 24.03.2020
679 Clear -1 1033 52 0 1.87 123 23:44 23.03.2020
680 Clear -1 1033 64 0 1.87 123 23:26 23.03.2020
681 Clear -1 1033 62 0 2.96 131 22:55 23.03.2020
682 Clear 0 1033 61 0 2.96 131 22:36 23.03.2020
683 Clear 0 1033 61 0 2.96 131 22:18 23.03.2020
684 Clear 0 1033 51 0 2.96 131 21:42 23.03.2020
685 Clear 0 1033 58 0 2.96 131 21:20 23.03.2020
686 Clear 1 1033 53 0 2.96 131 20:57 23.03.2020
687 Clear 1 1033 50 0 2.96 131 20:39 23.03.2020
688 Clear 2 1033 48 0 3.43 106 20:19 23.03.2020
689 Clear 2 1033 47 0 3.43 106 19:45 23.03.2020
690 Clear 2 1033 46 0 3.43 106 19:27 23.03.2020
691 Clear 3 1034 48 0 3.43 106 18:59 23.03.2020
692 Clear 3 1033 42 0 3.43 106 18:40 23.03.2020
693 Clear 4 1033 41 0 3.43 106 18:21 23.03.2020
694 Clear 5 1033 37 0 0.45 90 17:43 23.03.2020
695 Clear 5 1033 40 0 1.79 148 17:21 23.03.2020
696 Clear 6 1033 36 0 0.45 90 16:59 23.03.2020
697 Clear 6 1033 36 0 1.34 90 16:39 23.03.2020
698 Clear 6 1037 30 10000 5.7 120 16:20 23.03.2020
699 Clear 7 1037 30 10000 5.7 120 15:42 23.03.2020
700 Clear 7 1037 30 10000 5.7 120 15:20 23.03.2020
701 Clear 7 1037 30 10000 5.7 120 14:55 23.03.2020
702 Clear 7 1037 30 10000 6.7 120 14:36 23.03.2020
703 Clear 6 1037 30 10000 6.7 100 14:18 23.03.2020
704 Clear 6 1037 32 10000 6.2 100 13:40 23.03.2020
705 Clear 6 1038 32 10000 4.6 130 13:21 23.03.2020
706 Clear 5 1038 32 10000 5.7 110 12:46 23.03.2020
707 Clear 4 1038 32 10000 7.2 110 12:26 23.03.2020
708 Clear 4 1038 32 10000 7.2 110 11:59 23.03.2020
709 Clear 4 1038 29 10000 7.2 110 11:40 23.03.2020
710 Clear 4 1038 32 10000 7.2 100 11:20 23.03.2020
711 Clear 3 1039 32 10000 5.1 120 10:58 23.03.2020
712 Clear 3 1039 32 10000 5.1 120 10:39 23.03.2020
713 Clear 3 1039 32 10000 4.6 140 10:21 23.03.2020
714 Clear 2 1035 35 0 0.45 90 09:46 23.03.2020
715 Clear 2 1036 37 0 0.45 90 09:21 23.03.2020
716 Clear 1 1036 44 0 4.92 87 08:58 23.03.2020
717 Clear 0 1036 40 0 5.48 111 08:36 23.03.2020
718 Clear 0 1035 44 0 2.59 101 08:18 23.03.2020
719 Clear -1 1035 48 0 2.59 101 07:47 23.03.2020
720 Clear -2 1035 51 0 2.59 101 07:29 23.03.2020
721 Clear -3 1035 56 0 2.59 101 06:52 23.03.2020
722 Clear -3 1036 51 0 0.89 118 05:55 23.03.2020
723 Clear -3 1035 50 0 2.59 101 05:29 23.03.2020
724 Clear -2 1035 47 0 2.31 118 03:41 23.03.2020
725 Clear -1 1035 57 0 2.31 118 02:29 23.03.2020
726 Clear -1 1035 50 0 0.45 86 01:34 23.03.2020
727 Clear -1 1035 50 0 0.45 86 01:34 23.03.2020
728 Clear -1 1035 64 0 3.23 116 00:40 23.03.2020
729 Clear -1 1034 62 0 3.23 116 23:53 22.03.2020
730 Clear -1 1035 55 0 0.45 103 23:26 22.03.2020
731 Clear -1 1035 55 0 0.45 103 23:26 22.03.2020
732 Clear 0 1034 65 0 3.45 111 22:56 22.03.2020
733 Clear 0 1034 64 0 3.45 111 22:36 22.03.2020
734 Clear 0 1034 62 0 3.45 111 22:18 22.03.2020
735 Clear 1 1034 61 0 3.45 111 21:39 22.03.2020
736 Clear 1 1034 64 0 3.45 111 21:20 22.03.2020
737 Clear 1 1034 62 0 3.45 111 20:56 22.03.2020
738 Clear 2 1034 55 0 3.45 111 20:38 22.03.2020
739 Clear 2 1034 51 0 0.45 92 20:20 22.03.2020
740 Clear 2 1033 51 0 5.06 90 19:55 22.03.2020
741 Clear 3 1033 50 0 5.06 90 19:37 22.03.2020
742 Clear 3 1035 32 10000 5.1 100 19:18 22.03.2020
743 Clear 3 1035 32 10000 5.1 100 18:55 22.03.2020
744 Clear 4 1035 32 10000 5.1 100 18:37 22.03.2020
745 Clear 5 1035 32 10000 5.1 100 18:18 22.03.2020
746 Clear 5 1035 33 10000 5.7 100 17:55 22.03.2020
747 Clear 5 1035 33 10000 5.7 100 17:36 22.03.2020
748 -273 0 0 0 0 0 17:18 22.03.2020
749 Clear 6 1035 33 10000 6.7 110 16:41 22.03.2020
750 Clear 6 1035 33 10000 6.7 110 16:22 22.03.2020
751 Clear 6 1035 33 10000 5.7 90 15:59 22.03.2020
752 Clear 6 1035 38 10000 6.2 110 15:39 22.03.2020
753 Clear 6 1035 38 10000 6.2 110 14:47 22.03.2020
754 Clear 6 1035 38 10000 5.1 90 14:20 22.03.2020
755 Clear 6 1035 38 10000 5.1 90 13:58 22.03.2020
756 Clear 6 1035 38 10000 5.1 90 13:58 22.03.2020
757 Clear 6 1035 38 10000 6.7 100 13:40 22.03.2020
758 Clear 5 1035 41 10000 6.2 100 13:19 22.03.2020
759 Clear 5 1036 41 10000 6.2 90 12:47 22.03.2020
760 Clear 5 1036 41 10000 6.7 100 12:23 22.03.2020
761 Clear 4 1036 41 10000 6.7 100 11:59 22.03.2020
762 Clear 4 1036 38 10000 7.7 90 11:41 22.03.2020
763 Clear 4 1036 41 10000 6.7 100 11:22 22.03.2020
764 Clear 3 1036 41 10000 7.7 90 10:54 22.03.2020
765 Clear 3 1036 41 10000 7.7 90 10:36 22.03.2020
766 Clear 3 1036 44 10000 7.7 100 10:18 22.03.2020
767 Clear 2 1036 55 10000 6.2 90 09:41 22.03.2020
768 Clear 1 1036 64 10000 5.7 90 09:19 22.03.2020
769 Clear 1 1035 64 10000 4.6 90 08:43 22.03.2020
770 Clear 1 1035 64 10000 4.6 90 08:24 22.03.2020
771 Clear 0 1031 64 0 4.91 88 07:51 22.03.2020
772 Clear -1 1030 67 0 2.68 101 07:23 22.03.2020
773 Clear -1 1031 69 0 4.91 88 06:35 22.03.2020
774 Clear -2 1030 68 0 4.91 88 05:34 22.03.2020
775 Clear -1 1030 77 0 3.26 87 03:30 22.03.2020
776 Clear 0 1030 73 0 3.8 92 01:27 22.03.2020
777 Clear 0 1030 72 0 3.8 92 00:48 22.03.2020
778 Clear 0 1030 72 0 3.8 92 00:28 22.03.2020
779 Clear 1 1028 66 0 0.89 119 23:43 21.03.2020
780 Clear 1 1029 69 0 0.45 90 23:19 21.03.2020
781 Clear 1 1029 69 0 5.84 75 22:55 21.03.2020
782 Clear 1 1029 69 0 5.84 75 22:37 21.03.2020
783 Clear 1 1032 70 0 5.84 75 22:18 21.03.2020
784 Clear 1 1029 68 0 5.84 75 21:56 21.03.2020
785 Clear 2 1029 71 0 0.89 59 21:37 21.03.2020
786 Clear 2 1029 65 0 5.84 75 21:18 21.03.2020
787 Clear 2 1028 63 0 5.84 75 20:41 21.03.2020
788 Clouds 2 1029 65 0 0.45 105 20:20 21.03.2020
789 Clouds 3 1028 64 0 0.45 130 19:44 21.03.2020
790 Clouds 3 1027 65 0 5.52 66 19:25 21.03.2020
791 Clouds 3 1030 44 10000 4.6 70 18:59 21.03.2020
792 Clouds 4 1030 44 10000 4.6 70 18:40 21.03.2020
793 Clouds 4 1030 44 10000 4.6 70 18:20 21.03.2020
794 Clouds 5 1030 44 10000 4.6 70 17:57 21.03.2020
795 Clouds 5 1030 41 10000 5.1 90 17:39 21.03.2020
796 Clouds 5 1030 45 10000 5.7 90 17:21 21.03.2020
797 Clouds 5 1030 41 10000 5.7 70 16:41 21.03.2020
798 Clouds 5 1030 45 10000 5.1 80 16:22 21.03.2020
799 Clouds 5 1030 45 10000 5.1 80 15:58 21.03.2020
800 Clouds 6 1030 45 10000 6.7 90 15:39 21.03.2020
801 Clouds 6 1031 41 10000 6.7 90 15:21 21.03.2020
802 Clouds 5 1031 41 10000 6.7 90 14:55 21.03.2020
803 Clouds 6 1031 41 10000 5.1 70 14:37 21.03.2020
804 Clouds 6 1031 45 10000 5.1 70 14:19 21.03.2020
805 Clouds 5 1031 45 10000 5.1 70 13:57 21.03.2020
806 Clouds 6 1031 45 10000 5.7 80 13:38 21.03.2020
807 Clouds 5 1031 52 10000 4.1 70 13:20 21.03.2020
808 Clouds 6 1031 52 10000 5.1 70 12:41 21.03.2020
809 Clouds 5 1031 48 10000 5.7 70 12:21 21.03.2020
810 Clouds 5 1031 48 10000 5.7 70 11:59 21.03.2020
811 Clouds 5 1031 52 10000 4.1 0 11:39 21.03.2020
812 Clouds 5 1031 52 10000 4.1 0 11:39 21.03.2020
813 Clouds 5 1031 48 10000 6.2 80 11:20 21.03.2020
814 Clouds 5 1031 55 10000 6.7 80 10:58 21.03.2020
815 Clouds 5 1031 55 10000 6.7 80 10:58 21.03.2020
816 Clouds 4 1031 55 10000 6.7 80 10:40 21.03.2020
817 Clouds 5 1031 56 10000 6.2 80 10:22 21.03.2020
818 Clouds 5 1031 56 10000 6.2 80 09:59 21.03.2020
819 Clouds 4 1030 65 10000 6.7 80 09:39 21.03.2020
820 Clouds 3 1030 69 10000 6.2 90 09:20 21.03.2020
821 Clouds 4 1030 69 10000 6.2 90 08:55 21.03.2020
822 Clouds 3 1027 87 0 0.45 90 08:37 21.03.2020
823 Clouds 2 1027 88 0 0.89 90 08:19 21.03.2020
824 Clouds 2 1025 86 0 0.45 117 07:39 21.03.2020
825 Clouds 2 1026 83 0 0.45 105 07:20 21.03.2020
826 Clouds 2 1026 87 0 5.45 70 06:44 21.03.2020
827 Clouds 2 1026 82 0 1.79 49 06:25 21.03.2020
828 Clouds 2 1026 81 0 0.89 49 05:40 21.03.2020
829 Clouds 2 1025 87 0 0.89 90 04:34 21.03.2020
830 Clouds 4 1023 88 0 2.54 50 02:37 21.03.2020
831 Clouds 4 1025 88 0 0.45 90 01:49 21.03.2020
832 Clouds 4 1025 88 0 0.45 90 01:26 21.03.2020
833 Clouds 5 1023 89 0 2.4 26 00:43 21.03.2020
834 Clouds 5 1025 86 0 2.4 26 00:23 21.03.2020
835 Clouds 5 1025 84 0 0.45 90 23:44 20.03.2020
836 Clouds 5 1025 83 0 0.45 90 23:22 20.03.2020
837 Clouds 5 1028 70 10000 2.1 40 22:44 20.03.2020
838 Clouds 5 1028 70 10000 2.1 40 22:44 20.03.2020
839 Clouds 5 1028 70 10000 2.1 40 22:25 20.03.2020
840 Clouds 5 1028 70 10000 2.1 40 21:59 20.03.2020
841 Clouds 6 1028 70 10000 2.6 40 21:40 20.03.2020
842 Clouds 6 1027 65 10000 2.6 30 21:20 20.03.2020
843 Clouds 6 1027 65 10000 2.6 30 20:59 20.03.2020
844 Clouds 6 1027 65 10000 2.1 30 20:41 20.03.2020
845 Clouds 6 1027 61 10000 1.5 0 20:20 20.03.2020
846 Rain 6 1027 61 10000 1.5 0 19:48 20.03.2020
847 Rain 6 1026 83 10000 1.5 0 19:22 20.03.2020
848 Rain 6 1026 83 10000 1.5 0 19:22 20.03.2020
849 Rain 6 1026 83 10000 1.5 0 18:59 20.03.2020
850 Clouds 6 1026 42 10000 3.6 70 18:39 20.03.2020
851 Rain 6 1026 39 10000 3.1 40 18:20 20.03.2020
852 Rain 7 1026 45 10000 2.1 0 17:56 20.03.2020
853 Rain 7 1026 45 10000 2.1 0 17:38 20.03.2020
854 Rain 6 1026 49 10000 2.6 40 17:19 20.03.2020
855 Clouds 6 1026 57 10000 2.6 10 16:43 20.03.2020
856 Clouds 7 1026 61 10000 2.6 10 16:21 20.03.2020
857 Clouds 7 1026 61 10000 2.6 10 15:58 20.03.2020
858 Clouds 7 1026 61 10000 2.1 50 15:39 20.03.2020
859 Clouds 7 1026 61 10000 2.1 50 15:20 20.03.2020
860 Rain 7 1026 61 10000 1.5 0 14:42 20.03.2020
861 Clouds 7 1026 65 10000 1.5 0 14:21 20.03.2020
862 Clouds 7 1026 65 10000 1.5 0 14:21 20.03.2020
863 Clouds 7 1026 70 10000 1 0 13:51 20.03.2020
864 Clouds 7 1026 70 10000 1 0 13:26 20.03.2020
865 Clouds 7 1026 70 10000 1 0 12:59 20.03.2020
866 Clouds 7 1026 70 10000 1.5 0 12:38 20.03.2020
867 Clouds 7 1026 65 10000 2.1 40 12:20 20.03.2020
868 Clouds 6 1026 70 10000 1.5 0 11:41 20.03.2020
869 Clouds 6 1026 70 10000 1 0 11:21 20.03.2020
870 Clouds 6 1026 75 10000 1 0 10:58 20.03.2020
871 Clouds 6 1026 75 10000 1 0 10:40 20.03.2020
872 Clouds 6 1026 81 10000 1 0 10:18 20.03.2020
873 Clouds 7 1026 81 10000 3.1 100 09:47 20.03.2020
874 Clouds 7 1026 81 10000 3.1 100 09:21 20.03.2020
875 Clouds 6 1026 81 10000 2.1 80 08:59 20.03.2020
876 Clouds 6 1026 87 10000 2.1 40 08:40 20.03.2020
877 Clouds 6 1026 81 10000 2.1 30 08:20 20.03.2020
878 Clouds 7 1025 75 10000 1.5 0 07:46 20.03.2020
879 Clouds 7 1025 75 10000 1.5 0 07:26 20.03.2020
880 Rain 7 1022 91 0 3.47 52 06:49 20.03.2020
881 Rain 7 1022 94 0 3.47 52 06:31 20.03.2020
882 Clouds 8 1022 93 0 2.51 85 04:51 20.03.2020
883 Clouds 8 1023 91 0 2.51 85 03:20 20.03.2020
884 Clouds 8 1022 92 0 2.15 79 01:51 20.03.2020
885 Clouds 8 1023 91 0 2.28 68 00:51 20.03.2020
886 Clouds 8 1021 92 0 2.28 68 00:29 20.03.2020
887 Clouds 8 1023 90 0 2.28 68 23:47 19.03.2020
888 Clouds 8 1021 91 0 2.28 68 23:26 19.03.2020
889 Clouds 8 1026 81 10000 1.5 0 22:56 19.03.2020
890 Clouds 9 1026 81 10000 1.5 0 22:38 19.03.2020
891 Clouds 9 1026 81 10000 1.5 0 22:18 19.03.2020
892 Clouds 9 1026 81 10000 1.5 0 21:42 19.03.2020
893 Clouds 9 1026 87 10000 2.1 90 21:20 19.03.2020
894 Clouds 9 1026 87 10000 2.1 90 20:59 19.03.2020
895 Clouds 9 1026 81 10000 2.1 50 20:41 19.03.2020
896 Clouds 9 1026 81 10000 2.1 50 20:22 19.03.2020
897 Clouds 9 1026 81 10000 2.1 50 19:55 19.03.2020
898 Clouds 10 1026 81 10000 2.6 0 19:37 19.03.2020
899 Clouds 10 1025 81 10000 2.6 50 19:19 19.03.2020
900 Clouds 11 1025 81 10000 2.1 0 18:54 19.03.2020
901 Clouds 11 1025 81 10000 2.1 0 18:36 19.03.2020
902 Clouds 12 1025 76 10000 3.1 350 18:18 19.03.2020
903 Clouds 12 1025 76 10000 3.1 350 17:41 19.03.2020
904 Clouds 13 1025 71 10000 3.1 360 17:19 19.03.2020
905 Clouds 14 1025 66 10000 3.1 360 16:44 19.03.2020
906 Clouds 14 1025 66 10000 3.1 360 16:24 19.03.2020
907 Clouds 14 1025 67 10000 3.6 360 15:46 19.03.2020
908 Clouds 14 1025 67 10000 3.6 360 15:27 19.03.2020
909 Clouds 14 1025 71 10000 3.1 360 14:58 19.03.2020
910 Clouds 15 1025 67 10000 3.6 360 14:40 19.03.2020
911 Clouds 15 1025 62 10000 3.1 310 14:19 19.03.2020
912 Clouds 14 1025 67 10000 3.1 300 13:40 19.03.2020
913 Clouds 14 1025 67 10000 3.1 300 13:40 19.03.2020
914 Clouds 14 1025 62 10000 3.6 300 13:19 19.03.2020
915 Clouds 14 1025 62 10000 4.1 280 12:56 19.03.2020
916 Clouds 14 1025 62 10000 4.1 280 12:38 19.03.2020
917 Rain 14 1025 62 10000 3.1 290 12:19 19.03.2020
918 Clouds 14 1025 62 10000 2.6 300 11:42 19.03.2020
919 Clouds 13 1025 62 10000 3.1 310 11:23 19.03.2020
920 Clouds 12 1025 66 10000 3.1 280 10:57 19.03.2020
921 Clouds 12 1025 66 10000 3.1 280 10:37 19.03.2020
922 Clouds 12 1025 66 10000 3.1 260 10:18 19.03.2020
923 Clouds 11 1025 62 10000 3.1 250 09:44 19.03.2020
924 Clouds 11 1025 62 10000 3.1 250 09:26 19.03.2020
925 Clouds 9 1025 66 10000 3.1 240 08:57 19.03.2020
926 Clouds 9 1024 66 10000 2.6 240 08:38 19.03.2020
927 Clouds 8 1024 71 10000 2.1 270 08:18 19.03.2020
928 Clouds 8 1024 66 10000 2.1 290 07:43 19.03.2020
929 Clouds 7 1024 66 10000 2.6 240 07:22 19.03.2020
930 Clouds 7 1024 66 10000 2.6 220 06:29 19.03.2020
931 Clouds 7 1023 89 0 2.44 220 05:46 19.03.2020
932 Clear 7 1023 88 0 2.58 218 04:51 19.03.2020
933 Clear 8 1021 88 0 2.58 218 04:24 19.03.2020
934 Clear 8 1023 85 0 2.58 218 02:34 19.03.2020
935 Clouds 8 1021 89 0 3.03 216 00:55 19.03.2020
936 Clouds 7 1025 84 0 3.03 216 00:21 19.03.2020
937 Clouds 8 1023 83 0 3.03 216 23:46 18.03.2020
938 Clouds 8 1022 84 0 3.03 216 23:26 18.03.2020
939 Clouds 9 1024 62 10000 2.1 260 22:44 18.03.2020
940 Clouds 9 1024 62 10000 2.1 260 22:24 18.03.2020
941 Clouds 9 1024 62 10000 2.1 260 21:59 18.03.2020
942 Clouds 10 1024 62 10000 2.1 280 21:41 18.03.2020
943 Clouds 10 1024 66 10000 2.6 270 21:21 18.03.2020
944 Clouds 11 1024 66 10000 2.6 270 20:57 18.03.2020
945 Clouds 11 1024 62 10000 3.1 270 20:39 18.03.2020
946 Clouds 11 1024 62 10000 3.6 260 20:19 18.03.2020
947 Clouds 11 1024 62 10000 3.6 260 19:55 18.03.2020
948 Clouds 12 1024 58 10000 4.1 250 19:36 18.03.2020
949 Clouds 12 1024 54 10000 4.1 240 19:18 18.03.2020
950 Clouds 12 1024 54 10000 4.1 270 18:41 18.03.2020
951 Clouds 14 1024 54 10000 5.1 270 18:20 18.03.2020
952 Clouds 14 1024 51 10000 6.2 280 17:57 18.03.2020
953 Clouds 15 1024 51 10000 6.2 280 17:39 18.03.2020
954 Clouds 15 1024 51 10000 5.1 280 17:21 18.03.2020
955 Clouds 16 1024 48 10000 5.7 270 16:54 18.03.2020
956 Clouds 16 1024 48 10000 5.7 270 16:36 18.03.2020
957 Clouds 16 1024 48 10000 6.2 250 16:18 18.03.2020
958 Clouds 17 1024 45 10000 7.2 260 15:44 18.03.2020
959 Clouds 16 1024 42 10000 6.2 260 15:20 18.03.2020
960 Clouds 16 1024 42 10000 6.7 270 14:45 18.03.2020
961 Clouds 16 1025 42 10000 6.2 260 14:22 18.03.2020
962 Clouds 16 1025 42 10000 6.2 260 13:56 18.03.2020
963 Clouds 15 1025 41 10000 7.2 250 13:36 18.03.2020
964 Clouds 15 1025 44 10000 6.7 260 13:18 18.03.2020
965 Clouds 15 1025 47 10000 5.7 230 12:41 18.03.2020
966 Clouds 14 1026 54 10000 5.7 240 12:19 18.03.2020
967 Clouds 13 1026 54 10000 5.7 240 11:39 18.03.2020
968 Clouds 12 1026 58 10000 6.7 250 11:21 18.03.2020
969 Clouds 12 1026 58 10000 6.7 250 10:58 18.03.2020
970 Clouds 12 1026 58 10000 6.7 250 10:39 18.03.2020
971 Clouds 11 1026 57 10000 6.7 240 10:20 18.03.2020
972 Clouds 11 1026 53 10000 5.7 230 09:44 18.03.2020
973 Clouds 10 1026 53 10000 5.7 230 09:26 18.03.2020
974 Clouds 9 1026 57 10000 4.6 220 08:58 18.03.2020
975 Clouds 9 1026 57 10000 5.1 220 08:39 18.03.2020
976 Clouds 8 1026 66 10000 4.1 220 08:21 18.03.2020
977 Clouds 6 1026 79 10000 3.1 220 07:49 18.03.2020
978 Clouds 6 1026 79 10000 3.1 220 07:30 18.03.2020
979 Clouds 6 1026 79 10000 3.1 220 06:45 18.03.2020
980 Clouds 6 1025 64 0 0.45 292 06:23 18.03.2020
981 Clouds 6 1025 61 0 0.45 270 05:35 18.03.2020
982 Clouds 6 1024 72 0 3.56 217 04:27 18.03.2020
983 Clouds 6 1026 56 0 0.45 270 02:49 18.03.2020
984 Clouds 5 1028 71 0 0.45 225 01:48 18.03.2020
985 Clouds 6 1025 69 0 2.74 220 01:29 18.03.2020
986 Clouds 6 1028 69 0 2.68 42 00:26 18.03.2020
987 Clouds 6 1025 66 0 3.12 211 23:59 17.03.2020
988 Clouds 6 1028 57 10000 1.5 210 23:40 17.03.2020
989 Clouds 7 1028 57 10000 1.5 210 23:19 17.03.2020
990 Clouds 7 1028 57 10000 1.5 210 22:42 17.03.2020
991 Clouds 7 1028 57 10000 2.1 190 22:23 17.03.2020
992 Clouds 8 1028 53 10000 2.1 230 21:42 17.03.2020
993 Clouds 9 1028 53 10000 2.1 250 21:22 17.03.2020
994 Clouds 9 1028 53 10000 2.1 250 20:56 17.03.2020
995 Clouds 9 1028 53 10000 2.1 230 20:37 17.03.2020
996 Clouds 9 1028 57 10000 2.6 280 20:19 17.03.2020
997 Clouds 10 1028 57 10000 2.6 270 19:41 17.03.2020
998 Clouds 10 1028 50 10000 2.6 260 19:18 17.03.2020
999 Clouds 10 1027 46 10000 3.1 260 18:57 17.03.2020
1000 Clouds 11 1027 46 10000 3.1 260 18:39 17.03.2020
1001 Clouds 12 1027 63 10000 4.6 270 18:20 17.03.2020
1002 Clouds 12 1027 63 10000 5.1 270 17:55 17.03.2020
1003 Clouds 13 1027 63 10000 5.1 270 17:36 17.03.2020
1004 Clouds 13 1027 50 10000 5.7 260 17:18 17.03.2020
1005 Clouds 14 1028 50 10000 5.7 260 16:41 17.03.2020
1006 Clouds 14 1028 41 10000 5.7 250 16:19 17.03.2020
1007 Clouds 14 1028 41 10000 5.7 250 15:44 17.03.2020
1008 Clouds 14 1028 50 10000 5.7 260 15:22 17.03.2020
1009 Clouds 14 1028 44 10000 4.6 290 14:44 17.03.2020
1010 Clouds 14 1028 44 10000 4.6 290 14:24 17.03.2020
1011 Clouds 13 1028 44 10000 5.1 260 13:57 17.03.2020
1012 Clouds 13 1028 43 10000 5.7 270 13:39 17.03.2020
1013 Clouds 13 1028 49 10000 6.2 270 13:21 17.03.2020
1014 Clouds 12 1028 47 10000 5.7 260 12:44 17.03.2020
1015 Clouds 12 1028 50 10000 5.7 270 12:24 17.03.2020
1016 Clouds 12 1028 50 10000 5.7 270 11:48 17.03.2020
1017 Clouds 11 1028 50 10000 5.7 270 11:29 17.03.2020
1018 Rain 11 1028 54 10000 5.7 260 10:58 17.03.2020
1019 Clouds 11 1028 54 10000 5.7 260 10:58 17.03.2020
1020 Clouds 11 1028 54 10000 5.7 260 10:40 17.03.2020
1021 Rain 11 1028 66 10000 4.6 280 10:22 17.03.2020
1022 Rain 10 1028 66 10000 4.6 280 09:59 17.03.2020
1023 Rain 10 1028 71 10000 3.1 290 09:41 17.03.2020
1024 Clouds 9 1028 76 10000 4.6 290 09:20 17.03.2020
1025 Clouds 9 1027 81 10000 3.6 280 08:50 17.03.2020
1026 Clouds 8 1027 81 10000 3.6 280 08:23 17.03.2020
1027 Clouds 8 1027 81 10000 3.1 280 07:57 17.03.2020
1028 Clouds 8 1026 87 10000 2.1 280 07:38 17.03.2020
1029 Clouds 8 1026 87 10000 1.5 270 07:19 17.03.2020
1030 Rain 8 1022 81 0 2.49 253 06:39 17.03.2020
1031 Rain 7 1026 91 0 2.49 253 05:58 17.03.2020
1032 Rain 7 1022 82 0 1.74 246 04:40 17.03.2020
1033 Rain 7 1021 85 0 1.74 246 02:56 17.03.2020
1034 Clouds 7 1023 88 0 1.06 219 01:49 17.03.2020
1035 Clouds 7 1023 87 0 1.06 219 01:28 17.03.2020
1036 Clouds 7 1022 89 0 0.92 236 00:48 17.03.2020
1037 Clouds 7 1022 86 0 0.92 236 23:51 16.03.2020
1038 Clouds 8 1022 85 0 0.92 236 23:33 16.03.2020
1039 Clouds 8 1024 75 10000 0.85 191 22:45 16.03.2020
1040 Clouds 8 1024 75 10000 0.85 191 22:26 16.03.2020
1041 Clouds 8 1024 75 10000 0.85 191 21:59 16.03.2020
1042 Clouds 8 1023 75 10000 0.85 191 21:41 16.03.2020
1043 Clouds 8 1023 75 10000 0.85 191 21:23 16.03.2020
1044 Clouds 9 1023 70 10000 0.5 340 20:58 16.03.2020
1045 Clouds 9 1023 66 10000 0.85 191 20:38 16.03.2020
1046 Clouds 10 1022 66 10000 1.5 320 20:19 16.03.2020
1047 Clouds 10 1022 66 10000 0.63 306 19:42 16.03.2020
1048 Clouds 11 1022 62 10000 0.63 306 19:23 16.03.2020
1049 Clouds 11 1022 62 10000 0.63 306 18:57 16.03.2020
1050 Clouds 12 1021 54 10000 2.1 310 18:37 16.03.2020
1051 Clouds 13 1021 51 10000 3.1 300 18:18 16.03.2020
1052 Clouds 14 1021 51 10000 3.6 300 17:43 16.03.2020
1053 Clouds 14 1020 51 10000 4.1 290 17:24 16.03.2020
1054 Clouds 15 1020 54 10000 3.6 300 16:47 16.03.2020
1055 Clouds 15 1020 54 10000 3.6 300 16:29 16.03.2020
1056 Clouds 16 1020 51 10000 3.6 300 15:57 16.03.2020
1057 Clouds 16 1020 51 10000 4.1 300 15:39 16.03.2020
1058 Clouds 16 1019 48 10000 4.6 280 15:19 16.03.2020
1059 Clouds 16 1019 51 10000 4.1 300 14:43 16.03.2020
1060 Clouds 15 1019 48 10000 3.1 270 14:19 16.03.2020
1061 Clouds 15 1019 47 10000 4.1 270 13:42 16.03.2020
1062 Clouds 15 1019 47 10000 4.1 270 13:24 16.03.2020
1063 Clouds 15 1019 47 10000 4.6 280 12:55 16.03.2020
1064 Clouds 15 1018 47 10000 4.1 280 12:36 16.03.2020
1065 Clouds 14 1018 47 10000 4.1 290 12:18 16.03.2020
1066 Clouds 14 1018 47 10000 4.1 270 11:41 16.03.2020
1067 Clouds 12 1018 47 10000 4.1 260 11:19 16.03.2020
1068 Clouds 12 1018 47 10000 4.6 240 10:43 16.03.2020
1069 Clouds 12 1018 47 10000 4.6 240 10:24 16.03.2020
1070 Clouds 10 1017 50 10000 3.6 250 09:46 16.03.2020
1071 Clouds 10 1017 50 10000 3.6 250 09:28 16.03.2020
1072 Clouds 9 1017 66 10000 2.1 230 08:58 16.03.2020
1073 Clouds 8 1016 66 10000 2.1 210 08:26 16.03.2020
1074 Clouds 6 1016 56 10000 2.1 190 07:54 16.03.2020
1075 Clouds 5 1015 60 10000 2.6 160 07:28 16.03.2020
1076 Clouds 5 1015 60 10000 2.6 170 06:54 16.03.2020
1077 Clouds 4 1014 70 0 0.45 270 06:27 16.03.2020
1078 Clouds 5 1013 76 0 3.32 212 05:54 16.03.2020
1079 Clouds 5 1013 65 0 0.45 270 03:31 16.03.2020
1080 Clouds 5 1015 74 0 0.45 104 01:20 16.03.2020
1081 Clouds 6 1013 62 0 2.72 204 00:43 16.03.2020
1082 Clouds 6 1013 61 0 0.45 292 23:49 15.03.2020
1083 Clouds 6 1013 63 0 0.45 270 23:22 15.03.2020
1084 Clouds 6 1012 72 0 2.57 198 22:58 15.03.2020
1085 Clouds 6 1012 70 0 2.57 198 22:38 15.03.2020
1086 Clouds 7 1014 52 10000 2.1 150 22:19 15.03.2020
1087 Clouds 7 1014 52 10000 2.1 150 21:39 15.03.2020
1088 Clouds 7 1014 52 10000 2.1 150 21:19 15.03.2020
1089 Clouds 7 1014 68 10000 2.1 130 20:44 15.03.2020
1090 Clouds 8 1014 67 10000 2.1 120 20:22 15.03.2020
1091 Clouds 9 1014 60 10000 2.1 120 19:59 15.03.2020
1092 Clouds 9 1014 60 10000 2.1 120 19:59 15.03.2020
1093 Clouds 9 1015 66 0 3.35 193 19:41 15.03.2020
1094 Clouds 9 1012 54 0 1.34 292 19:23 15.03.2020
1095 Clouds 10 1012 60 0 3.35 193 18:58 15.03.2020
1096 Clouds 10 1012 54 0 1.34 292 18:39 15.03.2020
1097 Clouds 11 1014 37 10000 4.6 190 18:21 15.03.2020
1098 Clouds 12 1014 60 10000 3.6 190 17:54 15.03.2020
1099 Clouds 12 1014 60 10000 3.6 190 17:36 15.03.2020
1100 Clouds 12 1014 52 10000 5.7 190 17:18 15.03.2020
1101 Clouds 13 1014 35 10000 6.2 190 16:42 15.03.2020
1102 Clouds 13 1014 35 10000 6.2 190 16:24 15.03.2020
1103 Clouds 13 1014 52 10000 6.7 200 15:57 15.03.2020
1104 Clouds 13 1015 52 10000 6.2 210 15:38 15.03.2020
1105 Clouds 13 1015 52 10000 6.7 210 15:19 15.03.2020
1106 Clouds 13 1015 52 10000 7.2 200 14:46 15.03.2020
1107 Clouds 13 1015 52 10000 7.2 200 14:24 15.03.2020
1108 Clouds 13 1016 54 10000 6.7 200 13:57 15.03.2020
1109 Clouds 13 1016 41 10000 6.2 210 13:38 15.03.2020
1110 Clouds 13 1016 41 10000 6.2 210 13:38 15.03.2020
1111 Clouds 12 1017 43 10000 7.2 200 13:19 15.03.2020
1112 Clouds 12 1017 54 10000 7.7 200 12:43 15.03.2020
1113 Clouds 12 1017 54 10000 6.2 200 12:25 15.03.2020
1114 Clouds 12 1017 46 10000 5.1 210 11:54 15.03.2020
1115 Clouds 11 1017 46 10000 5.1 210 11:36 15.03.2020
1116 Clouds 10 1018 60 10000 6.2 200 11:18 15.03.2020
1117 Clouds 10 1018 60 10000 5.1 200 10:55 15.03.2020
1118 Clouds 10 1018 60 10000 5.1 200 10:36 15.03.2020
1119 Clouds 9 1018 60 10000 4.6 170 10:18 15.03.2020
1120 Clouds 8 1018 60 10000 3.6 180 09:39 15.03.2020
1121 Clouds 8 1018 56 10000 3.6 170 09:20 15.03.2020
1122 Clouds 7 1018 56 10000 4.1 170 08:42 15.03.2020
1123 Clouds 5 1017 79 0 6 197 08:20 15.03.2020
1124 Clouds 4 1020 85 0 0.89 142 07:51 15.03.2020
1125 Clouds 4 1017 84 0 6 197 07:23 15.03.2020
1126 Clouds 4 1016 74 0 0.89 270 06:45 15.03.2020
1127 Clouds 4 1017 72 0 0.89 292 05:50 15.03.2020
1128 Clouds 4 1017 73 0 0.45 315 05:18 15.03.2020
1129 Clouds 4 1018 75 0 0.45 270 04:41 15.03.2020
1130 Clouds 4 1018 75 0 0.45 270 04:41 15.03.2020
1131 Clouds 3 1018 76 0 0.89 225 04:23 15.03.2020
1132 Clouds 3 1018 86 0 3.99 182 03:30 15.03.2020
1133 Clouds 3 1018 76 0 0.45 292 02:37 15.03.2020
1134 Clear 2 1019 75 0 0.45 292 01:34 15.03.2020
1135 Clear 3 1019 73 0 0.45 292 00:45 15.03.2020
1136 Clear 3 1019 72 0 0.45 292 00:22 15.03.2020
1137 Clear 4 1019 71 0 0.45 292 23:55 14.03.2020
1138 Clear 4 1019 70 0 3.73 172 23:36 14.03.2020
1139 Clear 4 1019 68 0 0.45 292 23:18 14.03.2020
1140 Clear 4 1019 69 0 4.28 158 22:41 14.03.2020
1141 Clear 4 1019 69 0 0.45 292 22:23 14.03.2020
1142 Clear 4 1020 68 0 4.28 158 21:56 14.03.2020
1143 Clear 4 1020 67 0 4.28 158 21:36 14.03.2020
1144 Clear 4 1020 67 0 4.28 158 21:36 14.03.2020
1145 Clear 5 1020 66 0 4.28 158 21:18 14.03.2020
1146 Clear 5 1020 66 0 4.28 158 20:58 14.03.2020
1147 Clear 5 1020 66 0 4.28 158 20:40 14.03.2020
1148 Clouds 5 1020 65 0 2.89 145 20:19 14.03.2020
1149 Clouds 6 1020 65 0 2.89 145 19:43 14.03.2020
1150 Clouds 5 1020 78 0 2.89 145 19:25 14.03.2020
1151 Clouds 6 1022 72 10000 3.6 110 18:42 14.03.2020
1152 Clouds 7 1022 72 10000 3.6 110 18:24 14.03.2020
1153 Clouds 8 1022 72 10000 5.1 110 17:58 14.03.2020
1154 Clouds 8 1022 72 10000 5.1 110 17:38 14.03.2020
1155 Clouds 8 1022 72 10000 5.1 110 17:38 14.03.2020
1156 Clouds 8 1022 61 10000 4.1 110 17:20 14.03.2020
1157 Clouds 8 1022 61 10000 4.1 110 17:20 14.03.2020
1158 Clouds 9 1022 56 10000 3.6 140 16:41 14.03.2020
1159 Clouds 9 1022 56 10000 3.6 140 16:23 14.03.2020
1160 Clouds 8 1022 56 10000 3.6 140 15:58 14.03.2020
1161 Clouds 8 1023 56 10000 3.6 150 15:27 14.03.2020
1162 Clouds 9 1023 56 10000 3.1 160 14:58 14.03.2020
1163 Clouds 8 1023 52 10000 3.6 160 14:37 14.03.2020
1164 Clouds 8 1023 52 10000 3.1 170 14:18 14.03.2020
1165 Clouds 8 1023 56 10000 3.1 150 13:42 14.03.2020
1166 Clouds 8 1024 56 10000 3.1 110 13:23 14.03.2020
1167 Clear 8 1024 56 10000 3.1 110 12:57 14.03.2020
1168 Clear 7 1024 56 10000 3.1 110 12:38 14.03.2020
1169 Clear 7 1024 60 10000 3.6 130 12:19 14.03.2020
1170 Clear 7 1024 60 10000 3.1 140 11:42 14.03.2020
1171 Clouds 6 1024 60 10000 2.6 120 11:24 14.03.2020
1172 Clouds 6 1024 65 10000 3.1 120 10:46 14.03.2020
1173 Clear 5 1024 64 10000 2.6 150 10:27 14.03.2020
1174 Clear 5 1024 64 10000 2.6 150 09:58 14.03.2020
1175 Clear 4 1023 74 10000 1.5 120 09:40 14.03.2020
1176 Clouds 3 1023 58 10000 1.5 0 09:20 14.03.2020
1177 Clear 2 1021 92 0 1.66 121 08:46 14.03.2020
1178 Clear 1 1020 95 0 1.93 116 08:24 14.03.2020
1179 Clear 0 1019 99 0 1.21 168 07:40 14.03.2020
1180 Clear 0 1020 95 0 1.21 168 07:21 14.03.2020
1181 Clear 0 1020 95 0 1.21 168 06:45 14.03.2020
1182 Clear -1 1019 99 0 1.21 168 06:26 14.03.2020
1183 Clear 0 1018 98 0 0.76 244 04:53 14.03.2020
1184 Clear 1 1019 90 0 0.76 244 03:34 14.03.2020
1185 Clear 2 1019 88 0 0.76 244 02:43 14.03.2020
1186 Clouds 2 1019 88 0 2.34 282 01:42 14.03.2020
1187 Clouds 3 1019 87 0 1.81 273 00:34 14.03.2020
1188 Clouds 4 1018 92 0 1.81 273 23:42 13.03.2020
1189 Clouds 4 1018 92 0 1.81 273 23:23 13.03.2020
1190 Clouds 4 1019 80 10000 3.1 310 22:44 13.03.2020
1191 Clouds 4 1019 80 10000 3.1 310 22:22 13.03.2020
1192 Clouds 4 1018 80 10000 3.6 300 21:41 13.03.2020
1193 Clouds 4 1018 80 10000 4.6 280 21:19 13.03.2020
1194 Clouds 4 1017 86 10000 4.1 280 20:43 13.03.2020
1195 Clouds 4 1017 86 10000 4.1 280 20:23 13.03.2020
1196 Clouds 5 1017 86 10000 4.6 280 19:59 13.03.2020
1197 Rain 5 1016 81 10000 5.7 270 19:40 13.03.2020
1198 Rain 5 1016 81 10000 5.7 270 19:22 13.03.2020
1199 Clouds 5 1015 81 10000 5.1 270 18:44 13.03.2020
1200 Rain 5 1015 75 10000 7.2 280 18:23 13.03.2020
1201 Rain 6 1014 81 10000 6.7 290 17:43 13.03.2020
1202 Rain 7 1014 65 10000 8.7 280 17:21 13.03.2020
1203 Rain 7 1014 65 10000 8.7 280 16:59 13.03.2020
1204 Rain 7 1013 70 10000 8.7 270 16:39 13.03.2020
1205 Clouds 7 1013 75 10000 8.2 270 16:20 13.03.2020
1206 Clouds 6 1013 75 10000 8.7 270 15:46 13.03.2020
1207 Clouds 7 1013 75 10000 8.7 270 15:23 13.03.2020
1208 Clouds 7 1013 86 10000 8.2 280 14:59 13.03.2020
1209 Rain 7 1012 81 10000 8.7 290 14:40 13.03.2020
1210 Rain 7 1012 81 10000 7.7 290 14:21 13.03.2020
1211 Rain 7 1011 75 5000 10.8 270 13:43 13.03.2020
1212 Rain 7 1011 87 10000 7.2 280 13:24 13.03.2020
1213 Rain 7 1011 87 10000 7.2 280 12:59 13.03.2020
1214 Rain 7 1011 87 10000 7.2 280 12:39 13.03.2020
1215 Rain 7 1010 81 10000 6.2 280 12:20 13.03.2020
1216 Clouds 7 1010 70 10000 10.3 260 11:57 13.03.2020
1217 Clouds 7 1010 70 10000 10.3 260 11:37 13.03.2020
1218 Clouds 7 1009 75 10000 10.3 250 11:19 13.03.2020
1219 Clouds 7 1009 65 10000 10.3 250 10:47 13.03.2020
1220 Clouds 6 1009 65 10000 10.3 250 10:26 13.03.2020
1221 Clouds 6 1009 65 10000 9.8 250 09:56 13.03.2020
1222 Clouds 6 1009 70 10000 9.8 250 09:38 13.03.2020
1223 Clouds 5 1008 78 10000 9.3 240 09:18 13.03.2020
1224 Clouds 6 1008 78 10000 8.2 240 08:41 13.03.2020
1225 Clouds 6 1008 78 10000 8.7 240 08:22 13.03.2020
1226 Clouds 6 1008 74 10000 8.2 240 07:45 13.03.2020
1227 Clouds 6 1008 74 10000 8.2 240 07:27 13.03.2020
1228 Clouds 6 1008 75 0 3.13 270 06:46 13.03.2020
1229 Clouds 6 1008 73 0 3.13 270 06:23 13.03.2020
1230 Clouds 5 1008 76 0 2.24 270 05:46 13.03.2020
1231 Clouds 5 1008 76 0 3.13 225 05:19 13.03.2020
1232 Clouds 5 1008 80 0 0.89 270 04:35 13.03.2020
1233 Clouds 5 1008 83 0 0.89 270 02:58 13.03.2020
1234 Rain 5 1008 74 0 1.34 270 01:41 13.03.2020
1235 Rain 5 1008 75 0 1.34 270 01:18 13.03.2020
1236 Rain 5 1008 78 0 0.89 270 00:43 13.03.2020
1237 Rain 4 1007 83 0 7.32 237 00:20 13.03.2020
1238 Rain 4 1008 82 0 0.89 270 23:45 12.03.2020
1239 Rain 4 1007 86 0 7.32 237 23:26 12.03.2020
1240 Rain 4 1009 74 10000 6.2 250 22:55 12.03.2020
1241 Rain 4 1009 74 10000 6.2 250 22:37 12.03.2020
1242 Rain 4 1009 74 10000 6.2 250 22:37 12.03.2020
1243 Rain 4 1009 74 10000 6.2 250 22:18 12.03.2020
1244 Clouds 4 1009 74 10000 6.2 240 21:42 12.03.2020
1245 Clouds 5 1009 74 10000 6.2 240 21:24 12.03.2020
1246 Rain 6 1009 56 10000 11.3 270 20:55 12.03.2020
1247 Rain 6 1008 48 10000 2.6 220 20:37 12.03.2020
1248 Clear 7 1008 48 10000 3.1 250 20:18 12.03.2020
1249 Clear 7 1008 48 10000 3.1 260 19:39 12.03.2020
1250 Clear 7 1008 48 10000 3.6 270 19:19 12.03.2020
1251 Clear 8 1009 42 10000 5.1 270 18:43 12.03.2020
1252 Clear 8 1009 39 10000 6.2 270 18:23 12.03.2020
1253 Clear 9 1008 37 10000 8.7 270 17:56 12.03.2020
1254 Clear 9 1008 37 10000 8.7 270 17:37 12.03.2020
1255 Clear 10 1008 39 10000 7.7 270 17:18 12.03.2020
1256 Clear 10 1008 37 10000 9.8 270 16:43 12.03.2020
1257 Clear 10 1008 37 10000 9.8 270 16:24 12.03.2020
1258 Clear 10 1008 37 10000 9.8 270 15:59 12.03.2020
1259 Clear 10 1008 43 10000 7.7 280 15:39 12.03.2020
1260 Clear 10 1008 45 10000 8.7 280 15:21 12.03.2020
1261 Clear 10 1008 45 10000 9.3 290 14:38 12.03.2020
1262 Clouds 10 1007 40 10000 11.3 270 14:19 12.03.2020
1263 Rain 10 1007 43 10000 10.8 270 13:40 12.03.2020
1264 Rain 10 1007 42 10000 13.4 280 13:22 12.03.2020
1265 Rain 9 1007 42 10000 13.4 280 12:55 12.03.2020
1266 Clouds 10 1007 42 10000 11.8 280 12:37 12.03.2020
1267 Clouds 10 1007 42 10000 11.8 280 12:37 12.03.2020
1268 Rain 10 1006 52 10000 10.8 280 12:18 12.03.2020
1269 Clouds 9 1006 52 10000 10.8 280 11:56 12.03.2020
1270 Clouds 9 1006 52 10000 10.8 280 11:37 12.03.2020
1271 Rain 9 1005 66 10000 11.8 270 11:19 12.03.2020
1272 Rain 9 1004 61 10000 12.9 270 10:56 12.03.2020
1273 Rain 9 1004 61 10000 12.9 270 10:38 12.03.2020
1274 Clouds 9 1004 75 10000 9.8 270 10:19 12.03.2020
1275 Clouds 9 1003 81 10000 11.8 290 09:43 12.03.2020
1276 Clouds 10 1003 81 10000 11.8 290 09:25 12.03.2020
1277 Clouds 10 1002 76 10000 8.7 260 08:41 12.03.2020
1278 Clouds 10 1002 76 10000 10.3 260 08:19 12.03.2020
1279 Clouds 10 1002 76 10000 10.3 260 07:53 12.03.2020
1280 Drizzle 11 1000 71 10000 8.2 240 07:23 12.03.2020
1281 Clouds 12 1001 71 10000 8.2 240 06:44 12.03.2020
1282 Rain 12 1001 83 0 3.13 225 05:40 12.03.2020
1283 Rain 12 1002 89 0 3.13 270 04:27 12.03.2020
1284 Rain 12 1004 93 0 3.58 225 02:36 12.03.2020
1285 Rain 11 1004 98 0 0.89 226 01:30 12.03.2020
1286 Rain 11 1005 93 0 2.24 270 00:42 12.03.2020
1287 Rain 11 1005 94 0 1.34 329 00:24 12.03.2020
1288 Rain 11 1006 93 0 0.89 270 23:42 11.03.2020
1289 Rain 11 1006 95 0 1.34 300 23:23 11.03.2020
1290 Clouds 11 1008 76 10000 3.6 220 22:45 11.03.2020
1291 Clouds 11 1008 76 10000 3.6 220 22:27 11.03.2020
1292 Clouds 11 1008 76 10000 3.6 220 21:59 11.03.2020
1293 Clouds 10 1009 76 10000 5.1 240 21:41 11.03.2020
1294 Clouds 10 1009 76 10000 5.1 230 21:22 11.03.2020
1295 Clouds 10 1009 76 10000 5.1 230 20:58 11.03.2020
1296 Clouds 10 1009 76 10000 5.1 230 20:58 11.03.2020
1297 Clouds 10 1009 76 10000 4.1 230 20:39 11.03.2020
1298 Clouds 10 1010 76 10000 4.6 230 20:19 11.03.2020
1299 Clouds 10 1010 76 10000 3.1 220 19:43 11.03.2020
1300 Clouds 11 1010 76 10000 3.1 220 19:25 11.03.2020
1301 Clouds 11 1010 71 10000 3.6 230 18:58 11.03.2020
1302 Rain 11 1010 71 10000 3.1 230 18:39 11.03.2020
1303 Rain 11 1010 71 10000 4.6 240 18:20 11.03.2020
1304 Clouds 11 1010 66 10000 6.2 240 17:56 11.03.2020
1305 Clouds 11 1010 66 10000 6.2 240 17:37 11.03.2020
1306 Clouds 11 1010 62 10000 5.7 260 17:19 11.03.2020
1307 Clouds 12 1010 62 10000 6.2 280 16:45 11.03.2020
1308 Clouds 12 1010 62 10000 6.2 280 16:22 11.03.2020
1309 Clouds 11 1010 62 10000 6.2 270 15:45 11.03.2020
1310 Clouds 11 1010 71 10000 5.7 270 15:24 11.03.2020
1311 Clouds 11 1010 71 10000 5.7 270 14:58 11.03.2020
1312 Clouds 11 1010 76 10000 5.1 270 14:40 11.03.2020
1313 Clouds 11 1010 76 10000 6.7 270 14:21 11.03.2020
1314 Clouds 11 1010 71 10000 7.2 270 13:44 11.03.2020
1315 Clouds 11 1010 71 10000 7.2 270 13:26 11.03.2020
1316 Clouds 10 1010 66 10000 7.7 270 12:58 11.03.2020
1317 Clouds 10 1010 66 10000 8.2 260 12:40 11.03.2020
1318 Clouds 10 1009 66 10000 7.7 250 12:19 11.03.2020
1319 Clouds 10 1009 66 10000 7.2 260 11:42 11.03.2020
1320 Clouds 9 1009 66 10000 7.2 260 11:24 11.03.2020
1321 Clouds 9 1009 66 10000 7.2 260 10:59 11.03.2020
1322 Rain 9 1009 71 10000 6.2 260 10:41 11.03.2020
1323 Rain 9 1009 71 10000 6.2 260 10:18 11.03.2020
1324 Rain 8 1009 76 10000 4.6 260 09:43 11.03.2020
1325 Rain 8 1009 76 10000 4.6 260 09:25 11.03.2020
1326 Rain 8 1008 76 10000 5.1 250 08:49 11.03.2020
1327 Rain 8 1008 76 10000 5.1 250 08:31 11.03.2020
1328 Rain 8 1008 81 10000 4.6 260 07:59 11.03.2020
1329 Clouds 8 1007 81 10000 4.6 270 07:38 11.03.2020
1330 Clouds 8 1007 81 10000 4.6 270 07:18 11.03.2020
1331 Rain 8 1006 92 0 5.32 271 06:37 11.03.2020
1332 Rain 8 1006 91 0 0.45 270 05:35 11.03.2020
1333 Rain 8 1005 90 0 0.89 270 04:18 11.03.2020
1334 Rain 9 1004 92 0 0.89 270 02:19 11.03.2020
1335 Rain 10 1002 92 0 3.13 270 01:27 11.03.2020
1336 Rain 11 1001 92 0 2.68 270 00:46 11.03.2020
1337 Rain 11 1001 94 0 2.68 270 23:58 10.03.2020
1338 Rain 12 1001 93 0 2.24 270 23:39 10.03.2020
1339 Rain 11 1003 98 0 4.92 248 23:20 10.03.2020
1340 Rain 11 1000 10 0 0.89 300 22:39 10.03.2020
1341 Rain 11 1001 95 0 2.24 270 22:20 10.03.2020
1342 Rain 11 1000 96 0 2.68 270 21:57 10.03.2020
1343 Rain 11 1000 96 0 2.68 270 21:57 10.03.2020
1344 Rain 11 1000 96 0 2.24 270 21:38 10.03.2020
1345 Rain 11 1000 96 0 2.24 270 21:38 10.03.2020
1346 Rain 10 1000 87 4200 5.7 230 21:20 10.03.2020
1347 Rain 10 1000 87 4200 5.7 230 20:58 10.03.2020
1348 Rain 10 1000 87 4200 5.7 230 20:40 10.03.2020
1349 Rain 9 1000 87 4200 5.7 230 20:18 10.03.2020
1350 Rain 9 1000 87 4200 5.7 230 19:56 10.03.2020
1351 Drizzle 9 1000 87 10000 6.2 240 19:37 10.03.2020
1352 Drizzle 9 1000 87 10000 6.2 230 19:19 10.03.2020
1353 Drizzle 9 1000 93 10000 5.7 230 18:44 10.03.2020
1354 Drizzle 9 1000 93 10000 5.7 230 18:25 10.03.2020
1355 Drizzle 9 1000 93 10000 5.7 220 17:57 10.03.2020
1356 Rain 9 1001 87 10000 6.2 230 17:39 10.03.2020
1357 Rain 9 1001 87 10000 5.1 230 17:21 10.03.2020
1358 Rain 8 1001 87 10000 5.7 220 16:39 10.03.2020
1359 Rain 8 1001 93 10000 5.7 220 16:19 10.03.2020
1360 Rain 8 1001 93 10000 5.7 220 15:56 10.03.2020
1361 Rain 8 1001 93 10000 5.7 220 15:56 10.03.2020
1362 Rain 8 1001 87 10000 5.7 220 15:37 10.03.2020
1363 Rain 8 1002 87 10000 5.7 230 15:19 10.03.2020
1364 Drizzle 8 1002 81 8000 6.2 220 14:41 10.03.2020
1365 Clouds 8 1002 76 10000 6.2 230 14:20 10.03.2020
1366 Clouds 8 1002 76 10000 6.2 230 13:59 10.03.2020
1367 Clouds 8 1002 81 10000 7.2 230 13:41 10.03.2020
1368 Clouds 8 1002 81 10000 7.2 230 13:22 10.03.2020
1369 Clouds 7 1003 81 10000 6.7 230 12:42 10.03.2020
1370 Rain 7 1002 81 9000 6.2 230 12:21 10.03.2020
1371 Rain 7 1002 81 9000 6.2 230 11:58 10.03.2020
1372 Rain 7 1002 81 9000 6.2 230 11:40 10.03.2020
1373 Rain 7 1002 87 8000 6.7 230 11:22 10.03.2020
1374 Rain 6 1002 81 10000 7.2 220 10:43 10.03.2020
1375 Rain 6 1002 81 10000 7.2 220 10:23 10.03.2020
1376 Clouds 6 1003 81 10000 6.7 220 09:58 10.03.2020
1377 Rain 6 1003 81 10000 7.7 220 09:40 10.03.2020
1378 Rain 5 1004 81 10000 6.7 210 09:19 10.03.2020
1379 Rain 5 1004 81 10000 6.7 210 09:19 10.03.2020
1380 Rain 5 1004 81 10000 5.1 200 08:51 10.03.2020
1381 Rain 5 1004 81 10000 5.1 200 08:32 10.03.2020
1382 Rain 5 1005 81 10000 4.1 190 07:51 10.03.2020
1383 Rain 5 1005 81 10000 4.1 190 07:51 10.03.2020
1384 Rain 5 1005 81 10000 4.1 190 07:32 10.03.2020
1385 Rain 5 1004 90 0 2.68 292 06:48 10.03.2020
1386 Rain 5 1007 89 0 1.79 150 06:30 10.03.2020
1387 Rain 5 1007 89 0 1.79 150 06:30 10.03.2020
1388 Rain 5 1005 85 0 2.24 270 05:42 10.03.2020
1389 Rain 5 1005 85 0 2.24 270 05:42 10.03.2020
1390 Clouds 5 1006 84 0 1.79 270 04:53 10.03.2020
1391 Clouds 5 1007 91 0 4.42 212 04:24 10.03.2020
1392 Clouds 5 1008 81 0 0.89 270 02:44 10.03.2020
1393 Clear 4 1010 82 0 0.45 292 01:30 10.03.2020
1394 Clouds 4 1010 82 0 0.89 270 00:47 10.03.2020
1395 Clouds 4 1010 90 0 3.98 213 00:27 10.03.2020
1396 Clouds 4 1011 84 0 0.45 247 23:41 09.03.2020
1397 Clouds 4 1011 84 0 0.45 292 23:22 09.03.2020
1398 Clear 5 1013 70 10000 3.1 230 22:56 09.03.2020
1399 Clear 5 1013 70 10000 3.1 230 22:37 09.03.2020
1400 Clear 5 1013 70 10000 3.1 230 22:18 09.03.2020
1401 Clouds 5 1013 70 10000 3.6 240 21:42 09.03.2020
1402 Clouds 5 1013 70 10000 3.1 260 21:21 09.03.2020
1403 Clouds 6 1013 70 10000 3.1 260 20:58 09.03.2020
1404 Clouds 5 1013 75 10000 4.1 240 20:39 09.03.2020
1405 Clouds 6 1013 75 10000 3.1 240 20:20 09.03.2020
1406 Clouds 6 1013 75 10000 4.1 240 19:45 09.03.2020
1407 Clouds 6 1013 75 10000 4.1 240 19:45 09.03.2020
1408 Clouds 6 1013 75 10000 4.1 240 19:26 09.03.2020
1409 Clouds 6 1013 75 10000 2.6 250 18:59 09.03.2020
1410 Clouds 7 1013 65 10000 2.6 260 18:40 09.03.2020
1411 Clouds 7 1012 70 10000 3.6 260 18:20 09.03.2020
1412 Clouds 8 1012 70 10000 3.6 260 17:58 09.03.2020
1413 Clouds 9 1012 66 10000 4.6 270 17:38 09.03.2020
1414 Clouds 9 1012 66 10000 4.1 280 17:20 09.03.2020
1415 Clouds 9 1012 66 10000 4.1 280 16:59 09.03.2020
1416 Clouds 10 1012 70 10000 5.1 270 16:41 09.03.2020
1417 Clouds 10 1011 61 10000 7.2 260 16:22 09.03.2020
1418 Clouds 9 1011 61 10000 7.2 260 15:58 09.03.2020
1419 Clouds 9 1011 61 10000 7.2 260 15:39 09.03.2020
1420 Clouds 9 1011 53 10000 5.7 260 15:21 09.03.2020
1421 Clouds 9 1011 57 10000 5.7 270 14:57 09.03.2020
1422 Clouds 9 1011 57 10000 5.7 270 14:38 09.03.2020
1423 Clouds 10 1011 61 10000 5.1 280 14:19 09.03.2020
1424 Clouds 9 1011 62 10000 6.2 260 13:57 09.03.2020
1425 Clouds 10 1011 62 10000 6.2 260 13:38 09.03.2020
1426 Clouds 9 1011 61 10000 5.1 270 13:18 09.03.2020
1427 Clouds 9 1011 61 10000 6.2 270 12:43 09.03.2020
1428 Clouds 9 1010 66 10000 6.7 260 12:22 09.03.2020
1429 Clouds 9 1010 71 10000 6.2 270 11:55 09.03.2020
1430 Clouds 9 1010 70 10000 7.2 270 11:37 09.03.2020
1431 Clouds 9 1010 70 10000 7.2 270 11:19 09.03.2020
1432 Clouds 9 1010 70 10000 5.7 260 10:55 09.03.2020
1433 Clouds 8 1010 70 10000 5.7 260 10:36 09.03.2020
1434 Clouds 8 1010 70 10000 5.7 260 10:18 09.03.2020
1435 Clouds 8 1009 75 10000 3.6 250 09:39 09.03.2020
1436 Clouds 8 1009 75 10000 3.6 250 09:39 09.03.2020
1437 Clouds 8 1009 75 10000 3.6 250 09:21 09.03.2020
1438 Clouds 7 1009 75 10000 3.1 270 08:44 09.03.2020
1439 Clouds 7 1009 81 10000 4.1 250 08:26 09.03.2020
1440 Clouds 6 1008 87 10000 2.6 240 07:42 09.03.2020
1441 Clouds 7 1008 81 10000 3.1 260 07:22 09.03.2020
1442 Clouds 6 1007 92 0 4.67 239 06:46 09.03.2020
1443 Clouds 7 1007 92 0 4.67 239 06:27 09.03.2020
1444 Clouds 7 1007 93 0 4.67 239 05:58 09.03.2020
1445 Clouds 7 1007 92 0 4.67 239 05:39 09.03.2020
1446 Clouds 7 1006 91 0 0.89 270 04:43 09.03.2020
1447 Clouds 8 1006 89 0 1.34 270 04:23 09.03.2020
1448 Clouds 8 1005 90 0 3.73 223 03:29 09.03.2020
1449 Clouds 8 1006 80 0 0.45 270 01:58 09.03.2020
1450 Clouds 8 1007 81 0 0.45 270 00:40 09.03.2020
1451 Clouds 8 1007 81 0 0.45 270 00:22 09.03.2020
1452 Clouds 8 1007 85 0 3.31 208 23:53 08.03.2020
1453 Clouds 8 1007 83 0 3.31 208 23:28 08.03.2020
1454 Rain 8 1007 82 0 3.66 206 22:58 08.03.2020
1455 Rain 8 1008 77 0 1.34 270 22:39 08.03.2020
1456 Rain 8 1010 78 0 0.89 75 22:21 08.03.2020
1457 Rain 8 1008 81 0 3.66 206 21:57 08.03.2020
1458 Rain 8 1008 77 0 0.45 225 21:39 08.03.2020
1459 Rain 9 1008 77 0 0.89 270 21:19 08.03.2020
1460 Rain 9 1008 77 0 0.89 270 21:19 08.03.2020
1461 Rain 9 1008 80 0 3.66 206 20:56 08.03.2020
1462 Rain 9 1009 78 0 0.45 292 20:37 08.03.2020
1463 Clouds 9 1011 61 10000 5.7 220 20:18 08.03.2020
1464 Clouds 9 1011 61 10000 5.7 220 19:38 08.03.2020
1465 Clouds 9 1011 61 10000 5.7 220 19:19 08.03.2020
1466 Clouds 9 1011 61 10000 4.6 220 18:43 08.03.2020
1467 Clouds 9 1010 61 10000 5.7 230 18:24 08.03.2020
1468 Clouds 10 1010 57 10000 5.7 210 17:57 08.03.2020
1469 Clouds 10 1011 57 10000 4.1 200 17:38 08.03.2020
1470 Clouds 10 1011 57 10000 4.1 200 17:20 08.03.2020
1471 Clouds 10 1011 57 10000 4.1 200 16:47 08.03.2020
1472 Clouds 11 1011 57 10000 4.1 200 16:28 08.03.2020
1473 Clouds 11 1011 57 10000 5.7 230 15:59 08.03.2020
1474 Clouds 11 1011 57 10000 5.7 200 15:40 08.03.2020
1475 Clouds 11 1011 57 10000 5.7 200 15:21 08.03.2020
1476 Clouds 11 1011 57 10000 5.7 200 14:55 08.03.2020
1477 Clouds 10 1012 57 10000 5.7 220 14:37 08.03.2020
1478 Clouds 10 1012 57 10000 5.7 220 14:18 08.03.2020
1479 Clouds 10 1013 61 10000 5.1 200 13:40 08.03.2020
1480 Clouds 10 1013 61 10000 5.1 200 13:20 08.03.2020
1481 Clouds 10 1013 61 10000 5.1 200 12:43 08.03.2020
1482 Clouds 9 1014 61 10000 5.7 200 12:25 08.03.2020
1483 Clouds 9 1014 61 10000 6.7 210 11:57 08.03.2020
1484 Clouds 9 1014 61 10000 6.7 210 11:57 08.03.2020
1485 Clouds 9 1014 61 10000 6.7 210 11:39 08.03.2020
1486 Clouds 8 1014 61 10000 6.7 210 11:20 08.03.2020
1487 Clouds 7 1015 65 10000 4.6 200 10:41 08.03.2020
1488 Clouds 7 1015 65 10000 4.6 200 10:23 08.03.2020
1489 Clouds 8 1015 65 10000 3.1 190 09:57 08.03.2020
1490 Clouds 7 1015 65 10000 3.1 190 09:36 08.03.2020
1491 Clouds 7 1015 65 10000 3.1 190 09:18 08.03.2020
1492 Clouds 7 1015 65 10000 3.1 190 09:18 08.03.2020
1493 Clouds 6 1015 70 10000 2.6 160 08:40 08.03.2020
1494 Clouds 5 1015 70 10000 2.6 190 08:19 08.03.2020
1495 Clouds 5 1014 78 0 0.89 270 07:44 08.03.2020
1496 Clouds 5 1014 78 0 0.89 225 07:25 08.03.2020
1497 Clouds 4 1014 78 0 1.34 292 06:42 08.03.2020
1498 Clouds 4 1014 77 0 0.45 292 06:22 08.03.2020
1499 Clouds 5 1014 76 0 0.89 270 05:39 08.03.2020
1500 Clouds 3 1015 79 0 0.89 270 03:52 08.03.2020
1501 Clouds 3 1018 93 0 2.68 41 02:30 08.03.2020
1502 Clouds 2 1016 82 0 0.89 292 01:34 08.03.2020
1503 Clouds 2 1017 97 0 3.76 205 00:55 08.03.2020
1504 Clouds 2 1017 97 0 3.76 205 00:28 08.03.2020
1505 Clouds 2 1017 84 0 0.45 270 23:47 07.03.2020
1506 Clouds 1 1017 83 0 0.45 270 23:24 07.03.2020
1507 Clear 1 1017 96 0 3.76 210 22:55 07.03.2020
1508 Clear 1 1017 82 0 0.45 270 22:36 07.03.2020
1509 Clear 1 1017 82 0 0.45 270 22:18 07.03.2020
1510 Clear 2 1017 84 0 0.45 270 21:43 07.03.2020
1511 Clear 2 1018 84 0 3.76 210 21:19 07.03.2020
1512 Clear 3 1017 85 0 3.76 210 20:39 07.03.2020
1513 Clouds 3 1017 84 0 2.53 251 20:20 07.03.2020
1514 Clouds 3 1017 82 0 2.67 253 19:41 07.03.2020
1515 Clouds 4 1017 80 0 2.67 253 19:22 07.03.2020
1516 Clouds 5 1018 82 10000 3.1 290 18:58 07.03.2020
1517 Clouds 5 1018 82 10000 3.1 290 18:39 07.03.2020
1518 Clouds 6 1018 82 10000 3.1 290 18:20 07.03.2020
1519 Clouds 6 1017 82 10000 4.1 280 17:41 07.03.2020
1520 Rain 6 1017 66 10000 5.1 280 17:19 07.03.2020
1521 Clouds 6 1017 65 10000 5.1 280 16:56 07.03.2020
1522 Clouds 6 1017 65 10000 5.1 280 16:38 07.03.2020
1523 Rain 7 1017 65 10000 5.1 280 16:19 07.03.2020
1524 Clouds 7 1016 65 10000 5.7 280 15:42 07.03.2020
1525 Clouds 6 1016 65 10000 5.1 280 15:22 07.03.2020
1526 Clouds 6 1016 65 10000 4.6 280 14:59 07.03.2020
1527 Clouds 6 1016 65 10000 4.6 280 14:41 07.03.2020
1528 Clouds 6 1015 70 10000 6.2 280 14:23 07.03.2020
1529 Clouds 6 1015 72 10000 6.2 300 13:43 07.03.2020
1530 Clouds 6 1015 72 10000 6.2 290 13:22 07.03.2020
1531 Clouds 6 1015 75 10000 5.7 290 12:59 07.03.2020
1532 Clouds 5 1015 75 10000 5.7 290 12:38 07.03.2020
1533 Clouds 5 1015 75 10000 5.7 290 12:19 07.03.2020
1534 Clouds 5 1015 75 10000 6.2 300 11:44 07.03.2020
1535 Clouds 5 1014 75 10000 5.7 300 11:24 07.03.2020
1536 Clouds 5 1013 80 10000 5.7 290 10:59 07.03.2020
1537 Clouds 5 1013 80 10000 5.7 290 10:38 07.03.2020
1538 Clouds 4 1013 80 10000 5.1 290 10:19 07.03.2020
1539 Clouds 4 1013 80 10000 5.1 300 09:41 07.03.2020
1540 Clouds 4 1012 86 9000 5.7 300 09:20 07.03.2020
1541 Clouds 4 1011 90 0 6.03 296 08:58 07.03.2020
1542 Clouds 4 1011 90 0 0.45 270 08:40 07.03.2020
1543 Snow 4 1010 91 0 6.26 299 08:20 07.03.2020
1544 Snow 4 1010 92 0 6.26 299 07:47 07.03.2020
1545 Snow 4 1010 92 0 6.26 299 07:21 07.03.2020
1546 Snow 4 1009 92 0 6.26 299 06:52 07.03.2020
1547 Snow 4 1009 97 0 6.26 299 06:28 07.03.2020
1548 Snow 4 1008 97 0 6.26 299 05:45 07.03.2020
1549 Snow 4 1006 94 0 7.15 311 04:25 07.03.2020
1550 Snow 3 1004 94 0 0.45 67 02:46 07.03.2020
1551 Rain 3 1004 95 0 7.2 303 02:18 07.03.2020
1552 Rain 4 1003 95 0 7.2 303 01:19 07.03.2020
1553 Rain 4 1002 95 0 7.19 303 00:37 07.03.2020
1554 Rain 3 1002 95 0 0.45 292 00:18 07.03.2020
1555 Rain 3 1001 95 0 7.19 303 23:41 06.03.2020
1556 Rain 3 1001 95 0 7.19 303 23:23 06.03.2020
1557 Drizzle 3 1000 93 8000 5.1 310 22:46 06.03.2020
1558 Drizzle 3 1000 93 8000 5.1 310 22:20 06.03.2020
1559 Drizzle 3 1000 93 9000 4.6 300 21:50 06.03.2020
1560 Drizzle 3 999 86 8000 3.6 300 21:21 06.03.2020
1561 Drizzle 3 999 93 8000 4.1 300 20:56 06.03.2020
1562 Drizzle 3 998 93 9000 4.6 300 20:36 06.03.2020
1563 Drizzle 3 998 93 9000 4.6 300 20:18 06.03.2020
1564 Drizzle 2 997 93 10000 5.1 300 19:42 06.03.2020
1565 Drizzle 2 997 93 10000 5.1 300 19:23 06.03.2020
1566 Drizzle 2 996 86 10000 5.1 300 18:42 06.03.2020
1567 Drizzle 3 995 86 10000 4.1 320 18:21 06.03.2020
1568 Rain 3 995 94 0 0.45 270 17:57 06.03.2020
1569 Drizzle 3 994 86 8000 4.1 340 17:39 06.03.2020
1570 Drizzle 3 994 93 10000 4.1 350 17:21 06.03.2020
1571 Drizzle 3 993 93 10000 2.6 10 16:56 06.03.2020
1572 Drizzle 4 993 93 10000 2.6 10 16:37 06.03.2020
1573 Drizzle 4 993 93 10000 2.6 10 16:19 06.03.2020
1574 Rain 5 992 87 8000 2.1 30 15:42 06.03.2020
1575 Rain 5 992 93 8000 2.1 20 15:23 06.03.2020
1576 Rain 6 991 93 8000 2.1 30 14:41 06.03.2020
1577 Rain 6 991 93 10000 2.1 90 14:23 06.03.2020
1578 Rain 6 991 93 10000 2.6 80 13:58 06.03.2020
1579 Rain 6 991 93 10000 2.6 80 13:58 06.03.2020
1580 Rain 6 991 93 10000 2.6 80 13:40 06.03.2020
1581 Rain 7 990 93 10000 2.6 80 13:20 06.03.2020
1582 Rain 6 990 93 10000 3.1 80 12:54 06.03.2020
1583 Rain 6 990 93 9000 2.6 80 12:36 06.03.2020
1584 Rain 7 990 93 9000 2.6 80 12:18 06.03.2020
1585 Clouds 7 990 93 9000 3.1 80 11:42 06.03.2020
1586 Rain 6 989 93 10000 3.6 90 11:21 06.03.2020
1587 Rain 7 989 93 7000 3.6 90 10:57 06.03.2020
1588 Rain 6 989 93 7000 2.6 80 10:36 06.03.2020
1589 Rain 6 989 93 7000 2.6 80 10:18 06.03.2020
1590 Rain 6 989 93 7000 2.6 70 09:42 06.03.2020
1591 Drizzle 6 988 93 5000 2.6 90 09:24 06.03.2020
1592 Drizzle 5 988 93 5000 4.1 90 08:56 06.03.2020
1593 Drizzle 5 988 93 5000 4.1 90 08:38 06.03.2020
1594 Drizzle 5 988 93 5000 4.1 90 08:38 06.03.2020
1595 Drizzle 5 988 93 3500 4.6 90 08:19 06.03.2020
1596 Drizzle 5 988 93 3100 4.1 90 07:45 06.03.2020
1597 Drizzle 5 988 93 5000 4.6 90 07:24 06.03.2020
1598 Drizzle 5 988 93 5000 4.1 90 06:47 06.03.2020
1599 Clouds 5 988 93 8000 4.1 90 06:28 06.03.2020
1600 Rain 5 985 94 0 3.19 117 05:39 06.03.2020
1601 Rain 5 985 94 0 4.04 119 05:20 06.03.2020
1602 Rain 5 985 94 0 4.04 119 04:39 06.03.2020
1603 Rain 4 987 94 0 1.34 60 01:45 06.03.2020
1604 Rain 4 986 89 0 5.77 104 01:26 06.03.2020
1605 Rain 5 986 87 0 5.9 105 00:57 06.03.2020
1606 Rain 5 987 83 0 5.9 105 00:31 06.03.2020
1607 Rain 5 987 81 0 0.45 112 23:44 05.03.2020
1608 Rain 5 988 92 0 2.24 117 23:25 05.03.2020
1609 Rain 5 988 80 0 0.45 90 22:56 05.03.2020
1610 Rain 6 992 77 10000 5.7 100 22:37 05.03.2020
1611 Rain 6 992 77 10000 5.7 100 22:18 05.03.2020
1612 Rain 6 992 77 10000 5.7 100 21:56 05.03.2020
1613 Rain 6 992 77 10000 5.7 100 21:56 05.03.2020
1614 Rain 6 992 77 10000 5.7 100 21:37 05.03.2020
1615 Rain 6 993 77 10000 5.7 90 21:19 05.03.2020
1616 Rain 7 993 77 10000 5.7 100 20:43 05.03.2020
1617 Rain 7 994 52 10000 5.7 100 20:21 05.03.2020
1618 Clouds 7 994 75 10000 6.7 100 19:59 05.03.2020
1619 Clouds 7 994 75 10000 6.7 100 19:40 05.03.2020
1620 Clouds 7 994 61 10000 5.1 90 19:22 05.03.2020
1621 Clouds 7 994 75 10000 6.7 100 19:00 05.03.2020
1622 Clouds 8 994 75 10000 6.7 100 18:38 05.03.2020
1623 Clouds 8 994 61 10000 6.7 100 18:19 05.03.2020
1624 Clouds 8 995 61 10000 6.7 110 17:58 05.03.2020
1625 Clouds 8 995 61 10000 6.7 110 17:40 05.03.2020
1626 Clouds 8 995 61 10000 6.2 110 17:21 05.03.2020
1627 Clouds 9 996 61 10000 6.7 110 16:42 05.03.2020
1628 Clouds 8 996 65 10000 5.7 110 16:24 05.03.2020
1629 Clouds 9 997 61 10000 6.2 110 15:59 05.03.2020
1630 Clouds 8 997 61 10000 6.2 110 15:40 05.03.2020
1631 Clouds 8 998 61 10000 5.7 110 15:21 05.03.2020
1632 Clouds 8 998 65 10000 6.2 110 14:54 05.03.2020
1633 Clouds 8 999 65 10000 5.7 100 14:36 05.03.2020
1634 Clouds 8 999 65 10000 5.7 100 14:18 05.03.2020
1635 Clouds 8 999 65 10000 4.1 100 13:41 05.03.2020
1636 Clouds 7 1000 61 10000 4.6 120 13:21 05.03.2020
1637 Clouds 7 1000 61 10000 4.6 120 13:21 05.03.2020
1638 Clouds 7 1001 65 10000 3.1 140 12:56 05.03.2020
1639 Clouds 7 1001 65 10000 3.6 150 12:38 05.03.2020
1640 Clouds 7 1001 65 10000 3.6 150 12:18 05.03.2020
1641 Clouds 7 1001 65 10000 3.6 160 11:56 05.03.2020
1642 Clouds 7 1001 65 10000 3.6 160 11:37 05.03.2020
1643 Clouds 6 1002 65 10000 3.1 140 11:18 05.03.2020
1644 Clouds 6 1002 65 10000 3.1 140 11:18 05.03.2020
1645 Clouds 6 1002 70 10000 2.6 130 10:56 05.03.2020
1646 Clouds 5 1002 70 10000 2.6 130 10:38 05.03.2020
1647 Clouds 5 1003 75 10000 2.6 170 10:38 05.03.2020
1648 Clouds 5 1003 75 10000 2.6 170 10:20 05.03.2020
1649 Clouds 4 1003 86 10000 2.1 110 09:44 05.03.2020
1650 Clouds 4 1004 86 10000 2.1 110 09:26 05.03.2020
1651 Clouds 2 1004 66 10000 2.1 110 08:44 05.03.2020
1652 Clouds 2 1004 66 10000 2.1 110 08:25 05.03.2020
1653 Clouds 1 1004 85 10000 1.5 100 07:47 05.03.2020
1654 Clouds 1 1005 85 10000 1.5 100 07:22 05.03.2020
1655 Clouds 1 1004 95 0 2.1 158 06:49 05.03.2020
1656 Clouds 1 1003 92 0 2.1 158 06:22 05.03.2020
1657 Clouds 1 1003 93 0 2.1 158 05:57 05.03.2020
1658 Clouds 0 1005 96 0 0.45 40 05:25 05.03.2020
1659 Clouds 0 1004 94 0 2.22 189 04:22 05.03.2020
1660 Clouds 0 1004 93 0 2.22 189 03:51 05.03.2020
1661 Clouds 1 1008 93 0 0.45 117 02:21 05.03.2020
1662 Clouds 1 1006 92 0 0.45 270 01:22 05.03.2020
1663 Clouds 2 1006 92 0 2.31 199 00:26 05.03.2020
1664 Clouds 2 1007 92 0 2.31 199 23:43 04.03.2020
1665 Clouds 2 1007 92 0 2.31 199 23:24 04.03.2020
1666 Clouds 2 1009 80 10000 2.1 200 22:59 04.03.2020
1667 Clouds 2 1009 80 10000 2.1 200 22:39 04.03.2020
1668 Clouds 2 1009 80 10000 2.1 200 22:19 04.03.2020
1669 Clouds 2 1009 80 10000 2.1 210 21:58 04.03.2020
1670 Clouds 2 1009 80 10000 2.1 210 21:40 04.03.2020
1671 Clouds 2 1009 75 10000 2.6 230 21:20 04.03.2020
1672 Clouds 3 1009 80 10000 2.1 260 20:56 04.03.2020
1673 Clouds 3 1009 80 10000 2.1 260 20:37 04.03.2020
1674 Clouds 3 1009 75 10000 1 0 20:19 04.03.2020
1675 Clouds 3 1009 80 10000 3.6 230 19:42 04.03.2020
1676 Clouds 4 1009 86 10000 3.1 210 19:23 04.03.2020
1677 Clouds 4 1009 80 10000 2.1 280 18:57 04.03.2020
1678 Clouds 4 1009 80 10000 2.1 280 18:37 04.03.2020
1679 Clouds 4 1009 75 10000 1.5 0 18:18 04.03.2020
1680 Rain 5 1009 75 10000 1.5 250 17:55 04.03.2020
1681 Rain 6 1009 75 10000 1.5 250 17:37 04.03.2020
1682 Clouds 6 1009 75 10000 3.1 260 17:19 04.03.2020
1683 Clouds 7 1009 70 10000 2.6 230 16:44 04.03.2020
1684 Clouds 7 1009 75 10000 5.1 250 16:25 04.03.2020
1685 Clouds 6 1009 75 10000 6.2 260 15:59 04.03.2020
1686 Clouds 6 1009 75 10000 6.2 260 15:40 04.03.2020
1687 Clouds 6 1009 75 10000 5.7 250 15:21 04.03.2020
1688 Clouds 6 1009 75 10000 4.1 240 14:55 04.03.2020
1689 Clouds 6 1009 75 10000 4.1 240 14:37 04.03.2020
1690 Clouds 6 1009 75 10000 4.6 250 14:18 04.03.2020
1691 Clouds 6 1009 75 10000 4.6 230 13:56 04.03.2020
1692 Clouds 5 1009 75 10000 4.6 230 13:37 04.03.2020
1693 Clouds 5 1009 70 10000 4.6 240 13:19 04.03.2020
1694 Clouds 5 1009 70 10000 5.1 240 12:44 04.03.2020
1695 Clouds 5 1009 70 10000 5.7 240 12:25 04.03.2020
1696 Clouds 4 1009 70 10000 5.7 240 11:56 04.03.2020
1697 Clouds 4 1009 70 10000 5.7 240 11:37 04.03.2020
1698 Clouds 5 1009 70 10000 4.6 240 11:19 04.03.2020
1699 Clouds 5 1009 70 10000 4.6 240 11:19 04.03.2020
1700 Clouds 5 1009 75 10000 4.6 220 10:47 04.03.2020
1701 Clouds 4 1009 75 10000 4.6 230 10:26 04.03.2020
1702 Clouds 4 1009 80 10000 3.6 220 09:58 04.03.2020
1703 Clouds 4 1009 80 10000 3.6 220 09:40 04.03.2020
1704 Clouds 3 1009 86 10000 2.6 220 09:20 04.03.2020
1705 Clouds 3 1009 79 10000 3.6 220 08:44 04.03.2020
1706 Clouds 2 1009 79 10000 3.6 230 08:25 04.03.2020
1707 Clouds 2 1009 87 10000 4.1 220 07:52 04.03.2020
1708 Drizzle 2 1009 87 10000 3.6 220 07:33 04.03.2020
1709 Clear 1 1007 87 0 3.3 214 06:58 04.03.2020
1710 Clear 1 1008 92 0 3.3 214 06:40 04.03.2020
1711 Clear 1 1007 87 0 0.45 270 06:20 04.03.2020
1712 Clear 1 1007 86 0 0.45 270 05:45 04.03.2020
1713 Clear 1 1007 87 0 3.54 221 04:21 04.03.2020
1714 Clear 1 1006 93 0 3.54 221 03:38 04.03.2020
1715 Clear 1 1006 86 0 0.45 270 02:59 04.03.2020
1716 Clear 1 1006 85 0 0.45 270 02:37 04.03.2020
1717 Clouds 1 1006 85 0 0.45 270 02:18 04.03.2020
1718 Clouds 1 1007 92 0 4.27 231 01:50 04.03.2020
1719 Clouds 1 1005 86 0 0.45 225 00:44 04.03.2020
1720 Clouds 1 1004 91 0 4.7 232 00:24 04.03.2020
1721 Clouds 1 1005 82 0 0.45 270 23:45 03.03.2020
1722 Clouds 1 1005 83 0 0.45 292 23:27 03.03.2020
1723 Clouds 1 1006 80 10000 3.1 270 22:57 03.03.2020
1724 Clouds 1 1006 80 10000 3.1 270 22:39 03.03.2020
1725 Clouds 2 1006 80 10000 3.1 270 22:19 03.03.2020
1726 Clouds 2 1006 79 10000 3.1 270 21:56 03.03.2020
1727 Clouds 2 1006 79 10000 3.1 270 21:37 03.03.2020
1728 Clouds 2 1005 79 10000 2.1 250 21:18 03.03.2020
1729 Clouds 2 1005 79 10000 3.1 240 20:41 03.03.2020
1730 Clouds 2 1004 77 10000 2.6 240 20:21 03.03.2020
1731 Clouds 3 1004 77 10000 3.1 240 19:59 03.03.2020
1732 Clouds 3 1004 77 10000 3.1 240 19:37 03.03.2020
1733 Clouds 3 1004 77 10000 3.1 220 19:19 03.03.2020
1734 Clouds 3 1004 77 10000 3.1 220 19:19 03.03.2020
1735 Clouds 3 1003 77 10000 5.1 240 18:58 03.03.2020
1736 Clouds 3 1003 77 10000 5.1 240 18:40 03.03.2020
1737 Clouds 4 1002 56 10000 3.6 290 18:21 03.03.2020
1738 Clouds 5 1003 75 0 2.24 296 17:57 03.03.2020
1739 Clouds 5 1003 75 0 2.24 296 17:57 03.03.2020
1740 Clouds 5 1002 52 10000 3.6 300 17:39 03.03.2020
1741 Clouds 6 1002 52 10000 4.6 290 17:21 03.03.2020
1742 Clouds 7 1001 49 10000 4.1 270 16:57 03.03.2020
1743 Clouds 7 1001 49 10000 4.1 270 16:37 03.03.2020
1744 Clouds 7 1001 61 10000 3.6 290 16:19 03.03.2020
1745 Clouds 7 1001 61 10000 5.1 280 15:45 03.03.2020
1746 Clouds 8 1000 52 10000 6.2 300 15:22 03.03.2020
1747 Clouds 8 1000 61 10000 5.1 300 14:57 03.03.2020
1748 Clouds 7 1000 61 10000 5.1 300 14:38 03.03.2020
1749 Clouds 7 1000 61 10000 6.2 300 14:19 03.03.2020
1750 Clouds 7 1000 61 10000 5.7 290 13:56 03.03.2020
1751 Clouds 8 1000 61 10000 5.7 290 13:38 03.03.2020
1752 Clouds 7 1000 65 10000 7.2 290 13:19 03.03.2020
1753 Clouds 8 1000 65 10000 6.7 290 12:46 03.03.2020
1754 Clouds 7 999 75 10000 6.2 300 12:25 03.03.2020
1755 Clouds 7 999 81 10000 6.7 290 11:57 03.03.2020
1756 Clouds 6 999 81 10000 6.7 290 11:37 03.03.2020
1757 Clouds 6 999 81 10000 6.2 280 11:18 03.03.2020
1758 Clouds 6 999 86 10000 6.7 280 10:55 03.03.2020
1759 Clouds 5 999 86 10000 6.7 280 10:37 03.03.2020
1760 Rain 5 998 86 10000 6.2 290 10:18 03.03.2020
1761 Rain 5 998 93 4500 4.6 290 09:43 03.03.2020
1762 Rain 5 998 93 4500 4.6 290 09:43 03.03.2020
1763 Rain 5 998 93 7000 4.1 280 09:22 03.03.2020
1764 Rain 4 997 86 7000 4.1 280 08:56 03.03.2020
1765 Rain 4 997 86 7000 4.1 280 08:37 03.03.2020
1766 Rain 4 997 86 10000 4.6 280 08:19 03.03.2020
1767 Rain 4 996 93 10000 4.1 280 07:42 03.03.2020
1768 Rain 4 996 93 9000 3.1 250 07:20 03.03.2020
1769 Rain 4 995 93 0 3.76 272 06:43 03.03.2020
1770 Rain 5 995 93 0 3.76 272 06:22 03.03.2020
1771 Rain 5 995 95 0 0.89 279 05:47 03.03.2020
1772 Rain 5 994 95 0 1.38 239 05:18 03.03.2020
1773 Rain 5 994 96 0 0.45 301 04:24 03.03.2020
1774 Rain 5 992 93 0 0.87 155 01:40 03.03.2020
1775 Rain 5 991 91 0 0.47 189 00:49 03.03.2020
1776 Rain 5 989 79 0 0.47 189 00:27 03.03.2020
1777 Rain 6 991 90 0 0.47 189 23:57 02.03.2020
1778 Rain 6 991 81 0 0.47 189 23:38 02.03.2020
1779 Clouds 6 992 70 10000 2.6 100 23:20 02.03.2020
1780 Clouds 6 992 70 10000 2.6 100 22:55 02.03.2020
1781 Clouds 6 992 70 10000 2.6 100 22:37 02.03.2020
1782 Clouds 6 992 70 10000 2.6 100 22:18 02.03.2020
1783 Clouds 6 992 70 10000 3.1 110 21:42 02.03.2020
1784 Clouds 6 992 70 10000 2.6 110 21:23 02.03.2020
1785 Clouds 7 992 70 10000 3.1 110 20:58 02.03.2020
1786 Clouds 6 992 70 10000 3.1 110 20:39 02.03.2020
1787 Clouds 7 992 70 10000 2.1 100 20:20 02.03.2020
1788 Clouds 7 992 65 10000 2.1 100 19:56 02.03.2020
1789 Clouds 7 992 65 10000 2.1 100 19:38 02.03.2020
1790 Clouds 7 992 65 10000 3.1 130 19:20 02.03.2020
1791 Clouds 7 991 61 10000 4.1 120 18:45 02.03.2020
1792 Clouds 8 991 61 10000 3.6 120 18:20 02.03.2020
1793 Clouds 8 991 76 10000 4.6 130 17:59 02.03.2020
1794 Clouds 8 991 76 10000 4.6 130 17:59 02.03.2020
1795 Clouds 8 991 76 10000 4.6 130 17:41 02.03.2020
1796 Clouds 9 991 57 10000 4.6 120 17:21 02.03.2020
1797 Clouds 9 991 57 10000 4.6 120 17:21 02.03.2020
1798 -273 0 0 0 0 0 17:21 02.03.2020
1799 Clouds 9 991 57 10000 4.6 120 17:21 02.03.2020
1800 Clouds 9 991 60 10000 5.7 110 16:55 02.03.2020
1801 Clouds 9 991 60 10000 5.7 110 16:37 02.03.2020
1802 Clouds 9 991 57 10000 5.1 120 16:19 02.03.2020
1803 Clouds 10 991 60 10000 4.6 120 15:43 02.03.2020
1804 Clouds 10 991 53 10000 3.1 110 15:20 02.03.2020
1805 Clouds 10 991 53 10000 3.1 110 15:20 02.03.2020
1806 Clouds 10 991 60 10000 3.6 130 14:56 02.03.2020
1807 Clouds 10 992 57 10000 3.6 130 14:36 02.03.2020
1808 Clouds 9 992 57 10000 3.6 130 14:18 02.03.2020
1809 Clouds 9 992 54 10000 2.6 180 13:40 02.03.2020
1810 Clouds 9 993 57 10000 3.6 200 13:19 02.03.2020
1811 Clouds 9 993 57 10000 3.1 170 12:54 02.03.2020
1812 Clouds 9 994 61 10000 4.1 200 12:36 02.03.2020
1813 Clouds 8 994 61 10000 4.1 200 12:18 02.03.2020
1814 Clouds 7 994 70 10000 5.1 230 11:38 02.03.2020
1815 Clouds 7 994 70 10000 4.1 220 11:19 02.03.2020
1816 Clouds 6 994 75 10000 4.6 230 10:55 02.03.2020
1817 Clouds 6 994 81 10000 4.6 220 10:36 02.03.2020
1818 Clouds 6 994 81 10000 4.6 220 10:18 02.03.2020
1819 Clouds 5 994 81 10000 3.1 230 09:45 02.03.2020
1820 Clouds 5 993 86 10000 2.6 240 09:26 02.03.2020
1821 Clouds 4 993 86 10000 2.1 260 08:47 02.03.2020
1822 Clouds 4 993 86 10000 3.1 260 08:22 02.03.2020
1823 Clouds 3 993 93 10000 4.1 260 07:44 02.03.2020
1824 Drizzle 3 993 93 10000 4.1 250 07:20 02.03.2020
1825 Clouds 4 993 93 10000 4.1 250 06:50 02.03.2020
1826 Rain 4 990 99 0 0.89 307 05:58 02.03.2020
1827 Rain 4 989 98 0 0.89 273 04:56 02.03.2020
1828 Rain 4 990 94 0 4.05 298 03:25 02.03.2020
1829 Rain 5 987 97 0 4.05 298 02:53 02.03.2020
1830 Rain 5 988 95 0 3.01 119 01:55 02.03.2020
1831 Rain 5 989 92 0 3.01 119 01:33 02.03.2020
1832 Rain 5 989 89 0 3 165 00:48 02.03.2020
1833 Rain 5 989 88 0 0.45 225 00:22 02.03.2020
1834 Rain 6 992 88 10000 3.1 130 23:41 01.03.2020
1835 Rain 6 992 88 10000 3.1 130 23:21 01.03.2020
1836 Clouds 6 993 81 10000 2.6 130 22:44 01.03.2020
1837 Clouds 6 993 56 10000 2.6 140 22:21 01.03.2020
1838 Clouds 6 993 56 10000 3.1 140 21:57 01.03.2020
1839 Clouds 6 993 56 10000 3.1 140 21:39 01.03.2020
1840 Clouds 6 993 56 10000 3.1 150 21:20 01.03.2020
1841 Clouds 6 993 81 10000 2.1 160 20:45 01.03.2020
1842 Clouds 6 993 81 10000 2.6 160 20:26 01.03.2020
1843 Clouds 6 994 56 10000 2.1 170 19:59 01.03.2020
1844 Clouds 6 994 56 10000 2.1 170 19:41 01.03.2020
1845 Clouds 6 994 49 10000 2.1 180 19:21 01.03.2020
1846 Clouds 7 994 52 10000 3.1 220 18:56 01.03.2020
1847 Clouds 7 994 52 10000 3.1 220 18:38 01.03.2020
1848 Clouds 8 994 49 10000 4.1 230 18:18 01.03.2020
1849 Clouds 8 994 49 10000 3.6 230 17:55 01.03.2020
1850 Clouds 8 994 76 10000 4.6 240 17:36 01.03.2020
1851 Rain 9 994 60 10000 4.6 240 17:18 01.03.2020
1852 Clouds 9 994 49 10000 7.2 240 16:40 01.03.2020
1853 Clouds 9 994 49 10000 7.2 240 16:40 01.03.2020
1854 Clouds 9 994 49 10000 7.2 240 16:40 01.03.2020
1855 Clouds 9 994 60 10000 6.2 240 16:20 01.03.2020
1856 Clouds 10 994 60 10000 6.7 240 15:59 01.03.2020
1857 Clouds 9 994 60 10000 6.7 240 15:40 01.03.2020
1858 Clouds 9 994 60 10000 6.7 240 15:40 01.03.2020
1859 Clouds 10 994 60 10000 7.7 240 15:22 01.03.2020
1860 Clouds 10 994 57 10000 6.7 240 14:58 01.03.2020
1861 Clouds 9 994 57 10000 6.7 240 14:39 01.03.2020
1862 Clouds 9 994 61 10000 6.7 230 14:21 01.03.2020
1863 Clouds 9 994 61 10000 6.7 230 14:21 01.03.2020
1864 Clouds 9 994 57 10000 6.7 230 13:59 01.03.2020
1865 -273 0 0 0 0 0 13:41 01.03.2020
1866 Clouds 8 994 61 10000 7.7 230 13:20 01.03.2020
1867 Clouds 8 994 61 10000 8.7 230 12:56 01.03.2020
1868 Clouds 8 994 61 10000 8.7 230 12:38 01.03.2020
1869 Clouds 8 994 61 10000 8.7 230 12:19 01.03.2020
1870 Clouds 7 994 57 10000 8.2 220 11:40 01.03.2020
1871 Clouds 7 994 57 10000 7.7 220 11:20 01.03.2020
1872 Clouds 7 994 65 10000 6.2 220 10:56 01.03.2020
1873 Clouds 7 994 65 10000 6.2 220 10:37 01.03.2020
1874 Clouds 7 994 65 10000 6.2 220 10:37 01.03.2020
1875 Clouds 7 994 65 10000 6.2 220 10:37 01.03.2020
1876 Clouds 7 994 65 10000 6.2 220 10:37 01.03.2020
1877 Clouds 7 994 65 10000 6.2 220 10:18 01.03.2020
1878 Clouds 7 994 74 10000 6.2 220 09:45 01.03.2020
1879 Clouds 7 994 69 10000 6.2 220 09:26 01.03.2020
1880 Clouds 6 993 79 0 2.68 270 08:51 01.03.2020
1881 Clouds 6 993 80 0 1.79 270 08:29 01.03.2020
1882 Clouds 5 993 80 0 1.79 270 07:59 01.03.2020
1883 Clouds 5 993 81 0 1.79 270 07:40 01.03.2020
1884 Clouds 5 993 81 0 1.79 270 07:22 01.03.2020
1885 Clouds 5 993 80 0 1.34 270 06:43 01.03.2020
1886 Clouds 4 993 79 0 1.79 292 06:23 01.03.2020
1887 Clouds 5 993 80 0 0.45 308 03:40 01.03.2020
1888 Clouds 5 994 74 0 2.24 270 02:23 01.03.2020
1889 Clouds 5 996 79 0 7.27 212 01:46 01.03.2020
1890 Clouds 5 994 77 0 1.34 270 01:20 01.03.2020
1891 Clouds 5 994 82 0 5.48 213 00:41 01.03.2020
1892 Clouds 5 993 74 0 1.34 270 00:20 01.03.2020
1893 Clouds 5 993 76 0 1.34 270 23:45 29.02.2020
1894 Clouds 5 993 85 0 5.48 213 23:26 29.02.2020
1895 Rain 6 993 77 0 2.24 270 22:42 29.02.2020
1896 Rain 6 993 79 0 1.34 270 22:22 29.02.2020
1897 Rain 6 992 79 0 2.24 270 21:42 29.02.2020
1898 Rain 7 992 79 0 2.68 270 21:22 29.02.2020
1899 Rain 7 992 86 0 2.24 270 20:43 29.02.2020
1900 Rain 7 992 86 0 2.24 270 20:43 29.02.2020
1901 Rain 7 991 86 0 0.89 270 20:21 29.02.2020
1902 Rain 7 993 92 0 2.24 267 19:56 29.02.2020
1903 Rain 7 991 86 0 1.79 270 19:38 29.02.2020
1904 Rain 7 992 93 0 4.47 256 19:19 29.02.2020
1905 Rain 9 988 62 10000 4.6 160 18:43 29.02.2020
1906 Rain 10 988 62 10000 4.6 160 18:24 29.02.2020
1907 Rain 10 988 54 10000 6.2 180 17:58 29.02.2020
1908 Rain 11 988 54 10000 6.2 180 17:40 29.02.2020
1909 Clouds 11 988 54 10000 6.2 180 17:20 29.02.2020
1910 Clouds 11 989 54 10000 6.2 200 16:45 29.02.2020
1911 Clouds 11 989 54 10000 6.2 200 16:22 29.02.2020
1912 Clouds 12 990 54 10000 5.7 190 15:58 29.02.2020
1913 Clouds 12 990 54 10000 5.7 190 15:40 29.02.2020
1914 Clouds 12 990 62 10000 4.1 160 15:21 29.02.2020
1915 Clouds 12 991 66 10000 6.2 150 14:42 29.02.2020
1916 Clouds 12 991 66 10000 6.2 150 14:42 29.02.2020
1917 Clouds 12 991 58 10000 6.2 170 14:23 29.02.2020
1918 Clouds 12 992 58 10000 4.1 170 13:56 29.02.2020
1919 Clouds 12 993 58 10000 5.7 180 13:37 29.02.2020
1920 Clouds 12 993 58 10000 5.7 180 13:18 29.02.2020
1921 Clouds 11 994 62 10000 5.7 200 12:42 29.02.2020
1922 Clouds 11 994 66 10000 6.7 210 12:22 29.02.2020
1923 Clouds 10 995 66 10000 6.2 200 11:56 29.02.2020
1924 Clouds 11 995 66 10000 6.2 200 11:38 29.02.2020
1925 Clouds 10 995 66 10000 4.6 200 11:20 29.02.2020
1926 Clouds 9 996 70 10000 7.2 210 10:46 29.02.2020
1927 Clouds 8 996 75 10000 6.2 210 10:28 29.02.2020
1928 Clouds 8 996 75 10000 6.2 210 09:48 29.02.2020
1929 Clouds 7 996 81 10000 4.6 210 09:25 29.02.2020
1930 Clouds 6 995 90 0 1.34 225 08:42 29.02.2020
1931 Clouds 6 996 91 0 0.89 270 08:23 29.02.2020
1932 Clouds 5 996 91 0 1.79 270 07:58 29.02.2020
1933 Clouds 5 1000 98 0 4.84 214 07:40 29.02.2020
1934 Clouds 5 996 93 0 1.34 292 07:18 29.02.2020
1935 Clouds 5 997 93 0 1.34 292 06:44 29.02.2020
1936 Clouds 5 997 94 0 0.89 270 06:23 29.02.2020
1937 Clouds 5 998 94 0 1.79 270 05:46 29.02.2020
1938 Rain 4 999 95 0 0.89 292 04:46 29.02.2020
1939 Rain 3 1000 94 0 1.34 292 03:40 29.02.2020
1940 Rain 3 1000 94 0 1.34 247 03:22 29.02.2020
1941 Rain 3 1000 93 0 1.34 270 02:37 29.02.2020
1942 Rain 2 1002 94 0 1.79 270 01:23 29.02.2020
1943 Rain 2 1002 94 0 1.79 292 00:37 29.02.2020
1944 Rain 1 1003 94 0 1.79 270 23:56 28.02.2020
1945 Rain 2 1009 56 10000 4.6 180 23:36 28.02.2020
1946 Clouds 2 1009 56 10000 4.6 180 23:18 28.02.2020
1947 Clouds 3 1009 56 10000 4.6 180 22:41 28.02.2020
1948 Clouds 3 1009 64 10000 3.1 170 22:18 28.02.2020
1949 Clouds 3 1009 64 10000 3.1 170 21:41 28.02.2020
1950 Clouds 4 1010 64 10000 4.1 170 21:21 28.02.2020
1951 Clouds 4 1010 64 10000 3.1 170 20:41 28.02.2020
1952 Clouds 4 1011 64 10000 3.1 170 20:23 28.02.2020
1953 Clouds 4 1012 64 10000 2.6 170 19:59 28.02.2020
1954 Clouds 4 1012 64 10000 2.6 170 19:40 28.02.2020
1955 Clouds 4 1012 60 10000 2.6 180 19:21 28.02.2020
1956 Clouds 4 1013 60 10000 3.1 230 18:58 28.02.2020
1957 Clouds 4 1013 60 10000 3.1 230 18:39 28.02.2020
1958 Clouds 4 1013 56 10000 4.6 230 18:21 28.02.2020
1959 Clouds 4 1013 56 10000 4.1 230 17:41 28.02.2020
1960 Clouds 5 1013 52 10000 6.2 230 17:22 28.02.2020
1961 Clouds 5 1014 52 10000 6.2 230 16:47 28.02.2020
1962 Clouds 6 1014 56 10000 7.7 240 16:21 28.02.2020
1963 Clouds 6 1014 56 10000 6.7 260 15:59 28.02.2020
1964 Clouds 6 1014 56 10000 6.7 260 15:41 28.02.2020
1965 Clouds 6 1014 56 10000 7.2 250 15:20 28.02.2020
1966 Clouds 6 1014 70 10000 6.7 250 14:58 28.02.2020
1967 Clouds 6 1014 70 10000 6.7 250 14:39 28.02.2020
1968 Clouds 6 1014 67 10000 7.2 260 14:19 28.02.2020
1969 Clouds 6 1014 67 10000 7.2 260 13:57 28.02.2020
1970 Clouds 6 1014 67 10000 7.2 260 13:39 28.02.2020
1971 Clouds 6 1014 69 10000 7.7 260 13:19 28.02.2020
1972 Clouds 6 1014 65 10000 8.2 270 12:41 28.02.2020
1973 Clouds 5 1014 70 10000 8.2 260 12:23 28.02.2020
1974 Clouds 5 1014 75 10000 7.2 270 11:43 28.02.2020
1975 Clouds 4 1014 75 10000 7.2 260 11:24 28.02.2020
1976 Clouds 4 1013 75 10000 6.7 270 10:59 28.02.2020
1977 Clouds 4 1013 75 10000 6.7 270 10:40 28.02.2020
1978 Clouds 4 1013 80 10000 6.7 260 10:20 28.02.2020
1979 Clouds 3 1013 80 10000 7.2 260 09:47 28.02.2020
1980 Clouds 3 1013 80 10000 7.2 260 09:47 28.02.2020
1981 Clouds 3 1013 86 10000 6.2 270 09:21 28.02.2020
1982 Clouds 3 1012 78 10000 5.7 260 08:57 28.02.2020
1983 Clouds 3 1012 78 10000 5.7 260 08:57 28.02.2020
1984 Clouds 3 1012 78 10000 5.7 260 08:37 28.02.2020
1985 Clouds 2 1012 88 10000 4.6 270 08:19 28.02.2020
1986 Clouds 2 1011 88 10000 5.1 270 07:40 28.02.2020
1987 Clouds 2 1011 88 10000 6.2 280 07:21 28.02.2020
1988 Clouds 2 1010 88 10000 6.2 280 06:45 28.02.2020
1989 Clouds 2 1010 88 10000 5.7 280 06:20 28.02.2020
1990 Snow 2 1008 93 0 0.45 270 04:45 28.02.2020
1991 Snow 2 1008 94 0 6.74 282 04:18 28.02.2020
1992 Snow 1 1006 94 0 6.74 282 02:46 28.02.2020
1993 Snow 1 1006 95 0 6.74 282 02:27 28.02.2020
1994 Clouds 1 1004 86 10000 4.1 300 00:59 28.02.2020
1995 Clouds 1 1003 86 10000 3.1 310 00:28 28.02.2020
1996 Clouds 1 1003 80 10000 3.6 300 23:42 27.02.2020
1997 Snow 1 1002 96 0 0.89 281 23:20 27.02.2020
1998 Snow 1 999 74 10000 1 0 22:46 27.02.2020
1999 Snow 1 999 74 10000 1 0 22:26 27.02.2020
2000 Snow 1 999 74 10000 1 0 21:58 27.02.2020
2001 Snow 1 999 74 10000 1 0 21:39 27.02.2020
2002 Snow 1 999 64 10000 1.5 0 21:19 27.02.2020
2003 Snow 2 998 69 10000 1 0 20:56 27.02.2020
2004 Snow 2 998 69 10000 1 0 20:38 27.02.2020
2005 Snow 2 998 74 10000 1 0 20:20 27.02.2020
2006 Snow 2 997 69 10000 1 0 19:54 27.02.2020
2007 Snow 2 997 69 10000 0.5 0 19:36 27.02.2020
2008 Snow 2 997 69 10000 0.5 0 19:18 27.02.2020
2009 Clouds 2 996 69 10000 1 350 18:40 27.02.2020
2010 Clouds 2 996 69 10000 0.5 0 18:21 27.02.2020
2011 Rain 3 996 60 10000 1 0 17:57 27.02.2020
2012 Rain 3 996 60 10000 1 0 17:57 27.02.2020
2013 Rain 3 996 60 10000 1 0 17:39 27.02.2020
2014 Rain 3 996 65 10000 2.1 100 17:19 27.02.2020
2015 Clouds 4 997 65 10000 2.1 120 16:55 27.02.2020
2016 Clouds 4 997 65 10000 2.1 120 16:37 27.02.2020
2017 Clouds 4 997 60 10000 1 0 16:18 27.02.2020
2018 Clouds 4 997 60 10000 2.1 170 15:54 27.02.2020
2019 Clouds 5 998 56 10000 2.1 210 15:36 27.02.2020
2020 Clouds 5 998 56 10000 2.1 210 15:18 27.02.2020
2021 Clouds 5 998 60 10000 3.6 210 14:41 27.02.2020
2022 Clouds 5 999 60 10000 2.6 230 14:23 27.02.2020
2023 Clouds 5 999 65 10000 3.6 230 13:57 27.02.2020
2024 Clouds 5 999 65 10000 3.6 230 13:38 27.02.2020
2025 Clouds 5 1000 65 10000 3.6 230 13:20 27.02.2020
2026 Clouds 5 1001 65 10000 4.6 220 12:45 27.02.2020
2027 Clouds 5 1001 65 10000 4.6 240 12:22 27.02.2020
2028 Clouds 4 1001 69 10000 4.1 230 11:57 27.02.2020
2029 Clouds 4 1001 69 10000 4.1 230 11:38 27.02.2020
2030 Clouds 4 1002 69 10000 4.6 260 11:19 27.02.2020
2031 Clouds 4 1002 69 10000 5.1 250 10:42 27.02.2020
2032 Clouds 4 1002 79 10000 5.1 240 10:20 27.02.2020
2033 Clouds 3 1002 79 10000 4.6 240 09:46 27.02.2020
2034 Clouds 3 1002 79 10000 5.1 240 09:28 27.02.2020
2035 Clouds 3 1002 79 10000 4.1 240 08:56 27.02.2020
2036 Clouds 2 1002 79 10000 4.1 240 08:38 27.02.2020
2037 Clouds 2 1002 88 10000 4.1 250 08:18 27.02.2020
2038 Clouds 2 1002 80 10000 5.1 240 07:42 27.02.2020
2039 Clouds 2 1002 88 10000 5.1 250 07:24 27.02.2020
2040 Clouds 2 1002 88 10000 5.1 250 07:24 27.02.2020
2041 Clouds 1 1001 10 0 0.45 113 06:30 27.02.2020
2042 Clouds 1 1001 10 0 5.8 235 05:23 27.02.2020
2043 Snow 2 1006 97 0 7.03 246 03:21 27.02.2020
2044 Snow 2 1001 91 0 0.45 270 01:39 27.02.2020
2045 Snow 2 1001 93 0 0.45 225 00:43 27.02.2020
2046 Snow 2 1001 93 0 0.89 225 00:22 27.02.2020
2047 Snow 2 1001 93 0 0.45 270 23:38 26.02.2020
2048 Clouds 2 1001 86 10000 6.2 270 23:18 26.02.2020
2049 Clouds 2 1001 86 10000 6.2 270 22:56 26.02.2020
2050 Clouds 2 1001 86 10000 6.2 270 22:38 26.02.2020
2051 Clouds 2 1001 86 10000 6.2 270 22:19 26.02.2020
2052 Clouds 2 1000 86 10000 5.1 270 21:40 26.02.2020
2053 Clouds 2 1000 86 10000 4.6 280 21:20 26.02.2020
2054 Rain 2 1000 93 10000 4.6 270 20:57 26.02.2020
2055 Rain 2 1000 93 10000 4.6 270 20:38 26.02.2020
2056 Rain 2 1000 93 10000 4.6 270 20:38 26.02.2020
2057 Rain 2 1000 93 10000 7.2 260 20:19 26.02.2020
2058 Clouds 2 999 93 10000 4.1 260 19:57 26.02.2020
2059 Clouds 2 999 93 10000 4.1 260 19:38 26.02.2020
2060 Clouds 1 999 82 10000 4.1 270 19:19 26.02.2020
2061 Clouds 2 998 82 10000 4.6 260 18:57 26.02.2020
2062 Clouds 1 998 82 10000 4.6 260 18:38 26.02.2020
2063 Clouds 2 998 82 10000 4.6 270 18:19 26.02.2020
2064 Rain 2 997 93 10000 5.1 280 17:41 26.02.2020
2065 Rain 3 997 86 10000 6.2 300 17:20 26.02.2020
2066 Rain 3 996 75 10000 6.2 270 16:57 26.02.2020
2067 Rain 4 996 75 10000 6.2 270 16:39 26.02.2020
2068 Clouds 4 996 72 10000 6.7 260 16:20 26.02.2020
2069 Clouds 4 995 75 10000 7.7 260 15:46 26.02.2020
2070 Clouds 4 995 75 10000 5.7 280 15:28 26.02.2020
2071 Clouds 4 995 75 10000 6.2 270 14:56 26.02.2020
2072 Clouds 3 995 75 10000 6.2 270 14:37 26.02.2020
2073 Clouds 3 994 75 10000 5.7 280 14:18 26.02.2020
2074 Clouds 3 994 86 10000 4.6 280 13:42 26.02.2020
2075 Clouds 3 994 86 10000 4.1 290 13:20 26.02.2020
2076 Clouds 3 994 93 10000 4.1 300 12:39 26.02.2020
2077 Clouds 2 993 93 10000 3.1 300 12:20 26.02.2020
2078 Drizzle 2 993 93 9000 3.6 300 11:57 26.02.2020
2079 Drizzle 2 993 93 9000 3.6 300 11:39 26.02.2020
2080 Rain 3 992 93 10000 2.6 280 11:21 26.02.2020
2081 Clouds 2 992 93 10000 6.78 238 10:42 26.02.2020
2082 Clouds 2 992 78 10000 6.78 238 10:23 26.02.2020
2083 Clouds 2 991 78 10000 6.78 238 09:57 26.02.2020
2084 Clouds 3 991 78 10000 6.78 238 09:39 26.02.2020
2085 Clouds 2 991 78 10000 1.5 290 09:20 26.02.2020
2086 Drizzle 2 991 78 10000 1.5 280 08:39 26.02.2020
2087 Drizzle 2 991 90 10000 1.5 260 08:20 26.02.2020
2088 Clouds 2 990 86 10000 1.5 0 07:51 26.02.2020
2089 Snow 2 988 10 0 5.49 249 07:30 26.02.2020
2090 Snow 2 988 10 0 0.45 258 06:59 26.02.2020
2091 Snow 2 989 91 0 0.45 270 06:40 26.02.2020
2092 Snow 2 989 92 0 0.45 270 06:21 26.02.2020
2093 Snow 2 989 93 0 0.45 270 05:48 26.02.2020
2094 Clouds 2 989 93 0 0.45 247 04:58 26.02.2020
2095 Clouds 2 989 99 0 3.85 226 02:56 26.02.2020
2096 Snow 2 991 92 0 4.26 240 01:57 26.02.2020
2097 Snow 2 989 99 0 4.26 240 01:24 26.02.2020
2098 Snow 2 990 99 0 4.85 281 00:40 26.02.2020
2099 Snow 2 991 93 0 4.85 281 00:20 26.02.2020
2100 Snow 2 991 93 0 4.85 281 23:42 25.02.2020
2101 Snow 3 992 92 0 4.85 281 23:22 25.02.2020
2102 Clouds 3 993 75 10000 1.5 0 22:56 25.02.2020
2103 Clouds 4 993 75 10000 1.5 0 22:37 25.02.2020
2104 Clouds 4 993 75 10000 1.5 0 22:18 25.02.2020
2105 Clouds 5 994 75 10000 2.1 250 21:38 25.02.2020
2106 Clouds 5 994 75 10000 3.1 260 21:20 25.02.2020
2107 Clouds 5 994 75 10000 4.1 260 20:57 25.02.2020
2108 Clouds 5 994 75 10000 4.1 260 20:38 25.02.2020
2109 Clouds 5 994 75 10000 4.1 260 20:38 25.02.2020
2110 Clouds 5 995 80 10000 4.1 250 20:19 25.02.2020
2111 Clouds 5 995 75 10000 5.1 250 19:54 25.02.2020
2112 Clouds 5 993 68 0 5.78 238 19:36 25.02.2020
2113 Clouds 5 993 65 0 5.78 238 19:18 25.02.2020
2114 Clouds 7 994 56 10000 5.1 250 18:40 25.02.2020
2115 Clouds 7 995 56 10000 6.2 250 18:21 25.02.2020
2116 Clouds 7 995 56 10000 6.2 250 18:21 25.02.2020
2117 Clouds 7 995 52 10000 7.2 250 17:56 25.02.2020
2118 Clouds 7 995 52 10000 8.7 260 17:37 25.02.2020
2119 Rain 8 995 52 10000 8.7 260 17:19 25.02.2020
2120 Rain 8 995 49 10000 8.2 270 16:56 25.02.2020
2121 Rain 8 995 49 10000 8.2 270 16:38 25.02.2020
2122 Clouds 9 995 45 10000 10.8 260 16:19 25.02.2020
2123 Clouds 9 995 45 10000 10.3 260 15:54 25.02.2020
2124 Clouds 9 995 62 10000 10.8 270 15:36 25.02.2020
2125 Clouds 9 995 62 10000 10.8 270 15:18 25.02.2020
2126 Clouds 9 995 57 10000 10.8 260 14:39 25.02.2020
2127 Rain 8 996 61 10000 10.8 270 14:19 25.02.2020
2128 Rain 8 996 61 10000 10.8 270 14:19 25.02.2020
2129 Rain 8 996 61 10000 10.8 270 14:19 25.02.2020
2130 Clouds 9 996 70 10000 10.8 280 13:59 25.02.2020
2131 Clouds 9 996 70 10000 10.8 280 13:59 25.02.2020
2132 Clouds 8 996 70 10000 10.8 280 13:40 25.02.2020
2133 Clouds 8 996 57 10000 9.3 270 13:21 25.02.2020
2134 Clouds 8 996 57 10000 9.3 250 12:59 25.02.2020
2135 Clouds 8 996 57 10000 9.3 250 12:39 25.02.2020
2136 Clouds 7 996 61 10000 8.7 260 12:20 25.02.2020
2137 Clouds 8 996 57 10000 10.3 260 11:56 25.02.2020
2138 Clouds 8 996 57 10000 10.3 260 11:37 25.02.2020
2139 Clouds 7 997 61 10000 8.2 270 11:18 25.02.2020
2140 Clouds 7 997 61 10000 8.2 280 10:42 25.02.2020
2141 Clouds 7 997 65 10000 7.7 290 10:23 25.02.2020
2142 Clouds 7 997 70 10000 6.7 290 09:57 25.02.2020
2143 Clouds 8 997 70 10000 6.7 290 09:39 25.02.2020
2144 Clouds 8 997 81 10000 4.1 270 09:18 25.02.2020
2145 Clouds 7 997 81 10000 4.1 280 08:42 25.02.2020
2146 Clouds 7 997 75 10000 4.6 290 08:24 25.02.2020
2147 Clouds 7 997 81 10000 5.7 280 07:49 25.02.2020
2148 Clouds 8 998 81 10000 6.2 290 07:25 25.02.2020
2149 Rain 8 999 87 0 4.47 240 06:56 25.02.2020
2150 Rain 8 997 81 0 3.13 225 06:25 25.02.2020
2151 Rain 8 997 83 0 2.68 225 05:22 25.02.2020
2152 Rain 9 998 94 0 1.34 270 02:37 25.02.2020
2153 Rain 9 999 97 0 1.34 276 00:58 25.02.2020
2154 Rain 9 999 97 0 0.89 229 00:33 25.02.2020
2155 Rain 9 1002 96 0 2.24 210 23:56 24.02.2020
2156 Rain 9 1000 95 0 2.68 225 23:37 24.02.2020
2157 Rain 9 1001 93 10000 5.7 230 23:18 24.02.2020
2158 Rain 8 1001 93 10000 5.7 230 22:37 24.02.2020
2159 Rain 8 1001 93 10000 5.7 230 22:18 24.02.2020
2160 Rain 8 1001 87 10000 5.1 230 21:55 24.02.2020
2161 Rain 8 1001 87 10000 4.6 230 21:37 24.02.2020
2162 Rain 8 1001 87 10000 4.6 230 21:18 24.02.2020
2163 Rain 8 1002 93 10000 5.7 220 20:54 24.02.2020
2164 Rain 8 1002 87 10000 5.7 220 20:36 24.02.2020
2165 Rain 8 1002 87 10000 5.7 220 20:18 24.02.2020
2166 Rain 8 1003 87 10000 5.7 210 19:55 24.02.2020
2167 Rain 7 1003 86 10000 1.5 0 19:36 24.02.2020
2168 Rain 7 1003 86 10000 1.5 0 19:18 24.02.2020
2169 Rain 7 1004 80 10000 1.5 0 18:41 24.02.2020
2170 Clouds 6 1004 75 10000 4.6 150 18:22 24.02.2020
2171 Clouds 6 1006 75 10000 4.6 150 17:55 24.02.2020
2172 Clouds 5 1007 80 10000 4.6 140 17:36 24.02.2020
2173 Clouds 5 1007 80 10000 4.6 140 17:18 24.02.2020
2174 Clouds 5 1008 75 10000 5.1 150 16:55 24.02.2020
2175 Clouds 5 1010 89 10000 4.1 150 16:36 24.02.2020
2176 Clouds 5 1010 89 10000 4.1 150 16:18 24.02.2020
2177 Clouds 5 1012 75 10000 3.1 140 15:55 24.02.2020
2178 Clouds 5 1012 89 10000 5.7 170 15:37 24.02.2020
2179 Clouds 4 1012 89 10000 5.7 170 15:18 24.02.2020
2180 Clouds 5 1014 60 8000 4.6 190 14:40 24.02.2020
2181 Rain 5 1014 89 10000 4.1 200 14:22 24.02.2020
2182 Rain 5 1015 70 10000 3.6 210 13:58 24.02.2020
2183 Rain 5 1015 70 10000 3.6 210 13:58 24.02.2020
2184 Rain 5 1015 70 10000 3.6 210 13:58 24.02.2020
2185 Rain 5 1015 70 10000 3.6 210 13:39 24.02.2020
2186 Rain 6 1016 70 10000 3.6 230 13:21 24.02.2020
2187 Rain 6 1017 70 10000 4.6 240 12:57 24.02.2020
2188 Rain 6 1017 70 10000 4.6 240 12:39 24.02.2020
2189 Clouds 6 1018 70 10000 5.7 240 12:21 24.02.2020
2190 Clouds 6 1018 70 10000 5.1 240 11:46 24.02.2020
2191 Clouds 6 1019 70 10000 6.2 240 11:28 24.02.2020
2192 Clouds 6 1019 75 10000 5.7 250 10:48 24.02.2020
2193 Clouds 5 1020 70 10000 6.7 250 10:30 24.02.2020
2194 Clouds 5 1020 70 10000 5.7 270 09:55 24.02.2020
2195 Clouds 5 1020 70 10000 5.7 270 09:37 24.02.2020
2196 Clouds 5 1020 75 10000 6.2 260 09:18 24.02.2020
2197 Clouds 4 1020 80 10000 6.2 260 08:47 24.02.2020
2198 Clouds 4 1020 80 10000 6.2 260 08:28 24.02.2020
2199 Clouds 4 1020 88 10000 5.1 260 07:48 24.02.2020
2200 Clouds 4 1020 88 10000 5.1 260 07:30 24.02.2020
2201 Clouds 4 1020 81 0 0.89 270 06:45 24.02.2020
2202 Clouds 4 1019 80 0 0.45 270 06:21 24.02.2020
2203 Clouds 4 1019 79 0 0.89 270 05:31 24.02.2020
2204 Clouds 4 1019 80 0 7.91 264 04:48 24.02.2020
2205 Clouds 4 1019 81 0 0.89 225 02:56 24.02.2020
2206 Rain 4 1018 84 0 1.34 225 01:52 24.02.2020
2207 Rain 4 1018 86 0 0.45 270 01:28 24.02.2020
2208 Rain 4 1018 86 0 0.45 270 01:28 24.02.2020
2209 Rain 4 1017 89 0 0.45 270 00:37 24.02.2020
2210 Rain 4 1016 89 0 0.45 270 00:19 24.02.2020
2211 Rain 4 1016 90 0 0.89 270 23:42 23.02.2020
2212 Rain 4 1016 90 0 0.45 292 23:22 23.02.2020
2213 Rain 5 1013 80 10000 8.2 290 22:58 23.02.2020
2214 Rain 5 1013 80 10000 8.2 290 22:40 23.02.2020
2215 Rain 5 1013 80 10000 8.2 290 22:20 23.02.2020
2216 Clouds 5 1012 75 10000 8.2 290 21:46 23.02.2020
2217 Clouds 5 1011 80 10000 7.7 300 21:20 23.02.2020
2218 Snow 6 1012 80 0 0.45 292 20:57 23.02.2020
2219 Clouds 6 1007 75 10000 9.8 290 20:39 23.02.2020
2220 Clouds 6 1007 75 10000 9.8 290 20:21 23.02.2020
2221 Clouds 7 1007 75 10000 9.8 290 19:58 23.02.2020
2222 Clouds 8 1007 75 10000 9.8 290 19:40 23.02.2020
2223 Clouds 8 1006 81 10000 8.7 300 19:19 23.02.2020
2224 Clouds 9 1005 81 10000 10.3 310 18:58 23.02.2020
2225 Clouds 9 1005 81 10000 10.3 310 18:37 23.02.2020
2226 Clouds 10 1004 87 10000 11.3 310 18:19 23.02.2020
2227 Clouds 10 1001 76 10000 10.8 280 17:57 23.02.2020
2228 Rain 11 1003 89 0 2.68 270 17:38 23.02.2020
2229 Rain 11 1001 93 9000 10.8 280 17:19 23.02.2020
2230 Rain 11 1000 81 8000 13.4 260 16:46 23.02.2020
2231 Clouds 11 1000 81 10000 12.3 260 16:28 23.02.2020
2232 Rain 12 1000 81 10000 10.8 260 15:59 23.02.2020
2233 Rain 11 1000 81 10000 10.8 260 15:39 23.02.2020
2234 Rain 11 1000 81 10000 10.8 260 15:21 23.02.2020
2235 Clouds 11 1001 93 10000 6.2 250 14:59 23.02.2020
2236 Clouds 11 1001 93 10000 6.2 250 14:40 23.02.2020
2237 Rain 11 1001 92 0 4.02 270 14:22 23.02.2020
2238 Rain 10 1004 97 0 4.47 231 13:57 23.02.2020
2239 Clouds 9 1002 93 10000 1 0 13:39 23.02.2020
2240 Rain 9 1003 87 7000 1.5 0 13:20 23.02.2020
2241 Rain 8 1005 87 8000 3.1 230 12:43 23.02.2020
2242 Rain 7 1006 87 7000 2.6 200 12:23 23.02.2020
2243 Rain 7 1007 87 8000 3.6 210 11:58 23.02.2020
2244 Rain 7 1007 87 8000 3.6 210 11:37 23.02.2020
2245 Rain 7 1008 87 10000 3.6 220 11:18 23.02.2020
2246 Rain 7 1010 93 8000 2.6 200 10:55 23.02.2020
2247 Rain 7 1011 93 9000 2.1 170 10:37 23.02.2020
2248 Rain 6 1011 93 9000 2.1 170 10:19 23.02.2020
2249 Rain 7 1012 87 8000 2.6 200 09:40 23.02.2020
2250 Rain 6 1012 87 8000 2.1 230 09:21 23.02.2020
2251 Rain 6 1012 96 0 6.55 234 08:56 23.02.2020
2252 Rain 6 1011 93 0 0.89 270 08:38 23.02.2020
2253 Rain 6 1011 93 0 1.79 292 08:18 23.02.2020
2254 Rain 6 1012 94 0 1.79 225 07:40 23.02.2020
2255 Rain 6 1012 94 0 1.79 225 07:40 23.02.2020
2256 Rain 6 1013 93 0 1.34 225 06:54 23.02.2020
2257 Rain 6 1012 99 0 0.89 262 05:54 23.02.2020
2258 Rain 6 1015 92 0 0.45 270 04:44 23.02.2020
2259 Rain 7 1014 95 0 1.34 283 03:25 23.02.2020
2260 Rain 7 1016 84 0 1.34 270 02:35 23.02.2020
2261 Rain 7 1016 83 0 1.79 270 01:25 23.02.2020
2262 Rain 7 1016 91 0 0.45 270 00:49 23.02.2020
2263 Rain 7 1014 96 0 1.34 238 00:27 23.02.2020
2264 Rain 7 1015 89 0 0.89 270 23:48 22.02.2020
2265 Rain 7 1016 86 0 1.34 270 23:30 22.02.2020
2266 Rain 7 1014 97 0 1.34 242 22:59 22.02.2020
2267 Rain 7 1014 98 0 0.89 314 22:40 22.02.2020
2268 Rain 8 1017 93 0 3.58 242 22:18 22.02.2020
2269 Rain 8 1015 85 0 3.58 270 21:41 22.02.2020
2270 Rain 8 1014 96 0 0.45 314 21:23 22.02.2020
2271 Rain 8 1015 87 0 3.13 292 20:47 22.02.2020
2272 Rain 8 1014 95 0 9.21 268 20:25 22.02.2020
2273 Rain 8 1014 87 0 10.78 257 19:59 22.02.2020
2274 Rain 9 1017 79 0 5.36 225 19:41 22.02.2020
2275 Rain 9 1017 79 0 5.36 225 19:41 22.02.2020
2276 Clouds 9 1013 62 10000 12.9 250 19:21 22.02.2020
2277 Clouds 10 1013 62 10000 12.9 250 18:41 22.02.2020
2278 Clouds 10 1013 62 10000 12.9 250 18:22 22.02.2020
2279 Clouds 10 1013 62 10000 12.3 260 17:58 22.02.2020
2280 Clouds 10 1013 62 10000 12.3 260 17:40 22.02.2020
2281 Clouds 10 1012 57 10000 11.8 250 17:22 22.02.2020
2282 Clouds 10 1013 62 10000 11.3 260 16:58 22.02.2020
2283 Clouds 10 1013 62 10000 11.3 260 16:39 22.02.2020
2284 Clouds 10 1013 57 10000 12.3 260 16:20 22.02.2020
2285 Clouds 10 1013 50 10000 10.8 250 15:45 22.02.2020
2286 Clouds 10 1013 50 10000 10.8 250 15:45 22.02.2020
2287 Clouds 10 1013 46 10000 12.9 260 15:26 22.02.2020
2288 Clouds 10 1013 46 10000 10.3 270 14:57 22.02.2020
2289 Clouds 10 1013 46 10000 10.3 270 14:39 22.02.2020
2290 Clouds 10 1012 41 10000 9.8 260 14:19 22.02.2020
2291 Clouds 10 1013 40 10000 11.3 260 13:41 22.02.2020
2292 Clouds 10 1012 43 10000 8.2 240 13:20 22.02.2020
2293 Clouds 10 1012 43 10000 10.8 250 12:48 22.02.2020
2294 Clouds 10 1012 43 10000 7.7 230 12:26 22.02.2020
2295 Clouds 10 1013 49 10000 8.2 220 11:56 22.02.2020
2296 Clouds 9 1013 49 10000 8.2 220 11:38 22.02.2020
2297 Rain 9 1014 45 10000 7.7 220 11:20 22.02.2020
2298 Clouds 8 1014 42 10000 8.2 230 10:42 22.02.2020
2299 Clouds 8 1014 42 10000 8.2 230 10:42 22.02.2020
2300 Clouds 8 1014 45 10000 9.3 230 10:21 22.02.2020
2301 Clouds 8 1014 52 10000 8.2 240 09:59 22.02.2020
2302 Clouds 7 1014 52 10000 8.2 240 09:40 22.02.2020
2303 Clouds 7 1015 60 10000 7.2 230 09:22 22.02.2020
2304 Clouds 6 1015 64 0 3.58 270 08:55 22.02.2020
2305 Clouds 5 1015 69 0 3.58 270 08:28 22.02.2020
2306 Clouds 5 1016 79 0 8.24 226 07:58 22.02.2020
2307 Clouds 5 1016 81 0 8.24 226 07:38 22.02.2020
2308 Clouds 5 1016 81 0 8.24 226 07:38 22.02.2020
2309 Clouds 5 1015 78 0 1.34 292 07:18 22.02.2020
2310 Clouds 5 1015 79 0 2.24 270 06:41 22.02.2020
2311 Clouds 6 1017 77 0 2.68 270 04:45 22.02.2020
2312 Clouds 6 1017 76 0 3.13 270 03:52 22.02.2020
2313 Clouds 6 1019 74 0 4.02 270 02:38 22.02.2020
2314 Clouds 6 1019 74 0 1.34 270 01:48 22.02.2020
2315 Clouds 6 1020 79 0 0.45 304 01:29 22.02.2020
2316 Clouds 6 1020 73 0 2.24 270 00:48 22.02.2020
2317 Clouds 6 1020 79 0 6.77 230 00:29 22.02.2020
2318 Clouds 6 1020 73 0 1.79 225 23:53 21.02.2020
2319 Clouds 6 1021 79 0 6.77 230 23:25 21.02.2020
2320 Clouds 6 1021 80 0 7.36 225 22:59 21.02.2020
2321 Clouds 6 1022 78 10000 4.6 220 22:40 21.02.2020
2322 Clouds 6 1022 78 10000 4.6 220 22:21 21.02.2020
2323 Clouds 6 1022 78 10000 4.6 220 21:42 21.02.2020
2324 Clouds 6 1023 65 10000 5.1 230 21:24 21.02.2020
2325 Clouds 6 1022 78 10000 4.6 230 20:58 21.02.2020
2326 Clouds 6 1022 78 10000 4.6 230 20:38 21.02.2020
2327 Clouds 6 1023 65 10000 6.2 240 20:19 21.02.2020
2328 Clouds 6 1023 65 10000 6.7 250 19:39 21.02.2020
2329 Clouds 6 1023 76 10000 6.7 240 19:19 21.02.2020
2330 Clouds 6 1023 76 10000 6.2 240 18:43 21.02.2020
2331 Clouds 6 1023 76 10000 6.2 250 18:23 21.02.2020
2332 Clouds 6 1023 76 10000 6.2 250 17:57 21.02.2020
2333 Clouds 7 1023 76 10000 7.2 250 17:37 21.02.2020
2334 Clouds 7 1023 69 10000 7.2 250 17:19 21.02.2020
2335 Clouds 7 1022 69 10000 7.7 260 16:44 21.02.2020
2336 Clouds 7 1022 69 10000 8.2 260 16:22 21.02.2020
2337 Clouds 8 1022 69 10000 8.2 270 15:59 21.02.2020
2338 Clouds 7 1022 69 10000 8.2 270 15:38 21.02.2020
2339 Clouds 7 1022 69 10000 7.7 260 15:18 21.02.2020
2340 Clouds 8 1022 61 10000 8.2 260 14:42 21.02.2020
2341 Clouds 7 1022 65 10000 9.3 250 14:22 21.02.2020
2342 Clouds 7 1022 65 10000 7.2 250 13:59 21.02.2020
2343 Clouds 7 1022 65 10000 7.2 250 13:39 21.02.2020
2344 Clouds 7 1022 65 10000 8.2 250 13:20 21.02.2020
2345 Clouds 6 1023 70 10000 7.7 260 12:43 21.02.2020
2346 Clouds 6 1023 70 10000 7.7 260 12:24 21.02.2020
2347 Clouds 6 1022 73 10000 8.2 260 11:55 21.02.2020
2348 Clouds 6 1022 70 10000 7.2 260 11:37 21.02.2020
2349 Clouds 5 1022 70 10000 7.2 260 11:19 21.02.2020
2350 Clouds 5 1021 72 10000 8.7 260 10:42 21.02.2020
2351 Clouds 5 1021 72 10000 8.7 260 10:42 21.02.2020
2352 Clouds 5 1021 72 10000 8.7 260 10:42 21.02.2020
2353 Clouds 5 1021 70 10000 8.7 260 10:20 21.02.2020
2354 Clouds 5 1021 75 10000 7.7 260 09:58 21.02.2020
2355 Clouds 5 1021 75 10000 7.7 260 09:39 21.02.2020
2356 Clouds 5 1020 72 10000 6.7 250 09:20 21.02.2020
2357 Clouds 5 1020 72 10000 6.7 250 09:20 21.02.2020
2358 Clouds 4 1020 72 10000 7.2 260 08:55 21.02.2020
2359 Clouds 4 1019 72 10000 7.2 260 08:36 21.02.2020
2360 Clouds 4 1019 86 10000 7.2 260 08:18 21.02.2020
2361 Clouds 4 1018 86 10000 6.7 270 07:41 21.02.2020
2362 Clouds 4 1018 86 10000 7.7 270 07:20 21.02.2020
2363 Snow 4 1019 86 0 2.24 259 06:55 21.02.2020
2364 Snow 4 1018 80 0 1.79 270 06:32 21.02.2020
2365 Snow 4 1017 79 0 1.34 270 05:56 21.02.2020
2366 Snow 4 1016 79 0 0.89 270 05:30 21.02.2020
2367 Snow 3 1016 84 0 0.89 270 04:26 21.02.2020
2368 Snow 3 1014 82 0 1.79 270 03:46 21.02.2020
2369 Snow 3 1011 96 0 1.79 317 02:59 21.02.2020
2370 Rain 4 1009 81 10000 9.3 280 01:34 21.02.2020
2371 Clouds 5 1007 87 10000 9.8 280 00:54 21.02.2020
2372 Clouds 5 1006 81 10000 8.7 230 00:36 21.02.2020
2373 Clouds 6 1006 81 10000 8.7 230 00:18 21.02.2020
2374 Rain 6 1007 90 0 2.24 270 23:39 20.02.2020
2375 Rain 6 1008 86 0 3.58 223 23:21 20.02.2020
2376 Clouds 7 1007 70 10000 7.7 220 22:40 20.02.2020
2377 Clouds 7 1007 70 10000 7.7 220 22:21 20.02.2020
2378 Rain 7 1007 70 10000 5.7 220 21:57 20.02.2020
2379 Rain 7 1007 70 10000 5.7 220 21:39 20.02.2020
2380 Clouds 7 1008 70 10000 5.7 210 21:19 20.02.2020
2381 Clouds 7 1009 66 10000 6.2 220 20:56 20.02.2020
2382 Clouds 7 1009 66 10000 6.2 220 20:38 20.02.2020
2383 Clouds 7 1009 66 10000 6.2 220 20:19 20.02.2020
2384 Clouds 7 1009 66 10000 6.2 220 20:19 20.02.2020
2385 Clouds 7 1009 66 10000 6.2 220 20:19 20.02.2020
2386 Clouds 8 1009 66 10000 5.7 210 19:59 20.02.2020
2387 Clouds 8 1009 66 10000 5.7 210 19:41 20.02.2020
2388 Clouds 8 1010 66 10000 5.1 210 19:22 20.02.2020
2389 Clouds 8 1010 66 10000 5.1 200 18:55 20.02.2020
2390 Clouds 8 1011 66 10000 4.6 210 18:37 20.02.2020
2391 Clouds 8 1011 66 10000 4.6 210 18:18 20.02.2020
2392 -273 0 0 0 0 0 17:39 20.02.2020
2393 Clouds 8 1012 66 10000 6.2 230 17:39 20.02.2020
2394 Clouds 8 1012 66 10000 6.2 230 17:19 20.02.2020
2395 Clouds 8 1012 66 10000 5.1 210 16:58 20.02.2020
2396 Clouds 8 1012 66 10000 5.7 200 16:39 20.02.2020
2397 Clouds 9 1012 66 10000 5.7 200 16:19 20.02.2020
2398 Clouds 9 1013 70 10000 6.2 210 15:56 20.02.2020
2399 Clouds 8 1013 70 10000 6.2 210 15:37 20.02.2020
2400 Clouds 8 1013 70 10000 4.6 200 15:19 20.02.2020
2401 Clouds 8 1014 66 10000 5.7 220 14:43 20.02.2020
2402 Clouds 8 1014 70 10000 6.7 220 14:25 20.02.2020
2403 Clouds 8 1014 70 10000 6.2 220 13:58 20.02.2020
2404 Clouds 8 1014 70 10000 6.2 220 13:40 20.02.2020
2405 Clouds 7 1015 75 10000 6.7 220 13:19 20.02.2020
2406 Clouds 7 1015 81 10000 7.7 220 12:43 20.02.2020
2407 Clouds 7 1016 81 10000 5.7 210 12:21 20.02.2020
2408 Clouds 7 1016 81 10000 5.1 210 11:59 20.02.2020
2409 Clouds 6 1016 81 10000 5.1 210 11:41 20.02.2020
2410 Clouds 6 1016 87 10000 4.1 200 11:22 20.02.2020
2411 Drizzle 6 1016 86 10000 3.6 210 10:57 20.02.2020
2412 Drizzle 5 1017 86 10000 4.6 210 10:38 20.02.2020
2413 Drizzle 5 1017 86 10000 4.6 210 10:20 20.02.2020
2414 Drizzle 5 1017 86 10000 3.1 200 09:42 20.02.2020
2415 Drizzle 4 1017 86 10000 2.6 180 09:23 20.02.2020
2416 Clouds 4 1017 80 10000 3.6 200 08:57 20.02.2020
2417 Clouds 4 1017 80 10000 3.6 200 08:37 20.02.2020
2418 Clouds 4 1017 80 10000 3.1 180 08:19 20.02.2020
2419 Clouds 4 1017 80 10000 3.1 190 07:44 20.02.2020
2420 Clouds 4 1017 80 10000 2.6 190 07:20 20.02.2020
2421 Rain 3 1015 90 0 0.45 292 06:44 20.02.2020
2422 Rain 3 1015 89 0 0.45 292 06:20 20.02.2020
2423 Rain 3 1016 89 0 0.45 292 05:43 20.02.2020
2424 Clouds 2 1016 89 0 0.89 270 04:50 20.02.2020
2425 Clouds 2 1016 90 0 5.07 218 03:57 20.02.2020
2426 Clouds 3 1018 90 0 0.45 35 02:59 20.02.2020
2427 Clouds 2 1017 82 0 0.45 270 01:52 20.02.2020
2428 Clouds 2 1017 88 0 4.85 225 00:56 20.02.2020
2429 Clouds 2 1019 83 0 4.85 225 00:26 20.02.2020
2430 Clouds 3 1018 81 0 0.45 270 23:49 19.02.2020
2431 Clouds 3 1018 80 0 4.85 225 23:22 19.02.2020
2432 Clouds 3 1019 81 10000 4.1 260 22:46 19.02.2020
2433 Clouds 3 1019 81 10000 4.1 260 22:28 19.02.2020
2434 Clouds 4 1019 69 10000 4.1 260 21:59 19.02.2020
2435 Clouds 4 1019 69 10000 4.1 260 21:41 19.02.2020
2436 Clouds 4 1019 65 10000 5.1 270 21:19 19.02.2020
2437 Clouds 5 1019 60 10000 8.7 270 20:58 19.02.2020
2438 Clouds 5 1019 60 10000 8.7 270 20:39 19.02.2020
2439 Clouds 4 1018 77 10000 6.2 270 20:20 19.02.2020
2440 Clouds 5 1018 77 10000 7.2 270 19:58 19.02.2020
2441 Clouds 4 1018 77 10000 7.2 270 19:39 19.02.2020
2442 Clouds 5 1018 70 10000 7.7 280 19:20 19.02.2020
2443 Clouds 5 1017 77 10000 10.3 270 18:58 19.02.2020
2444 Clouds 5 1017 77 10000 10.3 270 18:40 19.02.2020
2445 Clouds 5 1017 75 10000 6.7 270 18:22 19.02.2020
2446 Clouds 5 1016 80 10000 8.2 260 17:59 19.02.2020
2447 Clouds 5 1016 80 10000 8.2 260 17:41 19.02.2020
2448 Clouds 5 1016 80 10000 5.1 260 17:19 19.02.2020
2449 Clouds 5 1015 86 10000 5.1 280 16:43 19.02.2020
2450 Rain 5 1015 86 10000 7.7 310 16:19 19.02.2020
2451 Drizzle 6 1015 75 10000 8.7 270 15:57 19.02.2020
2452 Drizzle 5 1015 75 10000 8.7 270 15:38 19.02.2020
2453 Clouds 5 1015 75 10000 7.2 280 15:19 19.02.2020
2454 Rain 6 1014 80 10000 5.1 290 14:41 19.02.2020
2455 Rain 6 1014 75 10000 9.3 270 14:23 19.02.2020
2456 Clouds 6 1013 70 10000 9.3 270 13:55 19.02.2020
2457 Clouds 6 1013 70 10000 9.3 270 13:37 19.02.2020
2458 Clouds 5 1013 63 10000 9.3 280 13:18 19.02.2020
2459 Clouds 5 1013 63 10000 9.3 280 12:39 19.02.2020
2460 Clouds 5 1013 63 10000 9.3 280 12:19 19.02.2020
2461 Clouds 4 1012 70 10000 7.7 280 11:55 19.02.2020
2462 Clouds 4 1012 75 10000 7.7 280 11:37 19.02.2020
2463 Clouds 4 1012 75 10000 7.7 280 11:18 19.02.2020
2464 Clouds 4 1012 75 10000 7.2 280 10:55 19.02.2020
2465 Clouds 4 1011 80 10000 6.7 270 10:36 19.02.2020
2466 Clouds 4 1011 80 10000 6.7 270 10:18 19.02.2020
2467 Clouds 4 1011 80 10000 6.2 270 09:41 19.02.2020
2468 Drizzle 3 1011 93 10000 5.7 270 09:20 19.02.2020
2469 Clouds 4 1010 93 10000 5.1 270 08:56 19.02.2020
2470 Clouds 4 1010 93 10000 5.1 270 08:37 19.02.2020
2471 Drizzle 4 1010 86 10000 4.6 280 08:18 19.02.2020
2472 Rain 4 1009 86 10000 6.2 280 07:41 19.02.2020
2473 Rain 4 1009 86 10000 5.1 300 07:20 19.02.2020
2474 Rain 5 1008 90 0 2.68 270 06:46 19.02.2020
2475 Rain 5 1008 86 0 3.13 270 05:35 19.02.2020
2476 Clouds 5 1010 86 0 6.27 228 03:59 19.02.2020
2477 Clouds 6 1011 79 0 2.68 270 02:49 19.02.2020
2478 Clouds 5 1012 84 0 5.81 224 01:54 19.02.2020
2479 Clouds 5 1012 80 0 2.24 225 01:23 19.02.2020
2480 Clouds 5 1013 80 0 1.79 292 00:43 19.02.2020
2481 Clouds 5 1014 84 0 5.83 224 00:24 19.02.2020
2482 Clouds 5 1017 84 0 0.89 176 23:41 18.02.2020
2483 Clouds 5 1017 84 0 0.45 234 23:20 18.02.2020
2484 Clouds 5 1015 81 0 1.34 270 22:56 18.02.2020
2485 Clouds 5 1017 70 10000 5.1 230 22:37 18.02.2020
2486 Clouds 5 1017 70 10000 5.1 230 22:19 18.02.2020
2487 Clouds 5 1017 70 10000 5.1 230 21:55 18.02.2020
2488 Clouds 5 1017 70 10000 4.1 220 21:37 18.02.2020
2489 Clouds 5 1017 70 10000 4.1 220 21:37 18.02.2020
2490 Clouds 5 1017 70 10000 4.1 220 21:18 18.02.2020
2491 Clouds 5 1017 70 10000 5.1 230 20:56 18.02.2020
2492 Clouds 5 1018 65 10000 6.2 240 20:37 18.02.2020
2493 Clouds 5 1018 65 10000 6.2 240 20:37 18.02.2020
2494 Clouds 5 1018 65 10000 6.2 240 20:18 18.02.2020
2495 Clouds 5 1018 70 10000 7.2 240 19:42 18.02.2020
2496 Clouds 6 1018 65 10000 6.7 250 19:20 18.02.2020
2497 Clouds 6 1018 65 10000 7.2 250 18:58 18.02.2020
2498 Clouds 6 1018 65 10000 7.2 250 18:40 18.02.2020
2499 Clouds 6 1018 65 10000 6.7 250 18:20 18.02.2020
2500 Clouds 7 1017 65 10000 7.7 250 17:43 18.02.2020
2501 Clouds 7 1018 77 10000 8.2 250 17:20 18.02.2020
2502 Clouds 7 1017 77 10000 9.3 260 16:58 18.02.2020
2503 Clouds 7 1017 77 10000 9.3 260 16:38 18.02.2020
2504 Clouds 7 1018 77 10000 9.3 260 16:18 18.02.2020
2505 Clouds 7 1018 77 10000 8.2 260 15:40 18.02.2020
2506 Clouds 7 1018 77 10000 9.8 260 15:19 18.02.2020
2507 Clouds 8 1018 77 10000 8.7 250 14:57 18.02.2020
2508 Clouds 8 1018 77 10000 8.7 250 14:38 18.02.2020
2509 Clouds 8 1018 57 10000 10.3 260 14:20 18.02.2020
2510 Clouds 8 1018 70 10000 10.8 260 13:41 18.02.2020
2511 Clouds 8 1019 70 10000 9.8 260 13:22 18.02.2020
2512 Clouds 7 1019 66 10000 10.3 260 12:56 18.02.2020
2513 Clouds 7 1019 66 10000 10.3 260 12:38 18.02.2020
2514 Clouds 7 1019 66 10000 10.3 260 12:38 18.02.2020
2515 Clouds 7 1019 65 10000 8.7 260 12:19 18.02.2020
2516 Clouds 7 1018 65 10000 11.3 250 11:44 18.02.2020
2517 Clouds 7 1018 65 10000 9.8 260 11:26 18.02.2020
2518 Clouds 7 1018 65 10000 9.8 260 10:57 18.02.2020
2519 Clouds 6 1018 65 10000 9.8 260 10:38 18.02.2020
2520 Clouds 6 1018 75 10000 8.2 250 10:18 18.02.2020
2521 Clouds 6 1018 75 10000 7.7 250 09:56 18.02.2020
2522 Clouds 5 1018 75 10000 7.7 250 09:37 18.02.2020
2523 Clouds 5 1017 80 10000 6.2 250 09:18 18.02.2020
2524 Clouds 5 1017 80 10000 6.2 250 09:18 18.02.2020
2525 Clouds 5 1017 80 10000 6.7 250 08:43 18.02.2020
2526 Clouds 4 1017 80 10000 7.7 260 08:21 18.02.2020
2527 Rain 4 1016 80 10000 10.3 270 07:56 18.02.2020
2528 Rain 5 1015 81 10000 5.1 220 07:34 18.02.2020
2529 Rain 5 1015 88 0 2.68 270 06:57 18.02.2020
2530 Rain 6 1015 90 0 0.89 270 06:39 18.02.2020
2531 Rain 6 1019 94 0 7.95 241 06:20 18.02.2020
2532 Rain 5 1015 92 0 0.89 270 05:34 18.02.2020
2533 Rain 5 1015 92 0 1.79 270 04:28 18.02.2020
2534 Rain 5 1016 90 0 6.26 288 03:31 18.02.2020
2535 Rain 6 1015 88 0 1.34 207 02:38 18.02.2020
2536 Rain 6 1015 87 0 8.2 240 01:19 18.02.2020
2537 Rain 6 1012 89 0 1.79 270 00:22 18.02.2020
2538 Rain 6 1012 88 0 0.89 270 23:56 17.02.2020
2539 Rain 6 1012 88 0 0.89 247 23:37 17.02.2020
2540 Clouds 6 1013 75 10000 4.6 230 23:19 17.02.2020
2541 Clouds 6 1013 75 10000 4.6 230 22:41 17.02.2020
2542 Clouds 6 1013 75 10000 4.6 230 22:21 17.02.2020
2543 Clouds 6 1013 75 10000 5.7 240 21:59 17.02.2020
2544 Clouds 6 1013 75 10000 5.7 240 21:59 17.02.2020
2545 Clouds 6 1013 75 10000 5.7 240 21:38 17.02.2020
2546 Clouds 6 1013 81 10000 6.2 250 21:18 17.02.2020
2547 Clouds 6 1013 81 10000 6.2 250 21:18 17.02.2020
2548 Clouds 6 1012 81 10000 4.6 230 20:42 17.02.2020
2549 Clouds 6 1012 81 10000 3.6 220 20:21 17.02.2020
2550 Clouds 6 1012 81 10000 4.6 230 19:59 17.02.2020
2551 Clouds 6 1012 81 10000 4.6 230 19:40 17.02.2020
2552 Clouds 6 1012 81 10000 4.6 230 19:40 17.02.2020
2553 Rain 6 1013 81 10000 9.8 290 19:20 17.02.2020
2554 Rain 7 1011 49 10000 4.6 220 18:38 17.02.2020
2555 Rain 7 1011 49 10000 4.6 220 18:38 17.02.2020
2556 Rain 8 1011 49 10000 3.6 220 18:20 17.02.2020
2557 Rain 8 1011 49 10000 3.6 220 18:20 17.02.2020
2558 Rain 8 1011 49 10000 4.1 220 17:58 17.02.2020
2559 Rain 9 1011 49 10000 4.1 220 17:38 17.02.2020
2560 Rain 9 1011 49 10000 4.1 220 17:38 17.02.2020
2561 Clouds 9 1011 43 10000 5.7 230 17:19 17.02.2020
2562 Clouds 10 1011 46 10000 6.7 260 16:56 17.02.2020
2563 Clouds 10 1011 46 10000 6.7 260 16:38 17.02.2020
2564 Clouds 10 1011 63 10000 6.2 250 16:20 17.02.2020
2565 Clouds 10 1011 63 10000 6.2 250 16:20 17.02.2020
2566 Clouds 10 1011 63 10000 7.7 240 15:45 17.02.2020
2567 Clouds 10 1011 50 10000 8.2 240 15:26 17.02.2020
2568 Clouds 10 1011 53 10000 8.2 230 14:56 17.02.2020
2569 Clouds 10 1011 53 10000 8.2 230 14:38 17.02.2020
2570 Clouds 10 1011 53 10000 6.7 230 14:19 17.02.2020
2571 Clouds 10 1012 57 10000 8.7 240 13:41 17.02.2020
2572 Clouds 9 1012 53 10000 7.2 230 13:21 17.02.2020
2573 Clouds 9 1012 57 10000 7.2 220 12:59 17.02.2020
2574 Clouds 9 1012 57 10000 7.2 220 12:41 17.02.2020
2575 Clouds 9 1012 57 10000 6.7 240 12:22 17.02.2020
2576 Clouds 9 1012 59 10000 6.7 240 11:47 17.02.2020
2577 Clouds 9 1012 59 10000 6.7 240 11:27 17.02.2020
2578 Clouds 8 1013 67 10000 6.7 240 10:58 17.02.2020
2579 Clouds 8 1013 67 10000 6.7 240 10:40 17.02.2020
2580 Clouds 8 1012 67 10000 6.2 240 10:21 17.02.2020
2581 Clouds 8 1012 67 10000 6.7 250 09:58 17.02.2020
2582 Clouds 8 1012 67 10000 6.7 250 09:40 17.02.2020
2583 Clouds 8 1012 61 10000 6.2 250 09:19 17.02.2020
2584 Clouds 8 1011 61 10000 7.2 250 08:56 17.02.2020
2585 Clouds 8 1011 61 10000 7.2 250 08:38 17.02.2020
2586 Clouds 8 1011 65 10000 7.2 250 08:19 17.02.2020
2587 Clouds 8 1010 65 10000 6.2 260 07:40 17.02.2020
2588 Clouds 8 1009 61 10000 9.8 250 07:22 17.02.2020
2589 Clouds 8 1009 65 10000 7.7 250 06:49 17.02.2020
2590 Clouds 8 1011 79 0 4.47 223 06:30 17.02.2020
2591 Clouds 8 1013 75 0 7.65 245 05:40 17.02.2020
2592 Rain 8 1008 72 0 3.13 270 04:40 17.02.2020
2593 Rain 8 1007 76 0 3.58 270 03:18 17.02.2020
2594 Rain 8 1004 99 0 11.35 257 01:25 17.02.2020
2595 Rain 8 1005 91 0 1.34 270 00:41 17.02.2020
2596 Rain 8 1007 88 0 4.92 261 00:19 17.02.2020
2597 Rain 9 1005 88 0 1.79 270 23:52 16.02.2020
2598 Rain 10 1002 78 0 1.34 33 23:28 16.02.2020
2599 Clouds 12 1000 61 0 2.68 6 22:57 16.02.2020
2600 Clouds 12 1000 60 0 1.79 43 22:38 16.02.2020
2601 Clouds 14 1002 58 0 2.24 292 22:20 16.02.2020
2602 Clouds 15 1000 56 0 4.47 225 21:56 16.02.2020
2603 Clouds 15 999 56 0 4.02 270 21:38 16.02.2020
2604 Clouds 15 1002 56 0 5.81 236 21:19 16.02.2020
2605 Clouds 15 999 54 0 4.47 292 20:56 16.02.2020
2606 Clouds 16 998 54 0 4.92 270 20:38 16.02.2020
2607 Clouds 16 999 44 10000 9.8 220 20:19 16.02.2020
2608 Clouds 16 999 44 10000 9.8 220 19:56 16.02.2020
2609 Clouds 15 999 44 10000 9.8 220 19:37 16.02.2020
2610 Clouds 15 999 44 10000 9.8 220 19:18 16.02.2020
2611 Clouds 16 999 48 10000 8.7 230 18:42 16.02.2020
2612 Clouds 16 999 48 10000 8.7 230 18:42 16.02.2020
2613 Clouds 16 1000 48 10000 7.7 220 18:23 16.02.2020
2614 Clouds 15 1000 48 10000 9.3 210 17:46 16.02.2020
2615 Clouds 15 1001 48 10000 9.8 220 17:21 16.02.2020
2616 Clouds 15 1001 48 10000 8.7 220 16:59 16.02.2020
2617 Clouds 15 1001 48 10000 8.7 220 16:39 16.02.2020
2618 Clouds 16 1001 51 10000 8.2 220 16:21 16.02.2020
2619 Clouds 16 1002 51 10000 9.8 230 15:59 16.02.2020
2620 Clouds 15 1002 51 10000 9.8 230 15:39 16.02.2020
2621 Clouds 15 1002 54 10000 9.3 230 15:21 16.02.2020
2622 Clouds 15 1002 54 10000 9.3 230 15:21 16.02.2020
2623 Clouds 15 1003 54 10000 9.3 220 14:41 16.02.2020
2624 Clouds 15 1003 54 10000 9.8 230 14:23 16.02.2020
2625 Clouds 15 1003 54 10000 9.3 230 13:48 16.02.2020
2626 Clouds 14 1004 62 10000 8.2 220 13:25 16.02.2020
2627 Clouds 14 1004 62 10000 8.2 220 12:58 16.02.2020
2628 Clouds 14 1004 62 10000 8.2 220 12:39 16.02.2020
2629 Clouds 13 1004 66 10000 10.3 220 12:19 16.02.2020
2630 Clouds 13 1004 66 10000 9.3 220 11:40 16.02.2020
2631 Clouds 13 1005 62 10000 9.8 220 11:19 16.02.2020
2632 Clouds 13 1005 62 10000 9.8 220 11:19 16.02.2020
2633 Clouds 13 1005 62 10000 9.8 220 10:58 16.02.2020
2634 Clouds 12 1005 62 10000 9.8 220 10:40 16.02.2020
2635 Rain 12 1005 66 10000 11.3 220 10:21 16.02.2020
2636 Rain 12 1005 66 10000 11.3 220 10:21 16.02.2020
2637 Rain 12 1005 66 10000 7.7 210 09:59 16.02.2020
2638 Rain 12 1005 66 10000 7.7 210 09:59 16.02.2020
2639 Rain 11 1005 66 10000 7.7 210 09:38 16.02.2020
2640 Rain 11 1006 76 10000 6.2 210 09:20 16.02.2020
2641 Rain 11 1009 80 0 1.79 220 08:50 16.02.2020
2642 Rain 11 1006 83 0 2.68 270 08:22 16.02.2020
2643 Clouds 11 1006 77 0 3.58 270 07:59 16.02.2020
2644 Clouds 11 1007 75 0 8.19 214 07:40 16.02.2020
2645 Clouds 11 1006 71 0 3.13 270 06:47 16.02.2020
2646 Clouds 11 1007 72 0 2.68 270 05:53 16.02.2020
2647 Clouds 10 1008 72 0 2.68 270 04:37 16.02.2020
2648 Clouds 10 1008 70 0 3.13 270 03:19 16.02.2020
2649 Clouds 10 1009 69 0 1.79 292 01:58 16.02.2020
2650 Clouds 10 1009 68 0 2.24 247 01:38 16.02.2020
2651 Clouds 10 1010 68 0 2.24 292 01:19 16.02.2020
2652 Clouds 9 1014 75 0 6.82 205 00:41 16.02.2020
2653 Clouds 9 1010 71 0 2.24 270 00:22 16.02.2020
2654 Clouds 9 1010 72 0 2.24 270 23:43 15.02.2020
2655 Clouds 9 1011 72 0 2.24 270 23:25 15.02.2020
2656 Clouds 9 1011 72 0 2.24 270 23:25 15.02.2020
2657 Clouds 9 1014 74 0 7.95 209 22:57 15.02.2020
2658 Clouds 9 1012 79 0 7.95 209 22:39 15.02.2020
2659 Clouds 9 1014 57 10000 6.2 210 22:19 15.02.2020
2660 Clouds 9 1014 57 10000 6.2 210 21:55 15.02.2020
2661 Clouds 8 1014 57 10000 6.2 210 21:37 15.02.2020
2662 Clouds 8 1014 57 10000 6.2 210 21:19 15.02.2020
2663 Clouds 8 1014 57 10000 4.6 200 20:38 15.02.2020
2664 Clouds 8 1015 61 10000 3.1 180 20:20 15.02.2020
2665 Clouds 8 1013 75 0 1.79 292 19:43 15.02.2020
2666 Clouds 8 1013 76 0 1.79 292 19:22 15.02.2020
2667 Clouds 8 1016 61 10000 3.1 200 18:43 15.02.2020
2668 Clouds 8 1016 61 10000 3.1 200 18:22 15.02.2020
2669 Clouds 9 1016 57 10000 5.1 190 17:57 15.02.2020
2670 Clouds 9 1016 57 10000 5.1 190 17:38 15.02.2020
2671 Clouds 10 1017 57 10000 4.6 210 17:19 15.02.2020
2672 Clouds 11 1017 57 10000 6.2 230 16:43 15.02.2020
2673 Clouds 11 1016 54 10000 5.7 240 16:24 15.02.2020
2674 Clouds 11 1016 54 10000 5.7 210 15:58 15.02.2020
2675 Clouds 11 1016 54 10000 5.7 210 15:58 15.02.2020
2676 Clouds 11 1016 54 10000 5.7 210 15:40 15.02.2020
2677 Clouds 12 1016 54 10000 5.7 210 15:21 15.02.2020
2678 Clouds 11 1017 54 10000 6.2 220 14:44 15.02.2020
2679 Clouds 11 1017 58 10000 5.7 200 14:19 15.02.2020
2680 Clouds 11 1017 58 10000 5.7 200 14:19 15.02.2020
2681 Clouds 11 1018 62 10000 6.2 220 13:54 15.02.2020
2682 Clouds 11 1019 61 10000 4.1 210 13:36 15.02.2020
2683 Clouds 10 1019 61 10000 4.1 210 13:18 15.02.2020
2684 Clouds 10 1019 70 10000 5.7 220 12:41 15.02.2020
2685 Clouds 9 1019 70 10000 4.1 210 12:22 15.02.2020
2686 Clouds 9 1020 66 10000 4.1 220 11:49 15.02.2020
2687 Clouds 9 1020 66 10000 4.1 220 11:49 15.02.2020
2688 Clouds 8 1020 70 10000 6.2 220 11:30 15.02.2020
2689 Clouds 8 1020 70 10000 5.7 220 10:56 15.02.2020
2690 Clouds 8 1020 70 10000 5.7 220 10:37 15.02.2020
2691 Clouds 7 1020 70 10000 4.6 210 10:18 15.02.2020
2692 Clouds 7 1020 75 10000 3.6 200 09:41 15.02.2020
2693 Clouds 6 1020 80 10000 2.6 190 09:23 15.02.2020
2694 Clouds 5 1019 86 0 0.89 270 08:44 15.02.2020
2695 Clouds 5 1020 86 0 1.34 270 08:25 15.02.2020
2696 Clouds 5 1019 86 0 0.89 270 07:56 15.02.2020
2697 Clouds 4 1019 86 0 0.89 270 07:38 15.02.2020
2698 Clouds 4 1019 86 0 0.89 292 06:59 15.02.2020
2699 Clouds 4 1021 94 0 2.55 204 06:36 15.02.2020
2700 Clouds 4 1020 97 0 2.55 204 05:54 15.02.2020
2701 Clouds 3 1020 84 0 1.34 225 04:48 15.02.2020
2702 Clouds 3 1020 83 0 1.79 292 03:45 15.02.2020
2703 Clouds 3 1021 82 0 0.89 270 02:58 15.02.2020
2704 Clouds 4 1021 82 0 1.34 270 02:23 15.02.2020
2705 Clouds 4 1022 82 0 0.45 292 01:41 15.02.2020
2706 Clouds 4 1024 86 0 3.3 198 00:56 15.02.2020
2707 Clouds 5 1022 79 0 0.45 270 00:26 15.02.2020
2708 Clouds 5 1022 80 0 0.89 270 23:44 14.02.2020
2709 Clouds 5 1023 86 10000 0.5 170 23:21 14.02.2020
2710 Clouds 5 1023 86 10000 0.5 170 22:54 14.02.2020
2711 Clouds 5 1023 86 10000 0.5 170 22:36 14.02.2020
2712 Clouds 5 1023 86 10000 0.5 170 22:18 14.02.2020
2713 Clouds 5 1023 86 10000 1 140 21:40 14.02.2020
2714 Clouds 5 1023 86 10000 4.04 236 21:21 14.02.2020
2715 Clouds 5 1023 86 10000 4.04 236 20:44 14.02.2020
2716 Clouds 5 1023 86 10000 2.12 242 20:20 14.02.2020
2717 Clouds 5 1023 86 10000 2.13 251 19:58 14.02.2020
2718 Clouds 5 1023 86 10000 2.13 251 19:40 14.02.2020
2719 Clouds 6 1022 80 10000 2.13 251 19:20 14.02.2020
2720 Clouds 6 1022 81 10000 2.1 320 18:56 14.02.2020
2721 Clouds 5 1022 81 10000 2.1 320 18:38 14.02.2020
2722 Clouds 6 1021 81 10000 2.6 300 18:19 14.02.2020
2723 Clouds 6 1021 75 10000 3.1 290 17:42 14.02.2020
2724 Clouds 7 1020 75 10000 3.1 290 17:21 14.02.2020
2725 Clouds 7 1020 81 10000 3.6 290 16:58 14.02.2020
2726 Clouds 7 1020 81 10000 3.6 290 16:39 14.02.2020
2727 Clouds 7 1020 81 10000 4.1 290 16:21 14.02.2020
2728 Clouds 7 1019 81 10000 4.1 280 15:56 14.02.2020
2729 Clouds 7 1019 81 10000 4.1 280 15:37 14.02.2020
2730 Clouds 7 1019 81 10000 4.1 280 15:37 14.02.2020
2731 Clouds 7 1019 81 10000 4.1 280 15:37 14.02.2020
2732 Clouds 7 1019 81 10000 4.1 280 15:37 14.02.2020
2733 Rain 7 1019 87 10000 3.6 280 15:19 14.02.2020
2734 Rain 7 1019 81 10000 5.1 270 14:58 14.02.2020
2735 Rain 7 1019 81 10000 5.1 270 14:39 14.02.2020
2736 Clouds 7 1018 81 10000 4.1 270 14:21 14.02.2020
2737 Clouds 7 1018 81 10000 5.1 290 13:40 14.02.2020
2738 Clouds 7 1017 81 10000 4.6 280 13:21 14.02.2020
2739 Clouds 7 1017 81 10000 5.1 280 12:58 14.02.2020
2740 Clouds 7 1017 81 10000 5.1 280 12:40 14.02.2020
2741 Clouds 7 1017 81 10000 4.6 280 12:21 14.02.2020
2742 Clouds 6 1016 81 10000 4.6 290 11:59 14.02.2020
2743 Clouds 6 1016 81 10000 4.6 290 11:41 14.02.2020
2744 Clouds 6 1015 87 10000 5.1 280 11:21 14.02.2020
2745 Clouds 6 1015 87 10000 4.6 290 10:56 14.02.2020
2746 Clouds 6 1015 87 10000 4.6 290 10:38 14.02.2020
2747 Clouds 6 1014 93 10000 4.6 280 10:19 14.02.2020
2748 Clouds 6 1014 93 7000 4.1 290 09:43 14.02.2020
2749 Mist 6 1013 93 4700 4.1 290 09:22 14.02.2020
2750 Rain 6 1012 93 4400 4.1 280 08:55 14.02.2020
2751 Rain 5 1012 93 4400 4.1 280 08:37 14.02.2020
2752 Rain 5 1011 93 3700 2.6 280 08:18 14.02.2020
2753 Rain 5 1011 93 4100 2.1 280 07:43 14.02.2020
2754 Drizzle 5 1010 93 4100 2.6 280 07:24 14.02.2020
2755 Rain 5 1009 94 0 3.77 273 06:32 14.02.2020
2756 Rain 5 1009 96 0 3.77 273 05:48 14.02.2020
2757 Rain 5 1007 94 0 3.77 273 05:25 14.02.2020
2758 Rain 4 1006 96 0 3.18 237 03:30 14.02.2020
2759 Rain 4 1004 93 0 0.45 270 02:42 14.02.2020
2760 Rain 4 1003 93 0 0.45 225 01:50 14.02.2020
2761 Clouds 4 1002 92 0 2.99 218 00:44 14.02.2020
2762 Clouds 4 1002 92 0 2.99 218 00:44 14.02.2020
2763 Clouds 4 1002 92 0 0.45 270 00:24 14.02.2020
2764 Clouds 3 1001 91 0 2.99 218 23:51 13.02.2020
2765 Clouds 3 1001 90 0 2.99 218 23:23 13.02.2020
2766 Clouds 3 1000 90 0 0.45 270 22:56 13.02.2020
2767 Clouds 3 1000 90 0 3.47 219 22:38 13.02.2020
2768 Clouds 3 1001 95 0 3.47 219 22:18 13.02.2020
2769 Clouds 3 1000 75 10000 2.1 210 21:41 13.02.2020
2770 Clouds 3 1000 75 10000 2.1 210 21:23 13.02.2020
2771 Clouds 3 1000 80 10000 2.6 180 20:58 13.02.2020
2772 Clouds 3 1000 80 10000 2.6 180 20:40 13.02.2020
2773 Clouds 4 1000 80 10000 3.6 170 20:22 13.02.2020
2774 Clouds 4 1000 80 10000 3.1 160 19:56 13.02.2020
2775 Clouds 4 1000 80 10000 3.1 160 19:37 13.02.2020
2776 Clouds 4 1000 80 10000 3.1 160 19:37 13.02.2020
2777 Clouds 4 1000 80 10000 3.6 160 19:19 13.02.2020
2778 Clouds 4 1000 80 10000 5.1 150 18:55 13.02.2020
2779 Drizzle 4 1000 80 10000 5.7 160 18:37 13.02.2020
2780 Drizzle 4 1000 80 10000 5.7 160 18:19 13.02.2020
2781 Clouds 3 1000 80 10000 5.7 140 17:41 13.02.2020
2782 Clouds 3 1000 80 10000 8.2 140 17:22 13.02.2020
2783 Clouds 3 1001 80 10000 7.7 140 16:59 13.02.2020
2784 Clouds 3 1001 80 10000 7.7 140 16:40 13.02.2020
2785 Rain 3 1001 80 10000 5.7 120 16:20 13.02.2020
2786 Clouds 3 1003 86 10000 5.7 130 15:57 13.02.2020
2787 Clouds 3 1003 86 10000 5.7 130 15:39 13.02.2020
2788 Rain 3 1004 86 10000 5.1 150 15:19 13.02.2020
2789 Rain 3 1005 80 10000 4.6 140 14:58 13.02.2020
2790 Rain 3 1005 80 10000 4.6 140 14:58 13.02.2020
2791 Rain 3 1005 80 10000 4.6 140 14:39 13.02.2020
2792 Rain 4 1005 80 10000 4.1 130 14:21 13.02.2020
2793 Rain 4 1006 67 9000 4.1 150 13:48 13.02.2020
2794 Clouds 4 1007 69 10000 5.7 150 13:19 13.02.2020
2795 Clouds 4 1007 66 10000 4.1 140 12:56 13.02.2020
2796 Clouds 4 1007 66 10000 4.1 140 12:56 13.02.2020
2797 Clouds 4 1007 66 10000 4.1 140 12:56 13.02.2020
2798 Clouds 4 1007 66 10000 4.1 140 12:38 13.02.2020
2799 Clouds 4 1007 66 10000 4.1 140 12:38 13.02.2020
2800 Clouds 4 1007 66 10000 4.1 140 12:38 13.02.2020
2801 Clouds 4 1008 66 10000 5.1 150 12:19 13.02.2020
2802 Clouds 4 1009 69 10000 4.6 150 11:47 13.02.2020
2803 Clouds 4 1009 69 10000 3.6 150 11:20 13.02.2020
2804 Clouds 4 1010 69 10000 3.6 160 10:56 13.02.2020
2805 Clouds 4 1010 69 10000 3.6 160 10:38 13.02.2020
2806 Clouds 4 1010 69 10000 3.6 160 10:38 13.02.2020
2807 Clouds 3 1010 74 10000 3.6 160 10:20 13.02.2020
2808 Clouds 3 1011 74 10000 3.6 170 09:41 13.02.2020
2809 Clouds 2 1011 80 10000 3.6 170 09:22 13.02.2020
2810 Clouds 2 1012 74 10000 2.6 170 08:45 13.02.2020
2811 Clouds 1 1012 80 10000 3.1 170 08:19 13.02.2020
2812 Clouds 1 1012 80 10000 3.1 170 08:19 13.02.2020
2813 Clear 1 1012 74 10000 3.6 200 07:43 13.02.2020
2814 Clear 1 1013 80 10000 4.1 210 07:22 13.02.2020
2815 Clear 1 1011 88 0 0.45 247 06:53 13.02.2020
2816 Clear 1 1011 87 0 0.89 270 06:33 13.02.2020
2817 Clear 1 1016 82 0 3.75 198 05:50 13.02.2020
2818 Clear 1 1012 85 0 0.89 270 04:45 13.02.2020
2819 Clear 1 1012 85 0 0.89 292 04:18 13.02.2020
2820 Clear 2 1012 83 0 1.34 225 03:41 13.02.2020
2821 Clear 2 1012 82 0 0.89 270 02:58 13.02.2020
2822 Clear 2 1015 84 0 6.64 236 02:20 13.02.2020
2823 Clear 2 1012 87 0 6.64 236 01:54 13.02.2020
2824 Clear 2 1013 86 0 6.64 236 01:25 13.02.2020
2825 Clear 2 1013 80 0 1.34 270 00:28 13.02.2020
2826 Clear 3 1013 80 0 0.89 270 23:43 12.02.2020
2827 Clear 3 1013 80 0 0.45 270 23:23 12.02.2020
2828 Clear 3 1013 80 0 0.45 270 23:23 12.02.2020
2829 Clouds 3 1012 69 10000 6.2 260 22:59 12.02.2020
2830 Clouds 3 1012 69 10000 6.2 260 22:41 12.02.2020
2831 Clouds 3 1012 69 10000 6.2 260 22:22 12.02.2020
2832 Clouds 3 1012 69 10000 5.7 260 21:55 12.02.2020
2833 Clouds 3 1012 74 10000 4.1 260 21:37 12.02.2020
2834 Clouds 3 1012 74 10000 4.1 260 21:18 12.02.2020
2835 Clouds 3 1012 74 10000 5.1 260 20:43 12.02.2020
2836 Clouds 3 1012 74 10000 4.1 260 20:25 12.02.2020
2837 Clouds 3 1012 79 10000 4.1 270 20:00 12.02.2020
2838 Clouds 3 1012 79 10000 4.1 270 19:41 12.02.2020
2839 Clouds 3 1011 79 10000 4.6 270 19:22 12.02.2020
2840 Clouds 3 1011 79 10000 7.7 260 18:54 12.02.2020
2841 Clouds 4 1010 65 10000 7.7 270 18:36 12.02.2020
2842 Clouds 4 1010 65 10000 7.7 270 18:18 12.02.2020
2843 Clouds 4 1010 69 10000 5.1 270 17:40 12.02.2020
2844 Clouds 5 1009 66 10000 7.2 290 17:19 12.02.2020
2845 Clouds 5 1009 65 10000 5.1 270 16:57 12.02.2020
2846 Clouds 5 1009 66 10000 8.7 280 16:36 12.02.2020
2847 Clouds 5 1009 66 10000 8.7 280 16:18 12.02.2020
2848 Clouds 5 1009 52 10000 11.8 260 15:38 12.02.2020
2849 Clouds 6 1008 52 10000 10.8 260 15:19 12.02.2020
2850 Clouds 6 1008 52 10000 8.7 260 14:43 12.02.2020
2851 Clouds 6 1008 52 10000 10.3 260 14:21 12.02.2020
2852 Clouds 6 1008 60 10000 11.8 270 13:59 12.02.2020
2853 Clouds 5 1008 60 10000 11.8 270 13:40 12.02.2020
2854 Clouds 5 1008 52 10000 11.3 260 13:22 12.02.2020
2855 Clouds 5 1008 60 10000 9.8 260 12:58 12.02.2020
2856 Clouds 5 1008 60 10000 9.8 260 12:39 12.02.2020
2857 Clouds 5 1007 60 10000 9.3 260 12:19 12.02.2020
2858 Clouds 5 1007 60 10000 10.8 260 11:59 12.02.2020
2859 Clouds 5 1007 60 10000 10.8 260 11:41 12.02.2020
2860 Clouds 4 1007 60 10000 10.3 260 11:21 12.02.2020
2861 Clouds 4 1006 60 10000 9.8 260 10:58 12.02.2020
2862 Clouds 4 1006 60 10000 9.8 260 10:58 12.02.2020
2863 Clouds 4 1006 60 10000 9.8 260 10:40 12.02.2020
2864 Clouds 4 1006 64 10000 10.8 260 10:20 12.02.2020
2865 Clouds 4 1006 64 10000 9.3 260 09:54 12.02.2020
2866 Clouds 3 1006 64 10000 9.8 260 09:36 12.02.2020
2867 Clouds 4 1006 64 10000 9.8 260 09:18 12.02.2020
2868 Clouds 4 1006 64 10000 9.8 260 09:18 12.02.2020
2869 Clouds 3 1005 69 10000 9.8 260 08:55 12.02.2020
2870 Clouds 3 1005 69 10000 10.3 260 08:36 12.02.2020
2871 Clouds 3 1005 69 10000 10.3 260 08:18 12.02.2020
2872 Clouds 3 1005 69 10000 10.3 260 08:18 12.02.2020
2873 Clouds 3 1005 69 10000 9.3 260 07:41 12.02.2020
2874 Clouds 3 1005 69 10000 9.3 260 07:41 12.02.2020
2875 Clouds 3 1005 60 10000 10.3 250 07:21 12.02.2020
2876 Snow 2 1005 78 0 2.24 270 06:52 12.02.2020
2877 Snow 3 1005 78 0 3.13 270 06:20 12.02.2020
2878 Snow 3 1005 76 0 2.68 270 05:33 12.02.2020
2879 Snow 3 1004 85 0 2.24 270 04:43 12.02.2020
2880 Snow 3 1004 85 0 2.68 270 04:24 12.02.2020
2881 Snow 3 1010 87 0 10.11 255 03:31 12.02.2020
2882 Snow 3 1004 82 0 1.79 270 02:54 12.02.2020
2883 Snow 2 1004 81 0 2.68 270 02:27 12.02.2020
2884 Snow 3 1004 80 0 2.24 270 01:34 12.02.2020
2885 Snow 2 1003 82 0 2.24 270 00:43 12.02.2020
2886 Snow 2 1003 83 0 1.79 225 00:25 12.02.2020
2887 Snow 2 1003 84 0 1.79 270 23:53 11.02.2020
2888 Snow 2 1003 84 0 1.34 270 23:35 11.02.2020
2889 Clouds 2 1002 73 10000 6.7 270 22:59 11.02.2020
2890 Clouds 2 1002 73 10000 6.7 270 22:40 11.02.2020
2891 Clouds 2 1002 73 10000 6.7 270 22:20 11.02.2020
2892 Clouds 2 1002 74 10000 6.7 260 21:57 11.02.2020
2893 Clouds 2 1002 74 10000 6.7 260 21:39 11.02.2020
2894 Clouds 2 1002 80 10000 7.2 260 21:19 11.02.2020
2895 Clouds 2 1002 74 10000 8.2 250 20:59 11.02.2020
2896 Clouds 2 1002 74 10000 8.2 250 20:39 11.02.2020
2897 Rain 2 1002 71 10000 9.8 270 20:20 11.02.2020
2898 Clouds 3 1001 74 10000 7.7 260 19:58 11.02.2020
2899 Clouds 3 1001 74 10000 7.7 260 19:40 11.02.2020
2900 Clouds 3 1001 72 10000 7.2 260 19:22 11.02.2020
2901 Clouds 3 1000 74 10000 6.7 250 18:46 11.02.2020
2902 Clouds 3 1000 74 10000 7.7 260 18:28 11.02.2020
2903 Clouds 3 1000 69 10000 9.8 270 17:57 11.02.2020
2904 Clouds 3 1000 69 10000 9.8 270 17:39 11.02.2020
2905 Clouds 3 999 75 10000 7.7 260 17:20 11.02.2020
2906 Clouds 3 999 80 10000 6.7 260 16:58 11.02.2020
2907 Clouds 3 999 80 10000 6.7 260 16:58 11.02.2020
2908 Clouds 3 999 80 10000 6.7 260 16:39 11.02.2020
2909 Thunderstorm 4 999 86 10000 9.3 280 16:21 11.02.2020
2910 Rain 4 997 75 10000 9.3 260 15:58 11.02.2020
2911 Rain 4 997 75 10000 9.3 260 15:39 11.02.2020
2912 Clouds 4 998 75 10000 12.3 260 15:21 11.02.2020
2913 Clouds 5 997 56 10000 11.3 250 14:42 11.02.2020
2914 Clouds 5 997 56 10000 11.8 250 14:19 11.02.2020
2915 Clouds 5 998 56 10000 10.3 250 13:57 11.02.2020
2916 Clouds 5 998 56 10000 10.3 250 13:38 11.02.2020
2917 Clouds 5 998 56 10000 9.3 250 13:20 11.02.2020
2918 Clouds 5 997 56 10000 11.3 250 12:55 11.02.2020
2919 Clouds 5 997 60 10000 10.3 260 12:36 11.02.2020
2920 Clouds 5 997 60 10000 10.3 260 12:18 11.02.2020
2921 Clouds 5 997 60 10000 10.8 260 11:41 11.02.2020
2922 Clouds 5 996 60 10000 10.8 250 11:19 11.02.2020
2923 Clouds 5 996 60 10000 12.3 260 10:55 11.02.2020
2924 Clouds 5 996 60 10000 11.3 260 10:36 11.02.2020
2925 Clouds 5 996 60 10000 11.3 260 10:18 11.02.2020
2926 Clouds 5 995 65 10000 11.8 260 09:44 11.02.2020
2927 Clouds 5 995 60 10000 11.3 260 09:22 11.02.2020
2928 Clouds 4 995 60 10000 12.3 260 08:57 11.02.2020
2929 Clouds 4 995 60 10000 12.3 260 08:39 11.02.2020
2930 Clouds 4 994 69 10000 11.3 260 08:20 11.02.2020
2931 Clouds 4 994 64 10000 11.8 260 07:45 11.02.2020
2932 Clouds 4 994 64 10000 10.8 250 07:25 11.02.2020
2933 Snow 3 995 76 0 1.79 270 06:43 11.02.2020
2934 Snow 3 994 77 0 3.13 292 06:22 11.02.2020
2935 Snow 3 994 78 0 2.24 270 05:47 11.02.2020
2936 Snow 3 994 78 0 2.24 270 05:23 11.02.2020
2937 Snow 3 994 80 0 2.68 270 04:37 11.02.2020
2938 Snow 4 991 82 0 1.79 270 02:53 11.02.2020
2939 Snow 4 990 92 0 0.89 297 02:27 11.02.2020
2940 Rain 4 990 91 0 1.34 270 01:36 11.02.2020
2941 Rain 4 989 88 0 1.34 270 00:40 11.02.2020
2942 Rain 5 988 91 0 0.45 297 23:57 10.02.2020
2943 Rain 5 988 82 0 2.68 270 23:38 10.02.2020
2944 Clouds 5 991 75 10000 5.7 200 23:19 10.02.2020
2945 Clouds 5 991 75 10000 5.7 200 22:40 10.02.2020
2946 Clouds 5 991 75 10000 5.7 200 22:20 10.02.2020
2947 Clouds 5 992 75 10000 7.2 230 21:46 10.02.2020
2948 Rain 4 990 89 0 7.72 238 21:27 10.02.2020
2949 Rain 5 993 92 10000 5.7 220 20:58 10.02.2020
2950 Rain 5 993 92 10000 5.7 220 20:40 10.02.2020
2951 Rain 5 994 70 10000 4.6 220 20:21 10.02.2020
2952 Rain 5 994 73 10000 4.6 220 20:21 10.02.2020
2953 Clouds 5 995 70 10000 5.1 230 19:59 10.02.2020
2954 Clouds 5 995 70 10000 5.1 230 19:39 10.02.2020
2955 Clouds 5 996 70 10000 5.1 250 19:19 10.02.2020
2956 Clouds 5 996 70 10000 7.2 240 18:59 10.02.2020
2957 Clouds 5 996 70 10000 7.2 240 18:40 10.02.2020
2958 Clouds 5 996 70 10000 8.7 260 18:21 10.02.2020
2959 Clouds 5 996 70 10000 10.8 260 17:58 10.02.2020
2960 Clouds 5 996 70 10000 10.8 260 17:38 10.02.2020
2961 Clouds 5 996 75 10000 8.2 260 17:20 10.02.2020
2962 Clouds 5 996 64 10000 9.8 260 16:59 10.02.2020
2963 Clouds 5 996 64 10000 9.8 260 16:40 10.02.2020
2964 Clouds 5 995 75 10000 13.4 270 16:20 10.02.2020
2965 Clouds 5 995 75 10000 13.4 270 16:20 10.02.2020
2966 Rain 4 995 70 10000 9.8 290 15:56 10.02.2020
2967 Rain 5 995 70 10000 9.8 290 15:38 10.02.2020
2968 Rain 5 994 52 10000 11.8 270 15:20 10.02.2020
2969 Rain 5 994 70 10000 7.7 280 14:56 10.02.2020
2970 Rain 6 994 70 10000 7.7 280 14:38 10.02.2020
2971 Rain 5 993 75 10000 9.8 280 14:18 10.02.2020
2972 Rain 5 993 75 10000 9.8 280 13:43 10.02.2020
2973 Clouds 5 993 75 10000 11.8 280 13:24 10.02.2020
2974 Rain 5 993 80 7000 10.8 270 12:56 10.02.2020
2975 Rain 5 993 80 7000 10.8 270 12:38 10.02.2020
2976 Thunderstorm 5 991 75 4500 10.3 260 12:19 10.02.2020
2977 Clouds 6 990 75 10000 9.8 260 11:45 10.02.2020
2978 Rain 6 990 81 10000 10.3 260 11:21 10.02.2020
2979 Rain 6 989 86 10000 8.2 260 10:48 10.02.2020
2980 Rain 6 989 86 10000 8.2 260 10:48 10.02.2020
2981 Rain 5 989 86 10000 9.3 270 10:30 10.02.2020
2982 Rain 5 987 87 7000 4.6 280 09:55 10.02.2020
2983 Rain 6 987 81 8000 8.7 270 09:36 10.02.2020
2984 Rain 6 987 81 8000 8.7 270 09:18 10.02.2020
2985 Rain 7 987 75 10000 9.3 270 08:40 10.02.2020
2986 Rain 7 986 81 6000 10.3 280 08:21 10.02.2020
2987 Rain 7 985 66 10000 8.7 270 07:55 10.02.2020
2988 Rain 8 985 66 10000 8.2 250 07:32 10.02.2020
2989 Rain 7 990 88 0 6.71 225 06:49 10.02.2020
2990 Rain 9 984 92 0 0.45 295 04:59 10.02.2020
2991 Rain 8 990 90 0 7.6 225 03:54 10.02.2020
2992 Rain 9 984 81 0 4.47 270 03:18 10.02.2020
2993 Rain 9 984 84 0 3.13 292 02:42 10.02.2020
2994 Rain 10 989 75 0 16.09 225 01:24 10.02.2020
2995 Rain 12 984 82 0 5.81 270 00:40 10.02.2020
2996 Rain 12 985 78 0 6.71 270 00:21 10.02.2020
2997 Rain 12 987 78 0 1.79 94 23:41 09.02.2020
2998 Rain 12 987 75 0 6.71 270 23:23 09.02.2020
2999 Rain 11 993 70 0 15.65 225 22:44 09.02.2020
3000 Rain 12 989 74 0 5.81 270 22:23 09.02.2020
3001 Rain 11 994 70 0 16.09 225 21:56 09.02.2020
3002 Rain 12 991 75 0 5.81 270 21:38 09.02.2020
3003 Rain 12 996 63 0 12.07 225 21:19 09.02.2020
3004 Rain 12 997 62 0 13.41 225 20:44 09.02.2020
3005 Rain 12 994 54 10000 11.8 210 20:21 09.02.2020
3006 Rain 12 994 54 10000 11.8 210 19:55 09.02.2020
3007 Rain 12 994 54 10000 11.8 210 19:37 09.02.2020
3008 Rain 12 994 54 10000 11.8 210 19:18 09.02.2020
3009 Clouds 12 996 50 10000 11.3 210 18:42 09.02.2020
3010 Rain 11 997 50 10000 10.3 220 18:23 09.02.2020
3011 Clouds 11 997 50 10000 10.8 220 17:56 09.02.2020
3012 Clouds 11 997 50 10000 10.8 220 17:38 09.02.2020
3013 Clouds 11 998 50 10000 8.7 210 17:19 09.02.2020
3014 Clouds 11 999 50 10000 9.3 210 16:41 09.02.2020
3015 Clouds 12 1001 50 10000 10.3 210 16:22 09.02.2020
3016 Clouds 11 1002 50 10000 8.7 210 15:58 09.02.2020
3017 Clouds 11 1002 50 10000 8.7 210 15:40 09.02.2020
3018 Clouds 11 1002 50 10000 9.8 210 15:21 09.02.2020
3019 Clouds 11 1003 50 10000 8.2 210 14:56 09.02.2020
3020 Clouds 11 1003 50 10000 8.2 210 14:37 09.02.2020
3021 Clouds 11 1004 50 10000 8.2 210 14:19 09.02.2020
3022 Clouds 11 1005 50 10000 9.3 210 13:42 09.02.2020
3023 Clouds 10 1007 57 10000 8.2 210 13:24 09.02.2020
3024 Clouds 10 1008 57 10000 9.8 210 12:55 09.02.2020
3025 Clouds 10 1009 66 10000 8.7 210 12:37 09.02.2020
3026 Clouds 10 1009 66 10000 8.7 210 12:18 09.02.2020
3027 Clouds 10 1010 66 10000 8.7 220 11:40 09.02.2020
3028 Clouds 9 1011 61 10000 8.7 220 11:19 09.02.2020
3029 Clouds 9 1011 61 10000 5.7 200 10:56 09.02.2020
3030 Clouds 9 1011 61 10000 5.7 200 10:38 09.02.2020
3031 Clouds 8 1012 61 10000 7.7 210 10:19 09.02.2020
3032 Clouds 8 1012 66 10000 7.2 210 09:40 09.02.2020
3033 Clouds 7 1013 65 10000 5.1 200 09:20 09.02.2020
3034 Clouds 6 1015 79 0 7.6 202 08:44 09.02.2020
3035 Clouds 6 1016 78 0 6.71 225 08:26 09.02.2020
3036 Clouds 5 1016 76 0 7.15 225 07:57 09.02.2020
3037 Clouds 5 1017 74 0 6.71 180 07:34 09.02.2020
3038 Clouds 5 1017 72 0 6.26 180 06:45 09.02.2020
3039 Clouds 5 1018 71 0 5.36 225 05:57 09.02.2020
3040 Clouds 5 1018 71 0 6.71 180 05:35 09.02.2020
3041 Clouds 5 1019 71 0 4.92 225 04:54 09.02.2020
3042 Clouds 5 1019 71 0 5.81 202 03:52 09.02.2020
3043 Clouds 6 1019 71 0 5.81 180 02:44 09.02.2020
3044 Clouds 6 1019 71 0 4.92 225 02:24 09.02.2020
3045 Clouds 6 1020 72 0 5.36 180 01:34 09.02.2020
3046 Clouds 7 1021 72 0 3.58 202 00:41 09.02.2020
3047 Clouds 6 1021 73 0 4.02 225 00:21 09.02.2020
3048 Clouds 6 1021 72 0 3.58 180 23:42 08.02.2020
3049 Clouds 6 1021 73 0 3.13 180 23:20 08.02.2020
3050 Clouds 6 1021 73 0 3.13 180 23:20 08.02.2020
3051 Clouds 6 1021 73 0 4.92 180 22:42 08.02.2020
3052 Clouds 6 1021 73 0 4.92 225 22:21 08.02.2020
3053 Clouds 6 1021 73 0 4.47 202 21:58 08.02.2020
3054 Clouds 6 1021 73 0 3.13 225 21:40 08.02.2020
3055 Clouds 6 1022 72 0 3.13 202 21:20 08.02.2020
3056 Clouds 6 1021 72 0 3.13 225 20:56 08.02.2020
3057 Clouds 6 1021 72 0 4.02 225 20:38 08.02.2020
3058 Clouds 7 1021 72 0 3.58 202 20:19 08.02.2020
3059 Clouds 7 1019 87 0 4.17 209 19:54 08.02.2020
3060 Clouds 7 1021 72 0 3.58 225 19:36 08.02.2020
3061 Clouds 7 1022 71 0 3.58 202 19:18 08.02.2020
3062 Clouds 6 1020 57 10000 3.6 190 18:42 08.02.2020
3063 Clouds 6 1020 57 10000 3.6 190 18:42 08.02.2020
3064 Clouds 6 1020 57 10000 3.6 190 18:23 08.02.2020
3065 Clouds 7 1020 57 10000 3.6 190 17:43 08.02.2020
3066 Clouds 7 1020 57 10000 3.1 210 17:21 08.02.2020
3067 Clouds 7 1020 57 10000 3.1 210 17:21 08.02.2020
3068 Clouds 8 1020 57 10000 2.6 220 16:59 08.02.2020
3069 Clouds 8 1020 57 10000 2.6 220 16:39 08.02.2020
3070 Clouds 8 1020 57 10000 3.1 220 16:21 08.02.2020
3071 Clouds 8 1020 57 10000 3.1 220 16:21 08.02.2020
3072 Clouds 8 1020 57 10000 2.1 240 15:43 08.02.2020
3073 Clouds 8 1020 57 10000 2.1 220 15:19 08.02.2020
3074 Clouds 8 1020 57 10000 4.1 230 14:59 08.02.2020
3075 Clouds 8 1020 57 10000 4.1 230 14:40 08.02.2020
3076 Clouds 8 1020 63 10000 3.1 210 14:19 08.02.2020
3077 Clouds 7 1021 63 10000 3.1 200 13:43 08.02.2020
3078 Clouds 7 1021 63 10000 3.1 200 13:43 08.02.2020
3079 Clouds 7 1021 52 10000 3.6 220 13:23 08.02.2020
3080 Clouds 7 1021 52 10000 4.1 230 12:57 08.02.2020
3081 Clouds 7 1021 52 10000 2.6 230 12:37 08.02.2020
3082 Clouds 7 1021 52 10000 2.6 230 12:19 08.02.2020
3083 Clouds 6 1021 52 10000 2.6 190 11:43 08.02.2020
3084 Clouds 5 1021 52 10000 2.1 200 11:22 08.02.2020
3085 Clear 5 1021 60 10000 2.6 210 10:57 08.02.2020
3086 Clear 4 1021 60 10000 2.6 210 10:38 08.02.2020
3087 Clear 3 1021 64 10000 2.6 190 10:20 08.02.2020
3088 Clear 2 1021 74 10000 2.6 160 09:49 08.02.2020
3089 Clear 2 1022 59 10000 2.1 120 09:24 08.02.2020
3090 Clear 1 1021 86 10000 3.1 110 08:46 08.02.2020
3091 Clear 1 1021 94 0 2.63 208 08:24 08.02.2020
3092 Clear 0 1020 80 0 0.89 270 07:53 08.02.2020
3093 Clear 0 1020 81 0 0.89 270 07:34 08.02.2020
3094 Clear 0 1020 81 0 0.89 225 06:55 08.02.2020
3095 Clear 0 1020 82 0 1.79 270 06:22 08.02.2020
3096 Clear 0 1020 83 0 0.89 270 05:34 08.02.2020
3097 Clear 0 1021 83 0 1.34 270 04:55 08.02.2020
3098 Clear 0 1021 82 0 1.34 270 04:24 08.02.2020
3099 Clear 0 1021 96 0 1.66 182 03:38 08.02.2020
3100 Clear 0 1021 81 0 1.34 270 02:29 08.02.2020
3101 Clear 0 1021 81 0 1.34 270 02:29 08.02.2020
3102 Clear 1 1021 83 0 0.89 292 01:34 08.02.2020
3103 Clear 1 1022 82 0 1.34 270 00:54 08.02.2020
3104 Clear 1 1022 92 0 1.75 147 00:25 08.02.2020
3105 Clear 2 1023 90 0 1.75 147 23:59 07.02.2020
3106 Clear 2 1022 84 0 0.45 270 23:39 07.02.2020
3107 Clouds 2 1026 89 10000 4.1 140 23:20 07.02.2020
3108 Clouds 2 1026 89 10000 4.1 140 22:55 07.02.2020
3109 Clouds 3 1026 89 10000 4.1 140 22:37 07.02.2020
3110 Clouds 3 1026 89 10000 4.1 140 22:18 07.02.2020
3111 Clouds 3 1026 75 10000 5.7 130 21:41 07.02.2020
3112 Clouds 3 1026 75 10000 5.7 150 21:21 07.02.2020
3113 Clouds 3 1026 75 10000 5.7 140 20:40 07.02.2020
3114 Clouds 3 1026 75 10000 4.6 130 20:21 07.02.2020
3115 Clouds 4 1026 75 10000 4.6 130 19:56 07.02.2020
3116 Clouds 4 1026 75 10000 4.6 130 19:37 07.02.2020
3117 Clouds 4 1027 75 10000 4.6 130 19:19 07.02.2020
3118 Clouds 4 1027 75 10000 5.7 130 18:46 07.02.2020
3119 Clouds 4 1027 75 10000 4.1 120 18:26 07.02.2020
3120 Clouds 4 1027 80 10000 4.1 130 17:57 07.02.2020
3121 Clouds 4 1027 80 10000 4.1 130 17:39 07.02.2020
3122 Clouds 5 1027 75 10000 5.1 120 17:20 07.02.2020
3123 Clouds 5 1027 80 10000 4.6 130 16:52 07.02.2020
3124 Clouds 5 1028 75 10000 3.6 140 16:24 07.02.2020
3125 Clouds 6 1028 75 10000 4.1 130 15:55 07.02.2020
3126 Clouds 6 1028 70 10000 3.1 130 15:36 07.02.2020
3127 Clouds 6 1028 70 10000 3.1 130 15:18 07.02.2020
3128 Clouds 6 1028 75 10000 3.6 150 14:42 07.02.2020
3129 Clouds 6 1028 75 10000 3.1 160 14:24 07.02.2020
3130 Clouds 6 1029 75 10000 2.6 150 13:57 07.02.2020
3131 Clouds 6 1029 75 10000 2.1 140 13:38 07.02.2020
3132 Clouds 6 1029 75 10000 2.1 140 13:20 07.02.2020
3133 Clouds 6 1029 75 10000 1.5 0 12:44 07.02.2020
3134 Clouds 6 1030 75 10000 2.1 130 12:26 07.02.2020
3135 Clouds 6 1030 75 10000 2.67 96 11:58 07.02.2020
3136 Clouds 6 1030 75 10000 2.67 96 11:39 07.02.2020
3137 Clouds 5 1030 80 10000 0.5 140 11:18 07.02.2020
3138 Clouds 5 1030 80 10000 0.99 91 10:40 07.02.2020
3139 Clouds 5 1030 80 10000 1 0 10:21 07.02.2020
3140 Clouds 4 1030 86 10000 0.5 0 09:47 07.02.2020
3141 Clouds 4 1030 86 10000 0.5 0 09:27 07.02.2020
3142 Clouds 4 1030 86 10000 0.99 91 08:58 07.02.2020
3143 Clouds 3 1030 86 10000 0.99 91 08:40 07.02.2020
3144 Clouds 3 1030 86 10000 1.17 227 08:20 07.02.2020
3145 Clouds 3 1030 86 9000 1.17 227 07:43 07.02.2020
3146 Clouds 3 1029 86 9000 1 260 07:24 07.02.2020
3147 Clouds 3 1028 88 0 1.17 227 06:44 07.02.2020
3148 Clouds 3 1027 91 0 1.17 227 06:23 07.02.2020
3149 Clouds 3 1028 88 0 1.17 227 05:44 07.02.2020
3150 Clouds 3 1027 94 0 1.78 231 04:24 07.02.2020
3151 Clouds 3 1028 88 0 1.78 231 02:32 07.02.2020
3152 Clouds 4 1028 88 0 2.6 246 01:37 07.02.2020
3153 Clouds 4 1028 88 0 2.51 246 00:45 07.02.2020
3154 Clouds 4 1028 88 0 2.51 246 00:18 07.02.2020
3155 Clouds 4 1028 87 0 2.51 246 23:37 06.02.2020
3156 Clouds 4 1029 80 10000 2.1 270 23:18 06.02.2020
3157 Clouds 4 1029 80 10000 2.1 270 22:44 06.02.2020
3158 Clouds 4 1029 80 10000 2.1 270 22:24 06.02.2020
3159 Clouds 4 1029 80 10000 2.6 270 21:38 06.02.2020
3160 Clouds 4 1029 80 10000 3.1 270 21:19 06.02.2020
3161 Clouds 4 1029 80 10000 3.1 280 20:58 06.02.2020
3162 Clouds 4 1029 80 10000 3.1 280 20:39 06.02.2020
3163 Clouds 4 1029 80 10000 3.6 290 20:19 06.02.2020
3164 Clouds 4 1029 80 10000 3.1 280 19:59 06.02.2020
3165 Clouds 4 1029 80 10000 3.1 280 19:40 06.02.2020
3166 Clouds 4 1029 80 10000 3.1 280 19:22 06.02.2020
3167 Clouds 4 1029 80 10000 3.6 270 18:58 06.02.2020
3168 Clouds 5 1029 80 10000 3.6 270 18:39 06.02.2020
3169 Clouds 4 1029 75 10000 4.1 260 18:20 06.02.2020
3170 Clouds 5 1029 75 10000 4.6 270 17:44 06.02.2020
3171 Clouds 5 1029 75 10000 4.6 270 17:44 06.02.2020
3172 Clouds 5 1029 80 10000 4.6 260 17:21 06.02.2020
3173 Clouds 5 1029 70 10000 5.7 270 16:59 06.02.2020
3174 Clouds 5 1029 70 10000 5.7 270 16:40 06.02.2020
3175 Clouds 5 1029 75 10000 5.7 270 16:22 06.02.2020
3176 Clouds 5 1029 75 10000 5.7 270 15:42 06.02.2020
3177 Clouds 5 1029 70 10000 5.7 270 15:22 06.02.2020
3178 Clouds 5 1029 70 10000 5.1 270 14:50 06.02.2020
3179 Clouds 5 1029 70 10000 5.1 260 14:28 06.02.2020
3180 Drizzle 5 1029 70 10000 5.1 270 13:58 06.02.2020
3181 Drizzle 5 1029 70 10000 5.1 270 13:40 06.02.2020
3182 Clouds 5 1030 75 10000 4.6 270 13:19 06.02.2020
3183 Clouds 5 1030 75 10000 4.1 280 12:44 06.02.2020
3184 Clouds 5 1030 75 10000 5.7 280 12:19 06.02.2020
3185 Clouds 5 1030 75 10000 4.1 280 11:57 06.02.2020
3186 Clouds 4 1030 75 10000 4.1 280 11:39 06.02.2020
3187 Clouds 4 1030 75 10000 4.6 270 11:19 06.02.2020
3188 Clouds 4 1030 80 10000 4.1 270 10:56 06.02.2020
3189 Clouds 4 1030 80 10000 4.1 270 10:38 06.02.2020
3190 Clouds 4 1030 80 10000 5.1 280 10:19 06.02.2020
3191 Clouds 4 1030 80 10000 4.1 280 09:55 06.02.2020
3192 Clouds 4 1029 86 10000 3.1 280 09:36 06.02.2020
3193 Clouds 4 1029 86 10000 3.1 280 09:36 06.02.2020
3194 Clouds 3 1029 86 10000 3.1 280 09:18 06.02.2020
3195 Clouds 3 1029 86 10000 4.1 270 08:40 06.02.2020
3196 Clouds 3 1029 86 10000 3.6 270 08:20 06.02.2020
3197 Clouds 3 1029 92 10000 3.1 270 07:46 06.02.2020
3198 Clouds 3 1029 92 10000 3.1 270 07:25 06.02.2020
3199 Clouds 2 1028 90 0 4.65 247 06:21 06.02.2020
3200 Clouds 2 1028 90 0 4.65 247 06:21 06.02.2020
3201 Clouds 2 1028 90 0 4.65 247 06:21 06.02.2020
3202 Clouds 2 1028 90 0 4.65 247 06:21 06.02.2020
3203 Clouds 2 1027 91 0 0.45 295 05:54 06.02.2020
3204 Clouds 2 1029 86 0 4.46 246 04:22 06.02.2020
3205 Clouds 2 1030 85 0 0.45 270 03:20 06.02.2020
3206 Clouds 2 1029 91 0 4.46 246 02:28 06.02.2020
3207 Clouds 2 1029 89 0 5.37 258 01:26 06.02.2020
3208 Clouds 2 1031 84 0 0.45 270 00:58 06.02.2020
3209 Clouds 2 1030 88 0 5.11 253 00:26 06.02.2020
3210 Clouds 2 1031 82 0 5.11 253 23:45 05.02.2020
3211 Clouds 2 1031 82 0 5.11 253 23:25 05.02.2020
3212 Clouds 2 1033 74 10000 4.1 250 22:57 05.02.2020
3213 Clouds 2 1033 74 10000 4.1 250 22:39 05.02.2020
3214 Clouds 2 1033 74 10000 4.1 250 22:21 05.02.2020
3215 Clouds 2 1033 74 10000 4.1 250 21:42 05.02.2020
3216 Clouds 1 1033 80 10000 3.6 260 21:24 05.02.2020
3217 Clouds 1 1033 74 10000 2.6 260 20:59 05.02.2020
3218 Clouds 1 1033 74 10000 2.6 260 20:38 05.02.2020
3219 Clouds 1 1033 78 10000 3.1 260 20:19 05.02.2020
3220 Clouds 1 1033 74 10000 3.1 280 19:56 05.02.2020
3221 Clouds 1 1033 74 10000 3.1 280 19:38 05.02.2020
3222 Clouds 1 1033 74 10000 2.6 280 19:19 05.02.2020
3223 Clouds 1 1033 74 10000 2.6 260 18:45 05.02.2020
3224 Clouds 1 1033 74 10000 3.1 270 18:21 05.02.2020
3225 Clouds 1 1033 74 10000 3.1 270 18:21 05.02.2020
3226 Clouds 2 1033 69 10000 3.6 270 17:59 05.02.2020
3227 Clouds 3 1033 64 10000 4.1 260 17:37 05.02.2020
3228 Clear 3 1033 64 10000 4.1 260 17:18 05.02.2020
3229 Clear 4 1033 65 10000 4.1 260 16:55 05.02.2020
3230 Clear 4 1033 60 10000 4.6 280 16:37 05.02.2020
3231 Clear 5 1033 60 10000 4.6 280 16:18 05.02.2020
3232 Clear 5 1033 60 10000 4.1 260 15:41 05.02.2020
3233 Clear 5 1034 65 10000 4.1 280 15:19 05.02.2020
3234 Clear 5 1034 65 10000 4.1 280 14:55 05.02.2020
3235 Clouds 5 1034 69 10000 4.6 280 14:37 05.02.2020
3236 Clouds 4 1034 69 10000 4.6 280 14:19 05.02.2020
3237 Clouds 4 1034 69 10000 3.6 280 13:41 05.02.2020
3238 Clouds 4 1034 74 10000 3.6 300 13:22 05.02.2020
3239 Clouds 3 1034 74 10000 3.6 310 12:44 05.02.2020
3240 Clouds 3 1034 74 10000 4.1 310 12:25 05.02.2020
3241 Clouds 3 1034 80 10000 3.6 300 11:59 05.02.2020
3242 Clouds 3 1034 80 10000 3.6 300 11:59 05.02.2020
3243 Clouds 2 1034 80 10000 3.6 300 11:40 05.02.2020
3244 Clouds 2 1034 80 10000 3.1 290 11:21 05.02.2020
3245 Clouds 1 1033 80 10000 3.6 290 10:44 05.02.2020
3246 Clouds 1 1033 85 10000 3.1 290 10:26 05.02.2020
3247 Clouds 1 1032 85 10000 2.6 290 09:59 05.02.2020
3248 Clouds 1 1032 85 10000 2.6 290 09:38 05.02.2020
3249 Clouds 0 1031 85 10000 2.6 290 09:20 05.02.2020
3250 Clouds 0 1031 85 10000 2.6 290 08:46 05.02.2020
3251 Clouds 0 1031 85 10000 3.6 300 08:24 05.02.2020
3252 Clouds 0 1030 80 10000 3.6 310 07:55 05.02.2020
3253 Clouds 0 1030 80 10000 4.1 310 07:36 05.02.2020
3254 Clouds 1 1028 84 0 2.97 293 06:54 05.02.2020
3255 Clouds 1 1027 84 0 2.97 293 06:36 05.02.2020
3256 Clouds 1 1027 83 0 2.97 293 06:18 05.02.2020
3257 Clouds 2 1026 82 0 0.45 90 05:19 05.02.2020
3258 Clouds 2 1026 82 0 0.45 90 04:54 05.02.2020
3259 Clouds 3 1024 84 0 0.45 90 03:57 05.02.2020
3260 Clouds 3 1022 81 0 0.89 90 02:31 05.02.2020
3261 Snow 3 1019 82 0 1.34 291 01:55 05.02.2020
3262 Snow 4 1020 86 0 0.45 90 00:54 05.02.2020
3263 Snow 4 1019 89 0 0.45 90 23:59 04.02.2020
3264 Snow 4 1019 86 0 0.45 67 23:39 04.02.2020
3265 Clouds 4 1017 80 10000 6.2 290 23:19 04.02.2020
3266 Clouds 4 1017 80 10000 6.2 290 22:57 04.02.2020
3267 Clouds 4 1017 80 10000 6.2 290 22:39 04.02.2020
3268 Clouds 4 1017 80 10000 6.2 290 22:20 04.02.2020
3269 Clouds 4 1017 86 10000 5.7 290 21:54 04.02.2020
3270 Clouds 4 1016 80 10000 6.2 290 21:36 04.02.2020
3271 Clouds 4 1016 80 10000 6.2 290 21:18 04.02.2020
3272 Clouds 4 1016 80 10000 5.7 300 20:44 04.02.2020
3273 Clouds 4 1015 80 10000 5.7 290 20:22 04.02.2020
3274 Clouds 3 1015 80 10000 4.1 290 19:59 04.02.2020
3275 Clouds 3 1015 80 10000 4.1 290 19:40 04.02.2020
3276 Clouds 3 1014 80 10000 4.6 280 19:22 04.02.2020
3277 Clouds 3 1013 80 10000 5.1 280 18:57 04.02.2020
3278 Clouds 3 1013 80 10000 5.1 280 18:38 04.02.2020
3279 Clouds 3 1013 80 10000 4.6 290 18:19 04.02.2020
3280 Clouds 3 1013 80 10000 4.6 290 18:19 04.02.2020
3281 Clouds 3 1012 80 10000 4.1 280 17:54 04.02.2020
3282 Clouds 4 1012 80 10000 4.1 280 17:36 04.02.2020
3283 Rain 4 1012 80 10000 4.1 280 17:18 04.02.2020
3284 Clouds 4 1010 80 10000 5.7 300 16:38 04.02.2020
3285 Clouds 4 1010 80 10000 5.7 300 16:38 04.02.2020
3286 Clouds 4 1010 80 10000 5.7 300 16:20 04.02.2020
3287 Rain 4 1010 75 7000 5.7 290 15:56 04.02.2020
3288 Rain 4 1010 75 7000 5.7 290 15:38 04.02.2020
3289 Clouds 5 1009 80 10000 4.6 290 15:19 04.02.2020
3290 Rain 5 1009 86 10000 5.7 310 14:45 04.02.2020
3291 Rain 5 1009 70 10000 7.2 280 14:26 04.02.2020
3292 Clouds 5 1009 70 10000 6.7 290 13:59 04.02.2020
3293 Clouds 5 1009 70 10000 6.7 290 13:59 04.02.2020
3294 Clouds 5 1009 70 10000 6.7 290 13:40 04.02.2020
3295 Clouds 5 1009 75 10000 7.7 290 13:22 04.02.2020
3296 Clouds 5 1008 75 10000 6.7 280 12:55 04.02.2020
3297 Clouds 5 1008 70 10000 7.7 280 12:37 04.02.2020
3298 Clouds 5 1008 70 10000 7.7 280 12:18 04.02.2020
3299 Clouds 5 1008 75 10000 6.7 290 11:54 04.02.2020
3300 Clouds 4 1007 75 10000 6.7 280 11:36 04.02.2020
3301 Clouds 4 1007 75 10000 6.7 280 11:18 04.02.2020
3302 Clouds 4 1007 75 10000 7.2 280 10:42 04.02.2020
3303 Clouds 4 1007 80 10000 6.7 280 10:22 04.02.2020
3304 Clouds 4 1006 80 10000 6.2 270 09:42 04.02.2020
3305 Clouds 4 1006 80 10000 5.7 280 09:24 04.02.2020
3306 Clouds 4 1005 80 10000 6.2 280 08:59 04.02.2020
3307 Clouds 4 1005 80 10000 6.2 280 08:41 04.02.2020
3308 Clouds 4 1004 86 10000 5.1 280 08:22 04.02.2020
3309 Clouds 4 1004 86 10000 6.7 280 07:46 04.02.2020
3310 Clouds 4 1003 86 10000 5.7 280 07:23 04.02.2020
3311 Snow 4 1003 93 0 6.78 291 06:44 04.02.2020
3312 Snow 4 1003 93 0 6.78 291 06:44 04.02.2020
3313 Snow 4 1003 93 0 6.78 291 06:18 04.02.2020
3314 Snow 4 1002 93 0 0.45 270 05:29 04.02.2020
3315 Snow 4 1000 93 0 4.97 292 03:53 04.02.2020
3316 Snow 4 1000 93 0 4.97 292 03:34 04.02.2020
3317 Snow 4 1000 94 0 1.79 284 02:56 04.02.2020
3318 Snow 4 1000 94 0 4.97 292 02:32 04.02.2020
3319 Rain 5 1000 93 0 3.38 292 01:54 04.02.2020
3320 Rain 5 1000 93 0 3.38 292 01:35 04.02.2020
3321 Rain 5 1000 93 0 3.38 292 01:35 04.02.2020
3322 Rain 6 1001 92 0 3.38 255 00:45 04.02.2020
3323 Rain 6 1002 91 0 3.38 255 00:22 04.02.2020
3324 Rain 7 1002 90 0 3.38 255 23:40 03.02.2020
3325 Rain 6 1002 89 0 3.38 255 23:22 03.02.2020
3326 Rain 7 1006 75 10000 4.6 260 22:40 03.02.2020
3327 Rain 7 1006 75 10000 4.6 260 22:21 03.02.2020
3328 Clouds 7 1008 75 10000 5.7 270 21:56 03.02.2020
3329 Clouds 8 1008 75 10000 5.7 270 21:37 03.02.2020
3330 Clouds 8 1008 75 10000 5.7 270 21:19 03.02.2020
3331 Clouds 8 1008 81 10000 5.1 260 20:42 03.02.2020
3332 Clouds 8 1008 81 10000 4.1 260 20:19 03.02.2020
3333 Clouds 8 1008 75 10000 4.6 260 19:58 03.02.2020
3334 Clouds 8 1008 75 10000 4.6 260 19:58 03.02.2020
3335 Clouds 8 1008 75 10000 4.6 260 19:40 03.02.2020
3336 Clouds 8 1009 81 10000 5.7 260 19:20 03.02.2020
3337 Clouds 8 1008 81 10000 6.2 270 18:56 03.02.2020
3338 Clouds 8 1008 81 10000 6.2 270 18:38 03.02.2020
3339 Clouds 8 1008 76 10000 6.2 270 18:19 03.02.2020
3340 Clouds 8 1008 81 10000 5.7 270 17:40 03.02.2020
3341 Clouds 8 1008 76 10000 6.7 260 17:20 03.02.2020
3342 Clouds 9 1008 76 10000 6.7 270 16:59 03.02.2020
3343 Clouds 9 1008 76 10000 6.7 270 16:39 03.02.2020
3344 Clouds 9 1008 76 10000 7.2 270 16:20 03.02.2020
3345 Clouds 9 1008 76 10000 6.7 270 15:56 03.02.2020
3346 Clouds 9 1008 76 10000 6.7 270 15:37 03.02.2020
3347 Clouds 9 1008 76 10000 6.7 270 15:37 03.02.2020
3348 Clouds 9 1008 81 10000 6.7 270 15:19 03.02.2020
3349 Clouds 9 1008 81 10000 7.7 280 14:43 03.02.2020
3350 Clouds 9 1008 81 10000 6.2 270 14:25 03.02.2020
3351 Clouds 9 1008 87 10000 5.7 270 13:58 03.02.2020
3352 Clouds 9 1008 87 10000 5.7 270 13:39 03.02.2020
3353 Clouds 9 1008 93 10000 7.2 260 13:19 03.02.2020
3354 Rain 9 1009 87 7000 4.1 270 12:56 03.02.2020
3355 Rain 9 1009 87 8000 5.7 270 12:37 03.02.2020
3356 Rain 9 1009 87 8000 5.7 270 12:19 03.02.2020
3357 Rain 9 1008 81 10000 6.7 270 11:39 03.02.2020
3358 Rain 9 1008 81 10000 5.7 260 11:19 03.02.2020
3359 Rain 9 1008 81 10000 5.7 260 11:19 03.02.2020
3360 Clouds 9 1008 81 10000 5.1 280 10:58 03.02.2020
3361 Clouds 9 1008 81 10000 5.1 280 10:39 03.02.2020
3362 Clouds 8 1008 87 10000 5.1 270 10:20 03.02.2020
3363 Rain 8 1008 87 10000 5.7 270 09:41 03.02.2020
3364 Clouds 8 1007 87 10000 5.7 270 09:20 03.02.2020
3365 Clouds 8 1007 87 10000 4.6 270 08:41 03.02.2020
3366 Clouds 8 1006 87 10000 6.7 270 08:23 03.02.2020
3367 Rain 8 1006 93 10000 4.1 270 07:58 03.02.2020
3368 Rain 8 1006 93 10000 4.1 270 07:39 03.02.2020
3369 Rain 8 1006 87 10000 5.1 280 07:20 03.02.2020
3370 Rain 8 1006 87 10000 5.1 280 07:20 03.02.2020
3371 Rain 8 1006 87 10000 5.1 280 07:20 03.02.2020
3372 Rain 8 1006 88 0 1.79 270 06:47 03.02.2020
3373 Rain 8 1006 89 0 1.34 270 06:27 03.02.2020
3374 Rain 8 1006 88 0 0.89 292 05:36 03.02.2020
3375 Rain 8 1005 91 0 0.89 270 04:56 03.02.2020
3376 Rain 8 1004 96 0 0.45 301 02:58 03.02.2020
3377 Rain 8 1005 89 0 0.89 270 02:34 03.02.2020
3378 Rain 8 1005 93 0 7.25 267 01:30 03.02.2020
3379 Rain 8 1005 92 0 1.79 270 00:46 03.02.2020
3380 Rain 8 1006 90 0 0.45 270 00:22 03.02.2020
3381 Rain 8 1005 87 0 1.34 270 23:38 02.02.2020
3382 Rain 8 1005 88 0 0.89 270 23:20 02.02.2020
3383 Rain 8 1004 92 0 2.24 252 22:57 02.02.2020
3384 Rain 8 1005 87 0 1.34 270 22:37 02.02.2020
3385 Rain 9 1005 90 0 1.34 270 22:19 02.02.2020
3386 Rain 8 1003 91 0 1.79 276 21:54 02.02.2020
3387 Rain 9 1005 94 0 0.89 270 21:36 02.02.2020
3388 Rain 9 1004 95 0 10.2 278 21:18 02.02.2020
3389 Rain 8 1004 95 0 10.2 278 20:55 02.02.2020
3390 Rain 8 1004 95 0 10.2 278 20:36 02.02.2020
3391 Clouds 8 1004 93 5000 2.6 250 20:18 02.02.2020
3392 Clouds 8 1004 93 5000 2.6 250 19:42 02.02.2020
3393 Clouds 7 1004 93 5000 2.6 250 19:23 02.02.2020
3394 Rain 7 1004 93 4900 2.1 230 18:59 02.02.2020
3395 Rain 7 1004 93 4900 2.1 230 18:38 02.02.2020
3396 Rain 7 1004 93 6000 2.1 230 18:20 02.02.2020
3397 Clouds 7 1004 93 6000 2.6 250 17:58 02.02.2020
3398 Clouds 6 1004 93 6000 2.6 250 17:38 02.02.2020
3399 Rain 6 1004 93 10000 2.6 220 17:19 02.02.2020
3400 Rain 6 1004 93 5000 2.1 220 16:58 02.02.2020
3401 Rain 6 1004 93 5000 2.1 220 16:39 02.02.2020
3402 Rain 6 1004 87 5000 2.1 230 16:19 02.02.2020
3403 Rain 6 1004 87 6000 1.5 0 15:59 02.02.2020
3404 Rain 6 1004 87 6000 1.5 0 15:39 02.02.2020
3405 Rain 6 1004 87 5000 2.6 230 15:20 02.02.2020
3406 Rain 6 1004 87 5000 2.6 230 15:20 02.02.2020
3407 Rain 6 1004 87 8000 3.6 250 14:56 02.02.2020
3408 Rain 7 1004 87 8000 3.6 250 14:38 02.02.2020
3409 Rain 7 1005 87 10000 3.6 230 14:18 02.02.2020
3410 Rain 6 1005 87 10000 4.1 250 13:54 02.02.2020
3411 Rain 7 1006 87 10000 3.6 250 13:36 02.02.2020
3412 Rain 7 1006 87 10000 3.6 250 13:18 02.02.2020
3413 Rain 7 1006 87 10000 4.1 250 12:42 02.02.2020
3414 Rain 7 1007 87 9000 4.6 260 12:22 02.02.2020
3415 Clouds 7 1007 75 10000 7.2 250 11:56 02.02.2020
3416 Clouds 7 1007 75 10000 7.7 250 11:37 02.02.2020
3417 Clouds 7 1007 75 10000 7.7 250 11:18 02.02.2020
3418 Clouds 7 1007 75 10000 7.7 250 11:18 02.02.2020
3419 Clouds 8 1007 75 10000 7.2 250 10:55 02.02.2020
3420 Clouds 8 1007 75 10000 7.2 250 10:55 02.02.2020
3421 Clouds 8 1007 75 10000 7.7 250 10:36 02.02.2020
3422 Clouds 8 1007 75 10000 7.7 250 10:18 02.02.2020
3423 Clouds 8 1007 75 10000 7.7 260 09:41 02.02.2020
3424 Clouds 8 1007 75 10000 7.2 260 09:21 02.02.2020
3425 Clouds 8 1007 75 10000 7.7 260 08:57 02.02.2020
3426 Clouds 8 1007 75 10000 7.7 260 08:39 02.02.2020
3427 Clouds 8 1006 82 0 1.79 270 08:20 02.02.2020
3428 Clouds 8 1006 83 0 2.24 270 07:44 02.02.2020
3429 Clouds 8 1007 83 0 1.79 270 07:26 02.02.2020
3430 Clouds 8 1007 84 0 1.79 270 06:39 02.02.2020
3431 Clouds 8 1007 82 0 2.24 270 06:21 02.02.2020
3432 Clouds 8 1006 78 0 3.13 270 05:36 02.02.2020
3433 Clouds 8 1006 79 0 1.79 225 04:34 02.02.2020
3434 Clouds 8 1006 80 0 2.24 270 03:24 02.02.2020
3435 Clouds 8 1005 75 0 2.68 270 02:24 02.02.2020
3436 Clouds 8 1005 78 0 2.24 270 01:52 02.02.2020
3437 Rain 8 1005 77 0 1.34 270 01:19 02.02.2020
3438 Rain 8 1004 77 0 1.34 270 00:41 02.02.2020
3439 Rain 8 1004 77 0 1.79 270 00:19 02.02.2020
3440 Rain 8 1004 76 0 2.24 270 23:45 01.02.2020
3441 Rain 8 1008 83 0 8.36 264 23:21 01.02.2020
3442 Rain 8 1003 73 0 1.34 270 22:48 01.02.2020
3443 Rain 8 1003 73 0 1.34 292 22:19 01.02.2020
3444 Rain 8 1003 73 0 1.34 292 22:19 01.02.2020
3445 Rain 8 1003 73 0 1.79 292 21:45 01.02.2020
3446 Rain 8 1002 73 0 1.79 270 21:20 01.02.2020
3447 Rain 8 1002 73 0 1.79 270 21:20 01.02.2020
3448 Rain 8 1002 73 0 2.24 270 20:58 01.02.2020
3449 Rain 9 1002 71 0 1.34 270 20:40 01.02.2020
3450 Rain 9 1002 72 0 1.79 270 20:20 01.02.2020
3451 Rain 9 1003 88 0 0.89 233 19:56 01.02.2020
3452 Rain 9 1002 75 0 2.24 270 19:38 01.02.2020
3453 Rain 9 1000 76 10000 8.7 280 19:19 01.02.2020
3454 Rain 10 1000 76 10000 8.7 280 18:57 01.02.2020
3455 Rain 10 1000 76 10000 8.7 280 18:38 01.02.2020
3456 Rain 10 1000 76 10000 8.7 280 18:20 01.02.2020
3457 Clouds 10 1000 87 10000 5.1 270 17:56 01.02.2020
3458 Clouds 10 1000 87 10000 5.1 270 17:38 01.02.2020
3459 Rain 10 999 87 10000 4.6 250 17:19 01.02.2020
3460 Rain 11 999 87 10000 4.6 250 16:42 01.02.2020
3461 Rain 11 999 93 10000 4.6 250 16:23 01.02.2020
3462 Rain 11 1000 93 10000 5.1 260 15:58 01.02.2020
3463 Rain 11 1000 93 10000 5.1 260 15:38 01.02.2020
3464 Rain 11 999 93 10000 4.6 240 15:18 01.02.2020
3465 Clouds 11 999 93 10000 5.1 240 14:40 01.02.2020
3466 Clouds 11 999 93 10000 5.7 240 14:21 01.02.2020
3467 Rain 11 1000 87 10000 6.7 240 13:45 01.02.2020
3468 Rain 11 1000 87 4700 5.7 230 13:24 01.02.2020
3469 Rain 11 1000 87 10000 5.1 230 12:59 01.02.2020
3470 Rain 11 1000 87 10000 5.1 230 12:41 01.02.2020
3471 Clouds 11 1000 87 10000 4.6 230 12:22 01.02.2020
3472 Rain 11 1001 81 10000 5.7 220 11:44 01.02.2020
3473 Clouds 11 1001 81 10000 5.1 220 11:24 01.02.2020
3474 Clouds 10 1001 81 10000 5.1 220 10:59 01.02.2020
3475 Clouds 10 1001 81 10000 5.1 220 10:40 01.02.2020
3476 Clouds 10 1001 81 10000 5.1 220 10:40 01.02.2020
3477 Rain 10 1001 81 10000 4.1 220 10:22 01.02.2020
3478 Rain 10 1002 81 10000 5.1 230 09:59 01.02.2020
3479 Rain 10 1002 81 10000 5.1 230 09:40 01.02.2020
3480 Rain 10 1001 92 0 1.34 270 09:21 01.02.2020
3481 Rain 11 1001 91 0 1.34 270 08:52 01.02.2020
3482 Clouds 11 1002 81 0 1.79 270 07:59 01.02.2020
3483 Clouds 11 1004 83 0 2.24 237 07:40 01.02.2020
3484 Clouds 11 1006 88 0 5.91 225 07:21 01.02.2020
3485 Clouds 11 1002 82 0 2.24 270 06:43 01.02.2020
3486 Clouds 11 1002 84 0 2.24 292 05:54 01.02.2020
3487 Clouds 11 1005 87 0 4.99 230 04:22 01.02.2020
3488 Clouds 11 1005 87 0 4.99 230 04:22 01.02.2020
3489 Clouds 11 1003 85 0 2.68 270 03:25 01.02.2020
3490 Clouds 11 1004 85 0 1.79 247 02:53 01.02.2020
3491 Clouds 11 1004 84 0 1.79 270 02:31 01.02.2020
3492 Clouds 11 1004 84 0 1.34 270 01:59 01.02.2020
3493 Clouds 11 1005 83 0 1.34 270 01:38 01.02.2020
3494 Clouds 11 1005 82 0 1.79 270 00:46 01.02.2020
3495 Clouds 11 1005 81 0 2.68 225 00:23 01.02.2020
3496 Clouds 11 1005 82 0 3.13 292 23:39 31.01.2020
3497 Clouds 12 1006 71 10000 7.2 260 23:18 31.01.2020
3498 Clouds 12 1006 71 10000 7.2 260 22:55 31.01.2020
3499 Clouds 12 1006 71 10000 7.2 260 22:37 31.01.2020
3500 Clouds 12 1006 71 10000 7.2 260 22:19 31.01.2020
3501 Clouds 12 1006 71 10000 8.2 250 21:39 31.01.2020
3502 Clouds 12 1006 71 10000 7.2 260 21:21 31.01.2020
3503 Clouds 12 1006 71 10000 7.2 260 20:57 31.01.2020
3504 Clouds 12 1006 71 10000 7.2 260 20:39 31.01.2020
3505 Clouds 12 1006 71 10000 7.7 260 20:21 31.01.2020
3506 Clouds 12 1006 76 10000 6.7 250 19:57 31.01.2020
3507 Clouds 12 1006 76 10000 6.7 250 19:38 31.01.2020
3508 Clouds 12 1006 71 10000 7.2 240 19:20 31.01.2020
3509 Clouds 12 1006 76 10000 6.7 250 18:56 31.01.2020
3510 Clouds 12 1006 71 10000 5.1 250 18:36 31.01.2020
3511 Clouds 12 1006 71 10000 5.1 250 18:18 31.01.2020
3512 Clouds 11 1006 71 10000 5.1 240 17:43 31.01.2020
3513 Clouds 12 1006 71 10000 5.1 240 17:24 31.01.2020
3514 Clouds 11 1006 66 10000 6.2 250 16:57 31.01.2020
3515 Clouds 11 1006 66 10000 6.2 250 16:38 31.01.2020
3516 Clouds 12 1006 62 10000 5.7 250 16:19 31.01.2020
3517 Clouds 12 1006 66 10000 7.2 260 15:57 31.01.2020
3518 Clouds 12 1006 66 10000 7.2 260 15:38 31.01.2020
3519 Clouds 12 1006 62 10000 8.2 260 15:19 31.01.2020
3520 Clouds 12 1006 66 10000 7.7 260 14:42 31.01.2020
3521 Clouds 12 1006 66 10000 7.2 270 14:23 31.01.2020
3522 Clouds 12 1006 62 10000 8.2 270 13:53 31.01.2020
3523 Clouds 11 1006 66 10000 6.7 270 13:33 31.01.2020
3524 Clouds 11 1006 71 10000 5.7 270 12:58 31.01.2020
3525 Clouds 11 1006 71 10000 5.7 270 12:39 31.01.2020
3526 Clouds 11 1006 71 10000 7.2 270 12:21 31.01.2020
3527 Clouds 11 1006 71 10000 6.2 270 11:44 31.01.2020
3528 Clouds 11 1006 76 10000 6.7 270 11:26 31.01.2020
3529 Clouds 11 1005 76 10000 6.7 270 10:59 31.01.2020
3530 Clouds 10 1005 76 10000 6.7 270 10:41 31.01.2020
3531 Clouds 10 1005 71 10000 6.2 280 10:21 31.01.2020
3532 Clouds 10 1005 71 10000 7.2 280 09:57 31.01.2020
3533 Clouds 10 1005 71 10000 7.2 280 09:38 31.01.2020
3534 -273 0 0 0 0 0 09:38 31.01.2020
3535 Clouds 10 1004 71 10000 7.7 280 09:19 31.01.2020
3536 Clouds 10 1003 71 10000 7.7 280 08:52 31.01.2020
3537 Clouds 10 1003 76 10000 8.2 280 08:27 31.01.2020
3538 Clouds 10 1002 76 10000 7.7 290 07:53 31.01.2020
3539 Clouds 10 1002 76 10000 7.7 290 07:53 31.01.2020
3540 Clouds 11 1002 71 10000 8.7 290 07:25 31.01.2020
3541 Rain 11 1002 82 0 1.34 270 06:48 31.01.2020
3542 Rain 11 1002 83 0 1.79 292 06:19 31.01.2020
3543 Rain 11 1002 83 0 1.79 292 06:19 31.01.2020
3544 Rain 11 1001 84 0 2.24 270 05:46 31.01.2020
3545 Rain 11 1000 84 0 3.13 270 04:56 31.01.2020
3546 Rain 10 997 10 0 1.34 301 02:58 31.01.2020
3547 Rain 9 997 99 0 0.89 264 01:39 31.01.2020
3548 Rain 8 1001 93 0 11.29 241 00:46 31.01.2020
3549 Rain 8 1000 93 0 11.29 241 00:27 31.01.2020
3550 Rain 8 998 91 0 2.24 270 23:57 30.01.2020
3551 Rain 7 998 91 0 2.68 270 23:26 30.01.2020
3552 Clouds 8 999 97 0 0.89 302 22:57 30.01.2020
3553 Clouds 8 999 88 0 2.24 270 22:37 30.01.2020
3554 Clouds 8 999 88 0 2.24 270 22:37 30.01.2020
3555 Clouds 7 999 88 0 2.24 270 22:18 30.01.2020
3556 Clouds 7 999 88 0 2.24 270 22:18 30.01.2020
3557 Clouds 7 999 89 0 1.79 292 21:57 30.01.2020
3558 Clouds 7 1001 70 10000 5.7 210 21:38 30.01.2020
3559 Clouds 7 1001 70 10000 5.7 210 21:18 30.01.2020
3560 Clouds 7 1001 70 10000 5.7 210 21:18 30.01.2020
3561 Clouds 7 1001 70 10000 5.7 210 20:41 30.01.2020
3562 Rain 7 1002 65 10000 4.6 210 20:22 30.01.2020
3563 Rain 7 1002 65 10000 4.6 210 20:22 30.01.2020
3564 Clouds 7 1002 70 10000 4.6 210 19:57 30.01.2020
3565 Clouds 6 1003 70 10000 4.1 200 19:39 30.01.2020
3566 Clouds 6 1003 70 10000 4.1 200 19:19 30.01.2020
3567 Clouds 6 1004 70 10000 4.1 220 18:42 30.01.2020
3568 Clouds 6 1004 70 10000 4.6 220 18:23 30.01.2020
3569 Clouds 7 1004 70 10000 5.7 220 17:58 30.01.2020
3570 Clouds 7 1004 70 10000 5.7 220 17:39 30.01.2020
3571 Clouds 7 1005 70 10000 5.1 220 17:19 30.01.2020
3572 Clouds 7 1005 70 10000 4.6 240 16:58 30.01.2020
3573 Clouds 7 1005 70 10000 4.6 240 16:39 30.01.2020
3574 Clouds 7 1005 66 10000 6.2 250 16:20 30.01.2020
3575 Clouds 8 1006 66 10000 6.7 250 15:44 30.01.2020
3576 Clouds 8 1006 66 10000 6.7 260 15:21 30.01.2020
3577 Clouds 8 1007 66 10000 6.7 260 14:54 30.01.2020
3578 Clouds 8 1007 66 10000 6.2 250 14:36 30.01.2020
3579 Clouds 8 1007 66 10000 6.2 250 14:18 30.01.2020
3580 Clouds 8 1007 70 10000 6.7 250 13:41 30.01.2020
3581 Clouds 7 1007 70 10000 6.7 250 13:22 30.01.2020
3582 Clouds 7 1007 75 10000 7.7 250 12:55 30.01.2020
3583 Clouds 7 1007 75 10000 8.2 250 12:36 30.01.2020
3584 Clouds 7 1007 75 10000 8.2 250 12:18 30.01.2020
3585 Clouds 7 1007 75 10000 7.7 250 11:40 30.01.2020
3586 Clouds 7 1007 81 10000 7.7 250 11:22 30.01.2020
3587 Clouds 7 1007 81 10000 7.7 250 11:22 30.01.2020
3588 Clouds 7 1007 81 10000 9.8 250 10:58 30.01.2020
3589 Clouds 7 1007 81 10000 9.8 250 10:39 30.01.2020
3590 Clouds 6 1007 75 10000 8.7 260 10:20 30.01.2020
3591 Clouds 6 1007 75 10000 8.2 260 09:45 30.01.2020
3592 Clouds 6 1007 75 10000 8.2 260 09:24 30.01.2020
3593 Rain 6 1007 75 10000 6.7 250 08:42 30.01.2020
3594 Rain 5 1007 81 10000 8.2 250 08:22 30.01.2020
3595 Rain 5 1007 75 10000 8.2 250 07:57 30.01.2020
3596 Rain 5 1007 75 10000 8.2 250 07:39 30.01.2020
3597 Rain 5 1007 75 10000 8.2 250 07:39 30.01.2020
3598 Clouds 5 1007 75 10000 7.2 250 07:18 30.01.2020
3599 Clouds 5 1007 84 0 2.24 270 06:43 30.01.2020
3600 Clouds 5 1007 84 0 2.24 270 06:25 30.01.2020
3601 Clouds 5 1010 88 0 0.45 233 05:29 30.01.2020
3602 Clouds 4 1007 83 0 1.34 292 04:50 30.01.2020
3603 Clouds 4 1008 83 0 1.79 270 03:47 30.01.2020
3604 Clouds 4 1008 84 0 1.79 270 02:59 30.01.2020
3605 Clouds 3 1008 84 0 1.34 270 01:30 30.01.2020
3606 Clouds 4 1009 88 0 3.13 215 00:30 30.01.2020
3607 Clouds 4 1011 88 0 0.89 244 23:58 29.01.2020
3608 Clouds 4 1009 92 0 0.89 299 23:39 29.01.2020
3609 Clouds 4 1009 86 10000 6.7 260 23:20 29.01.2020
3610 Clouds 4 1009 86 10000 6.7 260 22:55 29.01.2020
3611 Clouds 4 1009 86 10000 6.7 260 22:37 29.01.2020
3612 Clouds 4 1009 86 10000 6.7 260 22:18 29.01.2020
3613 Clouds 4 1008 86 10000 5.7 250 21:54 29.01.2020
3614 Clouds 4 1008 80 10000 6.2 250 21:36 29.01.2020
3615 Clouds 4 1008 80 10000 6.2 250 21:18 29.01.2020
3616 Clouds 4 1008 80 10000 6.2 250 21:18 29.01.2020
3617 Clouds 4 1008 80 10000 6.7 270 20:41 29.01.2020
3618 Clouds 4 1007 86 10000 6.2 270 20:22 29.01.2020
3619 Clouds 4 1007 80 10000 5.1 260 19:58 29.01.2020
3620 Clouds 4 1007 80 10000 5.1 260 19:38 29.01.2020
3621 Rain 4 1007 86 10000 5.7 270 19:20 29.01.2020
3622 Clouds 4 1006 86 10000 5.7 270 18:58 29.01.2020
3623 Clouds 4 1006 86 10000 5.7 270 18:38 29.01.2020
3624 Rain 4 1005 93 10000 6.2 270 18:19 29.01.2020
3625 Rain 4 1005 86 10000 7.2 270 17:41 29.01.2020
3626 Rain 4 1005 86 10000 7.2 270 17:41 29.01.2020
3627 Rain 4 1004 86 10000 7.2 270 17:23 29.01.2020
3628 Rain 4 1004 80 10000 8.2 260 16:57 29.01.2020
3629 Rain 4 1004 80 10000 8.2 260 16:39 29.01.2020
3630 Clouds 4 1003 80 10000 8.7 260 16:19 29.01.2020
3631 Clouds 4 1003 80 10000 8.7 260 15:39 29.01.2020
3632 Rain 4 1002 75 10000 9.8 260 15:21 29.01.2020
3633 Snow 4 1003 88 0 1.79 270 14:57 29.01.2020
3634 Clouds 4 1002 95 10000 9.8 250 14:39 29.01.2020
3635 Clouds 4 1002 75 10000 8.7 260 14:18 29.01.2020
3636 Clouds 5 1002 75 10000 9.3 260 13:40 29.01.2020
3637 Clouds 5 1001 79 10000 9.8 260 13:22 29.01.2020
3638 Clouds 5 1001 79 10000 9.8 260 12:56 29.01.2020
3639 Clouds 5 1001 79 10000 9.8 260 12:38 29.01.2020
3640 Clouds 5 1001 79 10000 8.7 250 12:20 29.01.2020
3641 Clouds 5 1001 79 10000 8.7 250 11:56 29.01.2020
3642 Clouds 5 1001 79 10000 8.7 260 11:37 29.01.2020
3643 Clouds 5 1001 83 10000 8.7 260 11:19 29.01.2020
3644 Clouds 4 1001 83 10000 9.8 260 10:45 29.01.2020
3645 Clouds 4 1000 75 10000 9.3 260 10:22 29.01.2020
3646 Clouds 4 1000 80 10000 8.2 260 09:40 29.01.2020
3647 Clouds 4 1000 80 10000 8.2 260 09:22 29.01.2020
3648 Rain 4 999 80 10000 8.2 260 08:58 29.01.2020
3649 Rain 4 999 80 10000 8.2 260 08:39 29.01.2020
3650 Rain 4 999 80 10000 8.2 260 08:20 29.01.2020
3651 Rain 3 999 86 10000 8.7 250 07:45 29.01.2020
3652 Clouds 3 998 86 10000 7.7 250 07:25 29.01.2020
3653 Clouds 3 997 93 0 8.45 249 06:55 29.01.2020
3654 Clouds 3 997 93 0 8.45 249 06:55 29.01.2020
3655 Clouds 3 998 88 0 1.34 270 06:37 29.01.2020
3656 Clouds 3 998 86 0 1.79 270 06:18 29.01.2020
3657 Clouds 3 1000 89 0 0.45 229 05:46 29.01.2020
3658 Clouds 3 998 85 0 1.34 270 05:27 29.01.2020
3659 Clouds 3 998 85 0 1.79 270 04:38 29.01.2020
3660 Clouds 3 998 87 0 0.45 248 03:50 29.01.2020
3661 Clouds 3 996 82 0 2.24 270 02:33 29.01.2020
3662 Snow 3 1001 86 0 8.52 256 00:51 29.01.2020
3663 Snow 3 996 85 0 1.79 270 00:29 29.01.2020
3664 Snow 3 996 87 0 2.24 270 23:58 28.01.2020
3665 Snow 3 995 90 0 1.34 270 23:37 28.01.2020
3666 Clouds 3 995 69 10000 9.3 260 23:19 28.01.2020
3667 Clouds 3 995 69 10000 9.3 260 22:44 28.01.2020
3668 Clouds 3 995 69 10000 9.3 260 22:26 28.01.2020
3669 Clouds 4 995 69 10000 9.8 260 21:54 28.01.2020
3670 Clouds 4 994 69 10000 8.7 260 21:36 28.01.2020
3671 Clouds 3 994 69 10000 8.7 260 21:18 28.01.2020
3672 Clouds 3 994 69 10000 8.7 260 21:18 28.01.2020
3673 Clouds 3 994 69 10000 8.7 260 20:45 28.01.2020
3674 Clouds 4 994 69 10000 10.3 250 20:25 28.01.2020
3675 Clouds 3 994 75 10000 10.3 250 19:55 28.01.2020
3676 Clouds 4 993 75 10000 9.8 260 19:37 28.01.2020
3677 Clouds 4 993 75 10000 9.8 260 19:18 28.01.2020
3678 Clouds 4 993 75 10000 9.8 260 19:18 28.01.2020
3679 Clouds 4 993 75 10000 8.7 260 18:41 28.01.2020
3680 Rain 4 992 75 10000 7.2 250 18:23 28.01.2020
3681 Rain 4 992 86 10000 8.7 290 17:59 28.01.2020
3682 Rain 3 992 86 10000 8.7 290 17:39 28.01.2020
3683 Rain 4 992 80 10000 8.7 250 17:21 28.01.2020
3684 Clouds 4 991 75 10000 9.8 260 16:58 28.01.2020
3685 Clouds 4 991 75 10000 9.8 260 16:40 28.01.2020
3686 Clouds 5 991 75 10000 9.3 250 16:21 28.01.2020
3687 Clouds 5 990 75 10000 7.7 240 15:47 28.01.2020
3688 Clouds 5 990 80 10000 6.7 240 15:19 28.01.2020
3689 Clouds 5 990 80 10000 6.7 240 14:58 28.01.2020
3690 Clouds 5 990 80 10000 6.7 240 14:39 28.01.2020
3691 Drizzle 5 989 80 10000 8.2 240 14:18 28.01.2020
3692 Clouds 5 989 86 10000 9.3 250 13:41 28.01.2020
3693 Rain 5 989 70 10000 6.2 220 13:23 28.01.2020
3694 Clouds 5 989 70 10000 6.7 220 12:44 28.01.2020
3695 Clouds 5 989 70 10000 5.7 200 12:24 28.01.2020
3696 Rain 6 989 70 10000 4.6 210 11:58 28.01.2020
3697 Rain 6 989 70 10000 4.6 210 11:40 28.01.2020
3698 Clouds 6 989 75 10000 5.1 210 11:21 28.01.2020
3699 Clouds 6 990 75 10000 3.6 190 10:43 28.01.2020
3700 Clouds 6 990 81 10000 3.6 220 10:24 28.01.2020
3701 Clouds 6 991 81 10000 4.1 220 09:59 28.01.2020
3702 Clouds 6 991 81 10000 4.1 220 09:39 28.01.2020
3703 Clouds 6 991 81 10000 3.1 240 09:20 28.01.2020
3704 Clouds 6 991 81 10000 5.7 250 08:44 28.01.2020
3705 Drizzle 6 991 75 10000 6.2 220 08:25 28.01.2020
3706 Clouds 6 991 75 10000 6.7 220 07:44 28.01.2020
3707 Clouds 6 992 75 10000 5.1 220 07:26 28.01.2020
3708 Rain 6 991 89 0 3.13 225 06:47 28.01.2020
3709 Rain 6 990 90 0 2.24 270 06:24 28.01.2020
3710 Rain 6 991 91 0 1.79 270 05:38 28.01.2020
3711 Rain 6 994 95 0 0.45 160 05:20 28.01.2020
3712 Rain 5 992 94 0 1.34 270 03:47 28.01.2020
3713 Rain 6 994 93 0 1.34 270 02:46 28.01.2020
3714 Rain 6 994 93 0 1.34 292 02:25 28.01.2020
3715 Clouds 6 994 91 0 1.34 270 01:53 28.01.2020
3716 Clouds 6 995 90 0 1.79 270 01:20 28.01.2020
3717 Clouds 6 996 91 0 1.34 270 00:43 28.01.2020
3718 Clouds 5 996 93 0 0.45 270 00:19 28.01.2020
3719 Drizzle 5 1001 87 10000 2.6 170 23:43 27.01.2020
3720 Drizzle 6 1001 87 10000 2.6 170 23:19 27.01.2020
3721 Drizzle 6 1001 87 10000 2.6 170 22:45 27.01.2020
3722 Drizzle 6 1001 87 10000 2.6 190 22:20 27.01.2020
3723 Drizzle 6 1001 87 10000 2.6 190 22:20 27.01.2020
3724 Drizzle 6 1001 87 10000 2.6 190 22:20 27.01.2020
3725 Rain 6 1001 87 10000 3.1 190 21:57 27.01.2020
3726 Rain 6 1001 87 10000 3.1 190 21:57 27.01.2020
3727 Rain 6 1001 87 10000 3.1 190 21:39 27.01.2020
3728 Rain 6 1002 87 10000 4.1 190 21:19 27.01.2020
3729 Rain 6 1003 87 9000 3.6 200 20:57 27.01.2020
3730 Rain 6 1003 87 10000 4.6 210 20:37 27.01.2020
3731 Rain 6 1003 87 10000 4.6 210 20:19 27.01.2020
3732 Rain 6 1003 87 10000 3.6 200 19:56 27.01.2020
3733 Rain 6 1003 87 10000 3.6 200 19:38 27.01.2020
3734 Rain 6 1004 87 10000 3.6 190 19:19 27.01.2020
3735 Rain 6 1004 87 10000 3.6 190 18:39 27.01.2020
3736 Rain 6 1004 81 10000 3.1 170 18:21 27.01.2020
3737 Rain 6 1005 81 10000 4.1 190 17:58 27.01.2020
3738 Rain 7 1005 81 10000 4.1 190 17:38 27.01.2020
3739 Clouds 7 1006 70 10000 4.1 200 17:19 27.01.2020
3740 Clouds 7 1006 70 10000 4.1 200 16:56 27.01.2020
3741 Clouds 7 1006 70 10000 5.7 210 16:37 27.01.2020
3742 Clouds 7 1006 70 10000 5.7 210 16:19 27.01.2020
3743 Clouds 8 1006 70 10000 5.1 210 15:41 27.01.2020
3744 Clouds 8 1006 70 10000 4.6 220 15:20 27.01.2020
3745 Clouds 8 1007 70 10000 5.1 220 14:57 27.01.2020
3746 Clouds 8 1007 70 10000 5.1 220 14:39 27.01.2020
3747 Clouds 8 1007 70 10000 5.7 220 14:20 27.01.2020
3748 Clouds 8 1008 70 10000 5.7 220 13:42 27.01.2020
3749 Clouds 8 1008 70 10000 5.7 220 13:23 27.01.2020
3750 Clouds 8 1008 75 10000 6.7 220 12:58 27.01.2020
3751 Clouds 7 1008 75 10000 6.7 220 12:39 27.01.2020
3752 Clouds 7 1009 75 10000 5.1 210 12:21 27.01.2020
3753 Clouds 7 1009 81 10000 5.1 210 11:43 27.01.2020
3754 Clouds 7 1009 81 10000 4.6 210 11:22 27.01.2020
3755 Clouds 6 1009 81 10000 5.7 210 10:56 27.01.2020
3756 Clouds 6 1009 81 10000 5.7 210 10:38 27.01.2020
3757 Clouds 6 1009 75 10000 5.7 210 10:20 27.01.2020
3758 Clouds 6 1010 75 10000 4.6 200 09:39 27.01.2020
3759 Clouds 6 1010 81 10000 3.6 190 09:19 27.01.2020
3760 Clouds 5 1010 81 10000 4.6 200 08:56 27.01.2020
3761 Clouds 5 1010 81 10000 4.6 200 08:38 27.01.2020
3762 Clouds 5 1010 81 10000 4.6 200 08:18 27.01.2020
3763 Clouds 5 1010 86 10000 3.6 210 07:46 27.01.2020
3764 Clouds 5 1011 86 10000 3.6 210 07:26 27.01.2020
3765 Clouds 5 1010 91 0 1.79 270 06:38 27.01.2020
3766 Clouds 4 1010 91 0 1.79 270 05:43 27.01.2020
3767 Clouds 3 1011 91 0 1.34 270 04:37 27.01.2020
3768 Clouds 3 1011 91 0 1.34 292 03:35 27.01.2020
3769 Clouds 3 1013 10 0 3.99 208 01:55 27.01.2020
3770 Clouds 3 1013 10 0 3.99 208 01:27 27.01.2020
3771 Clouds 3 1013 10 0 3.89 207 00:41 27.01.2020
3772 Clouds 3 1013 92 0 3.89 207 00:21 27.01.2020
3773 Clouds 2 1013 92 0 0.45 270 23:43 26.01.2020
3774 Clouds 2 1013 92 0 1.34 270 23:22 26.01.2020
3775 Clouds 3 1013 10 0 3.8 211 22:58 26.01.2020
3776 Clouds 3 1015 95 0 3.8 211 22:38 26.01.2020
3777 Clouds 2 1013 92 0 1.34 292 22:20 26.01.2020
3778 Clouds 2 1015 95 0 3.8 211 21:58 26.01.2020
3779 Clouds 2 1015 95 0 3.8 211 21:58 26.01.2020
3780 Clouds 2 1014 10 0 3.8 211 21:39 26.01.2020
3781 Clouds 2 1014 93 0 1.34 270 21:20 26.01.2020
3782 Clouds 2 1014 10 0 3.8 211 20:58 26.01.2020
3783 Clouds 2 1014 92 0 0.89 270 20:38 26.01.2020
3784 Clouds 2 1014 92 0 0.89 270 20:38 26.01.2020
3785 Clouds 3 1015 85 10000 1 140 20:19 26.01.2020
3786 Clouds 2 1015 85 10000 1 140 19:58 26.01.2020
3787 Clouds 2 1015 85 10000 1 140 19:38 26.01.2020
3788 Clouds 2 1015 85 10000 1 140 19:38 26.01.2020
3789 Clouds 2 1015 85 10000 1 140 19:19 26.01.2020
3790 Clouds 2 1015 85 10000 1.5 0 18:56 26.01.2020
3791 Clouds 2 1015 85 10000 1.5 0 18:38 26.01.2020
3792 Clouds 2 1015 85 10000 1.5 150 18:19 26.01.2020
3793 Mist 2 1015 85 5000 2.6 140 17:55 26.01.2020
3794 Mist 2 1015 85 5000 2.1 170 17:36 26.01.2020
3795 Mist 2 1015 79 5000 2.1 170 17:18 26.01.2020
3796 Mist 3 1016 93 3500 2.6 150 16:55 26.01.2020
3797 Mist 3 1016 93 3500 2.6 150 16:55 26.01.2020
3798 Mist 3 1016 93 3500 2.6 150 16:37 26.01.2020
3799 Clouds 3 1016 93 6000 2.6 140 16:18 26.01.2020
3800 Clouds 3 1014 92 0 1.79 270 15:43 26.01.2020
3801 Clouds 3 1019 91 0 1.89 198 15:21 26.01.2020
3802 Clouds 3 1015 10 0 1.89 198 14:56 26.01.2020
3803 Clouds 2 1015 93 0 1.34 270 14:38 26.01.2020
3804 Clouds 3 1015 94 0 0.89 247 14:19 26.01.2020
3805 Clouds 3 1015 97 0 0.89 270 13:39 26.01.2020
3806 Clouds 2 1015 97 0 1.34 270 13:19 26.01.2020
3807 Clouds 2 1016 10 0 1.48 205 12:56 26.01.2020
3808 Clouds 3 1017 96 0 1.48 205 12:36 26.01.2020
3809 Clouds 2 1017 97 0 2.24 38 12:18 26.01.2020
3810 Clouds 2 1020 95 0 1.48 205 11:56 26.01.2020
3811 Clouds 2 1020 95 0 1.48 205 11:36 26.01.2020
3812 Fog 1 1019 78 800 1.5 0 11:18 26.01.2020
3813 Fog 1 1019 78 800 1.5 0 10:39 26.01.2020
3814 Fog 1 1019 78 800 1.5 0 10:21 26.01.2020
3815 Fog 1 1019 78 750 1 0 09:59 26.01.2020
3816 Fog 1 1019 78 750 1 0 09:59 26.01.2020
3817 Fog 1 1019 78 750 1 0 09:41 26.01.2020
3818 Fog 0 1019 78 800 1.5 0 09:23 26.01.2020
3819 Clouds 1 1017 97 0 0.89 270 08:57 26.01.2020
3820 Clouds 1 1017 97 0 0.89 270 08:57 26.01.2020
3821 Clouds 0 1017 97 0 0.45 225 08:39 26.01.2020
3822 Clouds 0 1017 97 0 0.45 270 08:20 26.01.2020
3823 Clouds 0 1017 97 0 0.45 270 07:47 26.01.2020
3824 Clouds 0 1017 97 0 0.45 225 07:25 26.01.2020
3825 Clouds 0 1017 97 0 0.89 270 06:38 26.01.2020
3826 Clouds 0 1017 97 0 0.45 292 06:18 26.01.2020
3827 Clouds 0 1017 97 0 0.45 292 05:26 26.01.2020
3828 Clouds 0 1017 97 0 0.45 270 03:23 26.01.2020
3829 Clouds 0 1017 96 0 1.38 205 02:24 26.01.2020
3830 Clouds 0 1017 96 0 1.4 212 01:40 26.01.2020
3831 Clouds 0 1018 96 0 0.45 270 01:21 26.01.2020
3832 Clouds 0 1018 96 0 0.45 270 00:41 26.01.2020
3833 Clouds 0 1018 95 0 0.45 270 00:20 26.01.2020
3834 Clouds 0 1018 95 0 1.61 206 23:38 25.01.2020
3835 Clouds 0 1018 94 0 0.89 270 23:20 25.01.2020
3836 Clouds 0 1018 94 0 0.89 270 22:45 25.01.2020
3837 Clouds 0 1018 94 0 0.45 270 22:22 25.01.2020
3838 Clouds 0 1018 94 0 0.45 270 21:59 25.01.2020
3839 Clouds 0 1018 94 0 0.45 292 21:41 25.01.2020
3840 Clouds 0 1019 94 0 0.89 270 21:23 25.01.2020
3841 Clouds 0 1019 93 0 0.45 225 20:56 25.01.2020
3842 Clouds -1 1019 93 0 0.89 270 20:38 25.01.2020
3843 Clouds -1 1019 93 0 0.45 225 20:19 25.01.2020
3844 Clear 0 1021 64 0 1.26 197 19:43 25.01.2020
3845 Clear -1 1019 94 0 0.45 270 19:20 25.01.2020
3846 Clear -1 1019 94 0 0.45 270 18:57 25.01.2020
3847 Clouds -1 1019 94 0 0.45 225 18:39 25.01.2020
3848 Clear -1 1018 94 0 0.45 292 18:20 25.01.2020
3849 Clear -1 1019 93 0 0.45 292 17:42 25.01.2020
3850 Clear -1 1019 93 0 0.45 292 17:23 25.01.2020
3851 Clear 0 1019 93 0 1.79 246 16:58 25.01.2020
3852 Clear -1 1019 93 0 0.89 270 16:39 25.01.2020
3853 Clear -1 1019 93 0 0.45 225 16:19 25.01.2020
3854 Clear 0 1019 94 0 0.89 270 15:47 25.01.2020
3855 Clear 0 1019 94 0 0.45 247 15:25 25.01.2020
3856 Clear 0 1020 97 0 1.79 246 14:59 25.01.2020
3857 Clear 0 1019 94 0 1.34 270 14:41 25.01.2020
3858 Clear 0 1019 95 0 2.18 255 14:18 25.01.2020
3859 Clear 0 1019 99 0 2.18 255 13:43 25.01.2020
3860 Clear 0 1019 99 0 2.18 255 13:24 25.01.2020
3861 Clear 0 1019 99 0 2.18 255 13:24 25.01.2020
3862 Clouds 0 1022 59 8000 3.1 220 12:46 25.01.2020
3863 Clouds 0 1022 59 8000 3.1 220 12:28 25.01.2020
3864 Clouds 0 1022 59 8000 3.1 220 11:54 25.01.2020
3865 Clouds 0 1022 59 9000 2.6 220 11:36 25.01.2020
3866 Clouds 0 1022 64 9000 2.6 220 11:18 25.01.2020
3867 Clouds 0 1022 64 8000 2.6 210 10:40 25.01.2020
3868 Drizzle 0 1022 64 6000 2.1 210 10:21 25.01.2020
3869 Drizzle -1 1022 64 2900 2.6 220 09:57 25.01.2020
3870 Drizzle -1 1022 64 2300 2.6 220 09:37 25.01.2020
3871 Drizzle -1 1022 64 2300 2.6 220 09:18 25.01.2020
3872 Clear -1 1020 96 0 2.04 230 08:42 25.01.2020
3873 Clear -1 1020 96 0 2.37 234 07:53 25.01.2020
3874 Clear -1 1020 96 0 2.37 234 07:53 25.01.2020
3875 Clear -1 1020 96 0 2.37 234 06:58 25.01.2020
3876 Clear -1 1019 99 0 0.45 300 06:31 25.01.2020
3877 Clear -1 1019 95 0 0.45 225 05:51 25.01.2020
3878 Clear -1 1019 99 0 2.37 234 05:30 25.01.2020
3879 Clear 0 1019 95 0 0.45 270 03:56 25.01.2020
3880 Clear -1 1020 95 0 0.45 270 03:37 25.01.2020
3881 Clear -1 1020 94 0 0.89 270 02:35 25.01.2020
3882 Clouds -1 1021 95 0 2.61 245 01:56 25.01.2020
3883 Clouds -1 1020 93 0 0.89 270 01:21 25.01.2020
3884 Clouds -1 1020 93 0 0.89 225 00:37 25.01.2020
3885 Clouds -1 1020 93 0 0.45 270 00:18 25.01.2020
3886 Clouds 0 1020 93 0 0.89 225 23:41 24.01.2020
3887 Clouds 0 1020 93 0 0.89 225 23:41 24.01.2020
3888 Clouds 0 1020 93 0 0.89 225 23:41 24.01.2020
3889 Clouds 0 1020 92 0 0.89 225 23:23 24.01.2020
3890 Clouds 0 1022 77 6000 3.6 260 22:46 24.01.2020
3891 Clouds 0 1022 77 6000 3.6 260 22:46 24.01.2020
3892 Clouds 0 1022 77 6000 3.6 260 22:28 24.01.2020
3893 Clouds 0 1022 77 5000 3.1 270 21:58 24.01.2020
3894 Clouds 0 1022 77 5000 3.1 270 21:40 24.01.2020
3895 Clouds 0 1022 77 5000 3.6 280 21:19 24.01.2020
3896 Clouds 0 1022 77 5000 3.6 290 20:43 24.01.2020
3897 Clouds 0 1022 79 6000 3.6 280 20:22 24.01.2020
3898 Clouds 0 1022 77 7000 4.6 280 19:58 24.01.2020
3899 Clouds 0 1022 77 7000 4.6 280 19:40 24.01.2020
3900 Clouds 0 1022 77 8000 3.6 290 19:22 24.01.2020
3901 Clouds 0 1022 77 8000 3.6 290 19:22 24.01.2020
3902 Clouds 0 1022 77 9000 3.6 290 18:56 24.01.2020
3903 Clouds 0 1022 77 9000 4.1 270 18:37 24.01.2020
3904 Clouds 0 1022 77 9000 4.1 270 18:19 24.01.2020
3905 Clouds 0 1021 77 9000 4.1 250 17:42 24.01.2020
3906 Clouds 0 1022 70 8000 3.6 260 17:21 24.01.2020
3907 Clouds 0 1021 70 7000 4.6 240 16:45 24.01.2020
3908 Clouds 0 1022 70 7000 4.1 270 16:22 24.01.2020
3909 Clouds 0 1022 70 7000 4.6 270 15:57 24.01.2020
3910 Clouds 0 1022 70 7000 4.6 270 15:39 24.01.2020
3911 Clouds 0 1022 70 7000 4.6 260 15:20 24.01.2020
3912 Clouds 0 1022 70 6000 4.1 260 14:41 24.01.2020
3913 Mist 0 1022 58 5000 4.6 240 14:23 24.01.2020
3914 Clouds 0 1022 58 5000 4.6 250 13:57 24.01.2020
3915 Clouds 0 1022 58 5000 4.6 250 13:39 24.01.2020
3916 Mist 0 1023 56 4300 4.6 270 13:19 24.01.2020
3917 Mist 0 1023 56 4300 4.6 270 13:19 24.01.2020
3918 Mist 0 1023 56 4400 4.6 280 12:41 24.01.2020
3919 Mist 0 1023 56 3900 5.1 300 12:18 24.01.2020
3920 Clouds 0 1023 56 5000 4.6 270 11:43 24.01.2020
3921 Clouds -1 1023 68 6000 4.6 270 11:19 24.01.2020
3922 Clouds -1 1023 92 6000 4.6 270 10:43 24.01.2020
3923 Clouds -1 1023 92 6000 3.1 250 10:23 24.01.2020
3924 Clear -1 1022 86 6000 2.1 250 09:59 24.01.2020
3925 Clear -1 1022 86 6000 2.1 250 09:40 24.01.2020
3926 Clear -2 1023 92 6000 2.6 240 09:22 24.01.2020
3927 Clear -2 1023 86 7000 4.1 260 08:41 24.01.2020
3928 Clear -2 1023 92 8000 2.6 270 08:20 24.01.2020
3929 Clear -2 1022 92 9000 2.6 250 07:53 24.01.2020
3930 Clear -2 1022 92 8000 1.57 229 07:35 24.01.2020
3931 Clear -2 1022 94 0 1.57 229 06:48 24.01.2020
3932 Clear -2 1021 99 0 1.57 229 06:29 24.01.2020
3933 Clear -2 1021 99 0 1.57 229 05:59 24.01.2020
3934 Clear -3 1021 93 0 0.45 270 05:18 24.01.2020
3935 Clear -2 1022 93 0 0.87 237 02:54 24.01.2020
3936 Clear -2 1022 98 0 0.87 237 02:27 24.01.2020
3937 Clear -2 1023 95 0 0.45 270 01:53 24.01.2020
3938 Clear -2 1023 96 0 0.67 216 01:33 24.01.2020
3939 Clear -2 1024 94 0 0.89 38 00:31 24.01.2020
3940 Clear -2 1025 94 0 1.34 38 23:58 23.01.2020
3941 Clear -2 1024 95 0 0.36 276 23:40 23.01.2020
3942 Clouds -2 1027 92 6000 0.81 199 23:20 23.01.2020
3943 Clouds -2 1027 92 6000 0.81 199 22:39 23.01.2020
3944 Clouds -1 1027 92 6000 0.81 199 22:20 23.01.2020
3945 Clouds -1 1028 89 7000 0.81 199 21:58 23.01.2020
3946 Clouds -1 1028 89 7000 0.81 199 21:58 23.01.2020
3947 Clouds -1 1028 89 7000 0.81 199 21:40 23.01.2020
3948 Clouds -1 1028 92 7000 0.81 199 21:21 23.01.2020
3949 Clouds -1 1028 89 9000 0.81 199 20:59 23.01.2020
3950 Clouds -1 1028 89 9000 0.81 199 20:39 23.01.2020
3951 Clouds -1 1028 86 10000 1.16 148 20:21 23.01.2020
3952 Clouds -1 1028 86 10000 1.23 155 19:57 23.01.2020
3953 Clouds 0 1028 86 10000 1.23 155 19:38 23.01.2020
3954 Clouds 0 1028 86 10000 1.23 155 19:38 23.01.2020
3955 Clouds 0 1028 80 10000 1.23 155 19:20 23.01.2020
3956 Clouds 0 1028 74 10000 1.23 155 18:56 23.01.2020
3957 Clouds 0 1026 89 0 1.23 155 18:37 23.01.2020
3958 Clouds 0 1027 93 0 1.23 155 18:19 23.01.2020
3959 Clouds 1 1029 91 10000 0.5 0 17:43 23.01.2020
3960 Clouds 2 1029 86 10000 1.5 0 17:20 23.01.2020
3961 Clouds 3 1030 86 10000 1.5 0 16:58 23.01.2020
3962 Clouds 3 1030 86 10000 1.5 0 16:38 23.01.2020
3963 Clouds 4 1030 86 10000 1 40 16:19 23.01.2020
3964 Clouds 4 1030 86 10000 1 40 15:57 23.01.2020
3965 Clouds 4 1030 86 10000 1 40 15:38 23.01.2020
3966 Clouds 4 1031 86 10000 1 40 15:18 23.01.2020
3967 Clouds 4 1031 86 10000 1 40 15:18 23.01.2020
3968 Clouds 5 1031 86 10000 1 0 14:56 23.01.2020
3969 Clouds 5 1031 86 10000 1 0 14:56 23.01.2020
3970 Clouds 4 1031 86 10000 1 0 14:38 23.01.2020
3971 Clouds 4 1031 77 10000 0.65 18 14:20 23.01.2020
3972 Clouds 4 1032 77 10000 0.5 0 13:44 23.01.2020
3973 Clouds 4 1032 74 10000 0.6 35 13:21 23.01.2020
3974 Clouds 5 1033 74 10000 1.5 0 12:55 23.01.2020
3975 Clouds 4 1033 75 10000 0.6 35 12:36 23.01.2020
3976 Clouds 4 1033 75 10000 0.6 35 12:18 23.01.2020
3977 Clouds 4 1033 86 10000 0.6 35 11:43 23.01.2020
3978 Clouds 4 1034 86 10000 0.5 0 11:24 23.01.2020
3979 Clouds 3 1034 93 9000 0.96 178 10:58 23.01.2020
3980 Clouds 3 1034 93 9000 0.96 178 10:40 23.01.2020
3981 Clouds 3 1034 93 7000 1 0 10:19 23.01.2020
3982 Clouds 3 1034 93 7000 1 260 09:41 23.01.2020
3983 Clouds 2 1034 93 7000 1 260 09:22 23.01.2020
3984 Clouds 2 1034 93 7000 1 0 08:56 23.01.2020
3985 Clouds 2 1034 93 7000 1 0 08:38 23.01.2020
3986 Clouds 2 1034 93 8000 1.5 250 08:19 23.01.2020
3987 Clouds 2 1034 93 7000 1.5 0 07:39 23.01.2020
3988 Clouds 2 1034 93 7000 1.5 0 07:18 23.01.2020
3989 Clouds 2 1032 97 0 0.98 221 06:44 23.01.2020
3990 Clouds 2 1032 97 0 0.98 221 06:18 23.01.2020
3991 Clouds 2 1032 98 0 1.74 233 04:25 23.01.2020
3992 Clouds 2 1033 97 0 1.74 233 03:36 23.01.2020
3993 Clouds 3 1035 98 0 1.98 230 01:55 23.01.2020
3994 Clouds 2 1035 98 0 1.91 233 00:46 23.01.2020
3995 Clouds 2 1034 97 0 1.91 233 00:24 23.01.2020
3996 Clouds 3 1034 97 0 1.91 233 23:46 22.01.2020
3997 Clouds 3 1033 10 0 1.91 233 23:28 22.01.2020
3998 Clouds 3 1033 99 0 2.24 245 22:55 22.01.2020
3999 Clouds 3 1035 93 6000 2.1 280 22:37 22.01.2020
4000 Clouds 3 1035 93 6000 2.1 280 22:19 22.01.2020
4001 Clouds 3 1035 93 6000 2.1 280 21:38 22.01.2020
4002 Clouds 3 1035 93 7000 2.6 270 21:20 22.01.2020
4003 Clouds 3 1034 93 7000 2.6 280 20:56 22.01.2020
4004 Clouds 3 1034 93 7000 3.1 280 20:36 22.01.2020
4005 Clouds 3 1034 93 7000 3.1 280 20:18 22.01.2020
4006 Clouds 3 1034 93 6000 3.1 270 19:55 22.01.2020
4007 Clouds 3 1034 93 7000 3.6 270 19:36 22.01.2020
4008 Clouds 3 1034 93 7000 3.6 270 19:36 22.01.2020
4009 Clouds 3 1034 93 7000 3.6 270 19:18 22.01.2020
4010 Clouds 3 1034 93 6000 3.6 280 18:54 22.01.2020
4011 Clouds 3 1033 93 7000 3.6 280 18:36 22.01.2020
4012 Clouds 3 1033 93 7000 3.6 280 18:18 22.01.2020
4013 Clouds 3 1033 93 8000 3.6 280 17:39 22.01.2020
4014 Clouds 3 1033 93 7000 3.6 280 17:21 22.01.2020
4015 Clouds 3 1032 93 7000 4.1 270 16:58 22.01.2020
4016 Clouds 3 1032 93 7000 4.1 270 16:39 22.01.2020
4017 Clouds 3 1033 93 6000 4.1 270 16:20 22.01.2020
4018 Drizzle 3 1033 93 4500 4.1 280 15:55 22.01.2020
4019 Drizzle 3 1033 93 4500 3.6 280 15:37 22.01.2020
4020 Drizzle 3 1033 93 4500 3.6 280 15:18 22.01.2020
4021 Drizzle 3 1033 93 5000 3.6 290 14:39 22.01.2020
4022 Mist 3 1033 93 4800 3.6 290 14:20 22.01.2020
4023 Mist 2 1033 93 4300 4.6 280 13:58 22.01.2020
4024 Mist 2 1033 93 4300 4.6 280 13:37 22.01.2020
4025 Mist 2 1033 93 2700 4.1 280 13:19 22.01.2020
4026 Drizzle 2 1033 93 1600 3.6 270 12:57 22.01.2020
4027 Drizzle 2 1033 93 1600 3.6 270 12:39 22.01.2020
4028 Drizzle 2 1033 100 2500 4.1 270 12:19 22.01.2020
4029 Drizzle 2 1034 93 1700 3.6 270 11:57 22.01.2020
4030 Drizzle 2 1034 93 1700 3.6 270 11:39 22.01.2020
4031 Drizzle 2 1033 93 1300 3.6 260 11:19 22.01.2020
4032 Drizzle 2 1033 93 1500 4.6 260 10:54 22.01.2020
4033 Drizzle 1 1033 93 2300 4.6 260 10:36 22.01.2020
4034 Drizzle 1 1033 93 2300 4.6 260 10:18 22.01.2020
4035 Drizzle 1 1033 93 3000 4.6 260 09:41 22.01.2020
4036 Drizzle 1 1033 93 2800 4.1 270 09:23 22.01.2020
4037 Drizzle 1 1033 93 2400 5.1 250 08:56 22.01.2020
4038 Drizzle 1 1033 93 2400 5.1 250 08:37 22.01.2020
4039 Drizzle 1 1033 87 2200 4.6 260 08:19 22.01.2020
4040 Drizzle 1 1033 87 2200 4.6 260 08:19 22.01.2020
4041 Drizzle 0 1033 87 5000 4.1 260 07:44 22.01.2020
4042 Drizzle 1 1033 87 5000 4.6 270 07:26 22.01.2020
4043 Clouds 0 1032 91 0 4.87 243 06:37 22.01.2020
4044 Clouds 0 1032 91 0 0.45 270 06:18 22.01.2020
4045 Clouds 0 1033 91 0 3.36 255 04:27 22.01.2020
4046 Clouds -1 1032 90 0 0.45 68 03:27 22.01.2020
4047 Clouds -1 1034 91 0 3.36 255 02:49 22.01.2020
4048 Clouds -1 1034 92 0 3.67 244 01:30 22.01.2020
4049 Clouds -1 1034 88 0 3.78 248 00:40 22.01.2020
4050 Clouds -1 1035 91 0 3.78 248 00:19 22.01.2020
4051 Clouds -1 1035 91 0 3.78 248 23:37 21.01.2020
4052 Clear -1 1037 67 10000 2.1 280 23:19 21.01.2020
4053 Clear -1 1037 67 10000 2.1 280 22:42 21.01.2020
4054 Clear -1 1037 67 10000 2.1 280 22:23 21.01.2020
4055 Clear -1 1037 67 10000 2.1 280 21:58 21.01.2020
4056 Clear 0 1037 67 10000 2.1 280 21:39 21.01.2020
4057 Clear 0 1037 67 10000 2.6 270 21:21 21.01.2020
4058 Clear 0 1037 67 10000 3.1 260 20:58 21.01.2020
4059 Clear 0 1037 67 10000 3.1 260 20:39 21.01.2020
4060 Clear 0 1037 67 10000 3.1 260 20:39 21.01.2020
4061 Clear 0 1037 80 10000 4.1 250 20:20 21.01.2020
4062 Clear 0 1037 74 10000 3.6 240 19:58 21.01.2020
4063 Clear 0 1037 74 10000 3.6 240 19:39 21.01.2020
4064 Clear 0 1037 74 10000 3.6 240 19:39 21.01.2020
4065 Clear 0 1037 80 10000 3.6 240 19:21 21.01.2020
4066 Clear 0 1037 80 10000 2.6 230 18:57 21.01.2020
4067 Clear 0 1037 80 10000 2.6 230 18:38 21.01.2020
4068 Clear 1 1038 74 10000 2.6 270 18:20 21.01.2020
4069 Clear 1 1038 74 10000 3.1 280 17:56 21.01.2020
4070 Clear 1 1038 69 10000 3.6 260 17:37 21.01.2020
4071 Clear 2 1038 69 10000 3.6 260 17:18 21.01.2020
4072 Clear 2 1038 65 10000 4.1 260 16:38 21.01.2020
4073 Clear 3 1038 65 10000 4.1 260 16:19 21.01.2020
4074 Clear 3 1038 65 10000 4.1 260 16:19 21.01.2020
4075 Clear 4 1039 65 10000 4.6 250 15:58 21.01.2020
4076 Clear 4 1039 65 10000 4.6 250 15:38 21.01.2020
4077 Clear 4 1039 60 10000 4.6 260 15:19 21.01.2020
4078 Clear 4 1039 60 10000 5.1 260 14:39 21.01.2020
4079 Clear 4 1040 56 10000 4.6 260 14:21 21.01.2020
4080 Clear 4 1040 56 10000 5.1 260 13:43 21.01.2020
4081 Clear 4 1040 58 10000 5.1 260 13:21 21.01.2020
4082 Clear 3 1041 69 10000 5.7 260 12:59 21.01.2020
4083 Clear 4 1041 69 10000 5.7 260 12:41 21.01.2020
4084 Clear 3 1041 58 10000 4.6 250 12:23 21.01.2020
4085 Clear 3 1041 74 10000 4.6 250 11:56 21.01.2020
4086 Clear 3 1041 74 10000 4.6 250 11:37 21.01.2020
4087 Clear 1 1041 74 10000 4.6 250 11:18 21.01.2020
4088 Clear 0 1041 80 10000 4.1 250 10:42 21.01.2020
4089 Clear 0 1041 86 10000 3.1 250 10:22 21.01.2020
4090 Clear 0 1041 86 10000 3.1 250 10:22 21.01.2020
4091 Clear -1 1041 66 10000 2.6 250 09:55 21.01.2020
4092 Clear -1 1041 66 10000 2.6 260 09:37 21.01.2020
4093 Clear -2 1041 66 10000 2.6 260 09:18 21.01.2020
4094 Clear -2 1041 86 10000 2.6 250 08:41 21.01.2020
4095 Clear -1 1041 74 10000 2.6 270 08:21 21.01.2020
4096 Clear -1 1041 74 10000 3.1 240 07:43 21.01.2020
4097 Clear -1 1041 74 10000 3.1 240 07:43 21.01.2020
4098 Clear -1 1041 74 10000 3.6 250 07:23 21.01.2020
4099 Clear -1 1040 91 0 2.85 231 06:57 21.01.2020
4100 Clear -1 1040 92 0 2.85 231 06:38 21.01.2020
4101 Clear -2 1040 91 0 2.85 231 05:53 21.01.2020
4102 Clear -1 1046 79 0 3.02 220 04:41 21.01.2020
4103 Clear -1 1040 90 0 0.45 270 04:19 21.01.2020
4104 Clear -1 1041 99 0 3.02 220 02:27 21.01.2020
4105 Clear -1 1042 94 0 0.45 270 01:36 21.01.2020
4106 Clear -1 1042 94 0 0.45 270 00:41 21.01.2020
4107 Clear -1 1042 94 0 2.29 229 00:22 21.01.2020
4108 Clear -1 1043 95 0 2.29 229 23:41 20.01.2020
4109 Clouds -1 1045 86 10000 2.1 220 23:19 20.01.2020
4110 Clouds -1 1045 86 10000 2.1 220 23:00 20.01.2020
4111 Clouds -1 1045 86 10000 2.1 220 22:39 20.01.2020
4112 Clouds 0 1045 86 10000 2.1 220 22:21 20.01.2020
4113 Clouds 0 1045 86 10000 2.1 230 21:58 20.01.2020
4114 Clouds 0 1045 86 10000 2.1 230 21:58 20.01.2020
4115 Clouds 0 1045 86 10000 2.1 230 21:38 20.01.2020
4116 Clouds 0 1045 86 10000 2.1 250 21:20 20.01.2020
4117 Clouds 0 1045 86 10000 2.6 250 20:58 20.01.2020
4118 Clouds 1 1045 86 10000 2.6 250 20:39 20.01.2020
4119 Clouds 1 1045 86 10000 1.5 240 20:20 20.01.2020
4120 Clouds 1 1045 80 10000 2.6 230 19:58 20.01.2020
4121 Clouds 1 1045 80 10000 2.6 230 19:40 20.01.2020
4122 Clouds 2 1045 80 10000 2.6 220 19:19 20.01.2020
4123 Clouds 2 1045 80 10000 2.1 230 18:54 20.01.2020
4124 Clouds 2 1045 80 10000 2.6 230 18:36 20.01.2020
4125 Clouds 2 1045 80 10000 2.6 230 18:18 20.01.2020
4126 Clouds 3 1045 80 10000 2.6 220 17:38 20.01.2020
4127 Clouds 4 1045 80 10000 2.6 250 17:19 20.01.2020
4128 Clouds 4 1045 81 10000 3.1 240 16:46 20.01.2020
4129 Clouds 5 1045 87 10000 3.6 240 16:26 20.01.2020
4130 Clouds 5 1045 93 10000 3.1 250 15:59 20.01.2020
4131 Clouds 5 1045 93 10000 3.1 250 15:40 20.01.2020
4132 Clouds 5 1046 93 10000 4.1 250 15:22 20.01.2020
4133 Clouds 6 1046 100 10000 2.1 240 14:56 20.01.2020
4134 Clouds 6 1046 93 10000 2.6 240 14:37 20.01.2020
4135 Clouds 6 1046 93 10000 2.6 240 14:37 20.01.2020
4136 Clouds 6 1046 93 10000 2.6 240 14:19 20.01.2020
4137 Clouds 5 1046 93 9000 2.1 230 13:42 20.01.2020
4138 Mist 5 1047 93 5000 2.6 230 13:24 20.01.2020
4139 Mist 5 1047 100 5000 2.6 240 12:58 20.01.2020
4140 Mist 5 1047 100 5000 2.6 240 12:40 20.01.2020
4141 Fog 5 1047 93 900 2.6 270 12:21 20.01.2020
4142 Fog 5 1047 100 600 2.6 250 11:54 20.01.2020
4143 Fog 4 1047 93 450 2.1 240 11:36 20.01.2020
4144 Fog 4 1047 93 450 2.1 240 11:18 20.01.2020
4145 Fog 3 1046 93 400 2.06 236 10:41 20.01.2020
4146 Fog 3 1046 93 400 2.06 236 10:20 20.01.2020
4147 Fog 2 1046 100 300 2.06 236 09:41 20.01.2020
4148 Fog 2 1046 89 500 2.06 236 09:23 20.01.2020
4149 Fog 1 1046 89 700 2.06 236 08:55 20.01.2020
4150 Fog 1 1045 89 500 2.06 236 08:31 20.01.2020
4151 Fog 1 1045 95 450 1.8 229 07:55 20.01.2020
4152 Fog 1 1045 95 400 0.5 0 07:37 20.01.2020
4153 Fog 1 1045 95 400 0.5 0 07:19 20.01.2020
4154 Clouds 1 1043 95 0 1.8 229 06:40 20.01.2020
4155 Clouds 1 1043 94 0 1.8 229 06:20 20.01.2020
4156 Clouds 1 1043 94 0 1.8 229 05:38 20.01.2020
4157 Clouds 1 1043 97 0 2.19 266 05:19 20.01.2020
4158 Clouds 1 1043 92 0 2.19 266 03:55 20.01.2020
4159 Clouds 0 1041 98 0 1.95 262 01:58 20.01.2020
4160 Clouds 0 1042 93 0 1.95 262 01:39 20.01.2020
4161 Clear 1 1041 98 0 0.45 316 00:56 20.01.2020
4162 Clear 0 1042 97 0 1.88 252 00:38 20.01.2020
4163 Clear 1 1041 93 0 1.88 252 00:20 20.01.2020
4164 Clear 1 1041 94 0 1.88 252 23:38 19.01.2020
4165 Clear 1 1041 97 0 0.45 309 23:18 19.01.2020
4166 Clear 1 1040 95 0 2.16 268 22:55 19.01.2020
4167 Clear 2 1041 97 0 2.16 268 22:37 19.01.2020
4168 Clear 2 1040 94 0 2.16 268 22:19 19.01.2020
4169 Clear 2 1040 94 0 2.16 268 21:56 19.01.2020
4170 Clear 2 1040 94 0 2.16 268 21:37 19.01.2020
4171 Clear 2 1039 94 0 2.16 268 21:19 19.01.2020
4172 Clear 2 1039 94 0 2.16 268 20:56 19.01.2020
4173 Clear 2 1039 93 0 2.16 268 20:38 19.01.2020
4174 Clouds 3 1039 86 10000 2.1 290 20:19 19.01.2020
4175 Clouds 3 1039 86 10000 2.1 290 19:55 19.01.2020
4176 Clouds 3 1039 86 10000 2.1 290 19:37 19.01.2020
4177 Clouds 3 1039 86 10000 2.1 290 19:19 19.01.2020
4178 Clouds 3 1039 86 10000 2.1 280 18:55 19.01.2020
4179 Clouds 3 1039 86 10000 2.1 280 18:55 19.01.2020
4180 Clouds 3 1038 86 10000 2.1 280 18:37 19.01.2020
4181 Clouds 4 1038 86 10000 2.1 280 18:19 19.01.2020
4182 Clouds 4 1038 86 10000 2.1 280 18:19 19.01.2020
4183 Clouds 4 1038 80 10000 2.6 280 17:57 19.01.2020
4184 Clouds 4 1038 80 10000 2.6 280 17:38 19.01.2020
4185 Clouds 4 1038 86 10000 2.1 260 17:20 19.01.2020
4186 Clouds 4 1037 80 10000 2.1 280 16:57 19.01.2020
4187 Clouds 4 1037 80 10000 2.1 280 16:38 19.01.2020
4188 Clouds 4 1037 80 10000 2.6 290 16:19 19.01.2020
4189 Clouds 4 1036 80 10000 3.1 290 15:57 19.01.2020
4190 Clouds 4 1036 80 10000 3.1 290 15:37 19.01.2020
4191 Clouds 4 1035 80 10000 2.6 280 15:19 19.01.2020
4192 Clouds 4 1035 80 10000 2.6 280 14:57 19.01.2020
4193 Clouds 5 1035 80 10000 2.6 280 14:38 19.01.2020
4194 Clouds 4 1035 80 10000 2.6 280 14:18 19.01.2020
4195 Clouds 4 1035 80 10000 3.1 290 13:55 19.01.2020
4196 Clouds 4 1035 86 10000 3.1 280 13:37 19.01.2020
4197 Clouds 4 1035 86 10000 3.1 280 13:18 19.01.2020
4198 Clouds 4 1035 80 10000 2.6 310 12:42 19.01.2020
4199 Clouds 4 1035 86 10000 3.6 310 12:23 19.01.2020
4200 Clouds 3 1034 86 10000 3.6 290 11:58 19.01.2020
4201 Clouds 3 1034 86 10000 3.6 290 11:39 19.01.2020
4202 Clouds 3 1034 86 10000 3.6 290 11:20 19.01.2020
4203 Clouds 3 1033 86 10000 3.1 280 10:55 19.01.2020
4204 Clouds 3 1033 93 10000 2.1 280 10:37 19.01.2020
4205 Clouds 2 1033 93 10000 2.1 280 10:18 19.01.2020
4206 Clouds 2 1033 93 10000 1.5 280 09:44 19.01.2020
4207 Clouds 2 1032 88 10000 2.1 280 09:25 19.01.2020
4208 Clouds 2 1031 97 0 3.12 266 08:58 19.01.2020
4209 Clouds 2 1030 94 0 3.12 266 08:39 19.01.2020
4210 Clouds 2 1030 97 0 2.74 251 08:20 19.01.2020
4211 Clouds 2 1029 93 0 2.74 251 07:42 19.01.2020
4212 Clouds 2 1028 99 0 2.74 251 07:21 19.01.2020
4213 Clouds 2 1027 99 0 0.45 257 06:50 19.01.2020
4214 Clouds 2 1027 93 0 2.9 248 05:21 19.01.2020
4215 Clouds 3 1026 90 0 2.9 248 02:44 19.01.2020
4216 Clouds 3 1026 95 0 3.55 241 02:21 19.01.2020
4217 Clouds 3 1025 91 0 3.55 241 01:25 19.01.2020
4218 Clouds 3 1025 91 0 3.55 241 01:25 19.01.2020
4219 Clouds 3 1025 90 0 0.45 225 00:46 19.01.2020
4220 Clouds 3 1024 97 0 3.41 237 00:28 19.01.2020
4221 Clouds 3 1023 97 0 0.45 228 23:56 18.01.2020
4222 Clouds 3 1024 90 0 3.41 237 23:38 18.01.2020
4223 Clouds 3 1024 90 0 0.45 270 23:19 18.01.2020
4224 Clouds 3 1023 97 0 0.45 246 22:55 18.01.2020
4225 Clouds 3 1027 92 0 3.73 241 22:37 18.01.2020
4226 Clouds 3 1027 92 0 3.73 241 22:37 18.01.2020
4227 Clouds 3 1025 93 0 0.89 264 22:19 18.01.2020
4228 Clouds 3 1023 89 0 3.73 241 21:57 18.01.2020
4229 Clouds 3 1024 93 0 3.73 241 21:37 18.01.2020
4230 Clouds 3 1023 89 0 3.73 241 21:19 18.01.2020
4231 Clouds 3 1023 89 0 3.73 241 20:43 18.01.2020
4232 Clouds 3 1023 89 0 0.45 292 20:21 18.01.2020
4233 Clouds 3 1024 92 0 5.75 262 19:57 18.01.2020
4234 Clouds 3 1023 89 0 0.45 225 19:39 18.01.2020
4235 Clouds 3 1023 89 0 0.45 225 19:39 18.01.2020
4236 Clouds 3 1024 92 0 5.75 262 19:21 18.01.2020
4237 Clouds 4 1023 75 10000 5.1 250 18:42 18.01.2020
4238 Clouds 4 1023 75 10000 5.1 250 18:22 18.01.2020
4239 Clouds 4 1023 75 10000 5.1 250 17:55 18.01.2020
4240 Clouds 4 1022 75 10000 4.6 260 17:37 18.01.2020
4241 Clouds 4 1022 75 10000 4.6 260 17:19 18.01.2020
4242 Clouds 4 1022 75 10000 5.1 250 16:55 18.01.2020
4243 Clouds 5 1022 81 10000 4.6 250 16:36 18.01.2020
4244 Clouds 5 1022 81 10000 4.6 250 16:18 18.01.2020
4245 Clouds 5 1022 70 10000 6.2 250 15:41 18.01.2020
4246 Clouds 5 1022 70 10000 7.2 250 15:23 18.01.2020
4247 Clouds 5 1022 70 10000 6.2 250 14:55 18.01.2020
4248 Clouds 5 1022 70 10000 6.7 250 14:37 18.01.2020
4249 Clouds 5 1022 70 10000 6.7 250 14:18 18.01.2020
4250 Clouds 5 1022 70 10000 7.2 260 13:43 18.01.2020
4251 Clouds 5 1022 70 10000 5.7 230 13:24 18.01.2020
4252 Clouds 6 1022 70 10000 4.6 240 12:57 18.01.2020
4253 Clouds 6 1022 70 10000 4.6 240 12:38 18.01.2020
4254 Clouds 5 1022 70 10000 5.7 230 12:19 18.01.2020
4255 Clouds 5 1022 79 10000 5.1 240 11:44 18.01.2020
4256 Clouds 5 1022 79 10000 5.7 230 11:21 18.01.2020
4257 Clouds 5 1022 75 10000 5.1 240 10:56 18.01.2020
4258 Clouds 5 1022 75 10000 5.1 240 10:38 18.01.2020
4259 Clouds 5 1021 79 10000 5.7 240 10:19 18.01.2020
4260 Clouds 4 1021 79 10000 4.6 240 09:42 18.01.2020
4261 Clouds 4 1021 79 10000 4.6 230 09:24 18.01.2020
4262 Clouds 4 1020 93 0 5.31 231 08:55 18.01.2020
4263 Clouds 4 1020 82 0 0.45 270 08:37 18.01.2020
4264 Clouds 4 1021 88 0 4.96 229 08:18 18.01.2020
4265 Clouds 4 1020 81 0 0.89 270 07:43 18.01.2020
4266 Clouds 4 1020 80 0 0.45 247 07:25 18.01.2020
4267 Clouds 4 1019 82 0 1.34 270 06:46 18.01.2020
4268 Clouds 4 1019 83 0 4.96 229 05:58 18.01.2020
4269 Clouds 5 1019 77 0 0.89 270 04:35 18.01.2020
4270 Clouds 5 1018 80 0 1.34 270 02:53 18.01.2020
4271 Rain 6 1021 82 0 6.93 252 01:51 18.01.2020
4272 Rain 6 1017 78 0 0.89 270 01:20 18.01.2020
4273 Rain 7 1016 83 0 1.34 225 00:36 18.01.2020
4274 Rain 7 1016 85 0 0.45 270 00:18 18.01.2020
4275 Rain 7 1014 10 0 0.45 288 23:40 17.01.2020
4276 Rain 7 1015 87 9000 4.1 220 23:19 17.01.2020
4277 Rain 7 1015 87 9000 4.1 220 22:44 17.01.2020
4278 Rain 7 1015 87 9000 4.1 220 22:21 17.01.2020
4279 Drizzle 7 1015 87 10000 4.1 230 21:58 17.01.2020
4280 Drizzle 7 1015 87 10000 4.1 230 21:40 17.01.2020
4281 Drizzle 7 1015 81 10000 4.6 230 21:22 17.01.2020
4282 Drizzle 7 1015 81 10000 5.1 240 20:57 17.01.2020
4283 Drizzle 7 1015 81 10000 5.1 240 20:38 17.01.2020
4284 Clouds 7 1014 70 10000 6.2 240 20:20 17.01.2020
4285 Clouds 8 1014 70 10000 5.1 240 19:55 17.01.2020
4286 Clouds 8 1014 70 10000 4.6 230 19:37 17.01.2020
4287 Clouds 8 1014 70 10000 4.6 230 19:18 17.01.2020
4288 Clouds 8 1014 66 10000 5.1 220 18:47 17.01.2020
4289 Clouds 8 1014 70 10000 3.6 220 18:28 17.01.2020
4290 Clouds 8 1014 81 10000 1.5 220 17:56 17.01.2020
4291 Clouds 8 1014 81 10000 1.5 220 17:56 17.01.2020
4292 Clouds 8 1014 81 10000 1.5 220 17:38 17.01.2020
4293 Clear 8 1014 75 10000 2.39 218 17:20 17.01.2020
4294 Clear 9 1014 70 10000 1.5 140 16:43 17.01.2020
4295 Clear 9 1014 66 10000 1.5 0 16:20 17.01.2020
4296 Clear 9 1014 71 10000 2.1 150 15:49 17.01.2020
4297 Clear 9 1014 62 10000 1.5 160 15:28 17.01.2020
4298 Clear 10 1014 62 10000 3.1 170 14:59 17.01.2020
4299 Clear 10 1014 62 10000 3.1 170 14:40 17.01.2020
4300 Clear 10 1014 62 10000 3.1 220 14:22 17.01.2020
4301 Clear 10 1015 62 10000 3.6 150 13:42 17.01.2020
4302 Clear 9 1015 66 10000 3.1 150 13:22 17.01.2020
4303 Clear 9 1016 61 10000 3.6 180 12:46 17.01.2020
4304 Clear 9 1016 66 10000 3.1 160 12:23 17.01.2020
4305 Clear 8 1016 70 10000 4.1 150 11:41 17.01.2020
4306 Clear 7 1017 66 10000 4.6 150 11:20 17.01.2020
4307 Clear 7 1017 81 10000 3.6 110 10:56 17.01.2020
4308 Clear 6 1017 81 10000 3.6 110 10:38 17.01.2020
4309 Clear 6 1018 81 10000 3.6 130 10:20 17.01.2020
4310 Clear 5 1018 86 10000 4.1 110 09:44 17.01.2020
4311 Clear 4 1019 76 10000 3.6 120 09:21 17.01.2020
4312 Clear 4 1019 86 10000 3.1 130 08:58 17.01.2020
4313 Clear 4 1019 86 10000 3.1 130 08:40 17.01.2020
4314 Clear 3 1019 93 10000 3.6 140 08:21 17.01.2020
4315 Clear 5 1019 93 10000 3.1 130 07:46 17.01.2020
4316 Clear 4 1020 81 10000 4.1 110 07:28 17.01.2020
4317 Clear 4 1018 95 0 2.95 172 06:55 17.01.2020
4318 Clear 4 1018 85 0 0.89 270 06:35 17.01.2020
4319 Clear 4 1019 86 0 0.45 270 04:32 17.01.2020
4320 Clear 4 1021 85 0 2.58 176 03:38 17.01.2020
4321 Clear 5 1020 84 0 0.89 292 02:39 17.01.2020
4322 Clear 5 1020 85 0 1.34 270 01:45 17.01.2020
4323 Clear 5 1022 88 0 2.56 164 01:27 17.01.2020
4324 Clear 5 1021 98 0 2.38 162 00:40 17.01.2020
4325 Clear 6 1023 90 0 2.38 162 00:19 17.01.2020
4326 Clear 5 1021 98 0 2.38 162 23:41 16.01.2020
4327 Clear 6 1021 84 0 0.89 270 23:22 16.01.2020
4328 Clear 5 1024 86 10000 2.1 110 22:42 16.01.2020
4329 Clear 5 1024 86 10000 2.1 110 22:22 16.01.2020
4330 Clear 5 1025 93 10000 2.1 110 21:57 16.01.2020
4331 Clear 4 1025 93 10000 2.1 110 21:38 16.01.2020
4332 Clear 5 1025 93 10000 2.1 110 21:19 16.01.2020
4333 Clear 5 1025 93 10000 2.1 120 20:58 16.01.2020
4334 Clear 5 1025 93 10000 2.1 120 20:39 16.01.2020
4335 Clear 5 1025 93 10000 2.1 120 20:19 16.01.2020
4336 Clouds 5 1025 86 10000 2.1 120 19:56 16.01.2020
4337 Clouds 5 1025 86 10000 2.1 120 19:37 16.01.2020
4338 Clouds 6 1025 81 10000 2.1 140 19:19 16.01.2020
4339 Clouds 6 1025 81 10000 2.6 140 18:55 16.01.2020
4340 Clouds 6 1026 81 10000 2.5 155 18:37 16.01.2020
4341 Clouds 6 1026 81 10000 2.5 155 18:18 16.01.2020
4342 Clouds 6 1026 75 10000 1.5 110 17:42 16.01.2020
4343 Clouds 7 1026 75 10000 1.5 120 17:23 16.01.2020
4344 Clouds 8 1026 70 10000 2.6 120 16:57 16.01.2020
4345 Clouds 8 1026 70 10000 2.6 120 16:39 16.01.2020
4346 Clouds 9 1026 61 10000 2.6 140 16:19 16.01.2020
4347 Clouds 10 1026 61 10000 3.1 140 15:44 16.01.2020
4348 Clouds 10 1026 61 10000 3.1 140 15:23 16.01.2020
4349 Clouds 10 1027 62 10000 2.6 140 14:57 16.01.2020
4350 Clouds 10 1027 62 10000 2.6 140 14:57 16.01.2020
4351 Clouds 10 1027 62 10000 2.6 140 14:39 16.01.2020
4352 Clear 10 1027 66 10000 3.1 140 14:20 16.01.2020
4353 Clear 10 1027 66 10000 2.6 190 13:45 16.01.2020
4354 Clear 10 1027 61 10000 2.6 240 13:26 16.01.2020
4355 Clear 9 1027 70 10000 3.6 240 12:47 16.01.2020
4356 Clear 9 1028 66 10000 3.6 250 12:29 16.01.2020
4357 Clear 8 1028 70 10000 2.6 250 11:59 16.01.2020
4358 Clear 8 1028 70 10000 2.6 250 11:41 16.01.2020
4359 Clear 8 1028 70 10000 2.6 250 11:41 16.01.2020
4360 Clear 7 1028 70 10000 2.1 220 11:23 16.01.2020
4361 Clear 6 1028 75 10000 1.5 170 10:55 16.01.2020
4362 Clear 6 1027 81 10000 2.6 180 10:36 16.01.2020
4363 Clear 5 1027 81 10000 2.6 180 10:18 16.01.2020
4364 Clear 4 1027 80 10000 2.6 170 09:42 16.01.2020
4365 Clear 4 1027 86 10000 2.6 180 09:24 16.01.2020
4366 Clear 3 1026 86 10000 1.5 0 08:58 16.01.2020
4367 Clear 3 1026 86 10000 1.5 0 08:39 16.01.2020
4368 Clouds 4 1026 86 10000 1.5 0 08:18 16.01.2020
4369 Clouds 3 1026 86 10000 1.5 210 07:42 16.01.2020
4370 Clouds 4 1026 86 10000 2.1 220 07:23 16.01.2020
4371 Clouds 4 1024 91 0 0.45 270 06:50 16.01.2020
4372 Clouds 3 1024 92 0 0.45 270 06:32 16.01.2020
4373 Clouds 5 1024 90 0 3.26 212 05:49 16.01.2020
4374 Clouds 5 1023 88 0 3.03 233 04:46 16.01.2020
4375 Clouds 6 1023 87 0 0.45 270 03:56 16.01.2020
4376 Clouds 8 1023 82 0 2.24 254 02:47 16.01.2020
4377 Rain 8 1020 89 0 5.85 273 01:34 16.01.2020
4378 Clouds 9 1020 88 0 6.78 276 00:43 16.01.2020
4379 Clouds 9 1020 88 0 6.78 276 00:43 16.01.2020
4380 Clouds 10 1019 85 0 0.89 270 00:23 16.01.2020
4381 Clouds 10 1018 79 0 1.79 225 23:44 15.01.2020
4382 Clouds 10 1018 79 0 1.79 225 23:44 15.01.2020
4383 Clouds 11 1016 62 10000 4.6 240 23:22 15.01.2020
4384 Clouds 11 1016 62 10000 4.6 240 22:56 15.01.2020
4385 Clouds 11 1016 62 10000 4.6 240 22:38 15.01.2020
4386 Clouds 11 1016 62 10000 4.6 240 22:18 15.01.2020
4387 Clouds 11 1016 58 10000 5.1 230 21:56 15.01.2020
4388 Clouds 11 1015 58 10000 5.7 220 21:37 15.01.2020
4389 Clouds 11 1015 58 10000 5.7 220 21:18 15.01.2020
4390 Rain 11 1015 58 10000 6.7 210 20:55 15.01.2020
4391 Rain 11 1014 54 10000 5.7 210 20:37 15.01.2020
4392 Clouds 11 1014 54 10000 5.7 210 20:18 15.01.2020
4393 Clouds 11 1014 54 10000 6.2 220 19:54 15.01.2020
4394 Clouds 11 1014 57 10000 6.2 220 19:36 15.01.2020
4395 Clouds 10 1014 57 10000 6.2 220 19:18 15.01.2020
4396 Clouds 11 1013 50 10000 5.7 220 18:55 15.01.2020
4397 Clouds 11 1013 50 10000 5.7 220 18:55 15.01.2020
4398 Clouds 11 1013 50 10000 5.7 220 18:55 15.01.2020
4399 Clouds 10 1013 50 10000 5.7 220 18:37 15.01.2020
4400 Clouds 10 1013 50 10000 5.7 220 18:37 15.01.2020
4401 Clouds 11 1013 50 10000 5.7 220 18:19 15.01.2020
4402 Clouds 11 1013 50 10000 5.7 220 18:19 15.01.2020
4403 Clouds 11 1012 50 10000 7.7 210 17:41 15.01.2020
4404 Clouds 11 1012 50 10000 6.7 210 17:23 15.01.2020
4405 Clouds 11 1012 47 10000 6.7 210 16:59 15.01.2020
4406 Clouds 11 1012 47 10000 6.7 210 16:39 15.01.2020
4407 Clouds 12 1012 47 10000 7.7 210 16:21 15.01.2020
4408 Clouds 12 1012 44 10000 7.7 210 15:44 15.01.2020
4409 Clouds 13 1012 44 10000 7.2 230 15:21 15.01.2020
4410 Clouds 12 1012 47 10000 7.2 220 14:59 15.01.2020
4411 Clouds 12 1012 47 10000 7.2 220 14:41 15.01.2020
4412 Clouds 13 1011 50 10000 9.8 220 14:18 15.01.2020
4413 Clouds 13 1012 47 10000 8.2 230 13:46 15.01.2020
4414 Clouds 13 1012 50 10000 6.2 230 13:26 15.01.2020
4415 Clouds 13 1012 50 10000 8.2 230 12:59 15.01.2020
4416 Clouds 13 1012 50 10000 8.2 230 12:39 15.01.2020
4417 Clouds 12 1012 54 10000 8.2 210 12:19 15.01.2020
4418 Clouds 12 1012 54 10000 5.7 210 11:56 15.01.2020
4419 Clouds 12 1012 62 10000 6.7 220 11:37 15.01.2020
4420 Clouds 12 1012 62 10000 6.7 220 11:19 15.01.2020
4421 Clouds 12 1012 62 10000 6.7 220 11:19 15.01.2020
4422 Clouds 11 1013 62 10000 7.2 210 10:43 15.01.2020
4423 Clouds 11 1012 66 10000 7.2 220 10:25 15.01.2020
4424 Clouds 10 1012 66 10000 7.7 210 09:44 15.01.2020
4425 Clouds 10 1012 58 10000 8.2 210 09:23 15.01.2020
4426 Clouds 10 1011 58 10000 6.7 220 08:56 15.01.2020
4427 Clouds 10 1011 58 10000 6.7 220 08:38 15.01.2020
4428 Rain 10 1011 58 10000 4.6 210 08:19 15.01.2020
4429 Rain 10 1011 62 10000 4.6 210 07:51 15.01.2020
4430 Rain 11 1011 58 10000 6.2 220 07:31 15.01.2020
4431 Rain 11 1010 73 0 2.24 225 06:45 15.01.2020
4432 Rain 10 1010 71 0 2.24 270 06:20 15.01.2020
4433 Clouds 11 1010 72 0 2.24 270 04:42 15.01.2020
4434 Clouds 11 1009 72 0 3.13 270 02:38 15.01.2020
4435 Clouds 10 1009 72 0 3.13 225 01:28 15.01.2020
4436 Clouds 10 1009 72 0 3.13 270 00:46 15.01.2020
4437 Clouds 10 1009 73 0 3.58 270 00:27 15.01.2020
4438 Clouds 10 1009 73 0 3.58 270 23:56 14.01.2020
4439 Clouds 10 1009 74 0 3.13 270 23:38 14.01.2020
4440 Clouds 10 1008 57 10000 6.7 220 23:19 14.01.2020
4441 Clouds 10 1008 57 10000 6.7 220 22:41 14.01.2020
4442 Clouds 10 1008 57 10000 6.7 220 22:19 14.01.2020
4443 Clouds 10 1008 57 10000 7.2 220 21:58 14.01.2020
4444 Clouds 10 1008 57 10000 7.7 210 21:40 14.01.2020
4445 Clouds 10 1008 57 10000 7.7 210 21:21 14.01.2020
4446 Clouds 10 1008 57 10000 7.2 220 20:59 14.01.2020
4447 Clouds 10 1008 57 10000 7.2 220 20:40 14.01.2020
4448 Clouds 10 1008 57 10000 7.2 220 20:40 14.01.2020
4449 Clouds 10 1008 57 10000 6.7 220 20:20 14.01.2020
4450 Clouds 10 1008 57 10000 6.7 220 20:20 14.01.2020
4451 Clouds 10 1008 57 10000 6.7 220 19:56 14.01.2020
4452 Clouds 10 1008 57 10000 6.7 220 19:38 14.01.2020
4453 Clouds 10 1008 57 10000 5.1 220 19:19 14.01.2020
4454 Clouds 10 1008 61 10000 5.1 210 18:56 14.01.2020
4455 Clouds 10 1008 57 10000 5.7 200 18:37 14.01.2020
4456 Clouds 10 1008 57 10000 5.7 200 18:19 14.01.2020
4457 Clouds 10 1008 57 10000 5.7 200 17:39 14.01.2020
4458 Clouds 10 1008 61 10000 4.1 210 17:19 14.01.2020
4459 Clouds 10 1008 62 10000 4.1 210 16:55 14.01.2020
4460 Clouds 10 1008 62 10000 4.6 210 16:37 14.01.2020
4461 Clouds 10 1008 62 10000 4.6 210 16:19 14.01.2020
4462 Clouds 10 1008 62 10000 4.1 220 15:43 14.01.2020
4463 Clouds 10 1008 66 10000 6.2 240 15:19 14.01.2020
4464 Clouds 10 1008 62 10000 6.7 220 14:59 14.01.2020
4465 Clouds 10 1008 62 10000 6.7 220 14:41 14.01.2020
4466 Clouds 10 1008 62 10000 6.7 210 14:19 14.01.2020
4467 Clouds 10 1008 62 10000 7.2 230 13:42 14.01.2020
4468 Rain 10 1008 62 10000 7.7 230 13:20 14.01.2020
4469 Clouds 10 1008 62 10000 8.2 230 12:56 14.01.2020
4470 Clouds 10 1008 62 10000 8.2 230 12:56 14.01.2020
4471 Clouds 10 1008 62 10000 8.2 230 12:38 14.01.2020
4472 Clouds 10 1008 62 10000 8.2 230 12:20 14.01.2020
4473 Rain 10 1007 62 10000 8.7 230 11:41 14.01.2020
4474 Clouds 10 1007 62 10000 7.7 220 11:22 14.01.2020
4475 Clouds 10 1007 66 10000 7.2 220 10:57 14.01.2020
4476 Clouds 9 1007 66 10000 7.2 220 10:38 14.01.2020
4477 Clouds 9 1007 66 10000 6.2 210 10:19 14.01.2020
4478 Rain 9 1006 66 10000 7.7 210 09:56 14.01.2020
4479 Rain 9 1006 66 10000 7.7 210 09:37 14.01.2020
4480 Rain 9 1006 66 10000 6.2 210 09:19 14.01.2020
4481 Rain 9 1007 66 10000 7.2 210 08:41 14.01.2020
4482 Rain 9 1007 66 10000 7.7 220 08:22 14.01.2020
4483 Clouds 9 1007 57 10000 7.2 210 07:53 14.01.2020
4484 Clouds 9 1007 66 10000 8.2 210 07:26 14.01.2020
4485 Clouds 8 1006 78 0 2.68 292 06:50 14.01.2020
4486 Clouds 8 1006 80 0 2.24 270 06:18 14.01.2020
4487 Clouds 8 1006 80 0 2.68 270 04:56 14.01.2020
4488 Clouds 8 1010 81 0 0.45 96 03:48 14.01.2020
4489 Clouds 7 1013 90 0 6.83 201 02:41 14.01.2020
4490 Clouds 6 1009 83 0 0.45 292 01:34 14.01.2020
4491 Clouds 5 1009 86 0 1.34 292 00:49 14.01.2020
4492 Clouds 5 1011 95 0 5.31 200 00:27 14.01.2020
4493 Clouds 5 1010 86 0 1.79 225 23:47 13.01.2020
4494 Clouds 5 1013 80 10000 3.1 140 23:19 13.01.2020
4495 Clouds 5 1013 80 10000 3.1 140 22:59 13.01.2020
4496 Clouds 5 1013 80 10000 3.1 140 22:40 13.01.2020
4497 Clouds 5 1013 80 10000 3.1 140 22:20 13.01.2020
4498 Clouds 5 1014 80 10000 2.6 160 21:56 13.01.2020
4499 Clouds 5 1014 80 10000 2.6 140 21:37 13.01.2020
4500 Clouds 5 1014 80 10000 2.6 140 21:18 13.01.2020
4501 Clouds 5 1014 80 10000 2.6 140 20:57 13.01.2020
4502 Clouds 5 1014 80 10000 2.6 140 20:57 13.01.2020
4503 Clouds 5 1014 80 10000 2.6 140 20:38 13.01.2020
4504 Clouds 5 1015 80 10000 2.1 150 20:20 13.01.2020
4505 Clouds 5 1015 80 10000 1.5 0 19:56 13.01.2020
4506 Clouds 5 1015 80 10000 1.5 0 19:38 13.01.2020
4507 Clouds 5 1016 86 10000 1.5 160 19:18 13.01.2020
4508 Clear 6 1016 89 10000 2.56 186 18:56 13.01.2020
4509 Clear 6 1016 89 10000 2.56 186 18:56 13.01.2020
4510 Clear 6 1016 80 10000 2.1 200 18:37 13.01.2020
4511 Clear 6 1016 80 10000 2.1 200 18:37 13.01.2020
4512 Clear 6 1016 80 10000 2.1 200 18:18 13.01.2020
4513 Clouds 6 1017 80 10000 1.5 210 17:40 13.01.2020
4514 Clouds 6 1017 80 10000 1.5 210 17:40 13.01.2020
4515 Clear 6 1016 75 10000 0.5 200 17:22 13.01.2020
4516 Clear 6 1016 75 10000 0.5 200 17:22 13.01.2020
4517 Clear 6 1016 70 10000 3.1 200 16:56 13.01.2020
4518 Clear 6 1015 82 0 0.45 270 16:38 13.01.2020
4519 Clear 6 1015 83 0 0.89 270 16:19 13.01.2020
4520 Clear 7 1015 82 0 0.45 292 15:44 13.01.2020
4521 Clear 7 1015 80 0 0.45 270 15:23 13.01.2020
4522 Clear 7 1015 89 0 2.51 192 14:58 13.01.2020
4523 Clear 7 1016 82 0 0.45 270 14:38 13.01.2020
4524 Clouds 7 1016 83 0 0.89 225 14:19 13.01.2020
4525 Clouds 7 1021 87 0 4.31 217 13:42 13.01.2020
4526 Clouds 7 1017 83 0 1.34 270 13:24 13.01.2020
4527 Clouds 7 1017 85 0 0.89 270 12:59 13.01.2020
4528 Clouds 7 1020 75 10000 3.6 220 12:41 13.01.2020
4529 Clouds 7 1020 75 10000 3.6 220 12:23 13.01.2020
4530 Clouds 7 1020 75 10000 3.6 220 11:57 13.01.2020
4531 Clouds 6 1020 81 10000 3.6 210 11:37 13.01.2020
4532 Clouds 6 1020 81 10000 3.6 210 11:19 13.01.2020
4533 Clouds 6 1020 87 10000 5.1 210 10:56 13.01.2020
4534 Clouds 6 1020 87 10000 3.6 220 10:37 13.01.2020
4535 Clouds 6 1020 87 10000 3.6 220 10:37 13.01.2020
4536 Clouds 6 1020 87 10000 3.6 220 10:19 13.01.2020
4537 Clouds 6 1020 87 10000 3.6 220 09:43 13.01.2020
4538 Drizzle 5 1020 87 10000 4.1 210 09:24 13.01.2020
4539 Clouds 5 1020 81 10000 4.6 220 08:57 13.01.2020
4540 Clouds 5 1020 87 10000 4.1 210 08:37 13.01.2020
4541 Clouds 5 1020 87 10000 4.1 210 08:18 13.01.2020
4542 Clouds 5 1020 87 10000 4.1 220 07:43 13.01.2020
4543 Clouds 5 1020 87 10000 3.6 210 07:24 13.01.2020
4544 Clouds 5 1019 94 0 0.45 270 06:37 13.01.2020
4545 Clouds 5 1019 94 0 0.45 270 06:37 13.01.2020
4546 Clouds 5 1019 92 0 0.45 270 05:37 13.01.2020
4547 Clouds 5 1019 92 0 4.24 230 05:18 13.01.2020
4548 Clouds 6 1019 92 0 0.45 270 03:44 13.01.2020
4549 Clouds 6 1020 91 0 0.45 225 02:51 13.01.2020
4550 Clouds 6 1019 91 0 0.45 270 02:30 13.01.2020
4551 Clouds 6 1019 90 0 0.89 270 01:33 13.01.2020
4552 Clouds 6 1019 90 0 1.34 270 00:48 13.01.2020
4553 Clouds 6 1021 91 0 0.45 231 00:26 13.01.2020
4554 Clouds 6 1019 95 0 1.34 278 23:59 12.01.2020
4555 Clouds 6 1019 95 0 0.45 159 23:40 12.01.2020
4556 Clouds 6 1019 91 0 1.34 270 23:21 12.01.2020
4557 Clouds 6 1018 95 0 0.45 302 22:56 12.01.2020
4558 Clouds 5 1019 91 0 1.34 270 22:37 12.01.2020
4559 Clouds 6 1019 90 0 1.34 270 22:19 12.01.2020
4560 Clouds 6 1019 89 0 1.34 270 21:54 12.01.2020
4561 Clouds 6 1018 89 0 1.34 270 21:36 12.01.2020
4562 Clouds 6 1018 89 0 1.79 270 21:18 12.01.2020
4563 Clouds 5 1018 89 0 1.79 225 20:54 12.01.2020
4564 Clouds 5 1018 86 10000 7.2 220 20:36 12.01.2020
4565 Clouds 5 1018 86 10000 7.2 220 20:18 12.01.2020
4566 Clouds 5 1018 86 10000 7.2 220 19:54 12.01.2020
4567 Clouds 5 1018 80 10000 7.2 220 19:36 12.01.2020
4568 Clouds 5 1018 80 10000 7.2 220 19:18 12.01.2020
4569 Clouds 5 1018 80 10000 7.7 220 18:54 12.01.2020
4570 Clouds 5 1018 80 10000 7.7 240 18:36 12.01.2020
4571 Clouds 5 1018 80 10000 7.7 240 18:18 12.01.2020
4572 Clouds 5 1018 75 10000 7.7 240 17:41 12.01.2020
4573 Rain 5 1018 75 10000 6.7 230 17:19 12.01.2020
4574 Rain 4 1018 75 10000 6.7 230 16:57 12.01.2020
4575 Clouds 5 1018 78 10000 6.2 220 16:37 12.01.2020
4576 Clouds 5 1018 78 10000 6.2 220 16:19 12.01.2020
4577 Clouds 5 1018 78 10000 7.2 230 15:43 12.01.2020
4578 Clouds 5 1017 78 10000 6.2 230 15:25 12.01.2020
4579 Clouds 5 1018 78 10000 6.7 230 14:59 12.01.2020
4580 Clouds 5 1018 78 10000 6.7 230 14:41 12.01.2020
4581 Clouds 5 1018 74 10000 8.2 240 14:21 12.01.2020
4582 Clouds 5 1019 74 10000 6.2 230 13:55 12.01.2020
4583 Clouds 5 1019 74 10000 6.2 230 13:36 12.01.2020
4584 Clouds 4 1019 72 10000 6.2 230 13:18 12.01.2020
4585 Clouds 4 1020 69 10000 6.2 230 12:43 12.01.2020
4586 Clouds 4 1020 69 10000 7.7 230 12:21 12.01.2020
4587 Clouds 4 1020 69 10000 6.7 230 11:59 12.01.2020
4588 Clouds 3 1020 69 10000 6.7 230 11:40 12.01.2020
4589 Clouds 3 1020 74 10000 7.2 230 11:21 12.01.2020
4590 Clouds 3 1020 74 10000 6.2 230 10:43 12.01.2020
4591 Clouds 3 1021 74 10000 6.2 220 10:23 12.01.2020
4592 Clouds 2 1021 74 10000 5.7 230 09:59 12.01.2020
4593 Clouds 2 1021 74 10000 5.7 230 09:41 12.01.2020
4594 Clouds 2 1021 74 10000 5.7 230 09:21 12.01.2020
4595 Clouds 2 1020 89 0 1.34 270 08:47 12.01.2020
4596 Clouds 2 1026 85 0 5.55 218 08:21 12.01.2020
4597 Clouds 2 1021 90 0 0.45 270 07:45 12.01.2020
4598 Clouds 1 1021 96 0 5.55 218 07:25 12.01.2020
4599 Clouds 2 1023 93 0 5.55 218 06:50 12.01.2020
4600 Clouds 2 1021 95 0 5.55 218 06:32 12.01.2020
4601 Clouds 2 1021 94 0 5.55 218 05:49 12.01.2020
4602 Clouds 2 1022 87 0 0.45 270 04:53 12.01.2020
4603 Clouds 2 1022 85 0 0.89 270 03:33 12.01.2020
4604 Clouds 2 1023 86 0 0.89 292 02:43 12.01.2020
4605 Clouds 2 1023 88 0 0.45 270 02:24 12.01.2020
4606 Clouds 2 1023 87 0 0.45 292 01:31 12.01.2020
4607 Clouds 2 1024 85 0 0.45 292 00:46 12.01.2020
4608 Clouds 3 1029 81 0 5.45 225 00:22 12.01.2020
4609 Clouds 3 1024 92 0 5.45 225 23:56 11.01.2020
4610 Clouds 3 1025 85 0 0.45 292 23:38 11.01.2020
4611 Clouds 3 1025 84 0 1.34 270 23:18 11.01.2020
4612 Clouds 3 1025 91 0 5.17 217 22:56 11.01.2020
4613 Clouds 3 1025 84 0 1.79 292 22:37 11.01.2020
4614 Clouds 3 1025 83 0 1.79 270 22:18 11.01.2020
4615 Clouds 3 1027 79 10000 5.1 220 21:44 11.01.2020
4616 Clouds 4 1027 79 10000 5.1 220 21:19 11.01.2020
4617 Clouds 4 1027 79 10000 5.1 220 20:56 11.01.2020
4618 Clouds 4 1027 65 10000 5.7 230 20:37 11.01.2020
4619 Clouds 4 1027 65 10000 5.7 230 20:19 11.01.2020
4620 Clouds 4 1027 65 10000 5.1 230 19:55 11.01.2020
4621 Clouds 4 1028 82 10000 5.1 220 19:37 11.01.2020
4622 Clouds 4 1028 82 10000 5.1 220 19:19 11.01.2020
4623 Clouds 4 1028 82 10000 4.1 230 18:55 11.01.2020
4624 Clouds 4 1028 82 10000 4.6 230 18:36 11.01.2020
4625 Clouds 4 1028 82 10000 4.6 230 18:18 11.01.2020
4626 Clouds 4 1028 82 10000 4.1 230 17:56 11.01.2020
4627 Clouds 4 1028 82 10000 4.1 230 17:56 11.01.2020
4628 Clouds 4 1028 82 10000 3.6 230 17:37 11.01.2020
4629 Clouds 5 1028 78 10000 3.6 230 17:18 11.01.2020
4630 Clouds 5 1029 78 10000 4.6 250 16:43 11.01.2020
4631 Clouds 5 1029 78 10000 4.1 240 16:24 11.01.2020
4632 Clouds 5 1029 78 10000 4.6 240 15:56 11.01.2020
4633 Clouds 5 1029 78 10000 6.2 220 15:37 11.01.2020
4634 Clouds 5 1029 78 10000 6.2 220 15:19 11.01.2020
4635 Clouds 6 1029 70 10000 5.1 220 14:44 11.01.2020
4636 Clouds 6 1030 65 10000 5.7 220 14:24 11.01.2020
4637 Clouds 6 1030 70 10000 6.2 230 13:56 11.01.2020
4638 Clouds 6 1030 70 10000 5.7 220 13:37 11.01.2020
4639 Clouds 6 1030 70 10000 5.7 220 13:19 11.01.2020
4640 Clouds 6 1031 75 10000 4.6 230 12:44 11.01.2020
4641 Clouds 6 1031 75 10000 5.1 230 12:26 11.01.2020
4642 Clouds 5 1031 75 10000 5.1 230 11:56 11.01.2020
4643 Clouds 5 1031 75 10000 5.1 230 11:38 11.01.2020
4644 Clouds 4 1032 80 10000 3.6 230 11:18 11.01.2020
4645 Clouds 4 1031 80 10000 4.1 230 10:44 11.01.2020
4646 Clouds 3 1031 86 10000 3.6 240 10:24 11.01.2020
4647 Clear 3 1031 93 10000 3.1 230 09:43 11.01.2020
4648 Clear 2 1030 88 10000 2.1 230 09:21 11.01.2020
4649 Clear 2 1029 92 0 0.45 225 08:43 11.01.2020
4650 Clear 2 1029 93 0 0.45 292 08:23 11.01.2020
4651 Clouds 2 1030 95 0 2.97 240 07:59 11.01.2020
4652 Clouds 2 1029 94 0 2.97 240 07:41 11.01.2020
4653 Clouds 2 1029 88 0 3.58 247 07:22 11.01.2020
4654 Clouds 3 1027 96 0 0.45 306 06:42 11.01.2020
4655 Clouds 3 1029 92 0 2.97 240 05:29 11.01.2020
4656 Clouds 3 1026 96 0 3.9 268 04:40 11.01.2020
4657 Clouds 3 1028 91 0 3.9 268 04:21 11.01.2020
4658 Clouds 4 1027 91 0 3.9 268 02:46 11.01.2020
4659 Clouds 4 1027 92 0 5.31 284 01:47 11.01.2020
4660 Clouds 4 1026 92 0 5.31 284 01:25 11.01.2020
4661 Clouds 4 1026 91 0 5.16 284 00:52 11.01.2020
4662 Clouds 4 1026 90 0 5.16 284 00:25 11.01.2020
4663 Clouds 4 1025 90 0 5.16 284 23:58 10.01.2020
4664 Clouds 4 1025 90 0 5.16 284 23:39 10.01.2020
4665 Clouds 4 1023 80 10000 5.1 290 23:20 10.01.2020
4666 Clouds 4 1023 80 10000 5.1 290 22:41 10.01.2020
4667 Clouds 4 1023 80 10000 5.1 290 22:22 10.01.2020
4668 Clouds 4 1023 80 10000 5.7 310 21:59 10.01.2020
4669 Clouds 4 1023 80 10000 5.7 310 21:41 10.01.2020
4670 Rain 5 1022 80 10000 4.6 310 21:20 10.01.2020
4671 Clouds 5 1022 80 10000 6.2 300 20:58 10.01.2020
4672 Clouds 5 1022 80 10000 6.2 300 20:40 10.01.2020
4673 Clouds 5 1022 80 10000 6.2 300 20:40 10.01.2020
4674 Clouds 5 1021 80 10000 6.2 290 20:22 10.01.2020
4675 Clouds 5 1020 70 10000 8.2 300 19:41 10.01.2020
4676 Clouds 5 1020 70 10000 8.2 300 19:21 10.01.2020
4677 Clouds 6 1019 75 10000 9.8 300 18:57 10.01.2020
4678 Clouds 6 1019 75 10000 9.8 300 18:39 10.01.2020
4679 Clouds 6 1018 81 10000 7.7 300 18:18 10.01.2020
4680 Rain 7 1018 87 8000 8.2 280 17:56 10.01.2020
4681 Clouds 7 1016 81 10000 5.1 260 17:38 10.01.2020
4682 Clouds 7 1016 81 10000 5.1 260 17:19 10.01.2020
4683 Clouds 8 1016 87 10000 5.1 250 16:55 10.01.2020
4684 Clouds 8 1015 87 10000 5.7 250 16:36 10.01.2020
4685 Clouds 8 1015 87 10000 5.7 250 16:18 10.01.2020
4686 Drizzle 8 1015 87 10000 6.2 250 15:55 10.01.2020
4687 Clouds 8 1014 81 10000 6.2 250 15:36 10.01.2020
4688 Clouds 8 1014 81 10000 6.2 250 15:18 10.01.2020
4689 Clouds 8 1014 76 10000 5.7 260 14:42 10.01.2020
4690 Clouds 8 1014 81 10000 3.6 250 14:20 10.01.2020
4691 Clouds 9 1014 76 10000 4.6 240 13:58 10.01.2020
4692 Clouds 9 1014 76 10000 4.6 240 13:58 10.01.2020
4693 Clouds 9 1014 76 10000 4.6 240 13:40 10.01.2020
4694 Drizzle 9 1014 76 10000 3.6 260 13:22 10.01.2020
4695 Clouds 9 1014 76 10000 4.6 260 12:57 10.01.2020
4696 Rain 9 1014 76 10000 5.7 250 12:38 10.01.2020
4697 Rain 9 1014 76 10000 5.7 250 12:18 10.01.2020
4698 Clouds 9 1014 76 10000 6.2 240 11:54 10.01.2020
4699 Rain 9 1013 76 10000 5.1 240 11:36 10.01.2020
4700 Rain 9 1013 76 10000 5.1 240 11:18 10.01.2020
4701 Rain 9 1013 81 10000 5.1 250 10:39 10.01.2020
4702 Rain 8 1013 76 10000 5.7 250 10:21 10.01.2020
4703 Rain 8 1012 76 10000 5.1 250 09:56 10.01.2020
4704 Clouds 8 1012 81 10000 6.2 250 09:37 10.01.2020
4705 Clouds 8 1012 81 10000 6.2 250 09:19 10.01.2020
4706 Clouds 9 1011 81 10000 6.7 230 08:41 10.01.2020
4707 Clouds 9 1011 81 10000 5.7 230 08:23 10.01.2020
4708 Clouds 9 1011 81 10000 4.6 220 07:44 10.01.2020
4709 Clouds 9 1011 87 10000 3.6 220 07:26 10.01.2020
4710 Rain 9 1009 99 0 5.16 227 06:46 10.01.2020
4711 Rain 9 1009 10 0 5.16 227 06:26 10.01.2020
4712 Rain 9 1011 96 0 0.89 230 05:48 10.01.2020
4713 Rain 10 1009 92 0 1.34 247 03:37 10.01.2020
4714 Rain 10 1008 99 0 5.79 221 03:18 10.01.2020
4715 Rain 10 1011 97 0 0.45 216 02:47 10.01.2020
4716 Rain 10 1008 89 0 2.68 270 01:44 10.01.2020
4717 Rain 10 1008 90 0 1.34 270 01:26 10.01.2020
4718 Rain 10 1008 90 0 1.34 247 00:40 10.01.2020
4719 Rain 10 1008 91 0 0.89 270 23:58 09.01.2020
4720 Rain 10 1008 93 0 0.45 225 23:39 09.01.2020
4721 Clouds 11 1010 81 10000 4.1 230 23:20 09.01.2020
4722 Clouds 11 1010 81 10000 4.1 230 22:57 09.01.2020
4723 Clouds 11 1010 81 10000 4.1 230 22:39 09.01.2020
4724 Clouds 11 1010 81 10000 4.1 230 22:19 09.01.2020
4725 Clouds 11 1010 81 10000 4.1 230 22:19 09.01.2020
4726 Clouds 11 1010 81 10000 4.1 230 21:57 09.01.2020
4727 Clouds 11 1010 81 10000 4.1 230 21:38 09.01.2020
4728 Clouds 11 1010 81 10000 4.6 230 21:19 09.01.2020
4729 Clouds 11 1010 81 10000 4.1 230 20:58 09.01.2020
4730 Clouds 11 1010 81 10000 4.1 230 20:39 09.01.2020
4731 Clouds 11 1010 81 10000 4.1 230 20:39 09.01.2020
4732 Clouds 11 1010 81 10000 5.1 240 20:20 09.01.2020
4733 Clouds 11 1010 81 10000 5.1 240 19:58 09.01.2020
4734 Clouds 11 1010 81 10000 5.7 230 19:38 09.01.2020
4735 Clouds 11 1010 81 10000 5.7 230 19:19 09.01.2020
4736 Clouds 11 1010 81 10000 5.7 230 18:55 09.01.2020
4737 Clouds 11 1010 81 10000 5.7 230 18:55 09.01.2020
4738 Clouds 11 1010 87 10000 5.7 220 18:37 09.01.2020
4739 Clouds 11 1010 87 10000 5.7 220 18:19 09.01.2020
4740 Clouds 10 1010 81 10000 5.1 220 17:41 09.01.2020
4741 Clouds 10 1010 81 10000 5.1 220 17:41 09.01.2020
4742 Rain 10 1011 81 10000 5.1 220 17:18 09.01.2020
4743 Rain 10 1011 81 10000 5.1 220 16:56 09.01.2020
4744 Rain 10 1011 81 10000 5.7 220 16:36 09.01.2020
4745 Rain 10 1011 81 10000 5.1 220 16:18 09.01.2020
4746 Drizzle 10 1011 87 10000 4.6 220 15:41 09.01.2020
4747 Drizzle 10 1011 87 10000 4.6 220 15:41 09.01.2020
4748 Drizzle 10 1011 87 10000 4.6 210 15:20 09.01.2020
4749 Drizzle 10 1011 87 10000 4.6 210 14:55 09.01.2020
4750 Rain 10 1011 87 10000 5.1 210 14:36 09.01.2020
4751 Drizzle 10 1012 81 10000 5.7 210 14:18 09.01.2020
4752 Drizzle 10 1012 81 10000 5.7 210 13:54 09.01.2020
4753 Drizzle 10 1012 81 10000 3.6 210 13:36 09.01.2020
4754 Drizzle 10 1013 81 10000 4.6 200 13:18 09.01.2020
4755 Drizzle 9 1013 81 10000 4.6 210 12:42 09.01.2020
4756 Drizzle 10 1013 81 10000 4.6 210 12:23 09.01.2020
4757 Drizzle 10 1013 81 10000 3.1 190 11:59 09.01.2020
4758 Clouds 9 1014 81 10000 3.1 190 11:41 09.01.2020
4759 Clouds 9 1014 81 10000 3.1 190 11:22 09.01.2020
4760 Clouds 9 1015 87 10000 2.6 180 10:56 09.01.2020
4761 Clouds 9 1015 87 10000 2.6 180 10:37 09.01.2020
4762 Clouds 9 1015 93 10000 2.1 120 10:19 09.01.2020
4763 Clouds 9 1015 93 10000 2.1 120 10:19 09.01.2020
4764 Clouds 8 1016 87 10000 1.5 0 09:41 09.01.2020
4765 Clouds 8 1016 87 10000 2.6 170 09:22 09.01.2020
4766 Clouds 8 1016 87 10000 2.6 170 08:56 09.01.2020
4767 Clouds 8 1016 93 10000 2.1 160 08:38 09.01.2020
4768 Drizzle 8 1017 93 10000 2.1 140 08:19 09.01.2020
4769 Drizzle 8 1017 93 10000 2.1 150 07:45 09.01.2020
4770 Drizzle 8 1017 93 10000 2.1 150 07:27 09.01.2020
4771 Rain 8 1016 95 0 0.45 292 06:39 09.01.2020
4772 Rain 8 1017 95 0 0.45 292 06:21 09.01.2020
4773 Rain 8 1017 96 0 0.89 292 05:50 09.01.2020
4774 Rain 8 1018 96 0 0.45 292 04:54 09.01.2020
4775 Rain 7 1019 96 0 0.45 270 04:36 09.01.2020
4776 Rain 7 1020 96 0 0.45 270 03:26 09.01.2020
4777 Rain 7 1020 96 0 0.45 270 02:33 09.01.2020
4778 Rain 7 1020 10 0 3.26 214 01:41 09.01.2020
4779 Rain 7 1021 95 0 0.45 270 00:56 09.01.2020
4780 Rain 7 1021 95 0 3.18 203 00:36 09.01.2020
4781 Rain 7 1021 95 0 0.45 270 00:18 09.01.2020
4782 Rain 7 1021 94 0 0.45 270 23:38 08.01.2020
4783 Clouds 7 1022 87 10000 4.1 230 23:20 08.01.2020
4784 Clouds 7 1022 87 10000 4.1 230 22:40 08.01.2020
4785 Clouds 8 1022 87 10000 4.1 230 22:21 08.01.2020
4786 Clouds 8 1022 87 10000 4.1 230 21:58 08.01.2020
4787 Clouds 7 1022 93 10000 4.1 230 21:40 08.01.2020
4788 Clouds 7 1022 93 10000 4.1 230 21:40 08.01.2020
4789 Clouds 7 1022 93 10000 4.1 230 21:20 08.01.2020
4790 Clouds 7 1022 93 10000 4.1 230 20:59 08.01.2020
4791 Clouds 7 1022 87 10000 4.1 230 20:41 08.01.2020
4792 Clouds 7 1023 87 10000 4.1 230 20:21 08.01.2020
4793 Clouds 7 1023 87 10000 4.1 230 19:58 08.01.2020
4794 Clouds 7 1022 87 10000 3.6 220 19:38 08.01.2020
4795 Clouds 7 1022 93 10000 4.1 230 19:19 08.01.2020
4796 Clouds 7 1022 93 10000 4.1 230 18:58 08.01.2020
4797 Clouds 7 1022 87 10000 5.1 230 18:39 08.01.2020
4798 Drizzle 7 1022 87 6000 5.1 230 18:19 08.01.2020
4799 Drizzle 7 1022 87 6000 5.1 230 17:56 08.01.2020
4800 Clouds 7 1022 87 10000 4.1 240 17:38 08.01.2020
4801 Clouds 7 1022 87 10000 5.1 230 17:19 08.01.2020
4802 Clouds 7 1022 87 10000 5.1 230 17:19 08.01.2020
4803 Clouds 7 1022 87 10000 5.1 230 16:55 08.01.2020
4804 Clouds 7 1022 87 10000 5.7 240 16:37 08.01.2020
4805 Clouds 7 1021 87 10000 6.2 240 16:18 08.01.2020
4806 Clouds 7 1021 87 10000 6.2 240 15:44 08.01.2020
4807 Clouds 7 1021 87 10000 6.2 240 15:44 08.01.2020
4808 Clouds 7 1021 87 10000 6.7 240 15:21 08.01.2020
4809 Clouds 7 1021 87 10000 6.7 240 14:58 08.01.2020
4810 Clouds 7 1021 87 10000 6.2 240 14:40 08.01.2020
4811 Clouds 7 1021 87 10000 6.2 240 14:21 08.01.2020
4812 Clouds 7 1021 81 10000 7.2 240 13:41 08.01.2020
4813 Clouds 7 1021 81 8000 6.7 240 13:21 08.01.2020
4814 Clouds 7 1021 81 8000 6.7 240 12:55 08.01.2020
4815 Clouds 6 1021 81 10000 5.7 230 12:36 08.01.2020
4816 Clouds 6 1021 81 10000 5.1 230 12:18 08.01.2020
4817 Clouds 6 1021 81 10000 6.7 230 11:47 08.01.2020
4818 Clouds 6 1021 81 10000 6.7 230 11:19 08.01.2020
4819 Clouds 6 1021 81 10000 6.7 230 11:19 08.01.2020
4820 Clouds 6 1021 81 10000 6.7 230 10:58 08.01.2020
4821 Clouds 6 1021 81 10000 4.6 240 10:40 08.01.2020
4822 Clouds 6 1021 81 10000 4.6 240 10:40 08.01.2020
4823 Clouds 6 1021 81 10000 4.6 240 10:20 08.01.2020
4824 Clouds 5 1021 81 10000 6.2 240 09:43 08.01.2020
4825 Clouds 6 1021 81 10000 6.2 240 09:20 08.01.2020
4826 Clouds 6 1021 81 10000 6.2 240 08:58 08.01.2020
4827 Clouds 6 1021 81 10000 4.6 230 08:40 08.01.2020
4828 Clouds 6 1020 81 10000 5.1 230 08:21 08.01.2020
4829 Clouds 6 1020 75 10000 5.7 240 07:52 08.01.2020
4830 Clouds 6 1020 75 10000 5.7 240 07:33 08.01.2020
4831 Clouds 6 1021 75 10000 6.2 230 06:58 08.01.2020
4832 Rain 6 1021 94 0 5.87 219 06:40 08.01.2020
4833 Rain 6 1023 91 0 5.87 219 05:55 08.01.2020
4834 Rain 6 1020 84 0 2.24 270 05:25 08.01.2020
4835 Clouds 6 1020 84 0 2.68 247 04:36 08.01.2020
4836 Clouds 5 1022 87 0 1.34 292 02:46 08.01.2020
4837 Clouds 5 1023 99 0 6.06 213 02:28 08.01.2020
4838 Clouds 5 1022 87 0 0.89 292 01:56 08.01.2020
4839 Clouds 6 1022 88 0 1.34 270 01:30 08.01.2020
4840 Clouds 5 1028 94 0 5.62 219 00:51 08.01.2020
4841 Clouds 5 1028 94 0 5.62 219 00:22 08.01.2020
4842 Clouds 5 1024 88 0 1.34 270 23:46 07.01.2020
4843 Clouds 5 1028 92 0 3.97 202 23:21 07.01.2020
4844 Clouds 5 1023 88 0 1.79 270 22:56 07.01.2020
4845 Clouds 5 1025 75 10000 2.6 170 22:37 07.01.2020
4846 Clouds 5 1025 75 10000 2.6 170 22:18 07.01.2020
4847 Clouds 4 1025 75 10000 2.6 170 21:42 07.01.2020
4848 Clouds 4 1025 75 10000 3.1 190 21:22 07.01.2020
4849 Clouds 4 1025 75 10000 3.1 190 20:58 07.01.2020
4850 Clouds 3 1025 80 10000 2.6 180 20:40 07.01.2020
4851 Clouds 3 1024 91 0 0.89 270 20:21 07.01.2020
4852 Clouds 4 1025 10 0 4.6 227 19:57 07.01.2020
4853 Clouds 4 1026 80 10000 3.6 220 19:38 07.01.2020
4854 Clouds 4 1027 80 10000 3.6 230 19:19 07.01.2020
4855 Clouds 4 1027 80 10000 3.6 230 18:56 07.01.2020
4856 Clouds 4 1026 86 10000 3.6 220 18:38 07.01.2020
4857 Clouds 4 1026 80 10000 3.1 220 18:18 07.01.2020
4858 Clouds 4 1026 80 10000 3.1 220 18:18 07.01.2020
4859 Clouds 4 1026 80 10000 3.1 220 17:55 07.01.2020
4860 Clouds 4 1027 86 10000 4.1 230 17:36 07.01.2020
4861 Clouds 4 1027 86 10000 3.6 220 17:18 07.01.2020
4862 Clouds 5 1027 86 10000 3.6 220 16:55 07.01.2020
4863 Clouds 5 1026 87 10000 3.6 230 16:36 07.01.2020
4864 Clouds 5 1026 87 10000 3.1 220 16:18 07.01.2020
4865 Clouds 5 1026 81 10000 5.1 240 15:43 07.01.2020
4866 Clouds 5 1026 81 10000 5.1 240 15:24 07.01.2020
4867 Clouds 5 1026 81 10000 4.1 240 14:58 07.01.2020
4868 Clouds 5 1025 81 10000 4.1 240 14:40 07.01.2020
4869 Clouds 5 1025 87 9000 4.1 240 14:21 07.01.2020
4870 Clouds 5 1025 87 8000 4.6 250 13:46 07.01.2020
4871 Clouds 5 1025 87 8000 4.6 240 13:21 07.01.2020
4872 Clouds 5 1025 87 8000 4.6 240 12:56 07.01.2020
4873 Clouds 4 1025 86 10000 4.6 240 12:38 07.01.2020
4874 Clouds 4 1025 86 10000 4.6 240 12:19 07.01.2020
4875 Clouds 4 1025 86 10000 4.6 250 11:42 07.01.2020
4876 Clouds 4 1025 86 10000 4.6 250 11:23 07.01.2020
4877 Clouds 4 1025 93 10000 4.6 250 10:58 07.01.2020
4878 Clouds 4 1025 86 10000 5.1 250 10:39 07.01.2020
4879 Clouds 3 1024 93 10000 4.1 270 10:21 07.01.2020
4880 Clouds 3 1024 93 10000 4.1 270 09:55 07.01.2020
4881 Clouds 3 1024 93 8000 3.1 250 09:37 07.01.2020
4882 Drizzle 2 1023 93 6000 3.6 250 09:19 07.01.2020
4883 Drizzle 2 1023 93 4700 3.6 240 08:41 07.01.2020
4884 Drizzle 2 1022 93 3100 3.6 240 08:18 07.01.2020
4885 Drizzle 2 1022 93 3000 3.6 240 07:47 07.01.2020
4886 Drizzle 2 1022 93 3000 3.6 240 07:23 07.01.2020
4887 Drizzle 2 1021 93 7000 3.6 240 06:50 07.01.2020
4888 Drizzle 2 1021 93 7000 3.6 240 06:30 07.01.2020
4889 Clouds 1 1020 95 0 2.24 35 05:41 07.01.2020
4890 Clouds 1 1019 87 0 1.34 270 03:52 07.01.2020
4891 Clouds 1 1019 87 0 1.34 270 03:52 07.01.2020
4892 Clouds 1 1019 96 0 0.89 134 03:25 07.01.2020
4893 Clouds 1 1019 86 0 1.34 270 02:20 07.01.2020
4894 Clouds 0 1019 86 0 1.34 225 01:40 07.01.2020
4895 Clouds 0 1019 86 0 1.34 225 01:40 07.01.2020
4896 Clouds 0 1019 86 0 1.34 225 01:40 07.01.2020
4897 Clouds 0 1018 86 0 1.34 270 01:18 07.01.2020
4898 Clouds 0 1023 82 0 4.17 223 00:21 07.01.2020
4899 Clouds 0 1018 99 0 4.17 223 23:58 06.01.2020
4900 Clouds 0 1020 86 10000 2.1 100 23:38 06.01.2020
4901 Clear -1 1020 86 10000 2.1 100 23:20 06.01.2020
4902 Clear 0 1020 86 10000 2.1 100 22:55 06.01.2020
4903 Clear 0 1020 86 10000 2.1 100 22:37 06.01.2020
4904 Clear 0 1020 86 10000 1.5 0 22:18 06.01.2020
4905 Clear 0 1020 86 10000 1.5 0 21:54 06.01.2020
4906 Clear 0 1021 81 10000 1 110 21:36 06.01.2020
4907 Clear 0 1021 81 10000 1 0 21:18 06.01.2020
4908 Clear 0 1021 81 10000 1 0 20:54 06.01.2020
4909 Clear 0 1022 81 10000 1.5 140 20:36 06.01.2020
4910 Clear 0 1022 80 10000 1.5 120 20:18 06.01.2020
4911 Clouds 0 1022 80 10000 1.5 120 20:18 06.01.2020
4912 Clouds 0 1022 80 10000 1.5 120 19:54 06.01.2020
4913 Clouds 0 1022 74 10000 1.5 110 19:36 06.01.2020
4914 Clouds 1 1022 74 10000 1.5 0 19:18 06.01.2020
4915 Clouds 2 1023 69 10000 3.1 210 18:41 06.01.2020
4916 Clouds 2 1023 88 10000 4.1 190 18:19 06.01.2020
4917 Clouds 3 1024 88 10000 2.6 190 17:39 06.01.2020
4918 Clouds 4 1024 81 10000 2.1 210 17:19 06.01.2020
4919 Clouds 4 1024 81 10000 2.1 210 16:55 06.01.2020
4920 Clouds 4 1024 81 10000 4.1 220 16:36 06.01.2020
4921 Clouds 4 1024 75 10000 3.1 220 16:18 06.01.2020
4922 Clouds 4 1024 75 10000 3.6 220 15:42 06.01.2020
4923 Clouds 5 1025 75 10000 3.6 220 15:21 06.01.2020
4924 Clouds 5 1025 75 10000 3.6 220 14:59 06.01.2020
4925 Clouds 5 1025 75 10000 3.1 220 14:41 06.01.2020
4926 Clouds 5 1025 75 10000 3.1 230 14:21 06.01.2020
4927 Clouds 5 1025 75 10000 3.1 230 14:21 06.01.2020
4928 Clouds 5 1025 75 10000 3.1 230 13:58 06.01.2020
4929 Clouds 5 1026 75 10000 3.6 220 13:38 06.01.2020
4930 Clouds 5 1026 75 10000 3.6 230 13:20 06.01.2020
4931 Clouds 5 1026 75 10000 3.1 220 12:44 06.01.2020
4932 Clouds 4 1027 75 10000 4.6 220 12:21 06.01.2020
4933 Clouds 4 1027 75 10000 4.6 220 11:59 06.01.2020
4934 Clouds 5 1027 75 10000 4.1 240 11:41 06.01.2020
4935 Clouds 5 1027 75 10000 4.1 240 11:23 06.01.2020
4936 Clouds 5 1027 75 10000 3.6 230 10:58 06.01.2020
4937 Clouds 4 1028 75 10000 3.6 240 10:40 06.01.2020
4938 Clouds 4 1028 75 10000 4.1 230 10:20 06.01.2020
4939 Clouds 4 1028 75 10000 3.6 230 09:39 06.01.2020
4940 Clouds 4 1028 75 10000 3.1 230 09:20 06.01.2020
4941 Clouds 5 1028 75 10000 2.6 250 08:48 06.01.2020
4942 Clouds 5 1028 75 10000 2.6 250 08:48 06.01.2020
4943 Clouds 4 1028 75 10000 2.6 250 08:30 06.01.2020
4944 Clouds 4 1028 75 10000 3.6 240 07:56 06.01.2020
4945 Clouds 4 1028 75 10000 3.6 240 07:33 06.01.2020
4946 Clouds 4 1027 88 0 4.08 232 06:46 06.01.2020
4947 Clouds 4 1027 87 0 4.08 232 06:23 06.01.2020
4948 Clouds 4 1029 97 0 4.08 232 05:45 06.01.2020
4949 Clouds 4 1032 89 0 4.9 245 04:52 06.01.2020
4950 Clouds 4 1028 88 0 0.45 270 04:19 06.01.2020
4951 Clouds 4 1028 10 0 0.89 283 02:56 06.01.2020
4952 Clouds 4 1028 89 0 0.89 270 02:24 06.01.2020
4953 Clouds 4 1029 91 0 0.45 270 01:45 06.01.2020
4954 Clouds 4 1028 10 0 4.01 243 01:26 06.01.2020
4955 Clouds 4 1029 94 0 0.45 270 00:42 06.01.2020
4956 Clouds 4 1029 95 0 0.45 270 00:23 06.01.2020
4957 Clouds 4 1030 95 0 0.45 270 23:43 05.01.2020
4958 Clouds 4 1030 95 0 0.45 270 23:23 05.01.2020
4959 Clouds 4 1031 97 0 4.01 238 22:58 05.01.2020
4960 Clouds 4 1030 95 0 0.45 270 22:39 05.01.2020
4961 Clouds 4 1030 95 0 0.89 270 22:20 05.01.2020
4962 Clouds 4 1031 97 0 4.01 238 21:55 05.01.2020
4963 Clouds 4 1032 80 10000 4.1 230 21:37 05.01.2020
4964 Clouds 4 1032 80 10000 4.1 230 21:37 05.01.2020
4965 Clouds 4 1032 80 10000 4.1 230 21:19 05.01.2020
4966 Clouds 4 1032 80 10000 4.1 230 20:55 05.01.2020
4967 Clouds 4 1032 86 10000 4.1 220 20:37 05.01.2020
4968 Clouds 4 1032 86 10000 4.1 220 20:19 05.01.2020
4969 Clouds 4 1032 86 10000 4.1 220 19:56 05.01.2020
4970 Clouds 4 1032 86 10000 4.1 230 19:37 05.01.2020
4971 Clouds 4 1032 86 10000 3.6 240 19:19 05.01.2020
4972 Clouds 4 1032 86 10000 3.6 240 18:55 05.01.2020
4973 Clouds 4 1032 93 10000 3.6 250 18:36 05.01.2020
4974 Clouds 4 1032 86 10000 3.1 240 18:18 05.01.2020
4975 Clouds 4 1032 86 10000 3.1 240 17:57 05.01.2020
4976 Clouds 4 1032 93 10000 2.6 240 17:37 05.01.2020
4977 Clouds 3 1033 93 10000 2.1 210 17:19 05.01.2020
4978 Clouds 4 1033 93 10000 2.1 210 16:55 05.01.2020
4979 Clouds 3 1033 93 10000 2.6 200 16:37 05.01.2020
4980 Clouds 3 1033 93 10000 2.6 200 16:19 05.01.2020
4981 Clouds 3 1033 93 10000 2.6 200 16:19 05.01.2020
4982 Clouds 4 1033 93 10000 2.6 210 15:37 05.01.2020
4983 Mist 4 1033 93 4200 2.1 210 15:18 05.01.2020
4984 Mist 4 1033 93 4200 2.1 210 14:55 05.01.2020
4985 Mist 4 1033 86 4000 2.6 230 14:36 05.01.2020
4986 Clouds 3 1033 80 10000 3.1 200 14:18 05.01.2020
4987 Clouds 4 1033 75 10000 2.6 180 13:40 05.01.2020
4988 Clouds 4 1034 75 10000 1.5 0 13:21 05.01.2020
4989 Clouds 3 1034 75 10000 1.5 0 12:58 05.01.2020
4990 Clouds 3 1034 80 10000 2.1 220 12:39 05.01.2020
4991 Clouds 3 1034 80 10000 2.1 220 12:39 05.01.2020
4992 Clouds 3 1034 79 10000 2.6 210 12:21 05.01.2020
4993 Clouds 3 1034 79 10000 2.6 210 11:58 05.01.2020
4994 Clouds 3 1034 79 10000 1.5 0 11:39 05.01.2020
4995 Clouds 3 1034 79 10000 1.5 0 11:39 05.01.2020
4996 Clouds 2 1034 83 10000 2.1 240 11:19 05.01.2020
4997 Clouds 2 1034 83 10000 2.1 240 11:19 05.01.2020
4998 Clouds 2 1034 83 10000 2.1 240 10:56 05.01.2020
4999 Clear 1 1034 80 10000 2.68 224 10:36 05.01.2020
5000 Clear 1 1034 80 10000 2.68 224 10:18 05.01.2020
5001 Clouds 0 1034 86 10000 2.68 224 09:41 05.01.2020
5002 Clouds 0 1033 86 10000 0.5 240 09:21 05.01.2020
5003 Clear 0 1032 94 0 2.68 224 08:48 05.01.2020
5004 Clear 0 1032 95 0 2.68 224 08:29 05.01.2020
5005 Clouds 0 1032 94 0 3 248 07:55 05.01.2020
5006 Clouds 0 1031 95 0 3 248 07:36 05.01.2020
5007 Clouds 0 1031 94 0 3 248 07:18 05.01.2020
5008 Clouds 1 1031 94 0 3 248 05:59 05.01.2020
5009 Clouds 1 1030 92 0 3 248 05:30 05.01.2020
5010 Clouds 2 1031 92 0 3.76 274 04:43 05.01.2020
5011 Clouds 2 1031 93 0 3.76 274 03:52 05.01.2020
5012 Clouds 2 1031 94 0 3.76 274 02:46 05.01.2020
5013 Clouds 2 1031 94 0 3.76 274 02:24 05.01.2020
5014 Clouds 2 1030 94 0 4.06 282 01:48 05.01.2020
5015 Clouds 2 1030 95 0 4.01 284 01:18 05.01.2020
5016 Clouds 1 1027 94 0 0.45 116 00:41 05.01.2020
5017 Clouds 2 1029 94 0 4.01 284 00:23 05.01.2020
5018 Clouds 2 1027 91 0 4.01 284 23:59 04.01.2020
5019 Clouds 2 1028 94 0 4.01 284 23:40 04.01.2020
5020 Clear 2 1028 93 0 4.45 283 23:19 04.01.2020
5021 Clear 2 1028 94 0 4.45 283 22:40 04.01.2020
5022 Clear 2 1027 95 0 4.45 283 22:22 04.01.2020
5023 Clear 2 1027 95 0 4.45 283 21:58 04.01.2020
5024 Clear 2 1030 88 0 4.45 283 21:39 04.01.2020
5025 Clear 2 1027 93 0 4.45 283 21:20 04.01.2020
5026 Clear 3 1027 95 0 0.89 288 20:59 04.01.2020
5027 Clear 3 1024 92 0 4.45 283 20:40 04.01.2020
5028 Rain 3 1026 91 0 4.91 292 20:21 04.01.2020
5029 Rain 3 1026 96 0 4.91 292 19:57 04.01.2020
5030 Rain 3 1026 96 0 4.91 292 19:57 04.01.2020
5031 Rain 3 1023 94 0 0.89 328 19:38 04.01.2020
5032 Clouds 3 1023 86 10000 5.1 300 19:20 04.01.2020
5033 Clouds 3 1023 86 10000 5.1 300 18:55 04.01.2020
5034 Clouds 3 1023 86 10000 5.1 300 18:36 04.01.2020
5035 Clouds 3 1023 86 10000 5.1 300 18:18 04.01.2020
5036 Rain 4 1022 86 10000 5.7 290 17:41 04.01.2020
5037 Clouds 3 1022 86 10000 5.1 290 17:23 04.01.2020
5038 Clouds 4 1022 86 10000 5.1 290 16:58 04.01.2020
5039 Clouds 4 1021 93 10000 5.1 280 16:39 04.01.2020
5040 Clouds 4 1021 93 10000 5.1 280 16:39 04.01.2020
5041 Clouds 4 1021 86 10000 4.1 320 16:21 04.01.2020
5042 Clouds 5 1021 86 10000 4.1 320 15:54 04.01.2020
5043 Rain 5 1021 86 6000 8.2 310 15:36 04.01.2020
5044 Rain 5 1019 87 9000 9.3 270 15:18 04.01.2020
5045 Rain 5 1019 87 10000 9.3 270 14:42 04.01.2020
5046 Drizzle 5 1020 87 10000 8.2 280 14:20 04.01.2020
5047 Drizzle 5 1020 87 10000 8.2 280 13:59 04.01.2020
5048 Drizzle 5 1020 87 10000 8.2 280 13:59 04.01.2020
5049 Clouds 5 1020 87 10000 8.7 270 13:38 04.01.2020
5050 Rain 5 1020 93 9000 8.2 270 13:19 04.01.2020
5051 Rain 5 1020 93 9000 8.2 270 12:57 04.01.2020
5052 Clouds 5 1020 86 10000 8.2 270 12:39 04.01.2020
5053 Drizzle 5 1020 86 10000 8.7 260 12:18 04.01.2020
5054 Drizzle 5 1020 86 10000 8.7 260 11:57 04.01.2020
5055 Drizzle 5 1020 86 10000 7.7 260 11:37 04.01.2020
5056 Clouds 5 1021 86 10000 7.7 260 11:18 04.01.2020
5057 Rain 5 1021 86 10000 7.2 270 10:41 04.01.2020
5058 Clouds 5 1021 80 10000 7.2 260 10:22 04.01.2020
5059 Clouds 5 1022 80 10000 6.2 260 09:48 04.01.2020
5060 Clouds 5 1022 80 10000 6.2 260 09:26 04.01.2020
5061 Clouds 5 1022 80 10000 6.2 260 08:49 04.01.2020
5062 Clouds 5 1022 80 10000 6.2 260 08:29 04.01.2020
5063 Clouds 4 1022 86 10000 6.7 250 07:59 04.01.2020
5064 Clouds 4 1022 86 10000 6.2 260 07:40 04.01.2020
5065 Clouds 4 1023 93 0 2.68 252 06:46 04.01.2020
5066 Clouds 4 1022 88 0 1.34 270 05:59 04.01.2020
5067 Clouds 4 1022 88 0 1.34 270 05:18 04.01.2020
5068 Clouds 4 1022 90 0 1.34 270 04:33 04.01.2020
5069 Clouds 4 1022 90 0 0.45 270 03:39 04.01.2020
5070 Clouds 4 1022 91 0 7.42 264 03:18 04.01.2020
5071 Clouds 4 1022 91 0 5.01 267 02:21 04.01.2020
5072 Clouds 5 1022 91 0 0.45 270 01:53 04.01.2020
5073 Clouds 5 1022 92 0 0.45 270 01:30 04.01.2020
5074 Clouds 5 1022 92 0 4.58 264 00:41 04.01.2020
5075 Clouds 5 1022 92 0 0.45 270 00:22 04.01.2020
5076 Clouds 5 1022 96 0 3.13 287 23:41 03.01.2020
5077 Clouds 5 1021 94 0 4.58 264 23:23 03.01.2020
5078 Rain 5 1019 87 10000 5.7 310 22:41 03.01.2020
5079 Rain 5 1019 87 10000 5.7 310 22:20 03.01.2020
5080 Rain 6 1019 87 10000 5.7 310 21:58 03.01.2020
5081 Rain 6 1017 87 10000 7.2 320 21:38 03.01.2020
5082 Rain 6 1016 93 10000 5.7 290 21:19 03.01.2020
5083 Rain 6 1016 93 10000 5.7 290 21:19 03.01.2020
5084 Rain 7 1016 93 10000 5.7 290 20:58 03.01.2020
5085 Rain 7 1015 87 10000 5.7 270 20:40 03.01.2020
5086 Rain 7 1014 93 7000 6.2 240 20:18 03.01.2020
5087 Rain 7 1014 93 7000 6.2 240 19:56 03.01.2020
5088 Rain 7 1014 87 8000 6.2 230 19:37 03.01.2020
5089 Rain 7 1014 87 10000 5.7 220 19:19 03.01.2020
5090 Clouds 7 1013 87 10000 6.2 240 18:43 03.01.2020
5091 Clouds 7 1013 87 10000 6.2 240 18:24 03.01.2020
5092 Clouds 7 1013 87 10000 6.2 240 17:56 03.01.2020
5093 Clouds 7 1014 81 10000 5.7 220 17:37 03.01.2020
5094 Clouds 7 1014 81 10000 5.7 220 17:19 03.01.2020
5095 Clouds 6 1014 81 10000 6.2 230 16:42 03.01.2020
5096 Clouds 7 1014 81 10000 6.2 230 16:24 03.01.2020
5097 Clouds 7 1014 81 10000 6.2 230 15:57 03.01.2020
5098 Clouds 7 1014 81 10000 6.2 230 15:38 03.01.2020
5099 Clouds 7 1014 75 10000 6.2 230 15:18 03.01.2020
5100 Clouds 7 1014 81 10000 6.7 240 14:38 03.01.2020
5101 Clouds 7 1014 81 10000 6.7 240 14:38 03.01.2020
5102 Clouds 7 1014 81 10000 6.7 230 14:19 03.01.2020
5103 Clouds 7 1014 75 10000 6.7 230 13:44 03.01.2020
5104 Clouds 7 1014 75 10000 6.7 230 13:44 03.01.2020
5105 Clouds 7 1014 75 10000 6.7 230 13:44 03.01.2020
5106 Clouds 7 1014 75 10000 6.7 230 13:24 03.01.2020
5107 Clouds 7 1015 75 10000 6.7 230 12:59 03.01.2020
5108 Clouds 7 1015 75 10000 5.7 230 12:39 03.01.2020
5109 Clouds 6 1015 75 10000 5.7 230 12:21 03.01.2020
5110 Clouds 6 1016 75 10000 6.2 220 11:47 03.01.2020
5111 Clouds 6 1016 75 10000 6.2 220 11:23 03.01.2020
5112 Clouds 6 1016 81 10000 6.2 220 10:47 03.01.2020
5113 Clouds 6 1016 81 10000 6.2 220 10:27 03.01.2020
5114 Clouds 6 1016 81 10000 6.7 220 09:59 03.01.2020
5115 Clouds 5 1016 81 10000 5.7 220 09:40 03.01.2020
5116 Clouds 5 1016 75 10000 6.2 220 09:22 03.01.2020
5117 Clouds 5 1016 75 10000 6.2 220 08:57 03.01.2020
5118 Clouds 5 1016 75 10000 5.7 220 08:38 03.01.2020
5119 Clouds 5 1017 75 10000 5.7 220 08:19 03.01.2020
5120 Clouds 5 1017 75 10000 5.1 220 07:40 03.01.2020
5121 Clouds 5 1017 75 10000 5.7 220 07:19 03.01.2020
5122 Clouds 4 1018 94 0 5.77 221 06:51 03.01.2020
5123 Clouds 4 1017 91 0 0.89 270 06:33 03.01.2020
5124 Clouds 4 1017 92 0 1.34 270 05:47 03.01.2020
5125 Clouds 3 1017 92 0 1.34 270 04:27 03.01.2020
5126 Clouds 3 1018 91 0 1.79 292 02:59 03.01.2020
5127 Clouds 3 1019 91 0 1.79 270 02:41 03.01.2020
5128 Clear 3 1019 91 0 1.34 270 01:45 03.01.2020
5129 Clear 3 1020 97 0 0.45 304 00:56 03.01.2020
5130 Clear 3 1022 93 0 4.38 213 00:31 03.01.2020
5131 Clear 3 1020 96 0 0.45 294 23:58 02.01.2020
5132 Clear 3 1021 96 0 0.45 295 23:39 02.01.2020
5133 Clouds 2 1022 86 10000 4.1 210 23:19 02.01.2020
5134 Clouds 2 1022 86 10000 4.1 210 22:58 02.01.2020
5135 Clouds 2 1022 86 10000 4.1 210 22:39 02.01.2020
5136 Clouds 2 1022 86 10000 4.1 210 22:19 02.01.2020
5137 Clouds 2 1022 86 10000 4.1 210 21:54 02.01.2020
5138 Clouds 2 1023 88 10000 3.6 230 21:36 02.01.2020
5139 Clouds 2 1023 88 10000 3.6 230 21:36 02.01.2020
5140 Clouds 2 1023 80 10000 2.1 200 21:18 02.01.2020
5141 Clouds 2 1023 80 10000 2.1 180 20:40 02.01.2020
5142 Clouds 2 1024 80 10000 1.5 0 20:21 02.01.2020
5143 Clouds 2 1024 80 10000 1.5 0 19:56 02.01.2020
5144 Clouds 2 1024 80 10000 1.5 0 19:56 02.01.2020
5145 Clouds 1 1024 80 10000 3.6 220 19:38 02.01.2020
5146 Clouds 1 1024 80 10000 4.1 240 19:19 02.01.2020
5147 Clouds 1 1024 80 10000 4.1 240 18:59 02.01.2020
5148 Clouds 1 1024 90 10000 4.1 250 18:40 02.01.2020
5149 Clouds 1 1024 90 10000 5.7 240 18:22 02.01.2020
5150 Clouds 1 1024 90 10000 5.7 240 17:57 02.01.2020
5151 Clear 0 1024 90 10000 5.1 240 17:38 02.01.2020
5152 Clear 0 1024 74 10000 5.7 240 17:19 02.01.2020
5153 Clear 0 1024 74 10000 5.7 240 16:57 02.01.2020
5154 Clear 1 1023 69 10000 7.2 240 16:39 02.01.2020
5155 Clear 1 1023 69 10000 7.2 250 16:20 02.01.2020
5156 Clear 1 1023 69 10000 7.2 250 15:56 02.01.2020
5157 Clear 2 1024 64 10000 6.2 250 15:37 02.01.2020
5158 Clear 2 1024 64 10000 5.7 250 15:19 02.01.2020
5159 Clear 3 1024 65 10000 4.6 270 14:55 02.01.2020
5160 Clear 3 1024 65 10000 4.6 270 14:36 02.01.2020
5161 Clear 3 1024 60 10000 4.6 260 14:18 02.01.2020
5162 Clear 4 1025 65 10000 4.6 250 13:47 02.01.2020
5163 Clear 4 1025 65 10000 4.6 250 13:29 02.01.2020
5164 Clear 4 1025 65 10000 4.6 250 12:45 02.01.2020
5165 Clear 4 1025 65 10000 4.6 250 12:25 02.01.2020
5166 Clear 3 1026 69 10000 3.1 260 11:57 02.01.2020
5167 Clear 3 1026 69 10000 3.1 260 11:37 02.01.2020
5168 Clear 2 1026 64 10000 2.1 230 11:19 02.01.2020
5169 Clear 1 1026 50 10000 1.91 223 10:43 02.01.2020
5170 Clear 0 1026 50 10000 1.91 223 10:25 02.01.2020
5171 Clear -1 1027 85 10000 2.1 100 09:46 02.01.2020
5172 Clear -1 1027 85 10000 2.1 100 09:28 02.01.2020
5173 Clear -1 1027 79 10000 1.5 230 08:45 02.01.2020
5174 Clear -1 1027 79 10000 1.5 230 08:27 02.01.2020
5175 Clear -2 1027 85 10000 2.1 110 07:51 02.01.2020
5176 Clear -2 1027 85 10000 2.1 110 07:30 02.01.2020
5177 Clear -2 1026 75 0 0.45 270 06:45 02.01.2020
5178 Clear -2 1027 60 0 1.79 38 06:26 02.01.2020
5179 Clear -2 1026 71 0 0.45 270 05:21 02.01.2020
5180 Clear -1 1026 48 0 0.76 206 04:31 02.01.2020
5181 Clear -1 1027 75 0 0.45 270 02:37 02.01.2020
5182 Clear -2 1027 63 0 1.91 213 01:59 02.01.2020
5183 Clear -1 1027 74 0 0.89 270 01:33 02.01.2020
5184 Clear -2 1027 75 0 1.34 270 00:57 02.01.2020
5185 Clear -2 1028 73 0 0.89 270 00:33 02.01.2020
5186 Clear -1 1033 79 0 1.76 206 23:52 01.01.2020
5187 Clear -1 1028 72 0 1.76 206 23:28 01.01.2020
5188 Clear -1 1028 71 0 2.22 217 22:56 01.01.2020
5189 Clear -1 1028 74 0 1.34 270 22:38 01.01.2020
5190 Clear -1 1028 74 0 0.89 270 22:19 01.01.2020
5191 Clear -1 1028 75 0 1.34 270 21:56 01.01.2020
5192 Clear -1 1028 77 0 0.89 292 21:37 01.01.2020
5193 Clear -1 1028 78 0 0.89 270 21:18 01.01.2020
5194 Clear 0 1028 76 0 1.34 270 20:54 01.01.2020
5195 Clear 0 1029 75 0 0.89 270 20:36 01.01.2020
5196 Clear 0 1030 72 0 2.68 35 20:18 01.01.2020
5197 Clear 0 1029 78 0 0.89 292 19:54 01.01.2020
5198 Clear 0 1029 78 0 0.89 292 19:54 01.01.2020
5199 Clear 0 1029 80 0 1.34 270 19:36 01.01.2020
5200 Clear 0 1030 77 0 2.24 40 19:18 01.01.2020
5201 Clear 0 1029 78 0 0.89 270 18:54 01.01.2020
5202 Clear 0 1029 79 0 0.89 270 18:36 01.01.2020
5203 Clear 0 1029 81 0 1.34 270 18:18 01.01.2020
5204 Clear 0 1030 82 0 1.63 216 17:55 01.01.2020
5205 Clear 0 1029 83 0 1.34 270 17:36 01.01.2020
5206 Clear 1 1029 83 0 0.89 292 17:18 01.01.2020
5207 Clear 1 1029 82 0 0.89 270 16:39 01.01.2020
5208 Clear 2 1029 81 0 1.79 270 16:20 01.01.2020
5209 Clear 3 1031 82 0 0.9 202 15:57 01.01.2020
5210 Clear 3 1030 78 0 0.89 270 15:39 01.01.2020
5211 Clear 3 1030 76 0 0.89 292 15:20 01.01.2020
5212 Clear 4 1030 75 0 0.89 270 14:57 01.01.2020
5213 Clear 4 1030 77 0 0.45 270 14:39 01.01.2020
5214 Clouds 4 1030 78 0 0.89 270 14:20 01.01.2020
5215 Clouds 4 1030 78 0 0.55 121 13:56 01.01.2020
5216 Clouds 4 1030 81 0 0.89 270 13:37 01.01.2020
5217 Clouds 4 1030 81 0 0.89 270 13:37 01.01.2020
5218 Clear 4 1030 81 0 1.34 270 13:18 01.01.2020
5219 Clear 3 1031 85 0 1.01 107 12:55 01.01.2020
5220 Clear 3 1031 82 0 1.34 270 12:37 01.01.2020
5221 Clear 2 1031 85 0 0.89 270 12:18 01.01.2020
5222 Clear 2 1032 87 0 0.89 270 11:43 01.01.2020
5223 Clouds 1 1032 90 0 0.89 270 11:22 01.01.2020
5224 Clouds 0 1032 92 0 0.89 292 10:58 01.01.2020
5225 Clouds 0 1032 94 0 0.89 270 10:40 01.01.2020
5226 Clouds -1 1032 94 0 0.45 270 10:20 01.01.2020
5227 Clouds -1 1032 99 0 0.91 214 09:55 01.01.2020
5228 Clouds -1 1032 96 0 0.45 270 09:36 01.01.2020
5229 Clouds -1 1032 96 0 0.91 214 09:18 01.01.2020
5230 Clouds -2 1032 96 0 0.91 214 08:54 01.01.2020
5231 Clouds -2 1032 96 0 0.45 270 08:36 01.01.2020
5232 Clear -2 1032 97 0 1.37 224 08:18 01.01.2020
5233 Clear -2 1032 96 0 1.37 224 07:45 01.01.2020
5234 Clear -2 1032 99 0 1.37 224 07:26 01.01.2020
5235 Clear -2 1032 96 0 1.37 224 06:44 01.01.2020
5236 Clear -2 1032 96 0 1.37 224 06:20 01.01.2020
5237 Clear -1 1032 96 0 1.7 237 04:44 01.01.2020
5238 Clear -1 1032 95 0 1.7 237 03:43 01.01.2020
5239 Clear -1 1032 94 0 1.7 237 03:22 01.01.2020
5240 Clear 0 1031 98 0 1.7 237 02:56 01.01.2020
5241 Clear 0 1032 94 0 1.7 237 02:33 01.01.2020
5242 Clouds 0 1032 94 0 2.7 240 01:45 01.01.2020
5243 Clouds 1 1033 95 0 2.7 240 01:25 01.01.2020
5244 Clouds 0 1033 93 0 2.75 242 00:57 01.01.2020
5245 Clouds 1 1033 93 0 2.75 242 00:38 01.01.2020
5246 Clouds 1 1033 93 0 2.75 242 00:20 01.01.2020
5247 Clouds 1 1033 94 0 2.75 242 23:40 31.12.2019
5248 Clouds 1 1033 93 0 2.97 256 23:21 31.12.2019
5249 Clouds 1 1032 99 0 2.97 256 22:57 31.12.2019
5250 Clouds 2 1033 93 0 2.97 256 22:38 31.12.2019
5251 Clouds 2 1033 93 0 2.97 256 22:19 31.12.2019
5252 Clouds 2 1033 92 0 2.97 256 21:56 31.12.2019
5253 Clouds 3 1033 91 0 2.97 256 21:37 31.12.2019
5254 Clouds 3 1033 91 0 2.97 256 21:19 31.12.2019
5255 Clouds 3 1033 91 0 2.97 256 21:19 31.12.2019
5256 Clouds 4 1033 91 0 2.97 256 20:54 31.12.2019
5257 Clouds 4 1033 90 0 2.97 256 20:36 31.12.2019
5258 Clouds 4 1033 90 0 3.16 249 20:18 31.12.2019
5259 Clouds 4 1033 89 0 3.16 249 19:41 31.12.2019
5260 Clouds 4 1032 88 0 3.16 249 19:22 31.12.2019
5261 Clouds 4 1031 95 0 3.16 249 18:59 31.12.2019
5262 Clouds 4 1032 87 0 3.16 249 18:40 31.12.2019
5263 Clouds 5 1032 87 0 3.16 249 18:20 31.12.2019
5264 Clouds 5 1031 95 0 3.16 249 17:57 31.12.2019
5265 Clouds 5 1032 87 0 3.16 249 17:38 31.12.2019
5266 Clouds 5 1032 87 0 3.54 272 17:19 31.12.2019
5267 Clouds 5 1030 94 0 3.54 272 16:57 31.12.2019
5268 Clouds 5 1032 87 0 3.54 272 16:38 31.12.2019
5269 Clouds 5 1031 88 0 3.54 272 16:19 31.12.2019
5270 Clouds 5 1030 89 0 3.54 272 15:57 31.12.2019
5271 Clouds 6 1031 87 0 3.54 272 15:39 31.12.2019
5272 Clouds 6 1031 87 0 3.54 272 15:21 31.12.2019
5273 Clouds 6 1034 90 0 3.54 272 14:58 31.12.2019
5274 Clouds 6 1031 89 0 3.54 272 14:39 31.12.2019
5275 Clouds 6 1030 89 0 4.84 295 14:19 31.12.2019
5276 Clouds 6 1029 88 0 4.84 295 13:58 31.12.2019
5277 Clouds 6 1031 89 0 4.84 295 13:40 31.12.2019
5278 Clouds 5 1030 90 0 5.12 296 13:21 31.12.2019
5279 Clouds 5 1030 90 0 5.12 296 12:58 31.12.2019
5280 Clouds 5 1031 96 0 5.12 296 12:40 31.12.2019
5281 Clouds 5 1028 89 0 5.12 296 12:40 31.12.2019
5282 Clouds 5 1030 91 0 5.12 296 12:20 31.12.2019
5283 Clouds 5 1030 92 0 5.12 296 11:56 31.12.2019
5284 Clouds 5 1030 94 0 5.12 296 11:38 31.12.2019
5285 Clouds 5 1030 94 0 5.12 296 11:38 31.12.2019
5286 Clouds 4 1030 94 0 4.84 272 11:20 31.12.2019
5287 Clouds 4 1030 94 0 4.84 272 10:58 31.12.2019
5288 Clouds 4 1030 94 0 4.84 272 10:38 31.12.2019
5289 Clouds 4 1029 93 0 4.84 272 10:20 31.12.2019
5290 Clouds 4 1029 93 0 4.84 272 09:59 31.12.2019
5291 Clouds 4 1029 94 0 4.84 272 09:39 31.12.2019
5292 Clouds 4 1029 94 0 4.84 272 09:20 31.12.2019
5293 Clouds 4 1029 93 0 4.84 272 08:57 31.12.2019
5294 Clouds 4 1028 93 0 4.84 272 08:39 31.12.2019
5295 Clouds 4 1028 93 0 4.77 265 08:19 31.12.2019
5296 Clouds 4 1028 91 0 4.58 266 07:43 31.12.2019
5297 Clouds 4 1027 90 0 4.58 266 07:20 31.12.2019
5298 Clouds 4 1027 88 0 4.58 266 06:50 31.12.2019
5299 Clouds 4 1023 66 0 0.89 307 05:57 31.12.2019
5300 Clear 4 1022 54 0 0.89 302 04:29 31.12.2019
5301 Clear 4 1025 54 0 0.45 292 03:28 31.12.2019
5302 Clear 3 1025 50 0 0.45 270 02:54 31.12.2019
5303 Clouds 3 1024 47 0 0.45 292 02:18 31.12.2019
5304 Clouds 3 1025 60 0 7.06 242 01:42 31.12.2019
5305 Clear 3 1024 41 0 0.89 292 01:23 31.12.2019
5306 Clear 3 1022 40 0 6.68 242 00:46 31.12.2019
5307 Clear 3 1025 56 0 2.24 40 00:22 31.12.2019
5308 Clear 3 1024 39 0 0.89 292 23:56 30.12.2019
5309 Clear 3 1024 42 0 1.34 270 23:38 30.12.2019
5310 Clear 3 1023 41 0 0.89 270 23:20 30.12.2019
5311 Clear 3 1024 36 0 0.89 292 22:57 30.12.2019
5312 Clear 2 1028 66 0 6.3 234 22:38 30.12.2019
5313 Clear 3 1028 66 0 6.3 234 22:20 30.12.2019
5314 Clear 3 1028 68 0 6.3 234 21:56 30.12.2019
5315 Clear 2 1028 67 0 6.3 234 21:38 30.12.2019
5316 Clear 2 1028 67 0 6.3 234 21:38 30.12.2019
5317 Clear 1 1026 52 0 0.89 43 21:19 30.12.2019
5318 Clear 1 1026 55 0 1.79 40 20:56 30.12.2019
5319 Clear 2 1028 60 0 6.3 234 20:38 30.12.2019
5320 Clouds 3 1027 55 0 2.24 40 20:20 30.12.2019
5321 Clouds 4 1025 37 0 0.89 270 19:57 30.12.2019
5322 Clouds 4 1025 37 0 0.45 270 19:37 30.12.2019
5323 Clouds 4 1025 35 0 0.89 270 19:19 30.12.2019
5324 Clouds 4 1025 35 0 0.89 270 19:19 30.12.2019
5325 Clouds 4 1025 35 0 6.13 227 18:56 30.12.2019
5326 Clouds 4 1026 33 10000 4.6 240 18:38 30.12.2019
5327 Clouds 4 1026 33 10000 4.6 240 18:20 30.12.2019
5328 Clouds 4 1026 33 10000 4.6 240 17:55 30.12.2019
5329 Clouds 5 1026 33 10000 4.6 240 17:37 30.12.2019
5330 Clouds 5 1026 33 10000 5.7 240 17:18 30.12.2019
5331 Clouds 5 1026 33 10000 5.7 240 16:57 30.12.2019
5332 Clouds 6 1026 31 10000 5.7 240 16:36 30.12.2019
5333 Clouds 6 1026 31 10000 5.7 240 16:18 30.12.2019
5334 Clouds 6 1026 31 10000 5.7 240 15:55 30.12.2019
5335 Clouds 6 1027 31 10000 5.7 230 15:37 30.12.2019
5336 Clouds 6 1027 33 10000 5.1 240 15:18 30.12.2019
5337 Clouds 6 1027 31 10000 7.2 240 14:42 30.12.2019
5338 Clouds 7 1027 31 10000 6.7 240 14:20 30.12.2019
5339 Clouds 7 1027 31 10000 6.7 240 13:57 30.12.2019
5340 Clouds 7 1028 26 10000 6.7 240 13:39 30.12.2019
5341 Clouds 7 1028 26 10000 6.2 240 13:21 30.12.2019
5342 Clouds 7 1028 26 10000 6.2 240 12:56 30.12.2019
5343 Clouds 7 1028 26 10000 6.7 240 12:36 30.12.2019
5344 Clouds 6 1029 30 10000 6.2 240 12:18 30.12.2019
5345 Clouds 5 1029 30 10000 6.2 240 11:40 30.12.2019
5346 Clouds 5 1029 33 10000 5.1 240 11:19 30.12.2019
5347 Clouds 5 1029 33 10000 5.1 240 10:57 30.12.2019
5348 Clouds 5 1029 33 10000 4.6 230 10:38 30.12.2019
5349 Clouds 4 1030 35 10000 4.1 240 10:18 30.12.2019
5350 Clouds 4 1030 41 10000 4.1 250 09:41 30.12.2019
5351 Clouds 4 1030 38 10000 3.6 250 09:20 30.12.2019
5352 Clouds 3 1030 38 10000 3.6 250 08:55 30.12.2019
5353 Clouds 3 1030 38 0 1.79 270 08:36 30.12.2019
5354 Clouds 3 1030 38 0 1.79 292 08:18 30.12.2019
5355 Clouds 3 1030 38 0 1.79 292 08:18 30.12.2019
5356 Clouds 3 1032 54 0 0.45 38 07:40 30.12.2019
5357 Clouds 2 1030 44 0 1.79 270 06:58 30.12.2019
5358 Clouds 3 1030 43 0 2.24 292 06:23 30.12.2019
5359 Clouds 3 1030 43 0 2.24 292 06:23 30.12.2019
5360 Clouds 2 1031 44 0 1.79 270 04:23 30.12.2019
5361 Clouds 2 1031 54 0 1.79 292 03:39 30.12.2019
5362 Clouds 2 1032 53 0 1.34 292 02:41 30.12.2019
5363 Clouds 2 1034 65 0 4.14 219 02:20 30.12.2019
5364 Clouds 2 1032 58 0 4.14 219 01:25 30.12.2019
5365 Clouds 1 1034 29 0 3.97 219 00:46 30.12.2019
5366 Clouds 1 1034 30 0 3.97 219 00:23 30.12.2019
5367 Clouds 2 1034 31 0 3.97 219 23:40 29.12.2019
5368 Clouds 1 1035 32 0 3.43 211 23:22 29.12.2019
5369 Clouds 2 1035 32 0 3.43 211 22:56 29.12.2019
5370 Clouds 2 1035 32 0 3.43 211 22:38 29.12.2019
5371 Clouds 1 1035 34 0 3.43 211 22:19 29.12.2019
5372 Clouds 1 1035 49 0 3.43 211 21:54 29.12.2019
5373 Clouds 1 1035 48 0 3.43 211 21:36 29.12.2019
5374 Clouds 2 1035 42 0 3.43 211 21:18 29.12.2019
5375 Clouds 2 1035 34 0 3.43 211 20:40 29.12.2019
5376 Clouds 1 1035 41 0 2.64 211 20:22 29.12.2019
5377 Clouds 2 1035 49 0 2.2 209 20:00 29.12.2019
5378 Clouds 2 1035 50 0 2.2 209 19:40 29.12.2019
5379 Clouds 1 1035 62 0 2.2 209 19:22 29.12.2019
5380 Clouds 1 1035 54 0 2.2 209 18:59 29.12.2019
5381 Clouds 1 1035 54 0 2.2 209 18:59 29.12.2019
5382 Clouds 1 1036 74 10000 0.5 0 18:40 29.12.2019
5383 Clouds 1 1036 74 10000 0.5 0 18:21 29.12.2019
5384 Clouds 1 1036 74 10000 0.5 0 17:58 29.12.2019
5385 Clouds 1 1036 74 10000 0.5 0 17:39 29.12.2019
5386 Clouds 1 1036 74 10000 2.6 150 17:20 29.12.2019
5387 Clouds 1 1036 74 10000 2.6 150 16:57 29.12.2019
5388 Clouds 1 1036 80 10000 1 340 16:39 29.12.2019
5389 Clouds 1 1036 80 10000 1 340 16:39 29.12.2019
5390 Clouds 1 1036 74 10000 1 0 16:21 29.12.2019
5391 Clouds 1 1036 74 10000 1 0 16:21 29.12.2019
5392 Clouds 1 1036 74 10000 1 0 15:59 29.12.2019
5393 Clouds 1 1036 74 10000 1.5 0 15:40 29.12.2019
5394 Clouds 1 1036 69 10000 1.5 0 15:20 29.12.2019
5395 Clouds 2 1036 69 10000 1.5 0 14:58 29.12.2019
5396 Clouds 2 1036 69 10000 1 0 14:39 29.12.2019
5397 Clouds 2 1037 74 10000 1 0 14:19 29.12.2019
5398 Clouds 2 1037 74 10000 1 0 13:59 29.12.2019
5399 Clouds 2 1037 74 10000 1.5 0 13:40 29.12.2019
5400 Clouds 2 1037 74 10000 2.1 130 13:22 29.12.2019
5401 Clouds 2 1037 74 10000 2.1 130 12:56 29.12.2019
5402 Clouds 2 1038 74 10000 0.96 195 12:38 29.12.2019
5403 Clouds 1 1038 74 10000 1 0 12:20 29.12.2019
5404 Clouds 1 1038 45 10000 1.5 0 11:41 29.12.2019
5405 Clouds 0 1038 80 10000 1 0 11:21 29.12.2019
5406 Clouds 0 1038 80 10000 1 0 10:57 29.12.2019
5407 Clouds -1 1038 86 10000 1.02 194 10:38 29.12.2019
5408 Clouds -2 1039 85 10000 1.02 194 10:18 29.12.2019
5409 Clouds -3 1038 85 10000 2.1 120 09:46 29.12.2019
5410 Clouds -4 1038 85 10000 2.1 120 09:28 29.12.2019
5411 Clouds -4 1038 85 10000 2.1 120 08:56 29.12.2019
5412 Clouds -4 1038 85 0 1.02 194 08:38 29.12.2019
5413 Clouds -4 1038 85 0 0.83 244 08:20 29.12.2019
5414 Clouds -4 1038 86 0 0.83 244 07:44 29.12.2019
5415 Clouds -4 1037 85 0 0.83 244 07:25 29.12.2019
5416 Clouds -4 1037 85 0 0.83 244 06:38 29.12.2019
5417 Clouds -4 1037 85 0 0.83 244 06:18 29.12.2019
5418 Clouds -4 1037 85 0 0.83 244 05:44 29.12.2019
5419 Clouds -4 1038 83 0 0.61 171 04:32 29.12.2019
5420 Clouds -4 1038 76 0 0.61 171 03:35 29.12.2019
5421 Clouds -3 1038 72 0 0.45 225 02:27 29.12.2019
5422 Clouds -3 1038 72 0 0.34 147 01:52 29.12.2019
5423 Clouds -3 1038 71 0 0.36 257 01:29 29.12.2019
5424 Clouds -2 1038 71 0 2.24 225 00:45 29.12.2019
5425 Clouds -2 1038 71 0 2.68 248 00:24 29.12.2019
5426 Clouds -2 1039 71 0 2.68 248 23:55 28.12.2019
5427 Clouds -2 1039 77 0 2.24 248 23:37 28.12.2019
5428 Clouds -2 1039 84 0 2.68 248 23:18 28.12.2019
5429 Clouds -2 1041 87 0 1.38 146 22:37 28.12.2019
5430 Clouds -2 1039 84 0 0.89 270 22:18 28.12.2019
5431 Clouds -2 1040 91 0 1.38 146 21:56 28.12.2019
5432 Clouds -2 1040 91 0 1.38 146 21:56 28.12.2019
5433 Clouds -2 1039 84 0 0.89 270 21:37 28.12.2019
5434 Clouds -2 1040 87 0 1.38 146 21:19 28.12.2019
5435 Clouds -2 1039 84 0 0.89 270 20:54 28.12.2019
5436 Clouds -2 1039 82 0 1.38 146 20:36 28.12.2019
5437 Clouds -2 1039 82 0 0.94 146 20:18 28.12.2019
5438 Clouds -2 1039 80 0 0.89 180 19:41 28.12.2019
5439 Clouds -2 1039 86 0 1.39 136 19:23 28.12.2019
5440 Clouds -2 1039 91 0 1.39 136 18:59 28.12.2019
5441 Clouds -2 1042 86 10000 1 90 18:40 28.12.2019
5442 Clouds -1 1042 86 10000 1 90 18:20 28.12.2019
5443 Clouds -1 1042 86 10000 1 90 17:59 28.12.2019
5444 Clouds -1 1042 86 10000 1 90 17:39 28.12.2019
5445 Clouds -1 1042 86 10000 1 100 17:20 28.12.2019
5446 Clouds -1 1042 86 10000 2.1 100 16:49 28.12.2019
5447 Clouds -1 1042 86 10000 2.1 100 16:27 28.12.2019
5448 Clouds 0 1042 81 10000 2.6 90 15:57 28.12.2019
5449 Clouds 0 1042 81 10000 2.6 90 15:57 28.12.2019
5450 Clouds 0 1041 81 10000 2.6 90 15:39 28.12.2019
5451 Clouds 0 1041 80 10000 2.1 90 15:21 28.12.2019
5452 Clouds 1 1041 80 10000 2.1 90 14:46 28.12.2019
5453 Clouds 1 1041 80 10000 2.1 90 14:24 28.12.2019
5454 Clouds 1 1042 80 10000 1.5 100 13:58 28.12.2019
5455 Clouds 1 1042 80 10000 1.5 100 13:58 28.12.2019
5456 Clouds 1 1042 80 10000 2.1 90 13:39 28.12.2019
5457 Clouds 1 1042 71 10000 1.5 100 13:19 28.12.2019
5458 Clouds 0 1042 71 10000 1.5 100 12:55 28.12.2019
5459 Clouds 0 1042 71 10000 0.5 120 12:36 28.12.2019
5460 Clouds 0 1042 92 10000 1.5 110 12:18 28.12.2019
5461 Clouds 0 1042 92 10000 1.5 100 11:40 28.12.2019
5462 Clouds -1 1042 92 10000 1.22 95 11:21 28.12.2019
5463 Clouds -1 1042 86 10000 1.22 95 10:47 28.12.2019
5464 Clouds -2 1042 86 10000 1.22 95 10:23 28.12.2019
5465 Clouds -2 1042 92 10000 1 80 10:00 28.12.2019
5466 Clouds -2 1042 92 10000 1 80 09:59 28.12.2019
5467 Clouds -2 1041 92 10000 1.22 95 09:41 28.12.2019
5468 Clouds -2 1041 92 10000 1.22 95 09:23 28.12.2019
5469 Clouds -3 1041 92 10000 1.22 95 08:57 28.12.2019
5470 Clouds -3 1039 96 0 1.22 95 08:38 28.12.2019
5471 Clouds -3 1038 96 0 1.04 89 08:19 28.12.2019
5472 Clouds -3 1037 97 0 1.04 89 07:41 28.12.2019
5473 Clouds -2 1038 96 0 1.04 89 06:55 28.12.2019
5474 Clouds -2 1037 96 0 1.04 89 05:43 28.12.2019
5475 Clouds -1 1037 96 0 1.16 93 03:48 28.12.2019
5476 Clouds -1 1037 95 0 1.16 93 02:50 28.12.2019
5477 Clouds -1 1037 95 0 0.27 147 02:20 28.12.2019
5478 Clouds -1 1036 95 0 0.27 147 01:53 28.12.2019
5479 Clouds -1 1036 95 0 0.27 147 01:22 28.12.2019
5480 Clouds 0 1035 92 0 0.21 197 00:42 28.12.2019
5481 Clouds 0 1036 94 0 0.21 197 00:23 28.12.2019
5482 Clouds 1 1034 90 0 0.21 197 23:56 27.12.2019
5483 Clouds 1 1035 93 0 0.21 197 23:36 27.12.2019
5484 Clouds 1 1035 92 0 0.48 69 23:18 27.12.2019
5485 Clouds 1 1035 92 0 0.48 69 22:55 27.12.2019
5486 Clouds 1 1035 84 0 0.48 69 22:37 27.12.2019
5487 Clouds 1 1034 87 0 0.48 69 22:19 27.12.2019
5488 Clouds 1 1033 86 0 0.48 69 21:41 27.12.2019
5489 Clouds 1 1036 88 0 0.48 69 21:23 27.12.2019
5490 Clouds 2 1034 85 0 0.48 69 20:44 27.12.2019
5491 Clouds 2 1034 86 0 0.48 69 20:26 27.12.2019
5492 Clouds 2 1033 87 0 0.35 326 19:57 27.12.2019
5493 Clouds 2 1033 87 0 0.35 326 19:57 27.12.2019
5494 Clouds 2 1033 87 0 0.35 326 19:38 27.12.2019
5495 Clouds 2 1033 87 0 0.35 326 19:38 27.12.2019
5496 Clouds 2 1033 87 0 0.35 326 19:19 27.12.2019
5497 Clouds 2 1033 87 0 0.35 326 18:55 27.12.2019
5498 Clouds 2 1033 80 10000 0.35 326 18:36 27.12.2019
5499 Clouds 2 1033 80 10000 0.35 326 18:18 27.12.2019
5500 Clouds 2 1033 80 10000 0.35 326 17:42 27.12.2019
5501 Clouds 2 1033 74 10000 1 0 17:20 27.12.2019
5502 Clouds 3 1033 74 10000 1 0 16:59 27.12.2019
5503 Clouds 3 1033 74 10000 0.5 0 16:41 27.12.2019
5504 Clouds 3 1033 74 10000 0.5 0 16:41 27.12.2019
5505 Clouds 3 1032 80 10000 1.5 0 16:22 27.12.2019
5506 Clouds 3 1032 80 10000 1.5 0 15:57 27.12.2019
5507 Clouds 3 1032 80 10000 1.5 0 15:37 27.12.2019
5508 Clouds 3 1031 74 10000 1.5 0 15:18 27.12.2019
5509 Clouds 4 1031 74 10000 1.5 0 14:55 27.12.2019
5510 Clouds 3 1031 74 10000 2.1 10 14:37 27.12.2019
5511 Clouds 3 1031 74 10000 1.5 0 14:19 27.12.2019
5512 Clouds 4 1030 69 10000 1 0 13:44 27.12.2019
5513 Clouds 4 1030 69 10000 1 0 13:22 27.12.2019
5514 Clouds 4 1030 69 10000 2.1 40 12:49 27.12.2019
5515 Clouds 3 1030 69 10000 2.1 40 12:29 27.12.2019
5516 Clouds 3 1030 85 10000 2.6 0 11:59 27.12.2019
5517 Clouds 3 1029 85 10000 2.1 50 11:41 27.12.2019
5518 Clouds 3 1029 86 10000 2.1 40 11:20 27.12.2019
5519 Clouds 2 1028 86 10000 1.5 0 10:47 27.12.2019
5520 Clouds 2 1028 86 10000 1.5 0 10:24 27.12.2019
5521 Clouds 1 1027 86 10000 1.5 0 09:58 27.12.2019
5522 Clouds 1 1027 93 6000 1 0 09:38 27.12.2019
5523 Clouds 1 1027 93 6000 1 0 09:38 27.12.2019
5524 Mist 0 1026 86 4500 1.5 0 09:20 27.12.2019
5525 Clear 0 1024 95 0 1.19 62 08:49 27.12.2019
5526 Clear 0 1023 88 0 1.19 62 08:30 27.12.2019
5527 Clouds 0 1023 95 0 1.63 99 07:48 27.12.2019
5528 Clouds 0 1021 88 0 1.63 99 07:25 27.12.2019
5529 Clouds 0 1022 94 0 1.63 99 06:33 27.12.2019
5530 Clouds 1 1021 94 0 1.69 120 04:48 27.12.2019
5531 Clouds 2 1021 92 0 1.69 120 02:35 27.12.2019
5532 Clouds 2 1020 96 0 1.24 134 01:56 27.12.2019
5533 Clouds 3 1020 89 0 1.24 134 01:23 27.12.2019
5534 Clouds 3 1020 90 0 1.25 142 00:52 27.12.2019
5535 Clouds 3 1020 90 0 1.25 142 00:34 27.12.2019
5536 Clouds 3 1020 90 0 1.25 142 00:34 27.12.2019
5537 Clouds 3 1021 96 0 1.25 142 23:59 26.12.2019
5538 Clouds 3 1021 92 0 1.25 142 23:40 26.12.2019
5539 Clouds 3 1020 99 0 1.19 176 23:21 26.12.2019
5540 Clouds 3 1020 10 0 1.19 176 22:43 26.12.2019
5541 Clouds 3 1021 92 0 1.19 176 22:21 26.12.2019
5542 Clouds 3 1021 93 0 1.19 176 21:56 26.12.2019
5543 Clouds 3 1021 92 0 1.19 176 21:37 26.12.2019
5544 Clouds 3 1021 92 0 1.19 176 21:19 26.12.2019
5545 Clouds 3 1021 92 0 1.19 176 20:45 26.12.2019
5546 Clouds 3 1021 92 0 1.36 215 20:22 26.12.2019
5547 Clouds 3 1021 99 0 1.36 215 19:58 26.12.2019
5548 Clouds 3 1022 95 0 1.36 215 19:39 26.12.2019
5549 Clouds 4 1021 92 0 1.36 215 19:20 26.12.2019
5550 Clouds 4 1021 92 0 1.36 215 18:57 26.12.2019
5551 Clouds 4 1022 95 0 1.36 215 18:38 26.12.2019
5552 Clouds 4 1021 92 0 1.36 215 18:19 26.12.2019
5553 Clouds 4 1021 92 0 1.36 215 17:43 26.12.2019
5554 Clouds 4 1020 98 0 1.78 261 17:22 26.12.2019
5555 Clouds 4 1021 91 0 1.78 261 16:58 26.12.2019
5556 Clouds 5 1021 91 0 1.78 261 16:40 26.12.2019
5557 Clouds 5 1022 93 0 1.78 261 16:21 26.12.2019
5558 Clouds 5 1021 90 0 1.78 261 15:41 26.12.2019
5559 Clouds 6 1021 90 0 1.78 261 15:22 26.12.2019
5560 Clouds 6 1021 89 0 1.78 261 14:59 26.12.2019
5561 Clouds 6 1024 91 0 1.78 261 14:39 26.12.2019
5562 Clouds 6 1022 88 0 0.45 270 14:20 26.12.2019
5563 Clouds 6 1022 87 0 0.45 270 13:43 26.12.2019
5564 Clouds 6 1022 89 0 4.25 256 13:21 26.12.2019
5565 Clouds 6 1022 89 0 4.25 256 12:58 26.12.2019
5566 Clouds 5 1022 90 0 4.25 256 12:38 26.12.2019
5567 Clouds 5 1022 90 0 0.45 270 12:19 26.12.2019
5568 Clouds 6 1022 91 0 4.25 256 11:57 26.12.2019
5569 Clouds 5 1024 96 0 4.25 256 11:38 26.12.2019
5570 Clouds 5 1024 97 0 3.81 253 11:19 26.12.2019
5571 Clouds 5 1023 93 0 3.81 253 10:42 26.12.2019
5572 Clouds 4 1023 94 0 3.81 253 10:19 26.12.2019
5573 Clouds 4 1023 94 0 3.81 253 09:50 26.12.2019
5574 Clouds 4 1023 94 0 3.81 253 09:31 26.12.2019
5575 Clouds 3 1022 94 0 3.81 253 08:43 26.12.2019
5576 Clouds 3 1021 10 0 3.81 253 08:25 26.12.2019
5577 Clouds 3 1022 95 0 2.66 267 07:53 26.12.2019
5578 Clouds 3 1021 10 0 2.66 267 07:28 26.12.2019
5579 Clouds 4 1021 10 0 2.66 267 06:54 26.12.2019
5580 Clouds 3 1023 97 0 2.66 267 06:32 26.12.2019
5581 Clouds 3 1022 95 0 2.66 267 05:45 26.12.2019
5582 Clouds 3 1022 96 0 3.5 274 04:59 26.12.2019
5583 Clouds 4 1021 99 0 3.5 274 04:30 26.12.2019
5584 Clouds 4 1022 95 0 3.5 274 03:18 26.12.2019
5585 Clouds 4 1022 95 0 3.5 274 02:38 26.12.2019
5586 Rain 4 1022 95 0 3.36 272 02:19 26.12.2019
5587 Rain 4 1020 99 0 0.45 23 01:41 26.12.2019
5588 Clouds 5 1022 95 0 3.8 275 01:22 26.12.2019
5589 Clouds 5 1022 97 0 3.8 275 00:41 26.12.2019
5590 Clouds 5 1021 95 0 3.8 275 00:22 26.12.2019
5591 Clouds 5 1021 95 0 3.8 275 23:42 25.12.2019
5592 Rain 5 1021 96 0 4.06 285 23:21 25.12.2019
5593 Rain 5 1021 95 0 4.06 285 22:59 25.12.2019
5594 Rain 5 1021 95 0 4.06 285 22:40 25.12.2019
5595 Rain 5 1025 99 0 4.06 285 22:22 25.12.2019
5596 Rain 5 1021 95 0 4.06 285 21:59 25.12.2019
5597 Rain 5 1021 95 0 4.06 285 21:40 25.12.2019
5598 Rain 5 1020 95 0 4.06 285 21:21 25.12.2019
5599 Rain 5 1020 95 0 4.06 285 21:21 25.12.2019
5600 Rain 5 1020 95 0 4.06 285 20:57 25.12.2019
5601 Rain 5 1020 94 0 4.06 285 20:39 25.12.2019
5602 Rain 5 1020 94 0 4.26 286 20:18 25.12.2019
5603 Rain 5 1020 94 0 4.51 285 20:18 25.12.2019
5604 Rain 5 1020 93 0 4.26 286 19:43 25.12.2019
5605 Rain 5 1020 93 0 4.26 286 19:43 25.12.2019
5606 Rain 6 1020 93 0 4.26 286 19:25 25.12.2019
5607 Rain 6 1019 92 0 4.26 286 18:59 25.12.2019
5608 Rain 6 1019 91 0 4.26 286 18:38 25.12.2019
5609 Rain 6 1019 91 0 4.26 286 18:38 25.12.2019
5610 Rain 6 1019 92 0 4.26 286 18:19 25.12.2019
5611 Rain 6 1019 96 0 1.34 286 17:42 25.12.2019
5612 Rain 6 1018 94 0 3.29 292 17:20 25.12.2019
5613 Rain 6 1018 94 0 3.29 292 16:59 25.12.2019
5614 Rain 6 1018 96 0 3.29 292 16:39 25.12.2019
5615 Rain 6 1018 94 0 3.29 292 16:19 25.12.2019
5616 Rain 6 1018 96 0 3.29 292 15:57 25.12.2019
5617 Rain 6 1017 94 0 3.29 292 15:39 25.12.2019
5618 Rain 6 1017 94 0 3.29 292 15:20 25.12.2019
5619 Rain 6 1016 93 0 3.29 292 14:58 25.12.2019
5620 Rain 6 1016 93 0 3.29 292 14:39 25.12.2019
5621 Rain 6 1016 93 0 3.29 292 14:39 25.12.2019
5622 Rain 6 1016 93 0 2.42 325 14:21 25.12.2019
5623 Rain 6 1015 92 0 2.42 325 13:55 25.12.2019
5624 Rain 6 1015 92 0 2.42 325 13:36 25.12.2019
5625 Rain 6 1015 92 0 2.42 325 13:18 25.12.2019
5626 Rain 6 1015 95 0 2.68 311 12:39 25.12.2019
5627 Rain 6 1014 93 0 3.46 317 12:20 25.12.2019
5628 Rain 6 1012 10 0 0.45 360 11:55 25.12.2019
5629 Rain 6 1014 96 0 2.68 295 11:37 25.12.2019
5630 Rain 6 1013 97 0 2.24 271 11:18 25.12.2019
5631 Rain 5 1012 95 0 3.48 341 10:38 25.12.2019
5632 Rain 5 1012 95 0 3.48 341 10:19 25.12.2019
5633 Rain 5 1012 95 0 3.48 341 10:19 25.12.2019
5634 Rain 5 1012 97 0 2.68 259 09:50 25.12.2019
5635 Rain 5 1011 94 0 3.48 341 09:32 25.12.2019
5636 Rain 6 1010 94 0 3.48 341 08:51 25.12.2019
5637 Rain 6 1010 94 0 3.48 341 08:30 25.12.2019
5638 Rain 6 1009 93 0 3.49 311 07:50 25.12.2019
5639 Rain 6 1007 10 0 0.45 302 07:32 25.12.2019
5640 Rain 7 1009 92 0 3.49 311 06:51 25.12.2019
5641 Rain 7 1013 99 0 3.49 311 06:22 25.12.2019
5642 Rain 7 1009 97 0 5.42 274 05:18 25.12.2019
5643 Rain 7 1008 91 0 0.45 270 04:39 25.12.2019
5644 Rain 7 1008 94 0 0.45 270 04:20 25.12.2019
5645 Rain 7 1008 94 0 5.42 274 03:41 25.12.2019
5646 Rain 7 1007 94 0 5.42 274 02:53 25.12.2019
5647 Rain 7 1007 94 0 0.45 225 02:20 25.12.2019
5648 Rain 7 1007 94 0 8.16 267 01:25 25.12.2019
5649 Rain 7 1006 94 0 8.16 267 00:54 25.12.2019
5650 Rain 7 1006 94 0 8.16 267 00:54 25.12.2019
5651 Rain 7 1006 95 0 0.45 225 00:32 25.12.2019
5652 Rain 7 1006 95 0 8.16 267 23:57 24.12.2019
5653 Rain 7 1007 97 0 2.68 246 23:38 24.12.2019
5654 Rain 7 1006 94 0 0.45 270 23:20 24.12.2019
5655 Rain 7 1005 93 0 0.89 270 22:41 24.12.2019
5656 Rain 7 1005 93 0 0.89 270 22:41 24.12.2019
5657 Rain 7 1005 91 0 0.45 270 22:21 24.12.2019
5658 Rain 7 1005 88 0 0.89 270 21:44 24.12.2019
5659 Rain 7 1005 88 0 0.89 270 21:44 24.12.2019
5660 Rain 7 1005 88 0 1.34 292 21:23 24.12.2019
5661 Rain 7 1004 88 0 1.34 270 20:59 24.12.2019
5662 Rain 7 1004 89 0 1.79 270 20:41 24.12.2019
5663 Rain 7 1006 97 0 8.01 266 20:19 24.12.2019
5664 Rain 7 1006 97 0 8.01 266 20:19 24.12.2019
5665 Rain 7 1004 90 0 0.89 270 19:45 24.12.2019
5666 Rain 7 1004 90 0 1.79 270 19:21 24.12.2019
5667 Rain 7 1003 10 0 0.89 336 18:58 24.12.2019
5668 Rain 7 1002 10 0 0.89 270 18:40 24.12.2019
5669 Rain 7 1003 94 0 1.34 270 18:18 24.12.2019
5670 Rain 6 1002 10 0 0.45 211 17:42 24.12.2019
5671 Rain 6 1005 96 0 3.17 199 17:21 24.12.2019
5672 Rain 6 1005 96 0 3.17 199 16:57 24.12.2019
5673 Rain 6 1003 94 0 0.89 270 16:38 24.12.2019
5674 Rain 5 1003 94 0 0.89 292 16:20 24.12.2019
5675 Rain 6 1002 94 0 0.89 270 15:56 24.12.2019
5676 Rain 5 1002 93 0 0.89 270 15:36 24.12.2019
5677 Rain 6 1003 93 0 1.34 292 15:18 24.12.2019
5678 Rain 6 1006 92 0 3.17 199 14:57 24.12.2019
5679 Rain 6 1006 70 10000 3.6 180 14:39 24.12.2019
5680 Rain 6 1006 70 10000 3.6 180 14:21 24.12.2019
5681 Rain 6 1006 70 10000 3.6 180 13:55 24.12.2019
5682 Rain 6 1006 70 10000 3.6 180 13:37 24.12.2019
5683 Clouds 6 1005 90 0 1.34 270 13:19 24.12.2019
5684 Clouds 6 1005 94 0 3.3 190 12:55 24.12.2019
5685 Clouds 7 1005 86 0 0.45 225 12:36 24.12.2019
5686 Clouds 7 1006 86 0 1.34 270 12:18 24.12.2019
5687 Clouds 7 1006 87 0 0.45 270 11:55 24.12.2019
5688 Clouds 7 1007 88 0 0.45 292 11:37 24.12.2019
5689 Clouds 6 1007 87 0 1.34 270 11:19 24.12.2019
5690 Clouds 6 1008 88 0 0.45 292 10:56 24.12.2019
5691 Clouds 6 1008 88 0 0.89 270 10:37 24.12.2019
5692 Clouds 6 1008 88 0 0.89 270 10:37 24.12.2019
5693 Clouds 6 1008 88 0 0.89 225 10:19 24.12.2019
5694 Clouds 6 1009 88 0 0.89 270 09:55 24.12.2019
5695 Clouds 5 1009 89 0 0.89 270 09:37 24.12.2019
5696 Clouds 5 1009 90 0 1.34 270 09:18 24.12.2019
5697 Clouds 5 1010 90 0 0.89 292 08:45 24.12.2019
5698 Clouds 5 1010 89 0 0.45 225 08:21 24.12.2019
5699 Clouds 5 1010 88 0 1.34 270 07:46 24.12.2019
5700 Clouds 5 1010 88 0 1.34 270 07:46 24.12.2019
5701 Clouds 5 1010 88 0 1.34 270 07:26 24.12.2019
5702 Clouds 5 1011 88 0 0.89 270 06:58 24.12.2019
5703 Clouds 5 1011 88 0 0.89 270 06:38 24.12.2019
5704 Clouds 5 1011 88 0 0.89 270 06:38 24.12.2019
5705 Clouds 6 1011 88 0 0.89 292 06:19 24.12.2019
5706 Clouds 6 1011 98 0 4.76 226 05:40 24.12.2019
5707 Clouds 6 1012 89 0 0.45 270 05:18 24.12.2019
5708 Clouds 6 1013 100 0 5.92 243 03:50 24.12.2019
5709 Clouds 6 1012 91 0 0.45 292 03:25 24.12.2019
5710 Clouds 6 1012 90 0 0.45 270 02:25 24.12.2019
5711 Rain 6 1011 91 0 0.89 270 01:52 24.12.2019
5712 Rain 6 1011 91 0 6 252 01:23 24.12.2019
5713 Rain 6 1011 90 0 0.45 270 00:47 24.12.2019
5714 Rain 6 1011 90 0 0.89 270 00:26 24.12.2019
5715 Rain 6 1009 99 0 6.41 250 23:59 23.12.2019
5716 Rain 6 1010 88 0 0.89 270 23:41 23.12.2019
5717 Rain 6 1010 88 0 0.89 270 23:23 23.12.2019
5718 Rain 6 1010 88 0 0.89 270 23:23 23.12.2019
5719 Rain 7 1011 96 0 6.32 262 22:56 23.12.2019
5720 Rain 7 1011 96 0 6.32 262 22:37 23.12.2019
5721 Rain 7 1009 91 0 0.45 270 22:19 23.12.2019
5722 Rain 7 1009 91 0 0.45 270 21:55 23.12.2019
5723 Rain 7 1009 91 0 0.45 270 21:55 23.12.2019
5724 Rain 7 1009 91 0 0.89 270 21:36 23.12.2019
5725 Rain 7 1009 92 0 1.34 270 21:18 23.12.2019
5726 Rain 7 1009 92 0 0.89 225 20:57 23.12.2019
5727 Rain 7 1008 93 0 0.45 225 20:39 23.12.2019
5728 Rain 7 1008 93 0 0.45 225 20:39 23.12.2019
5729 Rain 7 1008 93 0 0.45 270 20:18 23.12.2019
5730 Rain 6 1008 91 0 0.45 270 19:56 23.12.2019
5731 Rain 6 1008 90 0 0.45 270 19:38 23.12.2019
5732 Rain 6 1009 95 0 6.13 248 19:19 23.12.2019
5733 Rain 7 1007 91 0 0.45 270 18:58 23.12.2019
5734 Clouds 7 1007 81 10000 6.2 250 18:39 23.12.2019
5735 Clouds 6 1007 81 10000 6.2 250 18:20 23.12.2019
5736 Clouds 6 1007 81 10000 6.2 250 17:57 23.12.2019
5737 Clouds 6 1007 81 10000 6.2 250 17:38 23.12.2019
5738 Clouds 6 1006 81 10000 5.1 250 17:19 23.12.2019
5739 Clouds 6 1006 81 10000 5.1 250 17:19 23.12.2019
5740 Clouds 6 1006 81 10000 5.1 250 17:19 23.12.2019
5741 Clouds 6 1006 81 10000 5.1 250 16:55 23.12.2019
5742 Rain 7 1006 81 10000 5.1 260 16:37 23.12.2019
5743 Rain 7 1006 81 10000 4.1 250 16:18 23.12.2019
5744 Rain 7 1006 81 10000 4.1 250 15:55 23.12.2019
5745 Clouds 7 1005 75 10000 4.1 250 15:36 23.12.2019
5746 Clouds 7 1005 75 10000 4.6 270 15:18 23.12.2019
5747 Clouds 7 1005 75 10000 4.6 270 14:55 23.12.2019
5748 Clouds 8 1004 81 10000 4.6 270 14:36 23.12.2019
5749 Clouds 7 1004 81 10000 6.2 280 14:18 23.12.2019
5750 Clouds 8 1003 81 10000 6.7 270 13:41 23.12.2019
5751 Clouds 8 1003 81 10000 6.7 270 13:23 23.12.2019
5752 Clouds 8 1003 81 10000 6.2 260 12:59 23.12.2019
5753 Clouds 7 1002 81 10000 5.1 260 12:40 23.12.2019
5754 Clouds 7 1002 76 10000 5.1 270 12:21 23.12.2019
5755 Clouds 8 1002 76 10000 5.1 270 11:56 23.12.2019
5756 Clouds 7 1002 75 10000 5.1 260 11:38 23.12.2019
5757 Clouds 7 1001 75 10000 5.1 270 11:20 23.12.2019
5758 Clouds 7 1001 75 10000 5.1 270 11:20 23.12.2019
5759 Clouds 7 1001 75 10000 5.1 270 10:55 23.12.2019
5760 Clouds 7 1001 75 10000 5.1 270 10:55 23.12.2019
5761 Clouds 7 1001 81 10000 5.7 260 10:37 23.12.2019
5762 Clouds 7 1000 81 10000 4.6 260 10:18 23.12.2019
5763 Clouds 7 1000 81 10000 4.6 260 09:54 23.12.2019
5764 Clouds 7 1000 81 10000 4.1 250 09:36 23.12.2019
5765 Clouds 6 1000 75 10000 4.1 250 09:18 23.12.2019
5766 Clouds 6 999 92 0 5.8 258 08:41 23.12.2019
5767 Rain 6 1003 96 0 7.34 265 08:22 23.12.2019
5768 Rain 6 1000 95 0 7.34 265 07:56 23.12.2019
5769 Rain 6 998 91 0 7.34 265 07:37 23.12.2019
5770 Rain 6 998 91 0 7.34 265 07:18 23.12.2019
5771 Rain 6 997 90 0 0.89 225 06:39 23.12.2019
5772 Rain 6 997 90 0 0.89 270 06:21 23.12.2019
5773 Rain 7 996 88 0 0.45 270 05:44 23.12.2019
5774 Rain 7 995 93 0 0.89 270 04:40 23.12.2019
5775 Rain 7 994 94 0 0.45 270 03:58 23.12.2019
5776 Rain 7 993 92 0 0.45 270 02:47 23.12.2019
5777 Rain 7 992 92 0 0.45 270 02:19 23.12.2019
5778 Rain 7 991 92 0 0.89 225 01:50 23.12.2019
5779 Rain 7 992 92 0 4.92 228 01:31 23.12.2019
5780 Rain 7 992 92 0 4.02 255 00:48 23.12.2019
5781 Rain 7 990 87 0 1.34 270 00:27 23.12.2019
5782 Rain 7 991 92 0 4.47 246 23:57 22.12.2019
5783 Rain 7 989 84 0 1.79 270 23:37 22.12.2019
5784 Rain 7 990 94 0 4.02 274 23:19 22.12.2019
5785 Rain 7 988 89 0 3.13 270 22:55 22.12.2019
5786 Rain 7 988 92 0 1.34 270 22:37 22.12.2019
5787 Rain 8 987 94 0 0.89 292 22:18 22.12.2019
5788 Rain 8 987 93 0 2.23 207 21:54 22.12.2019
5789 Rain 8 987 93 0 0.45 270 21:36 22.12.2019
5790 Rain 8 987 92 0 0.45 225 21:18 22.12.2019
5791 Rain 8 986 89 0 0.45 292 20:40 22.12.2019
5792 Clouds 7 986 89 0 1.34 270 20:19 22.12.2019
5793 Clouds 7 987 92 0 0.45 61 19:58 22.12.2019
5794 Clouds 7 986 88 0 0.89 270 19:39 22.12.2019
5795 Clouds 7 986 87 10000 2.6 120 19:20 22.12.2019
5796 Clouds 7 986 87 10000 2.6 120 18:58 22.12.2019
5797 Clouds 7 986 87 10000 2.6 120 18:38 22.12.2019
5798 Clouds 7 986 87 10000 2.6 120 18:19 22.12.2019
5799 Clouds 7 986 87 10000 2.6 120 17:55 22.12.2019
5800 Clouds 8 986 87 10000 2.6 100 17:36 22.12.2019
5801 Clouds 7 986 87 10000 2.6 90 17:18 22.12.2019
5802 Clouds 8 986 87 10000 2.6 90 16:42 22.12.2019
5803 Clouds 8 986 87 10000 2.6 90 16:23 22.12.2019
5804 Clouds 8 986 87 10000 2.6 90 16:23 22.12.2019
5805 Clouds 8 985 81 10000 2.6 90 15:58 22.12.2019
5806 Clouds 8 985 81 10000 2.6 90 15:39 22.12.2019
5807 Clouds 8 985 81 10000 3.1 100 15:21 22.12.2019
5808 Clouds 8 985 81 10000 3.1 100 14:59 22.12.2019
5809 Clouds 8 986 87 10000 3.1 100 14:39 22.12.2019
5810 Clouds 7 986 93 10000 2.1 110 14:19 22.12.2019
5811 Clouds 7 986 93 10000 2.1 110 13:56 22.12.2019
5812 Clouds 7 986 93 10000 2.1 110 13:38 22.12.2019
5813 Clouds 7 986 86 10000 0.5 100 13:19 22.12.2019
5814 Clouds 7 986 86 10000 0.5 100 12:57 22.12.2019
5815 Clouds 7 986 86 10000 1 130 12:39 22.12.2019
5816 Clouds 6 986 86 10000 1.5 90 12:20 22.12.2019
5817 Clouds 6 986 86 10000 1.5 90 11:59 22.12.2019
5818 Clouds 6 986 93 10000 2.6 120 11:39 22.12.2019
5819 Clouds 6 986 93 10000 2.6 120 11:20 22.12.2019
5820 Clouds 5 986 93 10000 2.6 120 10:58 22.12.2019
5821 Rain 5 986 93 10000 2.1 100 10:40 22.12.2019
5822 Rain 5 986 93 10000 2.1 100 10:40 22.12.2019
5823 Rain 5 986 93 10000 1.5 0 10:20 22.12.2019
5824 Rain 5 986 93 10000 1.5 0 09:58 22.12.2019
5825 Rain 5 986 93 10000 2.6 100 09:40 22.12.2019
5826 Rain 5 986 86 10000 2.6 120 09:21 22.12.2019
5827 Rain 5 986 86 10000 2.6 120 08:55 22.12.2019
5828 Clouds 5 984 86 0 0.89 270 08:37 22.12.2019
5829 Clouds 5 984 86 0 0.45 292 08:18 22.12.2019
5830 Clouds 5 983 86 0 0.45 292 07:36 22.12.2019
5831 Clouds 5 983 87 0 0.89 225 07:18 22.12.2019
5832 Clouds 4 983 87 0 1.34 270 06:40 22.12.2019
5833 Clouds 4 985 89 0 0.89 107 05:49 22.12.2019
5834 Clouds 4 983 84 0 0.89 292 05:21 22.12.2019
5835 Clouds 4 983 98 0 0.89 115 04:28 22.12.2019
5836 Clouds 4 983 86 0 2.56 134 03:45 22.12.2019
5837 Clouds 4 984 85 0 0.45 270 02:38 22.12.2019
5838 Clouds 4 984 85 0 0.45 270 02:38 22.12.2019
5839 Clouds 4 985 96 0 2.57 153 01:42 22.12.2019
5840 Clear 4 985 83 0 0.89 270 01:22 22.12.2019
5841 Clear 4 985 83 0 0.89 270 00:45 22.12.2019
5842 Clear 4 985 85 0 0.45 270 00:22 22.12.2019
5843 Clear 4 986 85 0 0.45 247 23:55 21.12.2019
5844 Clear 5 986 85 0 2.38 150 23:37 21.12.2019
5845 Clear 5 986 87 0 0.45 292 23:18 21.12.2019
5846 Clear 4 989 80 10000 2.1 130 22:40 21.12.2019
5847 Clear 4 989 80 10000 2.1 130 22:40 21.12.2019
5848 Clear 4 989 80 10000 2.1 130 22:19 21.12.2019
5849 Clear 4 989 80 10000 2.1 130 21:57 21.12.2019
5850 Clear 4 989 80 10000 2.1 130 21:37 21.12.2019
5851 Clear 5 990 75 10000 3.6 140 21:19 21.12.2019
5852 Clear 5 990 75 10000 3.6 140 20:58 21.12.2019
5853 Clear 5 990 75 10000 3.6 140 20:58 21.12.2019
5854 Clear 5 990 80 10000 3.6 150 20:39 21.12.2019
5855 Clear 5 988 85 0 0.45 270 20:21 21.12.2019
5856 Clear 5 988 85 0 0.89 292 19:58 21.12.2019
5857 Clear 5 988 84 0 0.45 270 19:40 21.12.2019
5858 Clear 5 991 80 10000 2.6 110 19:19 21.12.2019
5859 Clear 5 991 80 10000 2.6 110 18:44 21.12.2019
5860 Clear 5 991 80 10000 2.6 110 18:24 21.12.2019
5861 Clear 6 991 80 10000 2.6 110 17:57 21.12.2019
5862 Clear 6 991 75 10000 2.1 130 17:39 21.12.2019
5863 Clear 6 991 75 10000 2.1 130 17:39 21.12.2019
5864 Clear 6 991 75 10000 2.6 150 17:21 21.12.2019
5865 Clear 6 991 75 10000 2.6 150 16:58 21.12.2019
5866 Clear 6 992 70 10000 2.6 160 16:40 21.12.2019
5867 Clear 7 992 70 10000 2.6 160 16:18 21.12.2019
5868 Clear 7 992 70 10000 2.6 160 16:18 21.12.2019
5869 Clear 7 992 70 10000 2.6 160 15:57 21.12.2019
5870 Clear 7 992 70 10000 2.6 160 15:57 21.12.2019
5871 Clouds 8 992 66 10000 4.1 210 15:38 21.12.2019
5872 Clouds 8 992 66 10000 4.1 210 15:19 21.12.2019
5873 Clouds 8 992 66 10000 4.1 210 14:56 21.12.2019
5874 Clouds 9 992 70 10000 4.6 230 14:37 21.12.2019
5875 Clear 9 992 70 10000 5.7 220 14:18 21.12.2019
5876 Clear 9 992 70 10000 5.7 220 13:55 21.12.2019
5877 Clouds 9 993 70 10000 4.6 210 13:37 21.12.2019
5878 Clouds 9 993 70 10000 5.7 220 13:18 21.12.2019
5879 Clouds 8 993 70 10000 5.7 220 12:54 21.12.2019
5880 Clear 9 993 70 10000 4.6 220 12:36 21.12.2019
5881 Clear 8 993 70 10000 5.1 200 12:18 21.12.2019
5882 Clear 8 993 70 10000 3.6 200 11:41 21.12.2019
5883 Clear 8 993 70 10000 3.6 200 11:23 21.12.2019
5884 Clouds 8 993 70 10000 2.6 210 10:54 21.12.2019
5885 Clouds 7 993 70 10000 2.6 200 10:36 21.12.2019
5886 Clouds 7 993 75 10000 2.6 210 10:18 21.12.2019
5887 Clouds 6 993 75 10000 3.1 200 09:42 21.12.2019
5888 Clouds 6 993 75 10000 2.6 200 09:21 21.12.2019
5889 Clouds 6 993 75 10000 2.6 200 08:57 21.12.2019
5890 Clear 7 992 86 0 0.45 270 08:37 21.12.2019
5891 Clouds 7 992 87 0 0.45 270 08:18 21.12.2019
5892 Clouds 7 991 87 0 0.45 270 07:41 21.12.2019
5893 Clouds 7 991 85 0 0.45 270 07:22 21.12.2019
5894 Clouds 7 992 84 0 1.34 270 06:44 21.12.2019
5895 Clouds 7 990 90 0 0.45 229 06:25 21.12.2019
5896 Clouds 7 992 85 0 1.34 270 05:47 21.12.2019
5897 Clouds 7 993 88 0 4.12 222 04:58 21.12.2019
5898 Clouds 7 991 87 0 1.34 270 03:57 21.12.2019
5899 Clouds 8 995 94 0 4.12 222 02:52 21.12.2019
5900 Rain 8 990 92 0 0.89 270 01:59 21.12.2019
5901 Rain 8 989 90 0 0.45 229 01:28 21.12.2019
5902 Rain 9 990 94 0 0.45 270 00:53 21.12.2019
5903 Rain 9 990 93 0 0.89 270 00:33 21.12.2019
5904 Rain 9 988 93 0 4.49 234 23:59 20.12.2019
5905 Rain 9 989 91 0 0.89 225 23:38 20.12.2019
5906 Rain 10 989 81 10000 5.1 230 23:18 20.12.2019
5907 Rain 10 989 81 10000 5.1 230 22:41 20.12.2019
5908 Rain 10 989 81 10000 5.1 230 22:21 20.12.2019
5909 Rain 10 989 81 10000 5.1 230 21:59 20.12.2019
5910 Clouds 10 989 81 10000 4.6 210 21:40 20.12.2019
5911 Clouds 10 988 76 10000 4.1 200 21:20 20.12.2019
5912 Clouds 10 988 76 10000 4.1 200 21:20 20.12.2019
5913 Clouds 11 988 76 10000 5.1 190 20:41 20.12.2019
5914 Clouds 11 988 66 10000 4.6 180 20:22 20.12.2019
5915 Clouds 11 988 66 10000 4.6 180 19:59 20.12.2019
5916 Rain 11 988 66 10000 3.6 180 19:40 20.12.2019
5917 Rain 11 988 71 10000 3.1 140 19:20 20.12.2019
5918 Rain 10 988 71 10000 3.1 140 18:56 20.12.2019
5919 Clouds 10 988 81 10000 3.1 110 18:38 20.12.2019
5920 Clouds 9 988 81 10000 3.1 120 18:20 20.12.2019
5921 Clouds 9 989 81 10000 2.1 100 17:42 20.12.2019
5922 Clouds 9 989 81 10000 2.1 100 17:22 20.12.2019
5923 Clouds 9 989 81 10000 2.6 120 16:59 20.12.2019
5924 Clouds 9 989 81 10000 2.6 120 16:40 20.12.2019
5925 Clouds 9 989 76 10000 2.1 90 16:20 20.12.2019
5926 Clouds 9 989 81 10000 0.5 0 15:57 20.12.2019
5927 Clouds 9 989 81 10000 0.5 0 15:39 20.12.2019
5928 Clouds 9 990 76 10000 2.41 195 15:20 20.12.2019
5929 Clouds 9 990 70 10000 2.1 180 14:58 20.12.2019
5930 Clouds 9 990 70 10000 2.1 180 14:39 20.12.2019
5931 Clouds 9 990 70 10000 3.6 180 14:21 20.12.2019
5932 Clouds 9 991 71 10000 1.5 110 13:42 20.12.2019
5933 Clouds 9 990 71 10000 2.6 100 13:21 20.12.2019
5934 Clouds 8 992 75 10000 4.6 250 12:59 20.12.2019
5935 Clouds 8 992 75 10000 4.6 250 12:41 20.12.2019
5936 Clouds 8 992 70 10000 1.5 0 12:19 20.12.2019
5937 Clouds 8 992 75 10000 3.1 110 11:59 20.12.2019
5938 Clouds 8 992 75 10000 3.1 110 11:40 20.12.2019
5939 Clouds 7 993 81 10000 2.6 110 11:21 20.12.2019
5940 Clouds 6 994 93 10000 1.5 100 10:59 20.12.2019
5941 Clouds 6 994 93 10000 1.5 100 10:41 20.12.2019
5942 Clouds 5 994 93 10000 0.5 0 10:20 20.12.2019
5943 Clouds 4 995 93 10000 1 0 09:56 20.12.2019
5944 Clouds 4 995 63 10000 2.6 90 09:38 20.12.2019
5945 Clouds 3 995 63 10000 2.6 90 09:19 20.12.2019
5946 Clouds 3 996 93 10000 2.1 110 08:43 20.12.2019
5947 Clouds 3 996 100 10000 3.1 110 08:24 20.12.2019
5948 Clouds 2 996 56 10000 3.1 90 07:58 20.12.2019
5949 Clouds 2 996 56 10000 3.1 90 07:40 20.12.2019
5950 Clear 2 997 56 6000 3.1 100 07:19 20.12.2019
5951 Clouds 3 998 56 10000 3.44 161 06:52 20.12.2019
5952 Clouds 3 998 93 10000 1.5 0 06:32 20.12.2019
5953 Clouds 3 998 56 10000 3.44 161 05:53 20.12.2019
5954 Clouds 3 996 87 0 3.44 161 05:35 20.12.2019
5955 Clouds 3 997 87 0 2.28 163 04:33 20.12.2019
5956 Clouds 3 999 85 0 0.89 270 03:30 20.12.2019
5957 Clouds 3 1000 87 0 2.28 163 02:43 20.12.2019
5958 Clouds 4 1002 85 0 0.89 270 01:52 20.12.2019
5959 Clouds 4 1002 86 0 0.89 270 01:33 20.12.2019
5960 Clear 3 1003 86 0 0.45 270 00:44 20.12.2019
5961 Clear 3 1002 89 0 0.45 270 00:25 20.12.2019
5962 Clear 4 1003 87 0 1.79 270 23:44 19.12.2019
5963 Clear 4 1003 84 0 1.79 270 23:26 19.12.2019
5964 Clouds 4 1006 93 10000 1 90 22:59 19.12.2019
5965 Clouds 5 1006 93 10000 1 90 22:37 19.12.2019
5966 Clouds 5 1006 93 10000 1 90 22:19 19.12.2019
5967 Clouds 5 1006 93 10000 1.5 100 21:55 19.12.2019
5968 Clouds 5 1007 86 10000 0.5 0 21:37 19.12.2019
5969 Clouds 5 1007 86 10000 0.5 0 21:18 19.12.2019
5970 Clouds 5 1008 86 10000 1 0 20:55 19.12.2019
5971 Clouds 6 1008 93 10000 4.1 100 20:36 19.12.2019
5972 Clouds 6 1008 93 10000 4.1 100 20:18 19.12.2019
5973 Clouds 6 1009 87 10000 2.6 100 19:56 19.12.2019
5974 Clouds 7 1009 87 10000 2.1 90 19:37 19.12.2019
5975 Clouds 7 1009 87 10000 2.1 90 19:19 19.12.2019
5976 Clouds 7 1010 87 10000 0.5 0 18:41 19.12.2019
5977 Clouds 7 1010 87 10000 1.39 168 18:22 19.12.2019
5978 Clouds 7 1010 87 10000 1.5 0 17:58 19.12.2019
5979 Clouds 7 1010 87 10000 1.5 0 17:39 19.12.2019
5980 Clouds 8 1010 87 10000 3.1 100 17:19 19.12.2019
5981 Clouds 8 1010 81 10000 2.6 140 16:58 19.12.2019
5982 Clouds 8 1010 81 10000 2.6 140 16:40 19.12.2019
5983 Clouds 8 1010 81 10000 1.5 110 16:22 19.12.2019
5984 Clouds 8 1010 76 10000 2.6 90 15:59 19.12.2019
5985 Clouds 8 1010 76 10000 2.6 90 15:59 19.12.2019
5986 Clouds 9 1010 76 10000 2.6 90 15:40 19.12.2019
5987 Clouds 9 1011 71 10000 2.1 90 15:20 19.12.2019
5988 Clouds 9 1011 76 10000 2.6 100 14:59 19.12.2019
5989 Clouds 9 1011 76 10000 2.6 100 14:41 19.12.2019
5990 Clouds 9 1011 76 10000 2.6 100 14:41 19.12.2019
5991 Clear 10 1012 76 10000 2.6 110 14:19 19.12.2019
5992 Clear 9 1012 81 10000 3.6 110 13:57 19.12.2019
5993 Clear 10 1013 81 10000 2.6 110 13:38 19.12.2019
5994 Clear 9 1013 81 10000 2.6 110 13:19 19.12.2019
5995 Clear 9 1014 81 10000 3.1 110 12:55 19.12.2019
5996 Clear 8 1014 81 10000 2.6 110 12:37 19.12.2019
5997 Clear 9 1014 81 10000 2.6 110 12:18 19.12.2019
5998 Clear 8 1014 93 10000 2.6 120 11:57 19.12.2019
5999 Clear 8 1014 93 10000 2.6 120 11:39 19.12.2019
6000 Clear 7 1015 93 10000 2.6 110 11:18 19.12.2019
6001 Clear 7 1015 93 10000 2.6 110 11:18 19.12.2019
6002 Clear 7 1015 93 10000 2.6 110 10:55 19.12.2019
6003 Clear 6 1015 93 10000 2.1 110 10:36 19.12.2019
6004 Clear 6 1015 93 10000 2.1 110 10:18 19.12.2019
6005 Clear 5 1015 100 10000 2.6 120 09:39 19.12.2019
6006 Clear 5 1015 100 10000 2.6 120 09:39 19.12.2019
6007 Clear 4 1015 100 10000 2.6 120 09:20 19.12.2019
6008 Clear 4 1015 100 10000 2.6 120 09:20 19.12.2019
6009 Clear 4 1015 100 10000 2.6 120 09:20 19.12.2019
6010 Clear 4 1015 93 10000 3.1 110 08:58 19.12.2019
6011 Clear 5 1015 93 10000 3.1 110 08:40 19.12.2019
6012 Clear 4 1016 93 9000 2.1 100 08:19 19.12.2019
6013 Clear 4 1016 93 10000 2.6 110 07:57 19.12.2019
6014 Clear 4 1016 93 10000 2.1 110 07:38 19.12.2019
6015 Clear 4 1016 93 10000 2.1 110 07:19 19.12.2019
6016 Clear 4 1016 93 0 1.79 38 06:49 19.12.2019
6017 Clear 4 1014 87 0 1.34 292 06:29 19.12.2019
6018 Clear 4 1014 87 0 0.89 225 05:55 19.12.2019
6019 Clear 4 1014 88 0 0.89 270 05:33 19.12.2019
6020 Clear 4 1014 88 0 1.34 270 04:51 19.12.2019
6021 Clear 4 1015 89 0 0.89 270 02:54 19.12.2019
6022 Clouds 3 1019 83 10000 2.1 90 01:51 19.12.2019
6023 Clouds 3 1019 83 10000 2.1 90 01:22 19.12.2019
6024 Clouds 3 1019 86 10000 2.1 90 00:41 19.12.2019
6025 Clouds 3 1019 86 10000 2.6 90 00:22 19.12.2019
6026 Clouds 3 1019 86 10000 2.1 100 23:57 18.12.2019
6027 Clouds 3 1019 86 10000 1.5 100 23:38 18.12.2019
6028 Clouds 3 1019 87 10000 1.5 100 23:18 18.12.2019
6029 Clouds 3 1019 87 10000 1.5 100 22:55 18.12.2019
6030 Clouds 3 1019 100 8000 1.5 110 22:36 18.12.2019
6031 Clouds 3 1019 100 8000 1.5 110 22:18 18.12.2019
6032 Clouds 3 1019 93 10000 2.1 110 21:56 18.12.2019
6033 Clouds 3 1019 93 10000 2.1 110 21:56 18.12.2019
6034 Clouds 3 1019 87 9000 2.1 120 21:37 18.12.2019
6035 Clouds 2 1019 87 9000 2.1 120 21:19 18.12.2019
6036 Clouds 3 1019 93 10000 2.1 110 20:55 18.12.2019
6037 Clouds 3 1019 93 10000 2.1 120 20:37 18.12.2019
6038 Clear 4 1019 93 10000 2.1 120 20:18 18.12.2019
6039 Clear 4 1019 93 10000 2.1 90 19:55 18.12.2019
6040 Clear 3 1019 93 10000 1.5 110 19:37 18.12.2019
6041 Clear 3 1019 93 10000 1.5 110 19:18 18.12.2019
6042 Clear 4 1019 93 10000 1.5 90 18:44 18.12.2019
6043 Clear 4 1019 86 10000 1.5 90 18:25 18.12.2019
6044 Clear 4 1019 87 10000 2.08 159 17:57 18.12.2019
6045 Clear 5 1019 81 10000 2.08 159 17:39 18.12.2019
6046 Clear 6 1019 81 10000 2.1 225 17:19 18.12.2019
6047 Clouds 6 1018 81 10000 2.1 225 16:55 18.12.2019
6048 Clouds 6 1018 81 10000 2.1 225 16:37 18.12.2019
6049 Clouds 7 1018 75 10000 2.1 225 16:18 18.12.2019
6050 Clouds 7 1018 75 10000 2.1 225 15:55 18.12.2019
6051 Clouds 8 1018 75 10000 2.1 260 15:37 18.12.2019
6052 Clouds 9 1018 76 10000 3.1 260 15:18 18.12.2019
6053 Clouds 9 1017 70 10000 3.6 240 14:40 18.12.2019
6054 Clouds 9 1017 70 10000 4.1 240 14:21 18.12.2019
6055 Clouds 9 1017 70 10000 4.1 240 13:57 18.12.2019
6056 Clouds 9 1017 70 10000 4.1 240 13:57 18.12.2019
6057 Clouds 9 1017 70 10000 4.1 240 13:57 18.12.2019
6058 Clouds 9 1017 70 10000 3.6 230 13:37 18.12.2019
6059 Clouds 9 1017 70 10000 3.6 230 13:19 18.12.2019
6060 Clouds 9 1017 70 10000 3.6 230 12:57 18.12.2019
6061 Clouds 9 1017 70 10000 2.6 220 12:38 18.12.2019
6062 Clouds 9 1017 75 10000 2.6 210 12:19 18.12.2019
6063 Clouds 8 1017 75 10000 2.6 210 11:55 18.12.2019
6064 Clouds 8 1017 75 10000 2.6 210 11:55 18.12.2019
6065 Clouds 8 1017 75 10000 2.6 230 11:37 18.12.2019
6066 Clouds 8 1016 81 10000 2.6 250 11:19 18.12.2019
6067 Clouds 8 1016 81 10000 2.6 250 10:55 18.12.2019
6068 Clouds 8 1016 81 10000 2.1 250 10:37 18.12.2019
6069 Clouds 7 1015 87 10000 1.5 250 10:19 18.12.2019
6070 Clouds 7 1015 87 10000 1.5 230 09:50 18.12.2019
6071 Clouds 7 1014 87 10000 2.6 250 09:18 18.12.2019
6072 Clouds 7 1014 87 10000 1.5 0 08:41 18.12.2019
6073 Clouds 7 1013 81 10000 3.6 290 08:22 18.12.2019
6074 Clouds 7 1012 81 10000 4.1 300 07:43 18.12.2019
6075 Clouds 8 1012 81 10000 4.6 290 07:23 18.12.2019
6076 Clouds 8 1012 81 10000 4.6 290 06:56 18.12.2019
6077 Clouds 8 1012 81 10000 5.7 290 06:27 18.12.2019
6078 Clouds 9 1008 94 0 4.17 266 05:54 18.12.2019
6079 Rain 9 1010 90 0 2.24 236 04:57 18.12.2019
6080 Rain 12 1006 79 0 1.79 225 02:55 18.12.2019
6081 Rain 12 1006 78 0 0.89 225 02:36 18.12.2019
6082 Clouds 12 1005 77 0 1.79 292 02:18 18.12.2019
6083 Clouds 12 1004 77 0 1.79 270 01:40 18.12.2019
6084 Clouds 12 1005 73 0 2.68 270 01:21 18.12.2019
6085 Clouds 12 1004 75 0 7.05 238 00:41 18.12.2019
6086 Clouds 12 1008 90 0 7.05 238 00:23 18.12.2019
6087 Clouds 12 1004 72 0 1.34 270 23:57 17.12.2019
6088 Clouds 12 1003 69 0 2.24 270 23:38 17.12.2019
6089 Clouds 12 1004 58 10000 3.1 160 23:19 17.12.2019
6090 Clouds 12 1004 58 10000 3.1 160 22:56 17.12.2019
6091 Clouds 12 1004 58 10000 3.1 160 22:38 17.12.2019
6092 Clouds 12 1004 58 10000 3.1 160 22:18 17.12.2019
6093 Clouds 12 1004 58 10000 3.1 160 21:55 17.12.2019
6094 Clouds 12 1004 62 10000 3.1 160 21:37 17.12.2019
6095 Clouds 12 1004 62 10000 3.1 160 21:37 17.12.2019
6096 Clouds 12 1004 62 10000 3.6 160 21:19 17.12.2019
6097 Clouds 12 1004 62 10000 3.6 160 20:56 17.12.2019
6098 Clouds 12 1004 58 10000 3.6 160 20:38 17.12.2019
6099 Clouds 12 1005 58 10000 2.6 160 20:18 17.12.2019
6100 Clouds 12 1005 58 10000 2.6 160 19:55 17.12.2019
6101 Clouds 12 1005 62 10000 3.1 170 19:37 17.12.2019
6102 Clouds 12 1004 58 10000 2.6 150 19:18 17.12.2019
6103 Clouds 11 1005 58 10000 2.1 170 18:42 17.12.2019
6104 Clouds 11 1005 58 10000 2.1 170 18:42 17.12.2019
6105 Clouds 11 1005 58 10000 2.1 170 18:22 17.12.2019
6106 Clouds 11 1003 77 0 3.82 181 17:59 17.12.2019
6107 Clouds 11 1003 70 0 3.82 181 17:41 17.12.2019
6108 Clouds 11 1003 70 0 3.82 181 17:41 17.12.2019
6109 Clouds 12 1004 54 10000 3.6 180 17:19 17.12.2019
6110 Clouds 12 1004 54 10000 3.6 180 16:56 17.12.2019
6111 Clouds 12 1004 54 10000 3.6 190 16:38 17.12.2019
6112 Clouds 11 1003 69 0 0.89 270 16:19 17.12.2019
6113 Clouds 12 1004 51 10000 3.1 210 15:58 17.12.2019
6114 Clouds 12 1003 51 10000 3.6 190 15:37 17.12.2019
6115 Clouds 13 1003 51 10000 4.1 200 15:19 17.12.2019
6116 Clouds 13 1003 51 10000 4.1 200 14:55 17.12.2019
6117 Clouds 13 1003 51 10000 4.1 200 14:55 17.12.2019
6118 Clouds 13 1003 51 10000 5.7 210 14:37 17.12.2019
6119 Clouds 14 1003 48 10000 6.2 220 14:18 17.12.2019
6120 Clouds 14 1003 48 10000 6.2 220 14:18 17.12.2019
6121 Clouds 13 1003 48 10000 6.2 220 13:55 17.12.2019
6122 Clouds 14 1003 51 10000 3.6 230 13:37 17.12.2019
6123 Clouds 14 1003 51 10000 3.6 230 13:18 17.12.2019
6124 Clouds 13 1003 51 10000 3.6 230 12:55 17.12.2019
6125 Clouds 13 1003 54 10000 3.6 230 12:37 17.12.2019
6126 Clouds 13 1003 58 10000 4.6 220 12:18 17.12.2019
6127 Clouds 12 1003 58 10000 4.6 220 11:54 17.12.2019
6128 Clouds 12 1003 58 10000 4.6 220 11:36 17.12.2019
6129 Clouds 12 1004 58 10000 4.6 210 11:18 17.12.2019
6130 Clouds 12 1003 58 10000 5.1 200 10:54 17.12.2019
6131 Clouds 11 1003 58 10000 5.1 200 10:36 17.12.2019
6132 Clouds 10 1003 71 10000 3.1 250 10:18 17.12.2019
6133 Clouds 10 1003 66 10000 2.1 290 09:42 17.12.2019
6134 Clouds 10 1002 75 10000 1 0 09:21 17.12.2019
6135 Clouds 10 1002 75 10000 1 0 09:21 17.12.2019
6136 Clouds 9 1002 75 10000 1 0 08:58 17.12.2019
6137 Clouds 9 1002 76 10000 5.31 218 08:39 17.12.2019
6138 Clouds 8 1002 81 10000 1.5 100 08:21 17.12.2019
6139 Clouds 8 1002 81 10000 1.5 100 07:56 17.12.2019
6140 Clouds 7 1002 93 10000 2.1 80 07:38 17.12.2019
6141 Clouds 7 1002 93 10000 2.6 110 07:18 17.12.2019
6142 Clouds 8 1001 98 0 5.8 222 06:35 17.12.2019
6143 Clouds 8 1003 81 0 5.8 222 05:57 17.12.2019
6144 Clouds 8 1001 74 0 1.34 292 05:38 17.12.2019
6145 Clouds 7 1002 96 0 4.87 201 04:46 17.12.2019
6146 Clouds 7 1004 90 0 4.87 201 02:47 17.12.2019
6147 Clouds 6 1002 99 0 3.07 178 01:56 17.12.2019
6148 Clouds 6 1002 99 0 3.07 178 01:56 17.12.2019
6149 Clouds 6 1004 100 10000 2.1 90 01:20 17.12.2019
6150 Clouds 6 1004 100 10000 2.1 90 00:38 17.12.2019
6151 Clouds 6 1004 100 10000 2.1 90 00:20 17.12.2019
6152 Clouds 6 1005 93 5000 1.5 100 23:42 16.12.2019
6153 Clouds 6 1005 93 5000 1.5 100 23:42 16.12.2019
6154 Clouds 6 1005 93 10000 2.6 100 23:19 16.12.2019
6155 Clouds 6 1005 93 10000 2.6 100 22:58 16.12.2019
6156 Clouds 6 1005 93 10000 2.6 110 22:38 16.12.2019
6157 Clouds 6 1005 93 10000 2.1 110 22:20 16.12.2019
6158 Clouds 6 1005 93 10000 2.1 110 22:20 16.12.2019
6159 Clouds 6 1005 93 10000 2.1 110 21:56 16.12.2019
6160 Clouds 7 1006 93 10000 2.1 120 21:38 16.12.2019
6161 Clouds 7 1006 93 10000 1 110 21:20 16.12.2019
6162 Clouds 7 1006 93 10000 1 110 20:58 16.12.2019
6163 Clouds 7 1006 87 10000 1.5 140 20:38 16.12.2019
6164 Clouds 7 1006 93 10000 1.5 150 20:19 16.12.2019
6165 Clouds 8 1006 93 10000 1.5 150 19:56 16.12.2019
6166 Clouds 8 1006 87 10000 2.1 160 19:37 16.12.2019
6167 Clouds 8 1006 93 10000 2.1 160 19:19 16.12.2019
6168 Clouds 8 1006 93 10000 2.1 160 18:56 16.12.2019
6169 Clouds 8 1006 93 10000 2.1 160 18:56 16.12.2019
6170 Clouds 8 1006 93 10000 2.1 160 18:38 16.12.2019
6171 Clouds 8 1006 93 10000 1.5 110 18:20 16.12.2019
6172 Clouds 8 1006 93 10000 1.5 110 17:57 16.12.2019
6173 Clouds 8 1006 93 10000 1.5 110 17:57 16.12.2019
6174 Clouds 8 1006 93 10000 2.1 100 17:38 16.12.2019
6175 Clouds 8 1006 87 10000 1.5 120 17:20 16.12.2019
6176 Clouds 8 1006 87 10000 1.5 120 16:57 16.12.2019
6177 Clouds 8 1006 93 10000 1.5 140 16:38 16.12.2019
6178 Clouds 8 1006 87 10000 1.5 120 16:19 16.12.2019
6179 Clouds 8 1006 87 10000 1.5 120 15:58 16.12.2019
6180 Drizzle 8 1006 81 10000 1.97 182 15:38 16.12.2019
6181 Clouds 8 1006 76 10000 1 100 15:20 16.12.2019
6182 Clouds 8 1006 76 10000 1 100 14:55 16.12.2019
6183 Clouds 9 1006 76 10000 1.97 182 14:37 16.12.2019
6184 Rain 9 1006 76 10000 1.5 0 14:19 16.12.2019
6185 Rain 9 1006 76 10000 1.5 0 13:56 16.12.2019
6186 Rain 9 1007 76 10000 1.5 150 13:37 16.12.2019
6187 Rain 8 1007 81 10000 2.1 150 13:19 16.12.2019
6188 Rain 8 1007 81 10000 2.1 150 12:57 16.12.2019
6189 Rain 8 1007 75 10000 2.1 180 12:39 16.12.2019
6190 Rain 8 1007 75 10000 3.1 170 12:18 16.12.2019
6191 Rain 8 1007 75 10000 3.1 170 11:57 16.12.2019
6192 Rain 8 1007 81 10000 4.1 160 11:39 16.12.2019
6193 Clouds 8 1008 81 10000 2.6 160 11:19 16.12.2019
6194 Clouds 8 1008 75 10000 1.5 0 10:55 16.12.2019
6195 Clouds 7 1008 75 10000 1.5 0 10:36 16.12.2019
6196 Clouds 7 1008 81 10000 1.5 0 10:18 16.12.2019
6197 Clouds 7 1007 81 10000 2.1 160 09:44 16.12.2019
6198 Clouds 7 1007 81 10000 2.1 160 09:44 16.12.2019
6199 Clouds 7 1007 81 10000 2.1 160 09:26 16.12.2019
6200 Clouds 6 1007 80 10000 2.1 150 08:41 16.12.2019
6201 Clouds 5 1007 80 10000 2.1 160 08:21 16.12.2019
6202 Clouds 5 1007 80 10000 2.1 160 07:57 16.12.2019
6203 Clouds 5 1007 75 10000 2.6 150 07:38 16.12.2019
6204 Clouds 6 1007 75 10000 2.1 140 07:19 16.12.2019
6205 Clouds 5 1008 93 0 2.66 179 06:40 16.12.2019
6206 Clouds 5 1008 94 0 2.66 179 06:22 16.12.2019
6207 Clouds 5 1008 94 0 2.66 179 06:22 16.12.2019
6208 Clouds 4 1006 88 0 0.89 270 05:44 16.12.2019
6209 Clouds 4 1006 95 0 2.66 179 05:26 16.12.2019
6210 Clouds 4 1008 93 0 3.1 200 03:41 16.12.2019
6211 Clouds 4 1006 93 0 4.68 219 01:57 16.12.2019
6212 Clouds 4 1007 82 0 0.89 292 01:39 16.12.2019
6213 Clouds 4 1006 92 0 4.82 215 00:41 16.12.2019
6214 Clouds 4 1011 83 0 4.82 215 00:23 16.12.2019
6215 Clouds 4 1006 93 0 4.82 215 23:58 15.12.2019
6216 Clouds 4 1008 92 0 0.89 30 23:38 15.12.2019
6217 Clouds 5 1008 92 0 0.45 31 23:19 15.12.2019
6218 Clouds 5 1006 78 0 0.89 292 22:55 15.12.2019
6219 Clouds 5 1006 79 0 0.89 270 22:37 15.12.2019
6220 Clouds 5 1006 80 0 0.89 270 22:18 15.12.2019
6221 Clouds 5 1006 80 0 0.45 270 21:55 15.12.2019
6222 Clouds 5 1006 80 0 0.45 292 21:37 15.12.2019
6223 Clouds 5 1005 79 0 0.45 270 21:19 15.12.2019
6224 Clouds 6 1005 79 0 0.45 270 20:55 15.12.2019
6225 Clouds 6 1005 79 0 0.45 270 20:55 15.12.2019
6226 Clouds 6 1004 76 10000 5.1 220 20:37 15.12.2019
6227 Clouds 6 1004 76 10000 5.1 220 20:18 15.12.2019
6228 Clear 6 1004 77 10000 5.1 220 19:56 15.12.2019
6229 Clouds 6 1004 76 10000 5.1 220 19:38 15.12.2019
6230 Clouds 6 1003 76 10000 6.2 230 19:18 15.12.2019
6231 Clear 6 1003 77 10000 6.2 230 18:55 15.12.2019
6232 Clouds 6 1003 76 10000 6.7 230 18:37 15.12.2019
6233 Clear 6 1002 77 10000 6.2 240 18:18 15.12.2019
6234 Clouds 6 1002 76 10000 5.7 230 17:56 15.12.2019
6235 Clouds 6 1002 76 10000 5.7 230 17:36 15.12.2019
6236 Clear 6 1001 72 10000 5.7 230 17:18 15.12.2019
6237 Clear 6 1001 72 10000 5.7 230 17:18 15.12.2019
6238 Clear 6 1001 72 10000 6.2 230 16:54 15.12.2019
6239 Clear 6 1001 72 10000 6.2 230 16:36 15.12.2019
6240 Clear 7 1001 72 10000 7.2 240 16:18 15.12.2019
6241 Clear 7 1001 72 10000 7.2 240 15:54 15.12.2019
6242 Clear 7 1000 72 10000 8.2 240 15:36 15.12.2019
6243 Clear 8 999 72 10000 8.7 250 15:18 15.12.2019
6244 Clear 8 999 72 10000 8.7 250 14:54 15.12.2019
6245 Clear 8 999 57 10000 8.7 250 14:36 15.12.2019
6246 Clouds 8 998 61 10000 8.7 250 14:18 15.12.2019
6247 Clouds 8 998 61 10000 8.7 250 14:18 15.12.2019
6248 Clouds 9 998 61 10000 8.7 250 13:54 15.12.2019
6249 Clouds 9 998 61 10000 8.2 250 13:36 15.12.2019
6250 Clouds 8 997 61 10000 9.8 250 13:18 15.12.2019
6251 Clouds 8 997 61 10000 9.8 250 12:54 15.12.2019
6252 Clouds 8 997 66 10000 8.7 250 12:36 15.12.2019
6253 Clouds 8 997 61 10000 8.7 250 12:18 15.12.2019
6254 Clouds 8 996 66 10000 7.7 240 11:38 15.12.2019
6255 Clouds 8 996 66 10000 7.7 240 11:38 15.12.2019
6256 Clouds 8 996 66 10000 7.7 240 11:38 15.12.2019
6257 Rain 8 996 70 10000 7.7 240 11:19 15.12.2019
6258 Clouds 7 994 75 10000 7.7 230 10:56 15.12.2019
6259 Clouds 7 994 75 10000 7.7 230 10:38 15.12.2019
6260 Clouds 7 994 75 10000 7.7 230 10:38 15.12.2019
6261 Rain 7 994 81 10000 9.8 240 10:19 15.12.2019
6262 Rain 7 994 81 10000 9.8 240 09:57 15.12.2019
6263 Rain 8 993 81 7000 6.7 220 09:37 15.12.2019
6264 Clouds 8 993 81 10000 4.1 180 09:19 15.12.2019
6265 Clouds 8 993 81 10000 4.1 180 08:54 15.12.2019
6266 Rain 7 992 91 0 1.34 270 08:36 15.12.2019
6267 Clouds 7 992 91 0 1.34 292 08:18 15.12.2019
6268 Clouds 7 994 93 0 4.38 189 07:43 15.12.2019
6269 Clouds 7 992 90 0 1.34 270 07:25 15.12.2019
6270 Clouds 6 993 89 0 1.34 292 06:26 15.12.2019
6271 Clouds 5 998 95 0 4.38 189 05:42 15.12.2019
6272 Clouds 5 994 87 0 0.89 270 05:21 15.12.2019
6273 Clouds 4 995 85 0 0.89 270 04:20 15.12.2019
6274 Clouds 4 997 91 0 3.39 190 02:55 15.12.2019
6275 Clouds 4 997 90 0 3.39 190 02:32 15.12.2019
6276 Clouds 3 998 89 0 0.45 288 01:41 15.12.2019
6277 Clouds 4 1000 88 0 6.45 230 01:19 15.12.2019
6278 Clouds 4 1000 87 0 6.45 230 00:49 15.12.2019
6279 Clouds 4 998 89 0 1.34 266 00:31 15.12.2019
6280 Clouds 4 998 82 0 1.79 270 23:54 14.12.2019
6281 Clouds 4 1000 84 0 1.79 259 23:36 14.12.2019
6282 Rain 4 998 86 0 0.89 270 23:18 14.12.2019
6283 Rain 4 996 93 0 0.89 276 22:41 14.12.2019
6284 Rain 4 1002 86 0 11.51 270 22:22 14.12.2019
6285 Rain 4 997 94 0 2.68 259 21:58 14.12.2019
6286 Rain 4 994 88 0 1.79 320 21:40 14.12.2019
6287 Rain 4 995 90 0 2.24 270 21:20 14.12.2019
6288 Rain 5 994 89 0 2.24 270 20:59 14.12.2019
6289 Rain 5 993 86 0 4.02 270 20:41 14.12.2019
6290 Rain 5 992 89 0 2.24 270 20:20 14.12.2019
6291 Rain 5 992 92 0 2.24 270 19:59 14.12.2019
6292 Clouds 5 992 94 10000 5.1 220 19:39 14.12.2019
6293 Clouds 4 992 94 10000 5.1 220 19:21 14.12.2019
6294 Clouds 4 992 94 10000 5.1 220 18:56 14.12.2019
6295 Clouds 4 992 94 10000 5.1 220 18:38 14.12.2019
6296 Clouds 5 992 70 10000 6.2 240 18:20 14.12.2019
6297 Clouds 5 992 94 10000 5.7 230 17:54 14.12.2019
6298 Clouds 5 992 94 10000 5.7 230 17:36 14.12.2019
6299 Clouds 5 991 70 10000 6.2 240 17:18 14.12.2019
6300 Clouds 5 991 70 10000 7.2 240 16:40 14.12.2019
6301 Clouds 5 990 70 10000 8.2 250 16:19 14.12.2019
6302 Clouds 5 990 70 10000 8.2 250 15:55 14.12.2019
6303 Rain 5 989 80 10000 8.7 260 15:36 14.12.2019
6304 Rain 5 989 80 10000 8.7 260 15:18 14.12.2019
6305 Clouds 6 988 80 10000 8.2 250 14:40 14.12.2019
6306 Clouds 5 988 80 10000 8.2 250 14:22 14.12.2019
6307 Clouds 5 988 80 10000 8.2 250 13:59 14.12.2019
6308 Clouds 5 988 81 10000 7.2 250 13:41 14.12.2019
6309 Clouds 5 988 81 10000 7.2 250 13:41 14.12.2019
6310 Clouds 5 987 80 10000 7.2 260 13:19 14.12.2019
6311 Clouds 5 987 80 10000 7.2 260 12:57 14.12.2019
6312 Clouds 5 987 86 10000 7.2 250 12:38 14.12.2019
6313 Rain 4 986 86 10000 6.7 250 12:20 14.12.2019
6314 Rain 4 986 86 10000 6.7 250 12:20 14.12.2019
6315 Rain 4 985 86 10000 5.1 250 11:56 14.12.2019
6316 Rain 4 985 86 10000 5.1 250 11:38 14.12.2019
6317 Rain 4 985 86 10000 4.6 240 11:19 14.12.2019
6318 Rain 4 984 86 10000 4.1 250 10:56 14.12.2019
6319 Rain 4 984 86 10000 4.1 250 10:38 14.12.2019
6320 Rain 4 983 93 10000 1 0 10:19 14.12.2019
6321 Rain 3 983 86 10000 1.5 210 09:43 14.12.2019
6322 Rain 3 983 80 10000 3.1 200 09:23 14.12.2019
6323 Rain 3 983 80 10000 3.1 200 08:57 14.12.2019
6324 Rain 3 981 93 0 0.89 270 08:38 14.12.2019
6325 Rain 3 981 93 0 0.89 270 08:38 14.12.2019
6326 Clouds 3 982 94 0 4.55 215 08:19 14.12.2019
6327 Rain 3 981 98 0 4.19 214 07:40 14.12.2019
6328 Rain 4 981 90 0 1.34 270 07:21 14.12.2019
6329 Rain 4 981 89 0 0.89 270 06:55 14.12.2019
6330 Rain 4 981 89 0 1.34 270 06:36 14.12.2019
6331 Rain 4 981 89 0 2.24 270 05:50 14.12.2019
6332 Rain 4 982 92 0 1.34 270 04:29 14.12.2019
6333 Rain 3 983 95 0 1.34 270 02:24 14.12.2019
6334 Rain 3 983 95 0 0.45 270 01:44 14.12.2019
6335 Rain 2 984 96 0 4.9 249 01:22 14.12.2019
6336 Rain 2 983 94 0 0.45 270 00:43 14.12.2019
6337 Rain 2 982 94 0 4.9 249 00:24 14.12.2019
6338 Rain 2 984 95 0 4.9 249 23:42 13.12.2019
6339 Rain 2 982 94 0 0.45 270 23:20 13.12.2019
6340 Rain 2 983 95 0 0.45 269 22:59 13.12.2019
6341 Rain 2 982 94 0 0.45 270 22:40 13.12.2019
6342 Clouds 2 982 80 10000 2.1 160 22:19 13.12.2019
6343 Clouds 2 982 80 10000 2.1 160 21:55 13.12.2019
6344 Clouds 2 982 80 10000 2.1 160 21:36 13.12.2019
6345 Clouds 2 982 80 10000 2.1 160 21:18 13.12.2019
6346 Clouds 2 982 80 10000 2.1 160 20:40 13.12.2019
6347 Clouds 2 981 89 10000 0.76 194 20:21 13.12.2019
6348 Clouds 2 981 89 10000 0.76 194 19:58 13.12.2019
6349 Clouds 2 981 89 10000 0.76 194 19:40 13.12.2019
6350 Clouds 2 981 80 10000 2.1 130 19:20 13.12.2019
6351 Clouds 2 980 89 10000 3.1 110 18:57 13.12.2019
6352 Clouds 2 980 89 10000 3.1 100 18:39 13.12.2019
6353 Clouds 2 980 89 10000 3.1 100 18:18 13.12.2019
6354 Clouds 2 980 89 10000 3.6 110 17:41 13.12.2019
6355 Drizzle 2 980 88 10000 3.6 110 17:19 13.12.2019
6356 Drizzle 2 980 88 10000 3.6 110 17:19 13.12.2019
6357 Clouds 2 980 88 10000 3.6 100 16:59 13.12.2019
6358 Drizzle 2 979 80 10000 3.6 100 16:39 13.12.2019
6359 Drizzle 2 979 80 10000 3.6 100 16:20 13.12.2019
6360 Snow 2 979 80 8000 3.1 100 15:43 13.12.2019
6361 Snow 2 979 80 8000 3.6 100 15:23 13.12.2019
6362 Snow 2 979 80 8000 3.1 90 14:59 13.12.2019
6363 Snow 2 979 80 8000 3.1 90 14:41 13.12.2019
6364 Snow 3 979 80 10000 5.1 100 14:20 13.12.2019
6365 Clouds 3 978 80 10000 5.7 110 13:57 13.12.2019
6366 Clouds 3 978 80 10000 5.7 110 13:37 13.12.2019
6367 Clouds 3 978 80 10000 5.7 110 13:19 13.12.2019
6368 Clouds 3 978 80 10000 5.7 110 12:42 13.12.2019
6369 Clouds 3 979 80 10000 5.1 100 12:20 13.12.2019
6370 Clouds 3 979 74 10000 5.7 110 11:57 13.12.2019
6371 Clouds 3 979 74 10000 5.7 110 11:57 13.12.2019
6372 Clouds 2 979 80 10000 4.6 100 11:39 13.12.2019
6373 Clouds 2 979 80 10000 4.6 100 11:39 13.12.2019
6374 Clouds 2 979 80 10000 4.6 100 11:20 13.12.2019
6375 Clouds 2 980 80 10000 4.1 100 10:42 13.12.2019
6376 Clouds 2 980 80 10000 4.1 100 10:42 13.12.2019
6377 Clouds 2 980 80 10000 4.1 100 10:42 13.12.2019
6378 Clouds 2 980 80 10000 5.1 100 10:23 13.12.2019
6379 Clouds 2 980 80 10000 5.7 100 09:56 13.12.2019
6380 Clouds 1 980 73 10000 3.6 100 09:38 13.12.2019
6381 Clouds 1 980 73 10000 3.6 100 09:18 13.12.2019
6382 Clouds 1 980 73 10000 3.6 100 09:18 13.12.2019
6383 Clouds 1 981 73 10000 3.6 100 08:41 13.12.2019
6384 Clouds 1 981 80 10000 4.6 110 08:23 13.12.2019
6385 Clear 1 982 72 10000 3.6 100 07:45 13.12.2019
6386 Clear 1 982 72 10000 3.1 90 07:21 13.12.2019
6387 Clear 1 979 73 0 0.45 292 06:54 13.12.2019
6388 Clear 1 979 72 0 0.89 292 06:28 13.12.2019
6389 Clear 1 980 72 0 0.89 292 05:46 13.12.2019
6390 Clear 1 980 72 0 1.34 292 05:26 13.12.2019
6391 Clear 1 981 74 0 0.89 292 04:35 13.12.2019
6392 Clear 1 983 79 0 0.89 292 03:46 13.12.2019
6393 Clear 1 985 81 0 0.89 270 02:34 13.12.2019
6394 Clouds 1 991 77 10000 3.1 110 01:44 13.12.2019
6395 Clear 1 991 77 10000 3.1 110 00:56 13.12.2019
6396 Clear 1 988 84 0 0.45 315 00:37 13.12.2019
6397 Clear 2 989 85 0 0.45 292 23:59 12.12.2019
6398 Clear 2 989 85 0 0.45 292 23:59 12.12.2019
6399 Clear 2 990 84 0 0.45 225 23:39 12.12.2019
6400 Clouds 2 995 85 10000 2.6 120 23:21 12.12.2019
6401 Clouds 2 995 85 10000 2.6 120 22:56 12.12.2019
6402 Clouds 2 995 85 10000 2.6 120 22:37 12.12.2019
6403 Clouds 2 995 85 10000 2.6 120 22:18 12.12.2019
6404 Clouds 3 995 86 10000 2.6 140 21:55 12.12.2019
6405 Clouds 3 996 86 10000 2.1 130 21:36 12.12.2019
6406 Clouds 3 996 86 10000 2.1 130 21:36 12.12.2019
6407 Clouds 3 996 86 10000 2.1 130 21:18 12.12.2019
6408 Clouds 3 996 86 10000 2.1 130 20:55 12.12.2019
6409 Clouds 3 997 80 10000 2.6 140 20:37 12.12.2019
6410 Clouds 3 997 80 10000 2.6 140 20:19 12.12.2019
6411 Clouds 3 997 80 10000 2.1 170 19:42 12.12.2019
6412 Clouds 3 998 75 10000 2.6 160 19:23 12.12.2019
6413 Clouds 3 998 80 10000 2.1 160 18:58 12.12.2019
6414 Clouds 3 998 80 10000 2.1 160 18:40 12.12.2019
6415 Clouds 4 998 75 10000 2.1 180 18:21 12.12.2019
6416 Clouds 4 998 75 10000 3.6 200 17:58 12.12.2019
6417 Clouds 4 998 75 10000 3.6 200 17:40 12.12.2019
6418 Clouds 4 999 75 10000 4.1 190 17:21 12.12.2019
6419 Clouds 4 999 80 10000 4.6 200 16:58 12.12.2019
6420 Clouds 4 999 80 10000 4.6 200 16:40 12.12.2019
6421 Clouds 4 999 80 10000 3.6 200 16:21 12.12.2019
6422 Clouds 4 999 80 10000 3.6 200 16:21 12.12.2019
6423 Clouds 4 1000 75 10000 3.6 200 15:57 12.12.2019
6424 Clouds 4 1000 75 10000 3.6 200 15:39 12.12.2019
6425 Clouds 4 1000 80 10000 2.6 200 15:18 12.12.2019
6426 Clouds 4 1000 80 10000 3.1 200 14:56 12.12.2019
6427 Clouds 4 1000 75 10000 3.6 200 14:36 12.12.2019
6428 Clouds 4 1000 75 10000 3.6 200 14:18 12.12.2019
6429 Clouds 4 1001 75 10000 4.6 210 13:54 12.12.2019
6430 Clouds 4 1001 75 10000 4.1 200 13:36 12.12.2019
6431 Clouds 4 1001 75 10000 4.1 200 13:18 12.12.2019
6432 Clouds 4 1001 75 10000 5.1 220 12:41 12.12.2019
6433 Clouds 4 1001 75 10000 5.1 220 12:40 12.12.2019
6434 Clouds 4 1001 80 10000 4.1 210 12:22 12.12.2019
6435 Clouds 4 1002 86 10000 3.6 210 11:59 12.12.2019
6436 Clouds 4 1002 80 10000 3.6 210 11:39 12.12.2019
6437 Clouds 4 1002 80 10000 3.6 210 11:39 12.12.2019
6438 Clouds 4 1002 80 10000 3.6 210 11:21 12.12.2019
6439 Clouds 3 1002 80 10000 3.1 200 10:58 12.12.2019
6440 Clouds 3 1002 80 10000 3.1 200 10:40 12.12.2019
6441 Clouds 3 1002 86 10000 2.6 180 10:21 12.12.2019
6442 Clouds 2 1002 86 10000 2.1 160 09:56 12.12.2019
6443 Clouds 2 1002 86 10000 2.1 170 09:38 12.12.2019
6444 Clouds 2 1002 86 10000 2.1 170 09:19 12.12.2019
6445 Clouds 2 1002 86 10000 2.1 200 08:47 12.12.2019
6446 Clouds 2 1002 88 10000 1 0 08:28 12.12.2019
6447 Clouds 2 1002 86 10000 2.6 210 07:54 12.12.2019
6448 Clouds 2 1002 86 10000 2.6 200 07:36 12.12.2019
6449 Clouds 2 1002 86 10000 2.6 200 07:18 12.12.2019
6450 Clouds 2 1002 97 0 3.58 219 06:41 12.12.2019
6451 Clouds 2 1001 95 0 0.45 270 06:21 12.12.2019
6452 Clouds 2 1000 10 0 3.58 219 05:26 12.12.2019
6453 Clouds 2 1001 99 0 2.67 222 04:31 12.12.2019
6454 Clouds 1 1001 99 0 2.67 222 02:41 12.12.2019
6455 Clouds 1 1001 96 0 0.45 270 02:23 12.12.2019
6456 Rain 1 1002 96 0 0.45 292 01:58 12.12.2019
6457 Rain 1 1002 96 0 0.45 292 01:35 12.12.2019
6458 Rain 1 1002 96 0 0.45 270 00:49 12.12.2019
6459 Rain 1 1003 96 0 3.18 236 00:22 12.12.2019
6460 Rain 1 1002 96 0 3.18 236 23:58 11.12.2019
6461 Rain 1 1002 96 0 0.45 270 23:36 11.12.2019
6462 Rain 1 1004 90 10000 3.1 230 23:18 11.12.2019
6463 Rain 1 1004 90 10000 3.1 230 22:55 11.12.2019
6464 Rain 1 1004 90 10000 3.1 230 22:37 11.12.2019
6465 Rain 1 1004 90 10000 3.1 230 22:18 11.12.2019
6466 Clouds 1 1004 90 10000 3.1 240 21:54 11.12.2019
6467 Clouds 1 1005 90 10000 3.6 230 21:36 11.12.2019
6468 Clouds 1 1005 90 10000 3.6 230 21:18 11.12.2019
6469 Clouds 1 1005 90 10000 4.1 230 20:54 11.12.2019
6470 Clouds 1 1005 93 10000 2.1 210 20:36 11.12.2019
6471 Clouds 1 1005 93 10000 2.1 210 20:18 11.12.2019
6472 Clouds 1 1005 93 10000 2.6 210 19:41 11.12.2019
6473 Rain 1 1005 91 10000 3.1 210 19:23 11.12.2019
6474 Rain 1 1005 93 10000 2.6 220 18:59 11.12.2019
6475 Rain 1 1006 91 10000 4.1 220 18:39 11.12.2019
6476 Rain 1 1006 91 10000 4.1 220 18:19 11.12.2019
6477 Rain 2 1006 86 10000 3.1 200 17:56 11.12.2019
6478 Rain 2 1006 86 10000 3.1 200 17:38 11.12.2019
6479 Rain 2 1006 86 10000 3.1 200 17:18 11.12.2019
6480 Rain 2 1006 86 10000 3.6 200 16:55 11.12.2019
6481 Clouds 2 1006 86 10000 3.1 200 16:37 11.12.2019
6482 Clouds 2 1006 86 10000 3.1 200 16:18 11.12.2019
6483 Drizzle 2 1007 86 8000 3.1 200 15:56 11.12.2019
6484 Drizzle 2 1007 86 7000 3.1 210 15:37 11.12.2019
6485 Drizzle 2 1007 86 7000 3.1 210 15:18 11.12.2019
6486 Drizzle 2 1007 86 8000 3.1 200 14:54 11.12.2019
6487 Rain 2 1008 93 10000 2.6 200 14:36 11.12.2019
6488 Rain 2 1008 93 10000 2.6 200 14:36 11.12.2019
6489 Rain 2 1008 93 10000 2.6 200 14:18 11.12.2019
6490 Rain 2 1008 93 10000 3.1 200 13:42 11.12.2019
6491 Clouds 3 1008 93 10000 2.6 180 13:22 11.12.2019
6492 Drizzle 3 1009 93 8000 3.1 190 12:58 11.12.2019
6493 Rain 3 1009 86 9000 3.6 190 12:39 11.12.2019
6494 Rain 3 1009 86 9000 3.6 190 12:21 11.12.2019
6495 Rain 3 1009 86 9000 4.1 200 11:58 11.12.2019
6496 Rain 3 1010 86 9000 3.6 200 11:39 11.12.2019
6497 Rain 3 1010 86 9000 3.6 200 11:19 11.12.2019
6498 Rain 3 1010 86 9000 3.6 200 11:19 11.12.2019
6499 Rain 3 1010 86 9000 3.6 200 10:59 11.12.2019
6500 Rain 3 1010 86 9000 3.6 200 10:39 11.12.2019
6501 Rain 3 1010 86 9000 3.6 200 10:21 11.12.2019
6502 Rain 3 1010 86 9000 3.1 200 09:56 11.12.2019
6503 Rain 3 1010 86 8000 3.6 210 09:38 11.12.2019
6504 Rain 3 1010 86 8000 3.6 210 09:19 11.12.2019
6505 Rain 3 1010 80 10000 2.6 200 08:55 11.12.2019
6506 Drizzle 3 1011 74 10000 4.1 220 08:36 11.12.2019
6507 Drizzle 3 1011 69 10000 4.1 220 08:18 11.12.2019
6508 Rain 3 1011 65 10000 6.7 220 07:42 11.12.2019
6509 Rain 3 1011 60 10000 6.2 220 07:22 11.12.2019
6510 Rain 4 1009 82 0 2.68 292 06:46 11.12.2019
6511 Rain 4 1009 79 0 2.68 292 06:24 11.12.2019
6512 Rain 4 1010 77 0 3.13 247 05:54 11.12.2019
6513 Rain 4 1010 76 0 3.58 270 05:34 11.12.2019
6514 Clouds 4 1010 79 0 3.13 270 04:49 11.12.2019
6515 Clouds 5 1011 74 0 2.68 270 03:26 11.12.2019
6516 Clouds 4 1012 75 0 3.58 270 02:35 11.12.2019
6517 Clouds 4 1013 78 0 2.68 247 01:22 11.12.2019
6518 Clouds 4 1014 80 0 3.58 225 00:38 11.12.2019
6519 Clouds 4 1014 79 0 1.79 225 00:19 11.12.2019
6520 Clouds 3 1015 80 0 2.68 270 23:44 10.12.2019
6521 Clouds 3 1018 84 0 6.16 204 23:23 10.12.2019
6522 Clear 3 1015 80 0 1.34 270 22:56 10.12.2019
6523 Clear 3 1018 69 10000 3.1 170 22:38 10.12.2019
6524 Clear 3 1018 69 10000 3.1 170 22:20 10.12.2019
6525 Clear 3 1018 69 10000 3.1 170 21:54 10.12.2019
6526 Clear 3 1019 74 10000 3.1 160 21:36 10.12.2019
6527 Clear 3 1019 74 10000 3.1 160 21:18 10.12.2019
6528 Clear 3 1019 74 10000 2.6 180 20:55 10.12.2019
6529 Clear 3 1020 69 10000 3.6 180 20:36 10.12.2019
6530 Clouds 2 1020 69 10000 3.6 180 20:18 10.12.2019
6531 Clouds 2 1020 69 10000 3.6 180 20:18 10.12.2019
6532 Clouds 2 1020 74 10000 3.1 170 19:44 10.12.2019
6533 Clouds 2 1020 74 10000 3.6 170 19:25 10.12.2019
6534 Clouds 2 1021 74 10000 2.6 170 18:57 10.12.2019
6535 Clouds 2 1021 74 10000 2.6 170 18:39 10.12.2019
6536 Clouds 2 1021 74 10000 2.6 170 18:19 10.12.2019
6537 Clouds 2 1021 74 10000 3.1 170 17:54 10.12.2019
6538 Clouds 2 1022 69 10000 2.6 200 17:36 10.12.2019
6539 Clouds 3 1022 69 10000 2.6 200 17:18 10.12.2019
6540 Clouds 3 1023 82 10000 2.6 200 16:42 10.12.2019
6541 Clouds 3 1022 82 10000 3.6 210 16:20 10.12.2019
6542 Clouds 4 1023 82 10000 4.6 210 15:54 10.12.2019
6543 Clouds 4 1023 82 10000 4.1 220 15:36 10.12.2019
6544 Clouds 5 1023 82 10000 4.1 220 15:18 10.12.2019
6545 Clouds 5 1023 82 10000 4.1 220 15:18 10.12.2019
6546 Clouds 5 1023 70 10000 4.1 240 14:54 10.12.2019
6547 Clouds 5 1023 70 10000 5.1 250 14:36 10.12.2019
6548 Clouds 5 1023 70 10000 5.1 250 14:18 10.12.2019
6549 Clouds 5 1023 70 10000 5.1 250 14:18 10.12.2019
6550 Clouds 5 1023 75 10000 4.6 250 13:54 10.12.2019
6551 Clouds 5 1023 75 10000 4.6 250 13:36 10.12.2019
6552 Clouds 5 1023 75 10000 4.6 250 13:18 10.12.2019
6553 Clouds 5 1024 75 10000 4.1 260 12:38 10.12.2019
6554 Clouds 5 1024 75 10000 4.1 260 12:20 10.12.2019
6555 Clouds 4 1023 80 10000 4.1 250 11:42 10.12.2019
6556 Clouds 4 1023 80 10000 4.1 250 11:23 10.12.2019
6557 Clouds 3 1023 86 10000 3.6 260 10:56 10.12.2019
6558 Clouds 3 1023 86 10000 3.6 260 10:56 10.12.2019
6559 Clouds 3 1023 82 10000 3.6 260 10:37 10.12.2019
6560 Clouds 3 1023 82 10000 3.6 260 10:19 10.12.2019
6561 Snow 2 1022 82 10000 3.1 270 09:55 10.12.2019
6562 Snow 2 1022 82 10000 3.6 260 09:37 10.12.2019
6563 Snow 2 1022 82 10000 3.6 260 09:18 10.12.2019
6564 Clouds 2 1022 86 10000 3.6 280 08:54 10.12.2019
6565 Rain 2 1022 86 10000 4.6 280 08:36 10.12.2019
6566 Rain 2 1022 86 10000 4.6 280 08:18 10.12.2019
6567 Clouds 2 1021 86 10000 5.1 280 07:42 10.12.2019
6568 Clouds 3 1020 86 10000 4.1 280 07:24 10.12.2019
6569 Snow 3 1020 90 0 4.98 275 06:46 10.12.2019
6570 Snow 3 1022 88 0 4.98 275 06:19 10.12.2019
6571 Snow 3 1019 88 0 4.98 275 05:54 10.12.2019
6572 Clouds 3 1021 88 0 5.58 277 04:52 10.12.2019
6573 Clouds 3 1020 88 0 5.58 277 03:38 10.12.2019
6574 Clouds 3 1015 87 0 5.58 277 02:46 10.12.2019
6575 Snow 3 1015 87 0 5.76 279 01:45 10.12.2019
6576 Clouds 3 1017 86 0 6.46 278 01:21 10.12.2019
6577 Clouds 4 1014 92 0 3.13 289 00:42 10.12.2019
6578 Clouds 4 1015 87 0 6.46 278 00:21 10.12.2019
6579 Clouds 4 1012 88 0 6.46 278 23:42 09.12.2019
6580 Clouds 4 1012 88 0 6.46 278 23:42 09.12.2019
6581 Clouds 4 1011 89 0 6.46 278 23:23 09.12.2019
6582 Clouds 4 1011 89 0 6.46 278 23:23 09.12.2019
6583 Rain 4 1013 86 0 6.66 308 22:58 09.12.2019
6584 Clouds 4 1008 81 10000 5.1 290 22:40 09.12.2019
6585 Clouds 5 1008 81 10000 5.1 290 22:20 09.12.2019
6586 Clouds 5 1008 81 10000 5.1 290 21:57 09.12.2019
6587 Clouds 5 1008 81 10000 5.1 290 21:38 09.12.2019
6588 Clouds 5 1007 87 10000 5.1 300 21:19 09.12.2019
6589 Clouds 5 1006 87 10000 5.1 310 20:57 09.12.2019
6590 Clouds 5 1006 87 10000 5.1 310 20:57 09.12.2019
6591 Clouds 5 1005 87 10000 5.7 300 20:39 09.12.2019
6592 Clouds 5 1005 87 10000 5.7 300 20:20 09.12.2019
6593 Clouds 5 1004 87 10000 6.2 290 19:56 09.12.2019
6594 Clouds 6 1003 87 10000 5.1 280 19:38 09.12.2019
6595 Clouds 6 1003 87 10000 5.1 280 19:19 09.12.2019
6596 Clouds 6 1002 87 10000 4.6 280 18:58 09.12.2019
6597 Clouds 6 1002 87 10000 4.6 280 18:39 09.12.2019
6598 Clouds 6 1001 87 10000 4.6 280 18:20 09.12.2019
6599 Clouds 6 1001 87 10000 5.1 280 17:58 09.12.2019
6600 Clouds 6 1001 87 10000 5.1 280 17:39 09.12.2019
6601 Clouds 6 1000 87 10000 4.6 280 17:20 09.12.2019
6602 Clouds 6 999 87 10000 5.1 280 16:56 09.12.2019
6603 Rain 6 998 87 10000 5.7 270 16:38 09.12.2019
6604 Rain 6 998 87 10000 5.7 270 16:19 09.12.2019
6605 Rain 6 998 93 10000 5.7 260 15:55 09.12.2019
6606 Rain 6 997 81 10000 5.1 260 15:37 09.12.2019
6607 Rain 6 997 81 10000 5.1 260 15:19 09.12.2019
6608 Rain 6 997 75 10000 7.7 250 14:57 09.12.2019
6609 Rain 6 997 75 10000 7.7 250 14:39 09.12.2019
6610 Clouds 7 996 75 10000 6.2 240 14:18 09.12.2019
6611 Clouds 7 996 66 10000 7.2 230 13:40 09.12.2019
6612 Clouds 7 996 66 10000 7.2 230 13:40 09.12.2019
6613 Clouds 8 996 70 10000 4.6 210 13:20 09.12.2019
6614 Clouds 8 996 70 10000 7.2 220 12:58 09.12.2019
6615 Clouds 8 996 70 10000 7.2 220 12:40 09.12.2019
6616 Clouds 8 996 70 10000 5.1 220 12:21 09.12.2019
6617 Clouds 8 996 65 10000 6.7 220 11:59 09.12.2019
6618 Clouds 8 996 65 10000 6.7 220 11:39 09.12.2019
6619 Clouds 7 996 65 10000 6.2 220 11:21 09.12.2019
6620 Clouds 7 996 65 10000 6.2 220 10:57 09.12.2019
6621 Clouds 7 996 65 10000 5.7 220 10:38 09.12.2019
6622 Clouds 7 996 65 10000 5.7 220 10:19 09.12.2019
6623 Clouds 7 996 65 10000 5.1 210 09:41 09.12.2019
6624 Clouds 7 996 70 10000 5.1 200 09:23 09.12.2019
6625 Clouds 6 996 70 10000 5.1 210 08:55 09.12.2019
6626 Clouds 7 996 70 10000 5.7 210 08:37 09.12.2019
6627 Rain 6 996 70 10000 5.7 210 08:19 09.12.2019
6628 Rain 6 996 70 10000 4.6 220 07:44 09.12.2019
6629 Clouds 7 996 70 10000 5.1 220 07:25 09.12.2019
6630 Rain 6 996 75 10000 4.6 220 06:55 09.12.2019
6631 Rain 6 996 81 10000 7.7 230 06:28 09.12.2019
6632 Rain 7 998 79 0 4.72 218 05:30 09.12.2019
6633 Clear 7 995 79 0 1.79 270 04:55 09.12.2019
6634 Clear 6 996 79 0 1.34 225 04:25 09.12.2019
6635 Clear 7 998 89 0 6.23 230 02:28 09.12.2019
6636 Clouds 7 996 82 0 2.24 270 01:45 09.12.2019
6637 Clouds 7 996 83 0 3.13 225 00:57 09.12.2019
6638 Clouds 7 998 88 0 8.46 241 00:32 09.12.2019
6639 Clouds 7 995 85 0 2.24 270 23:54 08.12.2019
6640 Clouds 7 996 81 0 1.34 270 23:36 08.12.2019
6641 Clouds 7 998 84 0 8.23 240 23:18 08.12.2019
6642 Clouds 7 996 78 0 1.34 270 22:56 08.12.2019
6643 Clouds 8 996 77 0 2.68 270 22:37 08.12.2019
6644 Clouds 8 999 82 0 8.23 240 22:18 08.12.2019
6645 Clouds 8 996 77 0 1.34 270 21:55 08.12.2019
6646 Clouds 8 996 79 0 2.24 270 21:36 08.12.2019
6647 Clouds 8 999 86 0 8.23 240 21:18 08.12.2019
6648 Clouds 8 997 80 0 1.34 270 20:54 08.12.2019
6649 Clouds 8 997 81 0 1.34 225 20:36 08.12.2019
6650 Clouds 8 997 70 10000 9.3 260 20:18 08.12.2019
6651 Clouds 8 997 70 10000 9.3 260 19:54 08.12.2019
6652 Clouds 8 997 70 10000 9.3 260 19:36 08.12.2019
6653 Clouds 8 997 70 10000 9.3 260 19:18 08.12.2019
6654 Clouds 9 997 76 10000 8.2 260 18:54 08.12.2019
6655 Clouds 9 997 76 10000 6.7 250 18:36 08.12.2019
6656 Clouds 9 997 76 10000 6.7 250 18:18 08.12.2019
6657 Clouds 9 997 81 10000 5.7 250 17:54 08.12.2019
6658 Clouds 9 997 87 10000 4.6 260 17:36 08.12.2019
6659 Clouds 9 997 87 10000 4.6 260 17:18 08.12.2019
6660 Clouds 9 997 81 10000 8.7 240 16:42 08.12.2019
6661 Rain 9 997 87 10000 6.7 240 16:23 08.12.2019
6662 Rain 10 997 87 10000 7.2 230 15:58 08.12.2019
6663 Rain 10 997 81 10000 7.7 230 15:37 08.12.2019
6664 Rain 10 997 81 10000 7.7 230 15:18 08.12.2019
6665 Rain 10 997 81 10000 7.7 230 15:18 08.12.2019
6666 Clouds 10 998 81 10000 8.2 230 14:46 08.12.2019
6667 Clouds 10 998 81 10000 8.7 230 14:25 08.12.2019
6668 Clouds 10 998 71 10000 8.2 230 13:59 08.12.2019
6669 Clouds 10 998 71 10000 8.2 230 13:41 08.12.2019
6670 Clouds 10 998 71 10000 8.2 230 13:22 08.12.2019
6671 Clouds 10 999 71 10000 7.2 220 12:59 08.12.2019
6672 Clouds 10 999 71 10000 7.2 220 12:40 08.12.2019
6673 Clouds 10 999 71 10000 7.7 230 12:20 08.12.2019
6674 Rain 10 1000 76 10000 7.7 230 11:58 08.12.2019
6675 Rain 10 1000 66 10000 6.7 230 11:38 08.12.2019
6676 Rain 9 1000 66 10000 6.7 230 11:19 08.12.2019
6677 Clouds 9 1000 70 10000 6.2 220 10:57 08.12.2019
6678 Clouds 9 1001 70 10000 5.7 220 10:38 08.12.2019
6679 Clouds 9 1001 70 10000 5.7 220 10:19 08.12.2019
6680 Clouds 9 1002 66 10000 6.7 220 09:55 08.12.2019
6681 Clouds 9 1002 70 10000 7.2 230 09:37 08.12.2019
6682 Clouds 8 1002 70 10000 7.2 230 09:18 08.12.2019
6683 Clouds 8 1005 84 0 9.88 227 08:43 08.12.2019
6684 Clouds 8 1005 84 0 9.88 227 08:43 08.12.2019
6685 Clouds 8 1002 81 0 2.68 270 08:23 08.12.2019
6686 Clouds 8 1005 82 0 7.13 221 07:58 08.12.2019
6687 Clouds 8 1006 82 0 7.13 221 07:40 08.12.2019
6688 Clouds 8 1006 82 0 7.13 221 07:19 08.12.2019
6689 Clouds 8 1007 83 0 7.13 221 06:41 08.12.2019
6690 Clouds 8 1007 84 0 7.13 221 06:21 08.12.2019
6691 Clouds 8 1005 80 0 2.24 270 05:27 08.12.2019
6692 Clouds 8 1005 81 0 1.79 292 04:57 08.12.2019
6693 Clouds 7 1009 87 0 6.75 231 03:41 08.12.2019
6694 Clouds 7 1010 84 0 6.75 231 02:52 08.12.2019
6695 Clouds 7 1011 85 0 6.75 231 02:28 08.12.2019
6696 Clouds 7 1011 85 0 5.89 233 01:48 08.12.2019
6697 Clouds 7 1012 84 0 6.23 232 00:59 08.12.2019
6698 Clouds 7 1012 84 0 6.23 232 00:38 08.12.2019
6699 Clouds 7 1013 84 0 6.23 232 00:19 08.12.2019
6700 Clouds 7 1010 91 0 6.23 232 23:40 07.12.2019
6701 Clouds 7 1010 91 0 6.23 232 23:40 07.12.2019
6702 Clouds 7 1013 87 0 7.75 243 23:20 07.12.2019
6703 Clouds 7 1010 88 0 0.89 270 22:56 07.12.2019
6704 Clouds 7 1013 88 0 7.75 243 22:38 07.12.2019
6705 Clouds 7 1011 81 10000 6.7 250 22:20 07.12.2019
6706 Clouds 7 1011 81 10000 6.7 250 21:56 07.12.2019
6707 Clouds 7 1011 81 10000 6.7 250 21:38 07.12.2019
6708 Clouds 7 1011 81 10000 6.7 250 21:19 07.12.2019
6709 Clouds 7 1011 81 10000 6.7 250 20:55 07.12.2019
6710 Clouds 7 1011 91 0 1.34 270 20:36 07.12.2019
6711 Rain 7 1011 81 10000 6.2 250 20:18 07.12.2019
6712 Rain 7 1011 81 10000 6.2 250 19:55 07.12.2019
6713 Rain 7 1011 81 10000 6.2 250 19:36 07.12.2019
6714 Rain 7 1011 81 10000 6.2 250 19:18 07.12.2019
6715 Rain 7 1011 81 10000 6.2 260 18:44 07.12.2019
6716 Clouds 8 1011 81 10000 5.1 260 18:19 07.12.2019
6717 Clouds 7 1011 81 10000 5.1 270 17:58 07.12.2019
6718 Clouds 8 1011 81 10000 5.1 270 17:39 07.12.2019
6719 Clouds 8 1010 76 10000 6.7 270 17:21 07.12.2019
6720 Clouds 8 1010 76 10000 6.7 270 16:56 07.12.2019
6721 Clouds 8 1010 76 10000 6.7 270 16:38 07.12.2019
6722 Clouds 8 1010 76 10000 6.7 270 16:19 07.12.2019
6723 Clouds 8 1009 81 10000 7.2 250 15:56 07.12.2019
6724 Clouds 8 1009 87 10000 4.6 270 15:38 07.12.2019
6725 Clouds 8 1009 87 10000 4.6 270 15:18 07.12.2019
6726 Clouds 8 1009 81 10000 6.7 270 14:42 07.12.2019
6727 Clouds 8 1009 81 10000 6.7 270 14:19 07.12.2019
6728 Clouds 8 1008 81 10000 7.2 270 13:41 07.12.2019
6729 Clouds 8 1008 81 10000 5.7 270 13:21 07.12.2019
6730 Clouds 8 1008 87 10000 7.2 260 12:59 07.12.2019
6731 Clouds 8 1008 87 10000 7.2 260 12:40 07.12.2019
6732 Clouds 8 1008 93 7000 7.2 270 12:22 07.12.2019
6733 Clouds 8 1008 81 10000 7.2 270 11:58 07.12.2019
6734 Clouds 8 1008 81 10000 7.2 270 11:40 07.12.2019
6735 Clouds 8 1008 81 10000 7.2 270 11:21 07.12.2019
6736 Clouds 8 1007 81 10000 7.2 270 10:38 07.12.2019
6737 Clouds 8 1007 81 10000 7.2 270 10:20 07.12.2019
6738 Clouds 8 1006 81 10000 7.7 260 09:58 07.12.2019
6739 Clouds 8 1006 87 10000 7.7 270 09:37 07.12.2019
6740 Clouds 8 1006 87 10000 7.7 270 09:18 07.12.2019
6741 Clouds 7 1009 90 0 9.34 259 08:41 07.12.2019
6742 Rain 7 1009 90 0 9.26 261 08:21 07.12.2019
6743 Rain 8 1005 92 0 1.34 270 07:46 07.12.2019
6744 Rain 8 1005 92 0 1.34 270 07:26 07.12.2019
6745 Rain 7 1007 93 0 9.26 261 06:50 07.12.2019
6746 Rain 7 1004 91 0 1.34 270 06:25 07.12.2019
6747 Rain 7 1004 93 0 1.79 270 05:34 07.12.2019
6748 Rain 6 1004 95 0 2.24 227 04:19 07.12.2019
6749 Rain 6 1002 93 0 3.58 270 03:44 07.12.2019
6750 Rain 6 1004 95 0 2.24 206 02:21 07.12.2019
6751 Rain 6 1002 91 0 1.79 270 01:35 07.12.2019
6752 Rain 6 1002 91 0 1.79 270 00:57 07.12.2019
6753 Rain 5 1